ECMWFFLT1_sfc_dewp_000.txt.gz
Dewpoint
59 60 60 61 62 62 60 61 64 63 64 66 68 67 66 69 69 69 70 71 73 73 74 74 75 76 75 75 75 74 74 74 74 73 73 72 71 71 71 70 70 71 69 68 69 68 69 69 68 68 68 67 67 67 67 66 65 63 65 65 65 65 64
57 59 59 60 61 62 62 62 64 64 65 67 68 68 66 69 70 69 70 73 74 75 74 74 76 76 76 76 75 75 75 75 75 74 73 72 72 73 71 72 71 71 71 70 69 70 69 67 68 67 67 67 66 67 66 66 66 65 64 64 64 64 65
55 57 59 60 61 60 63 63 65 65 66 64 65 66 67 69 71 72 71 72 75 76 74 74 75 76 76 77 76 76 75 75 75 74 73 71 72 71 72 72 72 70 71 71 71 69 69 68 68 68 67 67 66 66 66 66 66 65 65 64 64 63 65
57 56 58 61 63 63 63 63 65 64 62 63 64 65 68 70 71 73 73 73 74 75 75 74 75 76 76 77 77 76 76 77 75 73 72 71 71 71 71 72 73 71 71 71 70 69 68 68 68 68 67 67 67 66 66 66 65 65 65 64 63 63 63
56 57 57 60 61 62 63 63 64 65 60 60 64 67 68 70 71 72 73 73 70 72 73 73 72 75 77 78 77 76 76 77 76 75 73 72 72 72 72 71 72 70 71 72 72 71 70 68 68 68 67 68 67 67 66 65 64 65 65 65 64 63 62
55 57 58 58 59 61 63 62 60 59 58 57 60 65 66 68 68 67 70 73 71 70 74 74 73 75 77 77 76 77 77 78 77 76 75 74 74 73 73 73 73 73 72 73 72 71 70 69 66 67 67 66 66 65 65 65 64 64 65 65 65 63 61
54 58 58 59 59 61 62 61 58 55 58 58 59 64 65 64 66 65 66 68 70 71 71 72 73 74 77 76 77 77 78 76 77 76 75 76 76 75 74 75 74 73 73 73 71 70 70 69 68 69 68 67 67 66 66 66 65 64 64 64 64 64 64
55 57 60 60 60 59 59 62 59 56 58 60 59 61 64 63 63 64 64 65 68 67 69 69 72 75 77 77 76 77 77 77 77 77 77 76 76 75 75 74 73 73 73 71 71 71 70 70 69 69 68 67 67 67 66 67 66 62 63 63 63 64 63
56 60 61 59 60 58 59 61 62 60 61 63 63 64 65 65 63 63 64 64 67 68 68 67 69 73 77 77 77 77 77 77 77 76 76 75 75 73 72 72 72 72 70 70 70 70 70 69 69 70 70 69 69 68 67 67 65 64 62 63 64 64 63
59 62 64 61 60 58 60 60 63 66 65 67 67 67 66 66 67 65 65 65 66 68 68 68 67 71 76 76 76 76 77 76 76 75 73 73 72 71 71 73 70 70 70 69 70 68 69 69 69 69 69 69 69 69 68 66 65 64 63 64 65 65 64
60 63 64 61 61 61 61 59 62 67 68 70 70 67 68 68 68 66 67 67 66 67 68 69 68 68 73 74 74 75 77 76 74 74 73 72 71 70 68 67 69 66 66 67 68 68 70 69 69 69 70 70 69 69 68 65 65 65 64 64 65 65 63
65 64 66 65 64 62 62 65 67 69 70 72 70 69 70 71 69 68 69 70 68 68 69 69 68 67 70 73 73 76 75 74 73 72 71 70 69 68 66 63 65 65 67 68 68 67 69 69 69 68 68 69 69 69 68 67 66 66 65 63 64 64 64
64 65 66 64 65 65 68 69 70 71 72 72 70 70 70 70 70 70 72 72 70 70 70 71 71 71 70 71 72 76 75 73 73 73 71 70 70 68 65 63 64 66 68 67 66 66 67 70 69 68 69 69 69 69 68 67 66 66 67 66 65 64 65
66 63 64 66 66 67 68 70 72 73 73 72 71 72 72 71 70 71 72 72 71 70 70 71 72 72 73 74 74 77 74 74 75 72 70 69 71 67 66 67 66 68 69 69 67 69 69 66 64 65 67 68 68 68 67 67 66 66 67 67 66 65 64
61 60 63 64 67 69 70 71 72 72 72 72 71 72 72 72 72 73 74 73 73 70 71 72 73 74 74 75 75 76 74 73 72 72 71 70 69 67 65 65 65 68 69 69 67 66 65 63 67 66 67 68 68 68 67 67 66 66 67 68 67 66 65
58 59 60 62 65 67 69 70 72 73 74 74 73 73 72 73 73 73 73 72 72 73 71 73 74 75 74 74 74 73 73 72 71 70 69 68 68 67 66 66 64 65 68 68 66 64 64 63 63 66 67 67 67 68 67 67 66 66 64 66 68 68 67
59 59 60 62 66 66 69 70 71 73 73 74 73 74 73 74 74 73 71 71 71 74 72 72 75 75 74 74 73 72 71 70 70 69 69 69 70 69 67 66 65 64 67 67 66 64 63 63 62 64 66 66 67 67 67 67 67 63 62 63 64 67 67
59 62 61 61 64 66 68 68 70 72 73 72 73 74 74 75 74 73 72 72 72 72 73 73 74 74 75 75 73 71 70 69 69 69 69 70 70 70 68 67 67 67 68 67 65 64 63 63 64 66 66 66 66 65 64 66 63 61 61 61 61 63 67
61 63 64 65 66 67 66 66 70 72 71 71 72 73 73 75 73 74 74 74 74 74 73 73 72 74 75 75 74 73 70 69 68 68 69 69 69 69 69 69 68 68 67 67 67 66 65 64 65 67 67 67 66 63 63 64 63 61 60 60 60 61 62
59 62 64 64 65 65 67 68 69 69 70 72 72 71 72 74 74 74 74 73 74 74 75 75 74 74 75 75 74 72 72 69 68 68 68 68 68 68 69 69 68 67 66 65 67 67 66 66 67 67 68 67 66 65 65 65 62 60 59 59 59 59 61
61 63 63 65 67 65 67 67 68 70 70 69 68 71 73 72 73 73 72 74 73 75 75 75 75 75 75 74 73 72 71 70 69 67 67 67 67 68 68 68 68 67 66 65 65 66 66 66 67 66 67 66 64 65 66 65 60 59 59 57 57 58 61
56 59 60 63 66 67 68 66 68 67 69 69 71 70 69 70 70 70 71 72 74 75 76 76 75 74 74 73 72 72 71 70 69 69 68 67 67 67 67 68 68 67 67 66 64 65 64 66 65 66 66 65 64 64 66 63 60 59 58 57 56 59 64
53 57 59 63 61 66 68 68 68 67 68 68 68 68 67 67 67 67 68 71 73 76 75 75 75 74 74 72 71 70 70 69 68 68 67 67 67 67 66 67 67 68 68 67 64 63 63 64 63 65 65 65 66 65 65 64 62 57 56 56 57 60 66
58 61 61 62 68 67 68 66 65 66 65 67 66 65 65 65 67 70 71 73 74 74 75 75 74 73 73 71 70 70 69 69 68 68 68 68 68 68 68 67 68 68 68 66 64 62 62 63 64 65 66 65 64 63 63 63 62 56 55 55 56 61 65
54 58 62 64 64 63 62 65 67 66 68 68 63 67 68 70 71 72 73 73 74 74 74 74 73 72 72 71 70 70 69 68 68 67 68 68 68 68 67 67 67 67 67 66 66 65 66 64 63 64 65 63 62 64 61 59 60 55 54 54 55 63 67
61 61 62 63 63 66 69 70 69 68 67 66 71 72 73 73 73 73 73 73 73 72 72 73 73 73 72 71 71 70 70 69 69 69 68 68 68 67 66 66 66 66 66 65 65 63 63 62 63 63 62 61 61 61 60 58 62 65 54 52 53 58 66
63 63 64 64 67 69 70 69 67 63 63 72 74 73 74 74 73 73 74 73 72 71 71 72 73 72 71 71 70 69 69 70 69 68 68 68 67 65 65 64 65 65 66 62 61 63 62 60 60 60 61 58 59 58 60 58 57 68 52 51 52 54 56
63 64 65 68 69 65 60 58 64 66 70 74 74 74 74 74 74 74 73 71 70 70 71 72 73 72 71 70 70 69 69 69 69 69 68 67 66 65 64 64 64 63 61 58 60 61 61 61 61 58 58 59 58 60 59 64 66 64 55 52 51 52 54
62 61 62 63 64 61 58 62 64 68 71 71 72 71 72 72 74 73 72 71 71 71 72 72 72 72 71 70 69 70 70 70 69 68 67 66 65 64 63 62 62 62 62 60 60 61 61 61 60 60 59 60 61 60 66 69 65 61 63 52 51 50 51
57 56 52 50 50 54 60 70 72 72 71 69 69 69 71 74 74 73 73 73 73 72 73 73 73 72 70 69 69 70 69 69 68 67 66 66 65 63 63 62 61 61 60 60 60 61 62 60 59 59 57 57 57 61 66 67 66 60 60 59 52 50 50
52 52 51 52 49 55 58 66 71 70 69 69 71 73 75 74 74 73 74 74 73 73 72 72 72 70 69 69 69 69 69 68 67 66 64 63 62 62 62 61 61 60 62 62 61 61 60 59 58 58 57 55 56 61 64 65 65 64 61 57 53 51 50
62 57 55 58 64 61 57 58 61 64 66 68 69 70 72 71 71 74 72 72 72 72 73 72 71 69 68 68 68 68 67 67 66 65 64 63 62 63 63 62 60 60 61 60 59 60 58 58 57 57 58 58 58 60 63 64 63 64 64 57 54 54 51
65 66 65 64 67 66 59 57 58 62 63 65 65 64 64 68 71 73 72 72 72 72 72 71 70 69 69 68 68 68 67 67 64 63 63 63 62 61 61 62 61 61 62 61 59 60 59 59 59 59 57 57 58 61 62 63 63 63 62 61 58 58 55
67 66 67 67 68 67 64 60 60 62 65 67 67 67 66 66 68 70 71 70 70 70 70 70 69 68 68 67 67 66 65 65 65 63 61 61 60 60 59 61 61 60 61 60 60 59 59 59 58 57 56 56 57 60 62 62 63 63 62 62 62 59 59
67 68 68 67 68 67 65 64 63 65 66 67 67 68 70 71 71 70 71 69 68 70 68 68 67 68 67 66 65 65 65 64 63 62 62 61 62 62 62 64 62 62 61 65 65 63 59 59 56 57 55 56 58 58 59 58 60 58 60 67 56 66 55
63 63 65 66 67 68 68 67 66 66 67 68 68 68 69 69 69 69 67 67 68 69 69 68 67 67 65 65 64 63 63 63 61 62 62 61 61 59 55 48 43 51 59 59 53 47 42 46 59 56 56 50 52 62 57 54 62 47 44 43 42 41 41
61 61 61 64 66 66 67 68 68 68 68 68 68 67 67 68 67 68 67 68 69 68 68 68 67 65 64 65 63 64 64 63 62 64 64 62 61 59 56 52 51 39 40 46 47 43 39 39 40 43 47 58 58 53 45 47 45 43 43 42 41 40 40
55 59 59 59 62 66 67 67 67 67 67 68 67 67 68 66 67 69 67 68 68 68 69 67 65 63 61 61 63 64 64 63 64 64 64 63 63 62 60 59 59 55 42 39 42 41 39 39 39 40 44 44 51 55 55 46 41 42 41 41 40 40 39

ECMWFFLT1_sfc_dewp_003.txt.gz
Dewpoint
54 52 54 58 57 58 60 63 64 63 63 64 65 65 64 66 68 69 69 71 72 73 74 74 74 73 73 73 74 74 73 74 74 73 72 72 72 73 71 70 71 71 69 69 70 69 71 69 67 65 66 66 66 66 67 67 66 64 65 66 65 65 65
44 47 46 52 56 57 60 63 65 64 64 64 64 66 65 67 68 67 69 71 72 73 74 74 74 73 73 74 73 74 74 74 74 74 73 73 73 73 72 72 71 71 70 70 71 70 69 67 67 66 66 66 66 67 66 67 67 66 65 65 64 64 64
52 54 53 52 56 58 61 61 63 63 65 64 64 65 66 69 68 69 70 70 72 72 73 74 75 74 74 74 73 74 74 73 74 73 72 71 72 70 71 72 71 70 69 70 69 69 68 68 67 68 66 66 65 66 66 66 66 65 65 65 64 63 65
43 53 53 54 58 61 62 61 62 63 63 63 64 64 66 69 68 68 69 70 71 72 73 74 74 74 74 74 73 73 73 74 74 73 72 71 71 71 71 71 71 70 69 68 68 68 67 68 67 68 67 67 66 66 66 65 65 65 65 65 65 64 64
41 42 48 53 55 59 62 61 61 63 62 61 63 67 67 67 67 68 68 68 68 71 71 72 71 73 74 74 73 72 73 74 73 73 72 72 72 72 70 69 69 69 70 68 70 70 70 69 68 68 67 68 66 67 65 65 65 66 65 65 65 65 62
37 43 53 52 57 59 62 61 60 60 60 60 62 63 64 65 65 66 67 69 68 69 72 72 72 73 73 72 72 72 73 74 74 75 73 72 72 70 69 69 71 69 67 69 70 70 69 67 67 68 66 65 65 64 64 64 63 64 65 66 66 64 62
38 47 53 56 57 58 61 62 59 59 60 60 61 63 65 64 63 63 65 66 65 69 70 70 70 71 72 72 73 74 73 72 73 73 72 71 71 71 70 70 71 69 72 73 72 71 70 69 69 69 68 67 67 65 66 67 66 65 66 67 67 68 66
40 47 54 56 56 56 60 62 60 58 60 61 60 63 63 61 60 61 63 64 64 64 68 65 69 71 73 73 72 73 73 72 72 72 73 72 72 70 69 70 71 71 74 72 72 72 69 70 67 68 69 67 68 69 68 69 68 65 65 66 66 65 64
38 49 54 50 55 55 58 62 61 60 62 62 61 62 60 60 60 60 62 63 64 63 65 65 65 68 73 74 74 74 73 73 72 73 72 70 69 68 70 70 72 73 72 72 72 72 71 70 69 70 70 68 69 69 67 68 67 66 65 65 65 64 63
54 53 54 52 54 53 57 60 63 64 63 63 62 64 62 61 60 59 60 61 60 60 61 62 62 63 70 72 73 74 74 74 73 71 69 68 70 71 70 73 72 72 72 71 72 72 73 72 71 71 70 69 68 68 68 68 67 66 66 64 63 64 64
53 60 60 57 59 59 60 60 64 67 65 65 64 58 63 62 60 60 60 58 57 59 59 59 60 60 65 69 72 73 75 73 72 71 70 69 69 69 71 71 69 70 69 70 70 70 72 72 72 72 71 69 69 69 70 68 68 67 64 63 63 63 63
58 56 59 63 64 61 61 66 69 73 71 67 64 58 65 66 60 57 58 59 57 57 59 58 59 59 61 68 71 73 73 74 71 72 71 68 67 69 71 69 69 68 68 68 67 71 72 72 71 71 71 71 71 71 70 69 68 67 65 61 62 63 64
46 59 59 59 65 64 68 71 70 71 72 66 59 60 61 61 60 58 63 62 57 57 59 63 63 64 61 63 69 72 73 73 73 74 72 71 71 72 72 69 68 67 66 67 68 69 70 69 70 70 70 71 70 70 70 68 66 65 64 64 64 64 65
58 52 63 66 66 66 67 70 71 71 71 66 62 62 60 61 62 62 62 61 60 57 58 63 64 63 65 69 73 75 74 73 74 74 74 72 74 73 71 70 70 69 69 70 70 67 67 67 68 69 68 68 68 67 66 64 63 63 64 64 64 65 65
49 52 59 65 67 68 68 67 70 70 68 67 64 63 62 62 64 66 65 62 65 58 61 64 66 66 64 68 72 74 76 76 75 75 75 74 74 73 71 71 72 72 73 72 70 67 66 66 66 67 66 65 64 63 63 63 63 63 62 63 64 65 64
29 51 60 61 66 65 68 68 69 70 71 71 68 67 64 66 69 66 64 62 61 64 63 64 69 71 68 66 71 74 77 77 76 76 75 75 75 73 72 71 72 71 72 71 69 68 67 66 66 65 64 65 65 64 62 62 63 61 60 62 64 65 66
32 33 36 43 56 65 68 69 69 70 71 72 71 71 70 69 68 66 64 65 65 68 64 62 73 73 72 72 72 75 77 77 76 75 75 74 74 73 73 72 72 72 72 71 70 69 69 68 68 65 64 64 65 63 64 63 61 61 61 61 64 66 67
35 41 39 38 53 65 69 69 70 72 72 71 71 72 71 72 70 69 68 68 67 67 65 68 69 69 73 72 76 78 77 75 75 75 74 74 73 72 72 72 72 72 71 71 70 71 70 69 69 66 63 63 63 63 64 62 60 60 61 62 62 65 67
35 35 39 59 61 64 65 67 69 73 72 72 70 71 70 72 70 71 70 72 71 72 68 66 68 73 74 77 77 76 76 75 74 74 74 73 73 72 71 71 71 71 70 69 70 70 70 70 68 66 64 64 65 63 62 60 60 60 61 61 61 63 66
34 33 34 52 58 55 65 69 69 72 73 73 71 69 71 73 72 72 71 71 72 72 73 73 73 75 76 77 77 75 75 74 74 73 73 73 72 72 71 71 71 70 70 69 70 70 69 68 68 67 66 66 66 64 62 62 60 60 60 60 61 62 64
44 40 57 58 57 55 66 69 70 72 73 72 71 71 73 73 73 73 71 72 72 74 76 75 76 76 77 76 76 76 76 75 74 73 73 74 73 73 72 71 70 69 69 67 68 69 69 67 67 67 67 65 65 64 62 60 59 59 59 59 59 60 62
36 51 56 56 64 67 69 67 69 67 71 71 70 70 71 72 72 71 68 69 72 74 75 76 76 75 76 75 75 75 74 73 73 73 74 73 73 73 72 72 72 70 69 68 66 67 67 67 65 65 66 66 65 64 64 61 58 58 58 58 58 60 64
39 41 45 58 58 63 68 69 69 68 73 71 69 69 71 71 70 69 69 72 73 76 75 75 75 74 77 76 75 73 73 73 73 74 73 74 73 72 72 72 72 72 71 69 66 64 64 65 63 66 66 66 66 65 65 62 61 57 57 57 57 59 65
41 40 40 51 60 61 70 70 70 71 71 71 71 72 71 71 73 73 74 74 74 75 75 75 75 76 76 75 74 73 73 73 72 72 72 72 72 72 72 71 71 70 70 68 66 63 62 63 64 66 66 66 65 63 63 61 62 55 55 55 56 59 65
40 35 46 54 58 63 67 68 69 68 71 70 68 72 74 75 74 74 74 74 75 76 75 74 74 74 74 74 74 73 73 72 72 72 72 71 71 70 70 69 69 68 68 66 66 66 65 63 64 63 65 61 63 65 63 61 63 54 55 54 54 60 65
48 47 51 52 56 63 69 71 71 71 69 71 73 72 73 73 73 74 74 75 75 74 74 74 75 74 74 72 72 73 72 72 73 73 72 71 71 71 70 69 68 67 67 66 65 64 63 63 64 64 63 63 64 64 63 63 66 62 54 53 54 56 67
54 53 53 55 61 68 69 70 69 68 68 70 72 71 72 73 72 74 75 75 75 74 74 74 74 74 73 73 71 70 71 72 71 72 72 72 71 69 68 67 67 67 67 65 63 63 65 64 64 64 63 61 63 62 63 62 63 65 53 53 53 55 59
55 54 58 62 67 67 67 65 68 67 67 71 70 71 71 73 74 75 75 74 74 75 74 74 74 74 73 73 72 71 71 71 72 72 71 71 71 70 67 66 68 68 67 64 64 65 65 65 64 63 62 61 60 62 62 64 65 68 55 53 52 53 54
60 58 60 66 67 67 65 66 66 66 70 68 70 71 72 74 75 75 74 73 73 73 75 74 74 74 73 72 71 71 70 71 72 71 71 71 71 69 68 67 68 69 69 66 65 65 65 64 63 60 60 61 61 62 64 66 67 61 61 52 51 52 53
64 65 67 66 65 65 64 68 71 71 70 67 68 67 70 73 72 71 72 73 73 74 74 74 74 73 72 71 70 69 69 70 71 71 71 71 70 69 67 67 68 68 67 65 63 61 62 62 61 60 58 57 58 59 59 64 67 60 58 57 52 51 50
64 63 61 62 62 69 69 68 69 68 65 63 64 64 67 69 72 72 72 73 74 74 73 73 73 72 71 70 69 69 70 71 70 70 70 69 68 68 67 67 66 65 65 63 61 61 62 62 61 61 59 58 58 57 59 62 67 64 60 56 53 51 50
59 60 60 62 66 67 68 68 69 70 70 72 72 74 75 72 72 73 74 75 75 74 74 73 72 71 70 70 70 70 69 70 70 70 69 68 67 67 66 66 63 62 62 59 58 61 62 62 59 59 59 58 56 56 58 61 62 64 62 57 55 54 51
62 59 59 59 60 62 62 63 62 63 63 65 68 69 70 73 74 75 75 75 75 74 73 72 71 70 70 70 70 70 70 69 67 66 66 67 66 65 65 64 62 62 61 59 57 60 60 60 58 57 54 55 54 55 57 59 60 62 64 61 60 60 57
66 63 62 62 63 63 62 61 62 64 65 64 63 65 68 71 72 73 74 73 72 71 72 71 70 69 69 69 69 69 68 67 67 66 64 64 63 62 61 62 60 59 61 60 59 59 58 57 55 54 55 54 53 56 57 59 61 61 60 61 62 61 60
68 68 65 62 63 65 65 66 66 68 68 69 70 71 71 72 72 72 72 71 70 71 70 68 68 69 68 67 67 67 68 66 66 64 64 64 64 67 68 67 61 60 62 68 67 65 58 59 57 57 55 54 55 56 56 59 60 61 56 67 56 60 58
64 65 65 64 64 66 68 69 70 70 70 70 71 71 71 71 70 70 68 68 69 69 69 69 67 67 65 65 65 65 65 64 63 64 63 62 64 63 57 48 42 48 66 60 51 47 44 49 60 56 58 59 61 61 59 60 56 52 51 50 51 49 50
62 63 64 65 65 66 67 68 69 69 69 69 70 70 70 70 68 68 67 69 69 68 70 68 66 65 64 65 63 64 64 63 62 63 64 63 62 62 61 58 56 41 40 46 47 43 40 39 41 44 47 60 58 55 47 47 45 43 44 45 43 42 41
60 60 61 64 66 67 67 67 68 68 68 68 69 68 69 67 68 69 68 70 69 69 70 69 68 66 65 65 65 65 66 63 63 62 62 63 63 62 62 61 61 58 45 40 42 42 40 40 39 39 41 42 50 56 58 48 42 42 41 41 41 40 40

ECMWFFLT1_sfc_dewp_006.txt.gz
Dewpoint
48 51 52 56 56 59 59 62 64 64 65 67 67 67 66 67 69 70 71 73 74 75 75 76 76 75 75 74 75 76 76 76 76 75 75 75 74 75 75 73 73 73 73 72 72 72 73 73 71 70 70 69 69 70 71 70 71 69 71 70 70 71 68
46 50 53 55 56 57 60 62 64 66 66 66 67 68 67 68 70 70 71 73 74 75 75 76 76 75 74 74 75 76 76 76 76 76 75 76 76 75 74 74 73 74 74 73 74 74 72 71 70 70 70 70 69 70 69 71 70 70 68 70 69 70 71
45 54 56 57 58 59 61 60 64 63 64 64 65 66 67 69 70 71 72 73 74 75 75 75 75 75 75 75 74 75 76 75 76 75 74 74 74 71 73 74 74 74 73 74 73 72 71 70 71 70 69 69 68 70 69 70 70 69 69 69 68 68 69
49 56 55 55 56 59 60 60 63 64 63 64 63 64 67 69 70 71 72 72 74 74 75 75 75 74 74 75 75 75 75 75 76 74 73 73 74 73 74 74 74 73 73 71 71 70 69 70 69 70 71 69 69 68 68 68 67 68 68 70 69 68 68
54 52 50 52 53 58 60 61 61 64 62 61 62 65 67 69 69 69 71 71 71 73 73 74 73 73 74 75 74 74 75 75 75 74 74 73 74 74 73 71 72 70 71 70 71 71 71 70 68 70 69 71 69 69 68 68 67 68 68 69 70 68 68
50 50 52 53 54 56 59 57 55 56 56 59 63 64 65 65 65 65 66 70 70 71 73 74 74 74 74 73 73 74 75 75 76 75 74 74 74 73 72 72 71 70 70 70 70 70 71 69 69 69 68 68 66 67 67 67 66 67 68 68 68 67 66
49 51 52 51 51 53 58 59 57 56 57 61 63 63 63 64 65 64 64 66 67 70 71 72 72 72 74 73 74 74 74 74 75 75 74 74 74 73 72 72 72 70 70 71 70 70 70 70 70 70 69 67 67 66 67 67 66 67 68 68 68 68 68
53 54 55 54 51 49 53 58 58 57 59 64 63 62 63 63 64 64 64 65 65 67 69 70 71 73 74 74 74 74 74 73 74 74 74 73 73 72 72 71 72 72 71 70 71 71 69 70 69 70 69 67 68 68 67 68 68 66 68 68 68 66 66
45 52 53 48 45 45 51 57 58 60 63 65 64 65 63 63 63 63 64 63 65 67 69 69 70 71 74 74 74 74 74 73 74 74 74 72 72 70 70 71 72 71 70 69 70 71 71 71 69 70 69 68 68 69 68 69 68 67 67 67 68 67 65
61 49 50 46 46 48 58 61 64 65 63 65 66 67 65 65 65 64 63 63 65 66 68 69 69 70 73 73 73 73 74 74 73 72 71 70 70 68 68 69 69 70 70 70 70 71 72 72 70 70 70 69 69 69 68 69 68 67 67 67 68 67 67
58 59 58 55 57 60 62 61 65 66 66 68 67 65 66 65 65 63 64 62 64 65 66 67 68 69 71 71 70 71 73 72 72 72 71 70 69 68 67 67 67 68 71 72 71 72 73 73 70 70 70 69 70 69 69 69 69 68 67 67 67 67 66
60 60 60 59 62 61 59 63 64 66 67 68 67 65 67 67 65 64 64 64 64 64 64 66 68 68 69 70 69 71 72 72 71 70 71 70 69 68 67 66 67 68 70 71 71 73 73 72 70 70 70 69 69 69 69 69 69 68 67 65 65 65 65
58 60 59 58 62 63 64 67 66 66 67 64 64 66 66 66 65 65 67 66 64 64 64 67 68 70 69 69 68 71 71 71 71 72 71 72 71 71 69 67 66 67 70 70 71 71 73 72 71 71 69 69 68 68 68 69 69 69 68 67 65 65 65
65 60 61 63 64 65 65 67 67 66 66 66 66 66 66 66 65 65 65 64 64 63 63 64 68 67 68 69 70 72 71 71 73 73 73 72 72 72 70 69 69 70 72 71 70 71 73 72 71 70 70 69 69 68 69 70 69 69 68 66 65 65 65
53 53 59 60 66 65 65 65 67 67 66 68 67 65 65 65 65 65 66 64 64 62 63 65 66 67 67 69 71 73 73 74 74 74 74 73 72 72 71 71 72 73 73 72 70 72 72 72 72 71 70 70 70 70 70 69 68 68 67 65 65 65 64
33 38 49 62 67 69 71 69 70 71 71 71 68 66 63 65 65 64 64 63 62 63 62 65 66 67 66 68 70 73 74 75 75 75 75 74 72 72 73 72 72 73 73 72 71 71 72 71 71 69 69 70 70 69 69 69 68 65 61 62 64 64 65
37 41 38 60 67 66 70 72 73 76 74 72 68 66 64 64 65 65 60 60 59 62 61 64 66 66 65 66 69 73 75 76 76 76 75 75 74 73 73 73 73 73 72 72 72 71 71 70 69 67 67 69 68 68 68 67 65 60 59 60 62 64 65
43 50 50 60 64 65 70 71 72 73 74 72 69 67 64 65 65 64 60 60 59 57 59 65 66 66 67 68 71 75 75 75 76 76 76 75 75 74 74 74 74 73 73 73 73 72 70 69 69 68 67 67 67 66 65 64 61 58 58 59 60 62 66
41 41 59 55 61 69 66 66 68 71 70 69 68 66 64 64 64 65 63 62 62 61 58 65 66 67 68 68 71 76 76 76 76 76 76 76 75 75 75 75 74 74 74 73 73 71 70 69 67 66 66 66 65 63 63 62 59 58 58 59 59 61 65
42 40 41 51 53 59 66 68 66 68 69 70 70 66 65 64 63 65 64 63 64 64 63 68 68 69 68 69 71 73 75 76 77 76 76 76 77 77 76 75 74 73 73 72 72 72 71 69 68 68 68 67 66 66 64 63 58 57 57 58 59 60 63
50 48 53 58 64 59 68 72 71 71 71 67 65 68 68 66 65 66 65 66 65 66 67 67 71 71 70 70 73 76 78 77 78 77 77 78 77 76 75 75 74 73 73 71 71 71 71 70 71 69 67 66 66 66 66 64 57 56 56 57 58 59 62
40 42 44 45 62 64 71 70 71 67 71 69 70 68 67 65 63 62 62 63 66 68 69 70 75 75 73 73 78 79 78 78 78 77 77 76 76 75 75 74 74 73 73 71 70 71 70 70 69 68 67 68 67 65 67 64 56 57 57 57 57 60 65
27 32 36 47 50 66 73 70 71 68 74 74 70 69 68 67 66 66 65 64 65 72 71 72 75 76 77 79 78 78 77 77 77 76 76 75 75 75 74 74 74 73 73 70 69 68 68 69 67 68 67 67 68 66 66 65 58 57 56 57 57 60 66
23 34 38 40 45 62 71 71 72 71 71 72 72 69 70 69 70 71 71 69 71 72 72 74 79 77 78 78 77 77 77 77 76 75 75 75 75 74 74 73 74 73 73 71 68 65 66 67 68 68 67 67 66 65 66 65 60 55 56 56 56 61 66
17 25 31 39 42 55 65 69 69 66 69 70 69 71 73 73 72 73 73 72 72 74 74 76 78 77 77 77 77 77 77 76 75 75 75 75 74 74 74 73 73 73 73 70 70 68 68 67 66 66 67 65 66 67 65 63 61 54 55 55 55 61 66
44 36 37 40 36 41 69 74 74 69 67 68 72 73 74 74 74 74 74 73 73 72 73 75 77 77 76 76 76 76 76 76 76 75 75 75 75 74 74 73 73 73 72 71 70 69 67 67 65 66 66 65 67 66 64 65 64 59 54 54 54 58 67
50 47 46 35 40 55 71 73 71 70 64 68 74 73 74 75 75 75 75 75 75 73 72 76 77 77 76 76 74 74 75 75 75 74 75 75 74 73 72 71 71 71 70 69 67 68 68 67 65 65 65 63 64 63 65 65 64 60 53 53 54 56 59
54 51 49 57 65 66 71 68 72 71 68 75 76 75 75 76 75 76 76 76 75 76 75 78 77 77 76 75 74 73 74 74 74 74 74 74 73 73 71 71 71 69 68 66 68 69 69 69 69 66 66 66 65 68 68 67 66 62 54 53 52 53 54
58 52 56 58 65 67 67 68 68 67 70 71 72 72 75 75 77 77 76 76 76 75 76 76 75 75 74 74 73 73 73 73 74 74 73 73 72 71 71 71 69 69 69 70 69 69 68 69 69 68 67 68 68 67 68 69 67 60 59 53 51 51 52
58 57 53 52 53 68 67 71 72 72 72 69 72 73 74 75 76 76 76 76 76 75 74 74 74 74 73 72 72 72 72 73 73 73 72 72 71 71 70 70 71 71 70 71 70 69 68 68 67 66 64 62 64 64 66 69 69 61 59 57 52 51 51
64 62 61 62 58 66 67 72 73 72 72 72 74 76 77 77 76 75 75 76 75 75 74 74 74 73 73 72 72 72 73 73 73 72 72 71 71 71 70 69 70 70 71 69 68 68 68 67 66 66 67 65 64 64 66 67 67 64 61 57 54 52 51
68 68 68 68 66 67 67 68 69 69 72 74 76 76 76 75 75 75 76 76 75 75 75 74 73 73 72 72 73 73 73 72 72 72 72 71 71 70 70 69 68 68 69 66 65 66 66 66 63 63 63 64 62 62 64 67 66 64 60 58 56 54 52
67 68 69 67 68 71 71 69 66 67 69 70 71 72 72 73 75 75 75 75 75 74 74 73 72 71 72 72 72 72 72 71 70 69 69 69 68 68 68 68 67 66 66 64 62 63 64 63 63 62 60 62 61 61 64 66 66 63 61 60 58 58 56
66 67 68 67 67 67 66 67 67 67 68 68 70 71 72 73 73 73 74 73 73 73 73 72 71 70 70 70 70 70 70 70 70 70 68 67 66 66 65 67 66 64 64 62 62 63 63 62 62 61 60 59 58 60 64 63 65 64 62 60 60 60 59
67 68 68 68 68 70 69 70 70 71 69 70 72 72 73 74 74 73 73 73 72 71 70 69 69 70 69 68 69 69 70 69 69 68 68 67 67 60 60 69 65 63 62 57 60 64 59 62 60 59 55 54 56 58 62 60 63 65 58 62 56 59 58
65 66 67 68 67 68 67 68 68 69 70 71 73 73 73 73 73 72 70 70 70 70 70 70 69 68 68 68 68 68 67 67 66 66 67 64 62 58 54 48 42 53 61 56 52 48 48 54 60 58 61 60 60 60 58 60 61 56 53 52 51 52 52
65 64 66 65 67 68 69 70 71 71 71 71 71 70 70 70 70 71 70 71 70 69 70 70 69 67 66 67 66 66 66 65 65 66 67 64 62 60 59 56 52 42 43 47 47 43 41 41 41 44 47 65 59 55 47 53 51 48 49 48 47 46 45
61 63 64 64 66 68 68 69 69 69 70 70 70 69 69 66 67 70 69 70 70 70 71 70 69 67 66 66 67 67 67 64 65 65 66 65 64 63 63 60 58 56 44 40 43 42 41 40 40 40 42 45 55 56 56 48 45 45 45 44 43 42 42

ECMWFFLT1_sfc_dewp_009.txt.gz
Dewpoint
48 48 52 54 54 55 57 60 61 62 63 65 66 65 65 66 67 69 70 71 72 72 73 73 73 73 73 73 73 73 74 73 74 73 72 72 72 72 71 72 71 71 71 71 70 71 71 71 69 69 70 67 66 67 67 67 67 66 66 68 66 65 65
48 49 51 53 55 55 58 60 62 62 63 64 65 66 65 66 67 68 70 71 72 73 73 73 73 73 73 73 73 73 73 74 74 73 72 72 72 73 71 72 71 71 71 71 70 71 71 71 69 69 68 67 66 67 66 66 67 66 65 66 65 66 64
49 50 51 53 56 57 60 61 62 62 62 63 64 65 65 66 66 68 70 71 72 73 73 73 73 73 73 73 73 73 73 74 74 73 72 72 72 72 72 71 71 71 71 71 71 70 70 70 69 68 66 66 66 67 65 66 67 66 66 66 65 65 65
50 51 52 54 57 57 59 61 62 62 62 62 63 65 65 65 66 68 70 71 72 73 73 73 73 73 73 73 73 73 73 74 74 73 73 72 72 72 72 71 72 71 71 70 71 70 70 70 68 68 69 66 66 66 66 66 66 66 66 65 65 65 64
50 50 52 54 55 57 58 60 61 62 61 62 63 65 65 65 66 68 69 71 72 72 73 73 73 73 73 73 73 73 73 73 73 73 73 72 72 72 72 71 71 71 71 70 71 70 69 69 68 67 67 66 67 66 67 67 66 66 66 65 64 66 64
47 48 51 53 54 56 58 58 59 60 61 61 62 64 65 65 66 67 68 71 71 72 73 73 73 73 73 73 72 73 73 73 74 73 73 72 72 72 71 71 71 71 71 71 70 70 69 69 68 67 67 66 67 66 66 66 66 65 66 66 65 65 65
46 47 49 52 54 55 56 57 58 59 60 61 62 65 65 65 65 66 68 69 71 72 72 73 73 73 73 73 72 73 73 73 73 73 73 72 72 71 71 71 71 70 70 70 70 69 68 68 67 67 67 66 66 66 66 66 65 65 65 66 67 65 65
45 47 50 52 53 54 55 56 56 58 60 61 62 64 65 65 65 66 67 68 70 71 72 72 73 73 73 73 72 72 73 73 73 73 73 72 72 71 71 71 71 70 70 69 69 69 68 68 67 67 67 66 66 66 66 66 66 65 65 64 65 66 66
44 49 52 53 54 55 55 57 57 58 60 61 61 63 65 66 65 66 66 68 69 70 71 72 72 73 73 73 72 72 72 73 73 73 73 72 72 71 71 71 70 70 69 69 69 69 69 68 68 67 67 66 66 65 65 66 65 65 65 64 64 64 65
48 51 53 54 54 54 54 56 58 59 61 62 62 63 64 65 65 65 66 67 68 69 71 71 72 72 72 72 72 72 72 72 72 72 72 72 71 71 71 70 70 70 69 69 69 69 69 68 68 68 67 66 66 66 65 65 65 65 65 65 64 64 64
49 52 52 52 52 52 53 56 58 60 61 62 62 63 63 64 65 65 65 65 67 68 70 71 71 72 72 72 72 72 72 72 72 72 72 71 71 71 71 70 70 70 69 69 68 69 69 69 68 68 67 66 65 65 65 65 65 65 65 65 65 64 64
50 51 52 51 51 51 53 58 59 60 60 61 62 63 64 64 64 64 64 64 65 66 68 70 71 71 71 71 71 72 72 72 71 71 72 71 71 71 70 70 70 70 69 68 68 68 69 69 68 68 67 66 66 66 66 66 65 65 64 65 65 65 64
50 51 52 51 54 54 55 59 59 60 61 61 63 64 64 63 64 64 65 64 64 65 67 68 70 71 71 71 71 71 71 71 71 71 71 72 71 71 70 70 69 69 69 69 68 68 69 69 68 68 67 67 66 66 66 66 66 65 64 65 65 65 65
58 50 51 54 55 55 57 59 59 60 61 62 63 64 65 64 64 64 64 64 64 64 66 68 69 70 71 71 71 71 71 71 71 71 71 72 71 71 70 70 69 69 69 69 68 68 69 69 69 68 67 67 67 66 66 66 66 66 65 65 65 65 64
51 51 55 58 58 59 59 60 61 62 63 63 64 64 65 65 64 65 65 64 64 64 65 68 69 69 70 71 71 71 71 72 72 72 72 72 71 71 70 69 69 69 68 69 69 69 69 70 70 68 68 67 67 67 67 67 67 67 66 65 64 64 63
52 52 55 56 58 58 60 61 62 63 64 64 64 65 65 65 65 65 65 64 64 64 65 67 68 69 70 71 71 70 71 72 72 71 72 71 71 71 70 69 69 68 68 68 69 69 70 71 70 69 68 67 67 67 67 67 67 65 62 63 64 63 63
51 52 53 56 57 57 59 61 62 63 64 64 64 65 65 65 65 65 64 64 63 64 64 66 68 68 69 70 71 70 71 71 71 71 71 71 71 71 71 70 69 68 68 69 69 69 70 71 70 69 68 67 67 66 67 67 67 63 61 62 63 63 62
50 52 52 55 58 57 58 60 61 62 63 64 64 65 65 65 65 65 65 64 64 63 64 65 67 68 68 69 70 70 70 71 71 71 71 71 71 71 71 70 69 69 69 70 70 69 70 71 70 70 68 68 67 66 66 66 63 61 61 61 61 62 63
49 53 53 55 58 58 56 58 60 62 62 63 63 64 64 65 65 65 65 65 65 65 65 64 65 67 69 69 69 70 70 71 71 71 71 71 71 71 71 71 70 69 69 71 71 70 70 70 70 69 69 68 68 67 68 67 63 60 60 60 61 61 64
44 49 56 58 58 58 58 59 60 61 62 62 64 64 64 65 65 65 65 64 65 64 65 64 64 66 68 69 69 69 70 71 71 71 71 72 72 71 71 71 70 70 70 71 71 70 69 69 69 69 68 68 68 67 67 67 59 59 59 59 61 60 62
49 48 56 58 60 61 61 62 63 63 63 63 64 64 65 64 64 65 64 64 64 64 64 64 64 65 67 67 68 69 70 71 71 71 72 72 72 72 71 71 71 71 71 71 71 70 68 68 68 67 67 67 67 66 66 66 57 57 58 59 59 60 61
43 48 47 58 61 63 64 65 66 67 68 68 67 65 64 63 63 63 63 63 63 63 63 63 64 64 65 66 67 68 69 70 71 71 72 73 73 72 72 71 71 72 72 71 71 70 69 67 67 66 66 66 66 65 64 64 56 56 56 58 58 59 61
40 46 46 49 56 60 64 67 67 67 70 70 69 67 64 63 62 63 63 62 62 63 62 62 63 64 65 65 65 66 68 70 71 72 73 73 73 73 72 72 72 72 72 70 70 69 69 68 67 66 65 65 65 65 64 64 57 55 55 57 58 59 60
25 28 38 37 51 56 62 67 66 67 68 68 68 67 65 63 62 62 63 62 62 61 62 61 62 64 65 65 65 66 67 69 71 72 73 73 73 73 73 73 73 72 70 69 69 68 68 68 68 67 66 65 65 65 64 63 57 54 54 55 55 57 59
30 20 24 32 31 46 58 64 67 66 67 67 67 67 67 65 63 62 63 62 62 62 61 61 62 64 65 65 65 66 68 71 72 73 74 74 74 74 73 73 72 71 69 68 68 68 68 68 68 67 66 65 66 67 65 63 57 52 53 53 54 57 60
52 53 50 49 41 49 56 62 67 67 67 66 66 67 67 67 65 63 63 63 62 61 61 61 62 65 65 65 66 68 71 72 73 74 74 74 74 74 73 73 72 71 69 68 67 67 67 67 67 66 66 66 66 66 65 64 60 57 53 53 53 55 62
55 54 51 54 63 66 64 67 68 68 68 69 69 68 68 68 67 65 64 63 63 62 61 62 62 65 68 69 70 72 73 73 74 74 74 74 74 73 73 72 72 71 70 68 67 67 67 66 66 66 66 66 66 65 64 65 61 58 52 52 52 55 59
59 59 60 60 64 70 67 67 68 68 69 70 70 70 70 70 69 68 66 65 63 63 63 64 65 69 73 73 73 73 74 74 74 74 74 74 73 73 72 73 72 72 71 70 69 68 67 67 66 65 65 65 65 65 65 66 61 59 53 52 52 53 57
65 63 63 63 64 66 69 70 68 68 67 68 71 71 70 70 70 69 69 68 67 66 67 71 73 74 74 74 74 73 74 73 73 73 74 73 73 72 72 72 72 71 70 69 69 68 67 66 65 64 64 64 65 66 66 65 61 57 57 52 52 52 54
67 67 66 66 67 67 67 67 67 67 66 67 68 68 69 71 71 70 70 70 70 71 75 75 75 75 74 73 73 73 73 73 73 73 73 73 72 71 70 70 70 70 69 68 67 66 65 65 64 64 65 64 65 65 66 65 62 57 56 56 52 52 53
65 65 65 65 66 68 66 65 65 66 66 67 68 69 69 69 68 70 71 73 74 75 75 75 74 74 73 73 73 73 73 73 73 72 72 71 70 69 68 68 68 68 67 67 66 65 64 64 64 64 64 63 64 65 66 65 64 60 58 56 54 53 51
66 66 65 64 64 66 65 65 65 66 67 67 69 70 71 70 69 67 68 70 70 69 69 68 68 68 69 69 70 72 71 71 70 70 70 70 69 69 68 67 67 66 66 66 65 65 64 64 64 63 62 62 63 65 65 65 64 62 60 59 56 54 52
66 66 66 66 65 65 65 64 65 66 66 65 67 69 70 70 69 69 69 69 70 70 69 69 68 68 69 70 71 70 69 69 70 71 69 69 68 68 68 67 66 65 65 65 64 63 63 62 61 61 61 61 62 64 65 64 63 61 59 58 57 56 55
65 66 66 66 67 67 65 65 65 66 66 66 67 69 69 69 69 69 69 69 68 68 68 67 67 68 68 69 69 69 70 69 69 69 68 67 67 67 67 67 65 63 63 63 63 63 61 61 61 60 60 61 62 64 64 63 62 60 59 58 58 57 56
64 64 65 65 65 66 67 67 67 67 67 67 68 69 69 70 69 69 69 70 70 70 68 67 66 66 68 69 70 69 69 69 68 67 65 60 55 52 56 65 64 61 59 55 55 63 61 61 61 61 60 60 61 64 64 64 62 61 56 59 55 57 57
64 64 64 66 66 65 65 66 66 67 67 67 68 69 69 69 69 70 70 69 69 69 69 68 69 70 69 69 69 68 68 68 67 65 62 60 58 56 53 49 45 53 57 54 52 50 53 56 60 60 59 58 58 60 64 64 63 56 52 51 50 50 51
63 66 66 67 66 66 66 67 68 67 67 67 67 68 70 69 68 68 68 67 67 68 68 69 68 68 68 68 68 67 68 67 65 63 61 59 59 57 56 54 51 42 43 47 48 45 42 42 43 47 55 59 56 54 52 57 55 50 50 49 48 48 48
61 64 66 66 66 66 66 65 66 66 67 68 68 69 69 70 70 69 69 70 70 69 69 68 68 68 67 68 67 66 67 66 64 62 61 60 59 57 56 55 54 52 45 42 44 43 42 41 42 43 46 51 54 54 56 53 50 49 48 48 47 47 47

ECMWFFLT1_sfc_dewp_012.txt.gz
Dewpoint
48 49 51 54 57 58 59 60 60 61 62 63 63 63 64 65 66 67 68 69 69 69 70 71 72 72 71 71 72 72 72 72 72 71 71 70 70 70 71 71 71 72 72 72 72 72 72 72 72 71 71 70 69 68 67 67 67 67 66 66 65 65 63
48 49 50 53 55 58 59 60 60 61 61 62 63 64 64 65 66 66 67 68 69 69 70 71 71 72 71 71 72 72 72 72 72 72 71 71 71 71 71 71 71 72 72 72 72 72 72 72 71 71 70 69 68 67 66 66 66 66 65 65 64 64 63
48 50 50 52 54 56 59 60 61 61 61 62 63 64 64 65 66 66 67 68 69 69 70 70 71 71 72 72 71 72 72 72 72 72 71 71 71 71 71 71 71 71 71 72 72 72 72 71 71 70 70 68 67 66 65 66 66 65 65 65 64 63 64
48 49 51 52 53 55 58 60 61 61 61 62 63 64 64 65 66 67 67 68 69 69 70 70 71 71 72 72 71 72 72 72 72 72 72 71 71 71 71 71 71 71 71 71 71 71 72 71 70 70 71 68 67 66 65 65 65 65 65 64 63 63 63
47 48 51 52 53 54 56 58 60 61 61 62 63 64 64 65 66 67 67 68 69 69 70 70 71 71 72 72 72 72 72 72 72 72 72 72 71 71 71 71 71 71 70 71 71 71 71 71 70 69 69 67 66 66 65 65 65 65 64 64 63 63 63
47 48 50 52 53 53 55 56 59 60 61 61 63 64 65 65 66 66 67 69 69 70 70 71 71 71 71 72 72 72 72 72 72 72 72 72 72 71 71 71 71 70 70 70 71 71 71 70 70 69 68 66 65 65 64 65 64 64 64 64 63 64 63
47 48 48 50 53 54 54 55 57 59 60 61 62 64 65 65 65 66 67 69 69 70 70 71 71 71 72 72 72 72 72 72 72 72 73 72 72 71 71 71 71 70 70 71 71 70 70 70 70 69 68 65 65 64 64 65 65 64 64 63 63 64 63
46 48 49 49 51 53 54 55 56 58 60 61 62 63 64 65 65 65 67 68 69 70 70 71 71 72 72 72 72 72 72 72 72 72 73 72 72 72 71 71 70 70 70 70 70 70 70 70 69 69 67 66 65 65 64 65 65 64 64 63 63 63 64
46 48 49 49 51 53 54 55 57 58 60 61 62 63 64 65 65 65 66 68 69 70 70 71 71 72 72 72 72 72 72 72 72 72 72 72 72 71 71 71 71 71 70 70 70 70 69 69 69 69 67 66 65 65 65 65 64 64 64 64 63 63 63
45 47 49 49 50 52 54 55 57 59 61 61 62 63 64 64 64 65 66 67 69 69 70 71 71 72 72 72 72 72 72 72 72 72 72 72 72 71 71 71 71 71 70 70 70 70 69 69 68 68 67 66 65 65 65 65 64 64 64 64 64 63 63
45 47 48 49 50 52 54 55 57 60 61 62 62 63 64 64 64 64 65 67 68 69 70 71 71 72 72 72 72 71 72 72 72 72 72 72 72 71 71 71 71 70 70 70 70 70 69 69 68 68 67 66 65 65 65 65 64 64 64 64 64 64 64
46 46 48 49 50 52 53 55 57 59 61 62 62 62 64 64 64 64 65 66 68 69 70 71 71 72 72 72 72 72 71 71 72 72 72 72 72 71 71 71 71 70 70 70 70 69 69 68 68 67 67 66 65 65 65 65 65 64 64 63 63 64 64
46 47 48 48 50 52 54 56 57 58 60 61 61 62 64 64 64 64 65 65 67 68 70 71 71 72 72 72 71 72 71 71 71 72 72 72 72 72 71 71 70 70 70 70 69 69 69 68 68 68 67 66 65 65 65 65 65 65 64 64 64 63 63
54 46 47 49 50 52 54 56 57 58 59 60 61 62 63 64 64 64 65 65 66 68 69 70 71 71 72 72 71 71 71 71 71 72 72 72 72 72 71 71 71 70 70 70 69 69 69 68 68 68 67 66 65 65 65 65 65 65 65 64 64 64 63
47 47 47 48 50 52 54 55 57 58 59 60 60 61 62 64 64 65 65 65 66 67 68 70 70 71 71 71 71 71 71 71 71 71 72 72 72 72 71 71 71 71 70 70 69 69 69 69 68 68 67 67 66 65 65 65 65 65 64 64 64 64 63
45 46 46 48 50 52 54 55 57 58 59 60 60 61 61 63 64 65 65 65 65 66 68 69 70 71 71 71 71 71 71 72 72 71 71 71 71 72 71 71 71 71 70 70 69 69 69 68 68 68 67 67 66 66 66 66 65 64 60 62 64 64 64
49 49 49 50 51 52 53 55 57 58 59 60 61 61 62 63 63 64 64 65 65 66 67 69 70 70 71 71 71 71 71 71 71 71 71 71 71 71 71 71 71 71 70 70 69 69 69 69 68 68 67 67 66 66 66 66 65 61 60 61 63 65 64
50 51 53 53 54 54 55 56 58 59 59 60 61 62 62 63 63 64 64 64 65 65 66 68 69 69 70 71 71 71 71 71 71 71 71 71 71 71 71 71 71 70 70 70 69 69 69 68 69 68 68 67 67 66 66 66 62 60 60 60 61 63 65
51 52 54 56 56 57 56 57 58 60 60 60 61 62 63 64 63 64 64 65 65 65 65 66 67 69 70 70 71 71 71 71 71 71 71 71 71 71 71 71 71 70 69 69 69 69 69 69 69 69 68 67 67 66 67 66 62 60 59 60 60 62 64
51 52 53 55 56 56 56 58 59 60 60 61 61 62 63 64 64 64 64 64 65 65 65 66 66 68 69 70 70 71 71 71 71 71 71 71 71 71 71 71 70 70 69 69 69 69 69 69 69 69 69 68 67 67 66 66 61 59 59 59 59 61 63
52 53 53 55 56 56 57 57 58 59 61 61 61 62 63 64 64 64 64 64 65 65 65 65 66 67 68 69 70 71 71 71 71 71 71 71 71 71 71 71 70 70 69 68 68 68 68 69 69 69 69 68 68 67 66 66 59 58 58 58 58 59 62
45 48 52 54 56 56 57 57 58 59 60 62 63 63 63 63 64 64 64 64 65 65 65 65 66 66 67 68 69 70 70 71 70 70 71 71 71 71 71 71 71 70 69 69 69 69 69 69 69 69 69 69 68 67 67 67 57 57 57 57 57 59 65
38 40 46 53 55 55 56 56 57 58 61 62 62 63 63 63 64 64 64 64 65 65 65 65 65 66 67 68 68 69 70 70 70 70 70 71 71 71 71 71 71 70 70 69 70 70 69 69 69 69 69 69 68 68 67 65 58 57 56 56 56 60 65
48 41 46 49 53 55 56 56 56 58 58 59 61 62 63 63 64 65 65 65 65 65 65 65 65 65 66 67 68 69 69 70 70 70 70 70 70 71 71 71 71 70 70 70 70 69 69 69 69 69 69 68 68 68 67 65 57 55 55 56 56 60 64
55 54 52 43 48 53 57 59 57 56 58 59 60 62 63 63 64 65 65 65 65 65 65 65 64 65 65 66 67 68 69 70 70 70 70 70 71 71 71 70 71 71 71 70 70 70 69 69 68 68 68 68 68 68 66 63 57 54 55 55 55 61 64
64 61 60 62 66 65 55 61 64 63 61 62 62 63 64 64 64 64 65 65 65 64 64 65 65 65 65 65 66 68 69 69 70 70 70 70 71 71 71 71 71 71 71 70 70 70 69 68 68 67 67 67 67 67 66 63 59 58 54 55 55 58 64
66 65 64 65 66 70 65 58 62 64 64 65 66 66 64 64 63 63 64 64 64 64 64 64 65 65 65 65 65 67 68 69 69 70 70 71 71 71 71 71 71 71 71 70 70 69 69 68 68 67 66 66 66 66 65 63 60 58 53 54 55 56 59
64 64 64 66 68 68 68 68 66 67 68 68 69 70 70 69 65 63 63 63 64 64 64 64 65 65 65 65 65 65 67 68 69 69 71 71 71 71 71 72 72 71 70 70 70 69 69 68 68 67 66 66 66 65 65 65 59 59 54 54 53 54 56
64 64 64 64 65 66 67 66 67 67 68 69 69 69 70 69 68 68 68 67 67 67 66 66 65 64 64 65 65 65 66 67 68 69 71 72 72 72 72 72 71 71 70 69 69 69 68 67 67 66 65 65 66 65 65 64 62 57 57 52 52 52 53
65 65 65 64 64 65 66 66 67 68 68 69 69 69 69 69 68 68 69 69 71 72 70 69 67 64 65 65 66 67 67 67 69 70 72 72 72 72 72 72 71 70 69 68 68 67 66 66 67 66 65 65 65 65 65 63 62 57 55 54 51 50 51
66 66 66 65 65 65 65 65 66 68 69 69 69 68 68 68 68 68 68 68 70 72 72 72 71 70 70 71 71 71 72 72 72 73 73 73 73 72 72 70 69 68 68 68 68 67 66 66 66 65 65 65 64 64 64 63 61 59 57 54 51 51 52
65 66 65 66 65 65 64 65 66 68 68 69 69 68 68 69 69 68 68 69 69 70 71 71 71 71 71 71 72 72 71 71 71 71 71 71 70 70 69 68 68 68 67 67 67 67 66 66 66 65 64 64 64 64 64 63 61 59 58 57 55 55 53
63 63 64 64 65 65 65 65 66 67 68 67 68 68 68 67 68 68 68 68 68 68 68 68 70 70 70 70 70 70 70 70 70 70 69 69 69 69 68 68 67 66 66 67 68 67 66 65 64 64 64 64 64 64 64 63 61 59 58 57 56 56 57
62 62 64 64 64 65 66 66 67 67 67 67 67 68 67 68 68 68 68 68 69 69 69 69 69 69 70 70 70 70 70 70 70 69 68 68 67 67 67 67 66 66 67 67 66 65 65 64 64 63 63 64 64 64 63 62 61 59 58 57 57 57 57
63 63 64 65 64 65 66 66 67 67 68 67 68 67 67 67 67 68 68 68 69 69 68 68 68 68 68 68 69 69 69 69 68 68 67 66 66 65 65 67 67 66 64 60 65 66 64 63 63 63 64 64 64 64 63 62 61 60 55 58 55 56 57
63 63 64 65 66 66 66 67 67 67 67 67 66 66 67 67 67 67 68 68 68 68 68 68 68 68 68 68 68 68 68 68 67 66 64 61 58 55 52 49 46 54 62 60 59 59 57 57 63 64 63 63 64 64 63 62 61 56 51 50 49 50 52
61 62 63 64 65 65 66 66 68 67 67 67 66 65 66 66 66 67 67 67 67 67 67 67 68 68 68 67 67 66 66 65 63 63 62 60 59 57 57 55 52 43 44 48 49 47 50 53 54 55 57 63 63 61 58 57 54 49 49 48 48 48 48
60 61 63 64 64 64 65 65 66 66 66 67 68 66 65 66 66 65 66 67 67 66 67 67 67 67 67 67 66 65 65 64 63 62 60 60 60 59 60 60 58 54 45 42 45 44 43 43 47 50 52 54 58 58 58 52 49 49 47 47 47 47 47

ECMWFFLT1_sfc_dewp_015.txt.gz
Dewpoint
49 52 54 56 56 57 58 59 59 60 61 61 62 62 63 64 65 66 67 67 67 67 68 69 69 71 71 70 70 70 71 71 71 70 70 70 70 69 70 70 70 70 71 71 71 72 72 73 73 73 73 73 72 71 70 70 69 68 66 66 66 66 65
47 50 52 55 56 57 57 58 59 59 60 61 61 62 63 64 65 66 67 67 68 68 68 69 69 69 70 71 71 71 71 71 71 71 71 70 71 70 70 70 70 70 71 71 72 72 72 72 73 73 73 73 72 71 70 69 68 67 66 66 65 65 65
45 48 51 54 56 57 57 58 59 59 60 60 61 61 62 64 65 65 66 67 68 68 68 69 69 69 69 70 71 71 71 71 71 71 71 70 70 70 70 70 70 70 71 71 72 72 73 72 72 73 72 72 71 70 69 68 68 67 66 65 65 64 64
45 46 49 52 55 56 57 58 59 59 59 60 60 61 62 63 64 65 66 66 67 68 68 68 69 69 69 69 70 70 71 71 71 71 71 71 70 70 70 70 70 71 71 71 72 72 72 72 72 72 73 71 70 70 69 68 67 67 66 65 64 64 64
46 46 47 49 52 55 57 57 58 59 59 59 60 62 62 63 64 65 65 66 67 67 68 68 69 69 70 70 70 70 71 71 71 71 71 71 71 70 70 70 70 70 71 71 72 72 72 72 72 71 72 70 70 69 68 67 66 66 66 65 64 63 63
47 47 47 47 50 53 55 57 58 58 58 59 60 61 62 62 63 64 65 66 66 67 68 68 69 70 70 70 70 70 70 71 71 71 71 71 71 71 70 70 70 70 70 71 72 72 72 72 71 71 71 70 69 68 67 66 66 65 65 65 64 63 63
46 48 48 47 49 51 53 55 57 58 59 59 59 61 62 62 63 63 64 65 66 67 67 68 69 69 70 70 70 70 70 70 71 71 71 71 71 71 71 71 70 70 71 71 71 71 71 71 71 71 70 70 69 68 66 65 65 65 65 64 63 63 63
45 47 48 48 48 49 51 54 56 57 59 59 59 60 61 62 62 63 64 65 66 66 67 67 68 69 70 70 70 70 70 70 71 71 71 71 71 71 71 71 71 71 71 70 71 71 71 71 71 70 70 69 68 68 66 65 65 64 64 64 63 62 63
45 46 47 48 49 49 50 52 54 57 59 59 59 60 61 62 62 63 64 64 65 66 67 67 68 69 70 70 70 70 70 71 71 71 71 71 71 71 71 71 71 71 71 70 70 71 71 71 70 70 70 69 68 67 66 65 65 64 64 63 63 62 62
45 46 47 48 49 50 50 51 53 56 59 60 60 61 61 62 63 63 64 64 65 66 66 67 68 68 69 70 70 70 70 70 71 71 71 71 71 71 71 71 71 71 71 70 70 70 70 70 70 70 69 69 68 67 66 65 65 64 63 63 63 62 62
46 47 47 48 49 50 51 51 53 56 58 60 60 61 62 63 63 63 64 64 65 66 66 67 68 68 69 69 69 70 70 70 71 71 71 71 71 71 71 71 71 71 70 70 70 70 70 70 70 70 69 69 68 66 66 65 65 64 63 63 63 62 62
46 47 48 48 49 49 50 52 54 55 57 59 60 61 62 63 63 63 64 65 65 66 66 67 68 68 69 69 70 70 70 70 70 71 71 71 71 71 71 71 71 71 71 70 70 70 70 70 70 70 69 68 68 67 66 65 65 64 64 63 63 62 62
44 46 47 47 49 49 50 53 55 56 57 58 60 61 62 63 63 63 64 65 65 66 67 67 68 69 69 69 70 70 70 70 70 71 71 71 71 71 71 71 71 71 70 70 70 70 69 69 69 69 69 69 68 67 66 65 65 64 64 64 63 63 63
52 45 46 47 48 50 51 53 55 56 57 58 59 60 61 63 63 64 64 64 65 66 67 68 68 69 69 70 70 70 70 70 71 71 71 71 72 72 72 72 71 71 71 71 70 70 69 69 69 69 69 69 68 67 67 65 65 64 64 64 63 63 63
41 44 45 46 48 49 51 52 55 56 57 58 59 60 61 63 63 64 64 64 65 66 67 68 69 69 69 70 70 70 71 71 71 71 72 72 72 72 72 72 71 71 71 71 70 70 70 69 69 68 68 68 68 67 67 66 65 65 64 64 63 63 63
38 40 43 45 47 48 51 52 54 56 57 58 59 60 61 62 63 64 64 64 65 66 67 68 69 69 70 70 70 70 71 71 71 71 72 72 72 72 72 72 71 71 71 71 70 70 70 69 69 68 68 68 67 67 67 66 66 64 60 61 64 63 63
40 41 43 45 47 48 50 52 54 56 58 59 60 60 61 62 63 64 64 64 64 66 67 68 69 69 70 70 70 71 71 71 71 71 71 72 72 72 72 72 71 71 71 70 70 70 70 69 69 68 68 67 67 66 66 66 65 61 60 60 61 63 63
42 42 43 45 47 48 50 52 53 56 57 58 59 60 61 62 63 63 64 64 64 65 67 68 69 69 70 70 71 71 71 71 71 71 71 71 71 72 72 72 71 71 71 70 70 70 69 69 69 69 68 68 67 66 66 66 62 60 59 60 60 62 65
48 44 43 46 47 49 49 51 53 55 56 57 58 60 61 62 63 63 64 64 64 65 66 67 68 69 70 70 71 71 71 71 71 71 71 71 71 72 72 71 71 71 71 70 70 70 69 69 69 68 68 68 67 67 66 66 62 60 59 59 59 60 63
53 52 52 49 48 48 50 52 53 55 56 57 58 59 60 62 62 63 64 64 65 65 66 67 68 69 69 70 70 71 71 71 71 71 71 71 71 71 71 71 71 71 71 70 70 69 69 69 68 68 68 68 68 67 67 66 61 59 58 58 59 60 64
53 54 54 55 54 52 52 53 54 56 57 58 59 59 61 61 62 63 64 64 65 65 66 66 67 68 69 69 70 71 71 71 71 71 71 71 71 71 71 71 71 71 71 70 70 69 69 69 68 68 68 68 68 67 67 67 61 58 57 57 57 59 63
49 51 50 53 55 56 56 54 55 56 57 59 60 60 60 60 61 62 63 64 65 65 65 66 67 67 68 69 69 70 71 71 71 71 71 71 71 71 71 71 71 71 71 70 70 70 70 69 69 68 68 68 68 67 67 67 60 58 57 56 56 59 66
52 52 49 50 56 56 58 59 59 58 60 59 60 60 60 60 61 61 62 63 64 65 65 66 66 67 68 68 69 70 70 71 71 71 71 71 71 71 71 71 71 71 71 70 70 70 69 69 69 69 68 68 68 68 67 67 62 57 56 56 55 60 66
63 61 62 64 61 56 59 58 59 59 60 60 60 60 60 61 62 62 62 63 64 64 65 65 65 66 67 68 68 69 70 71 71 71 71 71 71 71 71 71 71 71 70 70 69 69 69 69 69 69 69 68 68 68 68 67 62 56 55 55 55 61 66
64 64 64 65 66 67 67 60 58 58 61 61 60 61 61 62 62 63 63 63 64 64 64 65 65 65 66 67 68 69 70 70 71 70 70 71 71 71 71 70 70 71 70 70 70 69 69 69 69 69 69 69 69 66 67 68 62 54 55 54 55 62 66
64 64 64 64 65 67 67 66 62 58 58 58 60 62 63 63 63 63 63 64 64 64 64 64 65 65 66 66 67 68 69 70 70 70 70 70 70 71 71 71 71 70 70 70 70 69 69 69 68 68 69 69 69 69 68 68 64 59 54 53 55 59 66
65 64 64 64 65 67 66 66 62 60 58 58 60 62 63 64 64 64 64 64 64 64 64 64 65 65 66 66 66 67 69 70 70 70 70 70 70 70 70 71 70 70 70 70 69 69 69 69 68 68 68 69 69 69 68 67 63 59 53 52 54 57 59
65 65 65 65 66 66 66 67 66 66 67 68 68 65 63 64 64 64 64 65 64 64 64 65 65 65 65 66 66 66 68 69 69 70 71 70 70 70 70 71 71 70 70 70 70 69 69 69 68 68 67 67 68 68 68 67 61 61 53 53 53 56 58
64 64 64 65 65 65 66 66 66 67 67 68 68 69 66 63 63 64 64 64 65 65 65 66 66 66 66 66 66 66 67 68 69 69 70 70 70 70 70 70 70 70 70 70 70 69 69 68 68 66 66 66 67 67 67 64 62 57 58 52 52 54 56
65 65 65 65 65 65 66 66 67 68 68 68 68 68 68 65 64 64 64 64 67 70 67 66 66 66 66 66 66 66 66 67 68 69 70 70 70 70 70 70 70 70 70 70 70 70 68 68 67 67 66 66 66 66 65 64 63 57 56 56 52 52 54
64 64 65 65 65 66 65 66 67 68 68 68 67 67 67 67 67 66 65 66 68 70 68 65 65 65 66 66 66 66 66 67 68 69 69 70 70 70 70 70 70 71 71 70 70 69 68 67 67 67 67 66 65 65 64 65 65 63 59 56 54 53 52
63 64 65 65 66 66 66 66 67 67 67 67 67 67 66 67 67 67 68 69 70 70 68 67 66 66 66 66 67 67 67 67 68 69 70 71 71 71 72 71 71 71 70 70 69 68 67 67 67 67 66 66 65 64 64 64 64 63 61 59 57 55 53
63 64 64 65 65 66 66 66 66 66 66 66 67 67 67 66 66 67 68 69 70 70 69 68 67 67 68 68 68 69 68 68 69 70 70 71 72 72 72 72 71 70 69 69 68 68 67 67 66 66 66 65 65 64 64 63 62 61 59 58 57 57 57
62 63 64 65 66 66 66 67 67 67 67 66 67 67 67 66 66 67 67 67 68 69 69 68 67 67 68 68 69 69 69 69 69 70 70 71 72 72 72 71 71 70 69 68 68 68 67 67 66 66 65 65 64 64 63 63 61 59 58 57 57 57 57
61 62 63 65 66 66 67 67 67 67 67 67 67 67 67 66 66 67 67 67 68 68 68 68 67 67 68 68 69 68 68 67 67 69 70 71 71 72 72 71 70 69 69 69 69 69 68 67 66 66 66 65 64 63 63 62 61 60 55 57 54 56 58
61 62 63 64 65 65 66 67 67 67 67 66 66 66 67 67 67 67 67 67 67 68 68 68 67 67 67 67 68 68 68 68 68 67 67 68 66 64 58 53 48 57 69 68 63 61 60 61 65 65 66 65 65 65 63 63 63 54 51 50 49 50 52
61 62 63 64 64 64 65 66 66 66 66 66 66 66 66 66 66 66 66 67 67 67 67 67 67 67 66 66 67 67 67 66 64 64 65 65 65 65 62 59 55 44 42 52 60 58 56 56 56 58 60 65 64 63 59 57 52 49 49 48 48 48 49
61 61 62 63 64 64 65 65 65 65 65 65 65 65 66 65 66 66 65 67 67 67 67 67 66 65 65 65 65 64 64 64 63 63 63 62 63 64 63 62 58 54 45 43 47 52 52 52 53 54 55 57 60 60 59 52 49 47 47 47 47 48 47

ECMWFFLT1_sfc_dewp_018.txt.gz
Dewpoint
52 54 56 56 57 58 59 59 60 60 61 61 62 62 63 64 65 66 66 67 67 67 67 68 68 69 69 69 69 69 70 70 70 70 70 70 70 70 70 70 70 70 70 70 71 71 72 74 74 74 74 74 74 73 73 73 73 72 70 70 69 68 68
50 52 54 55 56 57 58 59 60 60 61 61 61 62 62 64 65 65 66 66 67 67 67 68 68 69 69 69 69 70 69 70 70 70 70 70 70 70 70 70 70 70 71 71 71 72 73 73 73 73 74 74 74 74 73 73 72 71 70 69 68 68 68
48 50 52 54 55 56 58 59 59 60 60 60 61 61 62 64 65 66 66 66 67 67 67 68 68 69 69 69 69 70 70 70 70 70 70 69 70 69 70 70 70 70 71 71 72 72 73 73 73 73 74 74 73 73 73 72 72 71 70 68 68 67 67
46 48 50 53 55 56 57 58 59 59 59 60 60 61 62 63 64 65 66 66 66 67 67 67 68 68 69 69 69 70 70 70 70 70 70 70 70 70 70 70 71 71 71 71 71 72 73 73 73 73 74 73 73 73 72 71 71 70 69 68 67 67 67
45 46 48 51 53 55 56 57 58 59 58 59 60 62 62 62 63 64 65 66 66 66 66 67 67 68 69 70 70 70 70 70 70 70 70 71 71 71 70 70 70 70 71 71 72 72 73 73 73 73 73 73 73 73 72 71 70 70 69 68 67 67 66
44 45 47 48 50 53 55 56 57 57 58 58 59 61 61 62 62 63 64 66 66 66 67 68 68 69 69 69 70 70 70 71 71 71 71 71 71 71 71 70 70 70 70 71 72 72 73 73 72 73 73 73 72 72 72 71 69 69 69 68 67 67 66
45 46 46 47 49 51 53 55 56 57 58 58 59 60 61 61 62 62 63 64 65 66 66 67 67 68 68 69 70 70 70 70 71 71 71 71 71 71 71 71 71 70 71 71 71 72 72 72 72 72 72 72 72 72 71 70 69 69 68 68 67 67 66
45 46 47 47 47 49 51 54 56 56 58 59 59 59 60 61 61 62 62 63 64 65 66 66 67 68 68 69 69 69 70 70 70 71 71 71 71 71 71 71 71 71 71 71 71 72 72 72 72 72 72 72 72 72 71 70 70 68 68 68 67 66 66
45 47 47 46 46 47 50 53 55 56 58 59 59 59 60 60 61 61 62 63 64 64 65 66 66 67 69 69 69 69 70 70 70 71 71 71 71 70 70 71 71 71 71 71 71 72 72 72 72 72 72 72 72 71 71 70 69 68 68 68 67 66 65
45 47 48 48 48 47 49 51 55 57 58 59 60 60 60 60 61 61 61 62 63 64 64 65 66 67 68 69 69 69 70 70 70 70 70 70 70 70 70 70 71 71 71 71 71 71 72 72 72 72 72 71 71 71 71 70 69 68 68 67 67 67 66
46 48 48 48 50 50 50 50 53 57 58 59 60 59 60 60 61 61 61 62 62 63 64 65 66 66 67 68 68 69 69 69 69 70 70 70 70 70 70 70 70 71 71 71 71 71 71 72 72 72 72 71 71 71 70 70 69 68 67 67 67 66 66
48 48 49 50 50 51 50 51 53 56 58 59 59 59 60 61 60 61 61 62 62 63 64 64 65 66 67 68 68 69 69 69 69 69 70 70 70 70 70 70 71 71 71 71 70 71 71 71 71 71 71 71 71 71 70 70 69 68 67 66 66 66 65
47 48 49 48 50 51 53 54 53 54 57 57 58 59 59 60 60 61 62 62 62 63 64 65 65 66 66 67 68 69 69 69 69 70 70 70 71 71 71 71 71 70 70 71 71 70 70 71 71 71 71 71 71 70 70 70 69 68 68 67 66 65 65
57 50 49 52 53 52 53 54 54 54 55 56 58 59 60 60 60 61 62 62 63 63 64 64 66 66 67 68 68 69 69 69 70 70 71 71 71 71 71 71 71 71 71 71 71 70 70 70 71 71 71 71 71 71 70 70 69 68 68 67 66 65 65
40 41 45 47 51 52 52 53 54 55 54 56 57 59 60 60 61 62 63 63 63 63 63 65 66 66 67 67 68 69 69 70 70 71 71 71 71 71 71 71 72 72 72 71 71 71 71 71 70 70 70 70 70 70 70 69 68 68 67 67 66 66 65
35 37 39 43 47 49 52 52 53 55 56 57 57 59 59 60 61 61 62 62 62 64 64 65 66 67 67 67 68 69 70 70 70 71 71 71 71 71 71 71 72 72 72 71 71 71 71 71 71 70 70 70 70 70 69 69 68 65 61 62 66 66 65
42 39 38 41 46 48 51 52 53 55 57 57 57 58 60 61 61 61 61 62 62 64 64 65 66 66 67 67 68 69 70 70 70 71 71 71 71 71 72 72 72 72 72 71 71 71 71 71 70 70 70 70 70 69 69 69 68 61 60 61 62 65 65
49 48 45 41 44 48 51 52 53 54 55 56 56 58 59 61 61 62 62 62 62 63 64 65 66 66 67 67 69 69 70 70 70 71 71 71 71 71 72 72 72 72 72 71 71 71 71 71 70 70 70 70 69 69 69 69 63 60 60 60 60 62 66
47 48 49 49 50 51 48 48 50 53 53 55 56 57 58 60 60 62 62 63 63 64 64 65 65 67 68 68 69 69 70 70 70 71 71 71 71 72 72 72 72 72 71 71 71 71 71 71 70 70 70 70 69 69 69 69 63 60 59 59 59 61 63
51 52 54 53 52 50 51 51 51 52 53 56 57 56 57 60 60 61 62 63 64 65 65 66 66 67 68 69 69 70 70 70 70 70 71 71 71 72 72 72 71 71 72 71 72 71 71 71 71 70 70 70 69 69 69 69 63 59 58 58 58 60 62
53 55 55 55 55 53 53 53 53 54 55 55 56 58 60 60 60 62 62 64 64 65 66 67 67 68 68 69 69 70 70 71 71 71 71 71 71 72 71 71 72 72 72 71 71 71 71 71 70 70 70 70 70 69 69 68 62 58 57 57 57 59 61
59 58 58 59 57 56 57 54 53 52 54 59 60 59 59 59 60 61 61 63 64 65 66 67 67 68 68 69 70 70 70 71 71 71 71 71 71 71 71 71 72 71 72 71 71 71 71 71 71 70 70 70 70 69 69 68 59 57 56 56 57 58 64
64 63 63 64 65 64 60 58 56 55 59 59 59 60 59 59 60 61 62 63 64 66 66 66 67 67 68 69 69 70 70 71 71 71 71 71 71 71 71 71 71 72 72 71 71 71 71 71 70 71 70 70 70 69 69 69 61 56 55 55 56 58 66
64 64 64 64 65 66 67 65 60 61 58 59 60 59 60 60 62 63 64 64 64 65 65 66 66 67 68 68 69 70 70 71 71 71 71 71 71 71 71 71 72 72 72 71 71 70 70 71 71 71 70 70 70 69 69 69 61 54 54 54 55 60 66
64 64 64 64 65 66 66 66 66 61 62 61 59 62 63 63 63 64 64 65 65 65 65 65 66 67 67 68 69 70 71 71 71 71 71 71 71 71 71 71 71 72 72 71 71 71 71 71 70 70 70 69 69 66 68 69 60 54 54 54 55 61 67
64 64 64 65 66 67 67 66 62 61 62 61 62 62 63 63 63 64 64 64 64 64 64 65 66 66 67 68 69 70 71 71 71 71 71 71 71 71 71 71 71 71 71 71 71 71 71 71 70 70 70 70 69 69 68 69 63 58 53 53 54 58 67
65 65 64 65 66 68 67 68 67 66 66 66 64 65 63 64 63 63 64 65 65 64 64 65 66 67 67 68 68 69 70 71 71 71 71 71 72 71 71 71 71 71 71 71 71 71 71 71 70 70 70 69 69 69 69 69 65 59 53 53 54 57 61
64 65 65 66 67 67 67 68 68 68 68 68 68 67 66 64 64 64 64 64 64 64 65 67 68 68 69 68 68 69 70 70 71 71 71 72 72 72 72 72 72 71 71 71 71 71 71 71 70 70 70 70 70 70 70 68 62 59 53 53 53 56 58
64 64 64 65 65 66 67 67 67 67 67 67 67 68 67 66 65 65 66 65 64 65 66 67 67 68 68 68 68 69 69 70 71 71 71 71 71 71 71 72 72 71 71 71 71 71 70 70 70 70 70 70 71 70 70 70 63 56 57 52 53 55 57
64 64 65 65 65 66 66 66 67 67 67 67 67 67 67 67 66 66 66 65 67 67 68 67 67 68 67 67 68 68 68 69 70 71 71 71 71 71 71 71 71 71 71 71 71 71 71 71 71 70 70 69 69 69 70 69 66 56 54 56 54 55 56
64 64 65 65 65 66 66 66 66 66 66 67 67 67 67 67 67 67 67 67 69 69 68 68 68 67 67 67 67 67 68 68 69 70 71 71 71 71 71 71 71 71 72 71 71 71 71 71 70 70 70 70 69 69 68 67 65 60 56 55 54 55 55
64 65 65 66 66 66 66 66 66 66 66 66 67 67 67 67 67 66 66 68 69 70 70 69 68 68 68 68 68 68 68 68 69 70 70 71 71 71 71 71 71 71 72 71 71 71 71 70 70 70 69 69 69 68 67 67 64 60 59 58 56 57 56
64 65 65 65 66 66 66 66 66 66 66 66 67 67 67 67 67 67 67 68 68 69 69 69 69 68 68 69 69 69 68 68 69 70 70 71 71 71 71 71 71 71 71 71 71 71 71 70 69 69 69 69 69 68 67 65 64 61 60 60 60 61 61
63 64 65 66 66 67 67 66 66 66 66 66 66 67 67 67 67 67 68 68 68 68 69 68 68 68 68 68 68 69 69 68 68 69 70 70 71 71 71 71 71 71 71 71 71 71 70 70 69 69 69 69 69 67 66 65 64 61 60 60 60 61 61
63 63 64 65 66 66 67 67 66 66 66 66 66 66 66 67 67 67 68 68 68 68 68 68 68 68 69 69 69 69 69 69 69 69 69 70 71 71 71 71 70 71 71 71 71 71 70 70 70 70 70 70 68 66 64 64 63 62 58 60 56 59 60
63 64 64 65 65 66 66 66 66 66 65 65 66 66 66 66 66 66 67 68 68 68 68 68 68 69 69 69 69 69 69 69 70 70 69 70 71 71 71 65 49 55 69 71 66 63 62 63 70 70 70 70 68 67 65 64 65 56 54 51 50 51 53
62 63 64 64 65 65 65 65 66 65 65 65 66 66 66 65 66 66 66 68 68 68 68 68 68 68 67 66 66 65 67 67 68 68 68 69 70 70 70 69 61 48 44 49 62 61 57 54 58 60 62 67 67 64 58 58 54 51 50 49 49 49 50
62 63 64 64 64 65 65 65 65 65 65 66 66 66 66 66 66 67 67 68 69 68 68 68 67 66 66 65 65 65 65 65 65 65 66 67 68 68 69 68 66 61 50 44 49 56 53 52 51 52 55 57 61 61 63 55 51 50 48 48 48 48 48

ECMWFFLT1_sfc_dewp_021.txt.gz
Dewpoint
57 58 59 60 61 61 62 64 65 64 65 66 66 66 66 67 68 69 70 70 71 71 72 72 72 72 72 72 73 73 73 73 73 73 72 72 72 73 73 72 73 73 73 72 73 74 75 76 76 76 76 77 77 77 77 77 77 76 76 76 75 75 74
55 56 57 59 60 61 62 64 65 64 65 65 66 67 66 67 68 69 69 70 71 71 72 72 72 72 72 72 73 73 73 73 73 73 73 73 73 73 73 73 73 74 74 73 74 75 76 75 76 76 76 77 76 77 76 77 77 76 76 76 75 74 74
53 55 57 58 58 59 62 63 64 64 64 64 65 65 66 67 69 69 69 69 70 71 71 72 72 72 72 72 73 73 73 73 73 73 72 72 72 71 73 73 73 73 73 74 74 74 75 75 76 76 76 76 75 76 76 76 77 76 76 76 75 74 74
52 53 56 58 60 61 62 62 63 62 62 63 63 64 65 68 68 69 69 69 69 70 71 71 71 71 71 72 72 73 73 73 73 72 72 72 72 72 73 73 73 73 73 73 73 73 74 74 75 75 76 76 76 76 76 76 76 76 76 75 74 74 74
51 53 54 57 58 60 60 61 61 63 61 61 63 65 66 67 66 67 68 68 67 69 69 70 69 70 71 72 71 72 72 72 72 72 72 72 73 73 73 72 72 72 72 73 74 74 75 75 74 75 75 76 76 76 76 76 76 76 76 75 74 74 73
48 52 53 55 56 57 59 59 60 60 60 60 62 63 64 64 64 64 65 67 67 67 69 70 70 70 71 71 70 71 72 73 73 73 73 73 73 72 72 72 72 72 71 73 73 73 74 74 74 74 74 74 74 74 75 75 75 75 75 75 74 73 72
48 51 52 53 54 56 57 58 58 59 60 60 61 62 62 62 62 63 63 65 66 67 67 68 68 69 71 70 71 72 72 72 72 72 72 72 73 73 72 73 73 72 72 73 73 73 73 74 74 75 74 74 74 74 75 76 75 75 75 74 74 73 73
51 51 53 53 53 53 55 58 58 58 60 61 60 60 61 61 61 62 63 63 64 65 66 66 67 70 70 70 70 71 71 71 71 71 72 71 72 72 72 72 73 73 73 73 74 74 73 74 74 74 74 74 75 75 75 76 76 74 74 74 74 73 72
49 55 53 49 51 51 53 57 59 59 61 62 61 62 61 61 61 61 62 62 64 64 65 65 66 68 71 71 71 72 71 71 71 72 72 71 71 70 70 72 73 73 73 72 72 74 73 74 74 75 75 75 75 76 76 76 75 75 74 74 74 73 72
50 55 57 53 51 49 54 56 60 62 63 64 64 64 62 61 62 61 61 62 62 63 64 65 65 67 70 70 70 70 71 71 71 70 70 70 70 70 70 70 71 73 72 72 71 72 74 74 74 75 75 75 75 76 75 75 75 75 74 74 74 73 72
51 57 58 54 55 55 56 54 58 62 63 64 64 62 63 63 62 61 62 62 62 62 63 65 66 66 68 68 68 69 71 70 70 70 70 70 69 69 69 69 70 71 71 71 71 72 73 74 75 75 75 74 75 75 75 75 75 75 73 73 73 73 72
54 56 58 59 60 58 55 58 61 62 64 65 64 62 65 65 62 61 62 62 62 62 63 64 65 66 67 67 67 69 70 70 70 69 70 69 70 69 70 69 70 70 71 71 71 72 73 74 74 74 75 75 75 75 75 75 75 75 74 72 72 72 72
52 57 58 55 60 60 63 63 62 62 64 63 61 62 62 62 62 61 64 64 62 62 63 65 66 67 67 67 67 69 70 69 70 71 70 71 71 71 71 70 70 70 71 71 71 71 72 73 74 74 74 75 75 74 75 75 75 75 74 73 73 73 72
54 50 52 57 58 59 61 64 64 64 65 63 62 63 62 62 62 63 64 64 63 62 63 64 66 68 68 69 68 70 69 70 71 72 72 72 73 72 72 71 72 72 72 72 72 71 72 72 73 74 74 74 74 75 75 75 74 75 74 74 73 72 72
44 43 49 51 60 62 62 61 64 64 63 64 62 62 62 62 63 65 66 64 65 62 63 66 67 68 68 69 69 71 71 72 72 73 73 73 73 73 73 73 73 73 73 73 73 72 72 72 73 73 73 74 74 74 74 74 74 74 74 73 73 72 72
43 43 43 48 55 58 62 63 63 65 65 65 63 64 62 63 64 63 63 63 63 64 64 66 68 69 68 68 70 72 73 73 73 74 74 73 74 74 74 73 74 73 74 74 73 73 73 73 73 72 73 73 73 73 73 73 73 69 64 66 72 72 71
46 47 46 50 54 56 60 62 63 64 65 66 65 64 64 63 63 63 60 61 62 64 64 65 69 68 68 68 70 71 73 73 73 73 73 73 74 74 74 74 74 74 74 74 74 73 74 74 73 72 72 72 72 72 72 72 72 64 62 63 64 70 72
51 58 57 55 54 53 56 58 61 62 62 61 61 63 63 65 63 62 61 61 62 62 63 64 66 66 69 69 71 73 73 72 73 73 73 74 74 74 74 74 74 74 74 74 73 74 74 73 73 73 72 72 72 72 72 71 66 62 62 62 62 64 71
49 50 54 59 59 59 53 50 54 62 59 58 60 60 61 63 61 64 63 64 64 65 63 63 64 67 69 70 71 72 73 73 73 73 73 74 74 74 74 74 74 74 73 73 74 73 73 74 73 73 73 72 72 71 71 71 64 61 60 61 61 62 66
49 48 51 54 56 57 59 59 56 54 57 61 60 58 59 61 61 64 63 64 66 65 67 67 66 68 69 72 72 72 73 73 73 73 73 74 74 74 74 74 73 73 73 73 73 73 73 73 73 73 73 72 72 71 71 71 63 60 59 60 60 61 63
61 60 60 62 63 61 62 63 63 61 59 56 55 59 60 60 61 63 63 64 64 67 69 69 68 70 70 71 72 72 73 73 73 73 73 74 74 74 74 73 74 73 73 72 72 73 73 72 73 72 72 72 71 71 71 70 60 59 59 59 58 59 61
60 62 62 64 66 68 69 67 65 60 60 59 58 57 58 59 59 59 60 61 63 66 68 69 70 69 71 71 71 72 72 72 73 73 73 73 73 73 73 73 74 74 74 73 72 72 72 72 72 72 72 72 72 71 71 70 59 59 58 58 57 58 65
64 65 65 66 66 66 68 69 69 67 64 60 57 57 57 57 58 59 60 61 62 69 68 69 70 70 71 71 70 70 71 72 72 73 73 73 73 73 73 73 74 74 74 73 73 72 71 71 71 72 72 72 72 71 71 70 63 58 57 57 56 59 67
64 65 65 65 67 67 69 69 69 68 64 60 59 57 59 58 60 63 65 64 64 66 67 69 68 69 70 70 70 71 72 72 73 73 73 73 73 73 73 73 73 73 74 73 72 71 71 71 71 72 72 71 71 70 70 70 64 56 56 55 55 60 68
64 64 65 66 67 67 67 69 69 67 64 62 58 61 64 64 64 65 66 67 66 68 69 68 68 69 69 70 71 72 73 73 73 73 73 73 73 73 73 73 73 73 73 72 72 72 72 72 72 71 72 71 71 67 70 70 64 55 55 55 54 61 69
65 66 66 67 67 68 70 70 69 66 62 62 68 67 67 66 66 66 67 68 66 64 65 67 68 70 70 70 72 73 73 72 73 73 73 73 73 73 73 73 73 73 73 72 72 72 71 71 71 71 71 71 71 71 70 70 70 61 55 54 54 57 69
64 65 66 66 67 69 70 70 70 69 68 70 72 66 67 68 66 67 69 69 68 66 65 68 70 71 72 72 71 70 73 73 74 73 74 73 73 72 72 72 73 73 73 72 71 72 71 71 71 71 71 70 71 71 71 70 70 64 54 53 54 55 61
64 64 65 67 68 69 69 68 69 69 69 70 69 68 67 68 69 70 70 68 68 69 68 70 70 71 72 72 71 71 72 73 73 74 74 74 74 74 73 73 73 73 72 71 72 72 73 73 72 71 71 71 71 72 72 69 65 65 54 53 53 54 57
64 64 65 66 67 68 68 68 67 67 68 68 68 69 67 65 69 69 69 70 72 71 70 70 70 72 72 72 71 72 72 73 74 74 74 74 74 74 74 74 74 74 74 74 73 73 72 72 73 72 71 72 73 72 72 73 69 59 59 53 53 53 55
65 65 65 65 66 67 67 68 68 67 68 68 68 69 70 72 71 71 71 71 72 73 71 70 71 73 72 72 72 73 72 73 73 74 74 74 74 74 74 74 74 74 74 74 73 73 73 73 73 73 72 71 72 72 72 74 73 58 56 57 53 53 54
65 65 65 65 65 67 67 67 67 67 67 67 68 68 69 70 70 70 69 70 71 73 73 72 72 72 72 71 71 72 72 73 74 74 74 74 74 74 74 74 74 74 74 74 73 73 72 72 72 72 72 71 72 72 73 73 72 65 59 55 53 53 54
66 66 66 66 66 66 66 66 67 67 67 67 68 68 68 69 69 68 69 70 71 72 74 73 72 72 72 73 73 73 73 73 73 74 74 74 74 75 74 74 74 74 74 73 73 73 72 71 71 71 72 72 72 72 73 73 68 65 62 57 55 55 54
65 66 66 66 66 66 66 67 66 66 66 66 67 67 68 68 68 69 69 70 71 72 73 73 73 72 72 72 72 72 72 73 73 73 74 75 74 74 74 74 74 74 74 73 72 72 72 72 72 72 71 71 72 73 73 72 67 64 63 61 61 62 61
65 66 66 67 67 67 67 67 67 66 66 66 67 67 67 68 68 69 69 70 71 72 72 71 72 72 72 72 72 72 71 71 70 70 71 72 73 72 72 73 73 73 73 72 72 72 71 71 71 70 71 71 72 74 74 72 68 65 64 63 63 62 62
65 65 66 66 67 67 67 67 66 66 66 65 67 67 67 68 68 69 70 70 70 71 70 71 71 71 71 72 72 71 73 72 72 70 70 71 73 72 73 73 73 73 73 73 73 73 72 72 72 72 72 72 73 73 72 71 68 67 62 64 59 61 63
64 65 66 66 67 67 67 67 67 66 65 66 67 67 67 67 67 68 68 69 71 71 72 72 72 72 72 72 72 72 72 73 73 73 72 71 71 71 73 71 61 66 72 72 68 61 57 57 70 74 73 73 73 74 72 71 70 60 54 53 53 54 56
64 65 65 66 66 66 67 67 66 66 66 66 67 66 66 67 66 67 67 68 70 70 70 71 70 70 70 70 70 69 71 71 70 71 71 71 71 72 72 72 74 52 52 57 59 55 50 48 48 50 54 70 73 72 63 62 55 49 52 51 52 52 52
64 65 65 66 66 66 66 66 66 67 67 68 68 67 67 66 66 67 66 68 68 68 69 69 69 69 68 68 68 69 69 69 69 69 69 69 70 70 70 71 71 72 53 49 53 53 52 51 49 50 53 55 62 68 74 58 49 51 50 51 50 51 50

ECMWFFLT1_sfc_dewp_024.txt.gz
Dewpoint
54 57 59 61 62 62 63 65 67 67 68 69 69 69 69 69 70 71 72 73 74 75 75 75 75 74 73 73 74 74 74 75 76 75 75 75 74 74 74 73 74 74 72 72 73 73 74 75 74 75 76 76 76 76 76 76 76 75 75 76 76 74 74
51 53 56 58 61 62 64 66 67 67 67 68 69 70 69 70 71 71 72 73 74 74 75 75 75 74 74 74 73 74 75 75 75 75 75 75 75 75 74 75 74 74 74 73 73 74 75 75 75 75 75 76 76 76 75 76 76 76 74 75 75 74 74
49 51 55 58 60 61 65 64 67 67 68 67 68 68 69 71 71 72 72 72 74 74 75 75 75 74 73 73 74 74 74 74 74 74 74 74 74 73 74 75 75 74 74 74 74 73 74 75 76 76 76 75 74 75 76 76 76 76 75 76 75 74 75
51 51 54 58 61 63 64 64 65 66 66 67 67 68 70 71 72 72 72 72 73 74 74 74 74 74 74 74 74 75 74 75 75 74 74 74 74 74 74 75 75 74 74 74 73 73 73 75 75 76 76 75 75 75 75 75 74 75 75 76 75 74 75
50 52 53 57 59 61 62 63 64 66 65 65 67 69 70 70 70 71 71 71 70 72 72 72 72 73 74 74 74 74 75 74 74 74 75 74 75 75 74 73 74 74 73 73 74 74 75 75 75 75 76 76 75 75 75 75 75 75 76 76 75 74 74
45 51 53 55 57 59 61 62 62 63 64 63 65 67 68 68 68 68 69 70 70 71 73 73 73 74 73 73 73 73 74 75 75 76 75 75 75 74 74 74 73 74 72 73 74 74 75 75 74 74 75 75 74 73 74 75 74 74 75 76 75 74 73
40 50 53 54 56 57 60 61 60 61 63 62 63 66 66 66 67 67 67 68 69 71 70 70 71 72 73 73 73 74 74 74 75 75 75 74 74 75 74 74 74 73 74 74 74 74 74 75 75 75 75 74 75 73 74 75 75 75 75 76 75 75 75
39 48 55 55 54 55 56 60 60 60 62 63 62 62 64 64 65 65 66 66 67 67 68 68 70 72 73 73 73 73 73 73 73 74 74 74 74 74 74 74 74 74 74 73 74 74 73 75 75 75 75 74 75 75 75 76 76 74 75 76 75 75 75
38 52 55 53 54 53 55 59 61 61 62 64 63 63 63 64 63 64 65 65 66 66 66 67 68 70 73 73 73 73 73 73 73 74 74 73 73 71 71 72 74 74 74 73 72 74 74 74 75 76 76 75 75 76 75 76 77 76 75 75 76 76 74
44 57 58 54 54 51 55 56 61 64 63 64 65 65 63 63 64 64 64 64 64 65 65 65 66 68 71 72 71 72 73 73 73 72 71 71 71 71 71 71 72 73 73 72 71 72 75 74 75 76 76 75 76 76 76 76 76 76 76 76 76 76 75
52 59 60 55 55 55 56 55 60 64 64 67 66 63 64 64 64 63 63 63 63 64 64 65 67 67 69 70 70 70 72 71 71 71 71 71 70 70 70 70 70 72 72 72 72 72 74 75 75 76 76 75 76 76 76 76 77 77 75 75 76 76 74
60 58 61 60 59 57 56 59 61 66 67 67 65 64 66 66 64 62 62 63 62 62 64 65 65 66 68 69 69 70 70 71 70 70 70 70 70 69 69 69 69 70 71 72 72 73 72 74 75 75 76 76 76 76 76 77 77 77 76 74 74 75 74
54 58 60 57 61 59 61 62 62 65 68 65 63 64 64 64 64 63 65 64 62 63 63 66 66 68 67 68 68 70 70 70 71 71 70 71 71 71 70 69 68 69 70 71 72 72 72 73 75 75 75 76 76 76 76 76 76 77 77 76 75 75 75
57 47 55 58 59 62 63 64 65 66 68 66 63 64 64 64 63 64 65 64 64 62 62 64 66 67 68 69 70 70 69 70 72 72 72 72 73 72 71 70 70 71 71 72 72 71 72 72 74 75 75 75 76 76 76 76 76 77 77 77 75 75 75
40 33 37 55 62 64 65 65 67 66 65 66 63 63 63 63 63 65 65 65 65 62 62 65 66 67 67 69 70 71 72 72 73 73 73 72 73 73 72 72 73 72 72 73 73 73 72 72 73 74 75 75 76 76 75 75 75 76 76 76 76 75 74
24 24 23 31 55 64 67 66 67 68 66 67 64 64 62 63 65 64 63 64 63 65 63 65 67 68 68 68 70 72 73 73 74 74 74 74 74 74 74 73 73 73 73 73 73 74 74 74 73 73 74 74 75 75 75 75 75 71 66 68 75 75 74
27 28 27 34 54 60 65 68 67 69 68 68 67 65 64 64 65 64 62 62 62 65 64 63 67 68 68 69 71 72 73 74 74 74 74 75 75 75 75 74 74 74 74 74 74 75 75 74 73 72 73 74 74 74 74 74 73 65 64 65 66 73 75
31 37 35 32 43 57 61 63 66 67 67 65 65 66 65 66 64 63 61 61 62 62 63 64 65 67 70 69 72 73 74 74 75 75 75 75 75 75 75 75 74 75 75 74 74 75 75 74 74 74 73 74 74 73 74 74 66 63 63 64 64 66 75
33 33 35 41 49 62 55 51 57 66 62 61 61 62 63 65 63 64 64 64 64 65 64 62 63 68 71 71 72 74 74 75 75 75 75 76 75 76 76 76 75 75 74 74 75 75 75 75 74 74 74 74 74 73 73 72 65 63 62 63 63 64 68
37 36 34 34 43 49 56 61 59 57 60 63 62 57 60 64 63 64 64 64 65 65 66 66 66 68 71 72 73 74 75 76 75 75 76 76 76 76 76 76 75 75 75 74 75 75 75 74 74 74 74 74 73 74 74 73 65 61 61 61 62 62 65
41 43 49 52 53 49 57 66 68 67 64 59 57 60 61 60 62 63 63 64 63 65 70 68 69 70 71 73 73 74 75 76 75 75 76 76 76 76 76 75 75 75 75 73 74 74 74 73 74 74 73 72 72 72 71 71 64 60 59 60 60 61 62
38 39 41 49 60 69 72 68 68 66 66 65 62 58 58 59 59 59 60 62 62 65 67 69 70 69 70 73 73 74 75 74 75 75 75 75 76 75 75 75 75 75 75 74 73 73 73 73 72 72 73 73 72 72 72 71 62 59 58 59 59 60 68
40 51 61 65 63 64 70 72 71 69 71 70 65 60 58 56 57 59 59 61 61 67 67 68 69 69 71 72 73 72 74 74 75 74 74 75 75 75 75 75 75 75 75 75 74 72 72 72 70 72 71 71 72 72 72 70 66 58 57 58 58 61 70
58 60 60 64 68 68 70 71 71 71 70 69 69 64 60 58 59 62 63 63 63 64 67 68 69 70 72 72 72 72 74 74 74 74 74 75 75 75 75 74 75 75 75 74 73 71 71 72 72 72 71 71 71 71 71 71 66 56 56 57 57 62 71
62 62 65 67 67 67 68 71 72 70 70 70 65 64 63 63 62 62 64 64 64 66 67 68 68 69 70 71 72 73 73 73 74 74 74 74 74 74 74 74 74 74 75 73 73 73 73 73 72 72 72 70 69 66 69 70 65 56 56 56 56 63 72
66 66 66 66 67 69 71 73 73 71 66 64 67 67 65 64 63 64 64 64 62 62 65 68 68 69 70 70 71 72 73 73 74 75 74 75 75 75 74 74 74 74 73 73 73 73 72 71 71 71 70 70 70 71 70 70 72 65 55 56 55 58 71
65 66 67 66 67 70 70 70 70 69 68 72 72 68 67 66 64 65 67 67 66 65 65 68 70 70 71 72 70 70 73 74 74 74 74 75 75 74 73 73 73 73 74 72 72 72 73 72 72 71 71 70 71 70 70 70 71 70 54 54 54 56 61
65 66 66 68 70 69 70 68 70 70 68 71 70 69 68 68 67 68 69 68 67 67 65 68 70 71 72 73 72 70 72 73 74 75 74 75 75 75 74 74 74 74 73 71 73 74 74 74 73 71 70 70 70 72 71 68 65 73 55 54 53 55 56
66 65 66 67 68 69 67 69 69 69 70 68 69 67 66 66 69 69 70 69 70 68 68 68 70 72 73 73 72 72 73 74 75 75 75 75 75 74 74 74 74 74 75 75 74 74 74 74 74 72 71 71 71 71 72 73 73 63 63 54 53 53 55
65 65 66 65 65 67 67 69 69 69 70 70 72 73 70 68 71 71 71 75 75 73 73 73 73 74 73 74 74 73 73 74 74 75 75 75 75 74 75 74 74 74 74 75 74 74 74 73 73 73 71 70 70 70 71 73 74 65 59 59 53 54 54
65 65 65 66 66 68 68 68 69 69 69 69 71 72 74 74 74 75 75 75 74 74 72 72 73 73 73 73 73 73 73 73 75 75 75 75 75 75 74 75 75 74 75 75 74 73 72 72 72 72 71 71 71 71 71 72 74 75 64 56 54 54 54
66 66 66 66 67 68 68 68 69 69 69 70 70 70 71 72 72 73 73 74 74 75 74 73 73 73 73 73 73 73 73 74 74 75 75 75 75 75 75 75 75 74 74 73 73 73 73 72 71 71 72 72 71 71 71 73 73 75 71 59 56 55 54
66 66 67 67 67 68 68 68 67 68 68 69 69 70 70 71 71 72 72 73 74 75 75 74 73 73 73 73 73 74 74 74 73 73 74 75 74 74 74 74 74 74 73 73 72 72 71 72 72 71 71 71 71 72 72 73 73 75 73 67 64 63 62
66 66 67 68 68 68 68 68 68 68 68 68 69 70 70 71 72 73 73 73 74 73 73 74 74 73 74 74 74 74 74 73 73 73 73 73 74 72 72 72 72 72 73 72 72 72 71 71 71 71 71 70 71 72 71 72 73 74 74 69 66 65 65
66 66 67 67 67 67 67 66 67 67 67 67 68 69 69 70 70 70 71 72 73 74 74 73 73 74 73 72 71 70 72 71 73 71 71 73 74 73 74 72 71 71 72 72 72 72 71 72 71 72 72 71 71 71 71 72 72 73 66 72 62 67 68
66 66 67 67 67 67 67 66 67 67 67 68 68 68 68 68 67 68 69 70 70 71 72 72 73 73 73 72 73 73 71 71 70 70 70 70 70 72 73 71 64 70 73 71 68 64 61 62 72 74 74 72 71 73 72 71 73 65 61 58 56 56 58
65 66 66 66 66 66 67 67 67 67 67 67 66 66 66 66 67 68 68 69 70 71 71 72 71 71 71 72 73 72 73 73 72 74 74 73 73 73 71 71 75 59 57 61 62 58 55 52 51 51 54 68 74 74 65 62 59 60 55 55 54 54 53
65 66 66 66 66 67 67 68 67 67 67 67 67 67 67 66 67 68 66 68 68 69 71 71 70 69 67 67 69 70 71 71 72 72 72 72 72 72 71 71 71 73 62 52 54 55 51 49 48 48 49 51 57 64 73 67 58 54 51 53 53 52 52

ECMWFFLT1_sfc_dewp_027.txt.gz
Dewpoint
42 47 53 58 60 60 62 65 66 66 67 68 68 67 67 68 70 71 72 74 75 75 76 76 75 75 75 75 75 75 74 74 74 73 72 72 73 73 73 73 74 75 72 71 73 73 73 73 72 72 73 74 75 74 75 75 76 75 76 76 75 74 74
46 44 48 54 58 60 62 65 67 66 66 68 69 69 68 69 70 71 72 74 75 76 76 76 76 76 75 75 74 75 76 75 75 75 74 74 74 74 73 74 74 75 74 72 71 73 74 72 72 72 73 74 75 76 74 75 76 76 74 75 74 74 74
45 42 45 49 51 59 63 64 66 66 67 67 68 68 68 70 71 72 73 74 75 76 76 76 76 76 75 75 75 75 75 75 75 74 74 73 73 72 73 74 74 73 74 73 72 71 73 73 74 73 73 74 74 76 75 75 76 75 75 75 74 73 74
42 37 41 46 54 61 62 64 66 66 66 66 67 68 69 71 71 72 72 73 75 75 76 76 76 74 74 75 75 75 75 75 76 74 73 73 73 73 73 73 74 74 73 74 72 70 71 74 74 75 75 74 75 75 75 74 74 75 75 75 74 74 74
43 43 42 45 52 59 62 62 64 67 66 66 68 70 70 70 70 70 72 73 73 74 74 74 73 73 74 74 74 74 75 75 75 75 74 74 75 75 73 72 73 74 73 73 74 73 73 74 74 75 74 75 75 75 74 74 73 75 75 75 74 74 73
34 40 43 43 44 52 61 62 63 64 65 65 66 68 68 68 69 69 70 72 72 73 74 75 74 74 74 74 73 73 75 75 75 76 75 75 75 73 73 74 73 74 72 73 73 73 73 73 73 74 74 74 73 72 72 73 73 73 75 75 75 74 72
34 40 42 43 44 48 58 62 61 63 64 64 65 67 68 67 68 68 68 69 70 72 72 72 72 73 75 74 74 74 74 73 75 74 74 75 74 74 75 75 75 73 74 74 73 73 73 74 74 75 75 74 75 72 73 75 74 74 75 75 75 75 74
40 43 45 44 45 50 58 62 62 62 64 64 64 65 67 67 67 67 67 68 69 69 70 70 71 73 75 74 73 73 73 73 74 74 75 74 74 75 74 74 74 75 75 73 73 73 73 74 74 74 74 74 75 75 73 75 75 73 73 75 75 75 74
38 44 44 42 45 46 50 59 62 62 64 65 65 66 66 67 66 66 67 67 68 67 69 68 70 71 74 74 74 74 73 73 74 75 74 73 72 72 72 73 75 75 74 73 71 74 73 74 74 75 75 75 75 76 74 75 75 75 74 74 75 75 74
40 43 46 42 44 42 49 56 62 65 65 66 66 67 66 67 67 67 66 66 66 66 67 67 67 69 73 73 73 73 73 74 73 72 72 71 71 71 71 72 73 74 73 72 71 72 75 74 75 76 76 75 75 76 75 75 75 75 74 74 75 75 75
44 54 53 48 51 53 54 55 62 67 66 70 69 64 66 67 66 66 67 66 65 66 66 67 67 68 71 72 71 71 73 72 72 72 72 71 70 71 70 70 70 72 73 72 71 70 73 75 75 76 77 75 75 75 76 75 75 76 75 74 74 75 75
52 54 58 54 53 53 54 61 66 70 70 71 66 64 68 69 66 65 65 66 65 65 65 66 66 66 69 71 70 71 71 72 71 70 71 71 70 70 70 69 68 70 72 72 71 71 70 74 75 75 76 77 76 76 76 76 76 76 76 74 73 74 75
45 54 58 55 58 57 62 66 66 68 69 65 63 64 64 64 65 64 67 67 65 64 65 67 67 68 68 70 69 71 71 71 71 72 71 72 71 71 70 68 67 67 69 71 71 70 70 71 75 75 76 77 76 75 76 76 76 76 77 76 75 75 75
54 51 55 57 59 60 62 64 65 68 69 66 63 64 64 63 63 65 66 65 65 64 64 65 67 68 69 71 71 72 71 71 73 73 73 73 74 73 71 70 69 69 69 72 72 71 71 70 73 75 75 76 76 76 76 76 76 77 77 77 75 74 75
34 33 48 53 60 64 64 63 66 67 67 66 64 64 64 63 64 66 67 66 67 63 63 66 67 68 68 70 72 73 73 74 73 74 74 74 75 74 73 73 73 73 72 74 73 73 72 71 71 74 75 75 76 76 76 76 76 75 76 76 76 75 74
26 26 28 46 58 62 65 66 67 68 69 70 67 67 63 64 66 64 64 64 63 66 63 66 68 70 69 69 71 73 74 76 76 75 75 75 76 76 75 73 73 73 74 74 73 74 74 74 73 72 74 75 75 76 76 75 75 72 67 69 76 76 74
30 31 30 35 53 61 65 65 66 69 70 71 70 67 66 66 66 64 62 63 62 65 64 63 69 68 68 70 71 73 75 76 75 76 76 76 75 76 76 75 73 74 75 74 74 75 76 74 72 71 73 74 74 75 75 75 74 67 65 66 68 74 75
34 38 37 35 38 41 65 62 64 68 68 67 68 68 66 68 65 64 62 62 62 62 62 63 65 66 71 70 73 75 76 75 76 76 76 76 76 76 76 76 75 75 75 73 73 75 73 73 74 74 72 73 73 73 74 75 68 64 64 65 65 68 76
36 35 38 43 42 43 36 47 63 67 62 61 62 64 64 65 63 66 65 65 64 65 63 62 62 67 72 71 73 75 76 76 76 76 76 77 76 76 76 76 75 74 73 73 74 73 75 75 74 74 73 73 74 73 73 74 67 63 63 64 64 65 70
38 39 39 38 40 40 45 48 48 53 52 58 59 51 58 65 62 64 64 63 65 64 67 67 65 67 70 73 74 75 76 76 76 76 77 77 77 76 76 76 75 74 74 74 74 74 74 74 75 75 75 74 74 75 74 74 66 62 62 62 63 64 68
43 43 44 44 45 50 67 67 66 63 63 58 50 53 57 55 61 63 62 64 63 66 72 71 71 72 72 73 74 75 75 76 76 77 77 77 77 77 76 76 76 75 74 73 73 74 74 74 75 75 75 74 73 74 73 72 65 61 61 61 61 63 65
35 34 35 39 54 62 63 62 65 61 61 66 62 55 53 53 53 58 61 61 63 64 68 71 72 70 72 73 73 73 74 75 77 77 77 77 77 77 76 76 77 76 75 74 73 74 74 74 74 74 75 75 75 73 72 71 63 60 60 60 60 62 70
25 31 42 54 54 58 67 68 66 66 69 67 65 58 54 51 51 53 58 61 62 68 66 68 71 70 73 73 72 72 74 75 76 76 77 77 77 77 76 76 77 77 76 74 73 73 73 73 73 74 73 74 74 72 72 71 66 58 58 58 59 62 72
59 58 58 62 65 64 66 67 70 70 70 69 69 66 63 59 57 61 65 64 63 63 65 66 67 69 71 70 72 73 75 76 76 77 76 77 76 77 76 75 76 76 76 74 73 72 72 73 73 73 73 72 72 72 72 71 68 57 57 57 57 63 73
60 61 62 62 62 62 66 70 72 70 69 68 63 67 69 68 65 62 65 66 65 66 66 66 67 68 68 69 72 75 75 75 76 76 76 77 77 76 76 75 76 76 76 74 74 73 73 73 73 72 73 72 72 68 70 71 68 56 56 56 56 63 74
63 63 61 60 60 68 70 70 72 72 69 67 71 70 69 68 67 66 65 65 63 62 64 67 68 69 70 70 72 74 75 75 77 77 77 77 77 77 76 76 75 75 74 74 74 73 72 72 72 72 72 72 71 71 71 71 73 67 55 55 55 58 73
63 63 63 63 66 70 68 68 70 70 68 71 73 72 71 70 66 66 68 67 67 65 64 67 69 71 72 73 70 72 75 75 76 76 77 77 76 75 75 75 74 74 75 73 73 73 73 72 72 71 72 71 72 71 71 71 71 73 55 55 55 56 63
62 63 62 66 69 70 69 67 71 71 69 72 70 70 69 70 70 69 69 67 66 67 66 69 71 71 73 73 72 71 73 75 76 76 76 77 76 76 75 75 75 75 74 73 74 75 75 75 74 72 72 72 72 73 73 70 65 72 57 54 54 55 56
63 63 64 66 67 68 66 68 70 69 70 69 71 72 72 67 70 70 69 69 70 68 69 68 70 72 73 73 72 74 73 75 76 76 76 76 76 76 75 75 75 75 76 76 75 75 74 75 75 74 72 73 73 73 74 75 74 62 65 54 53 53 55
65 66 65 64 65 67 66 69 71 71 71 70 72 73 74 73 70 71 71 71 72 71 70 70 71 74 73 73 73 73 73 73 74 76 76 76 76 76 76 75 75 75 76 76 75 74 74 74 74 74 72 71 71 71 71 73 74 66 60 61 53 54 53
64 65 64 65 65 67 68 68 69 69 70 70 72 73 74 75 73 72 74 76 76 75 74 71 71 72 73 73 73 74 73 73 75 75 76 76 75 76 75 76 76 75 76 76 74 74 73 73 73 74 73 72 71 69 70 71 75 74 66 58 54 53 53
65 65 66 66 66 68 68 66 68 68 69 69 71 71 72 73 73 74 74 74 75 76 74 74 75 75 75 76 76 75 75 74 74 76 76 76 76 76 76 76 75 74 75 73 72 74 74 73 71 71 72 72 71 72 72 74 72 74 73 61 56 55 54
65 66 67 67 68 68 69 69 68 69 69 69 69 70 70 71 71 72 73 74 74 75 76 75 74 74 74 75 75 75 76 75 74 74 75 76 75 74 74 73 73 73 74 73 71 72 71 72 72 72 71 71 71 72 72 72 72 72 73 72 67 64 62
66 66 67 67 68 68 69 68 68 69 69 69 70 71 71 72 72 72 72 73 74 74 75 74 74 74 74 74 74 74 74 73 74 73 73 74 74 73 73 73 73 72 73 72 72 72 71 71 71 70 71 70 70 71 71 71 71 71 72 73 71 68 67
66 66 67 67 68 68 68 68 68 68 68 69 70 70 70 71 72 72 72 73 73 74 73 74 74 75 74 74 73 71 74 73 73 73 73 73 74 72 73 72 71 71 71 71 71 72 70 71 72 72 71 71 72 72 72 72 72 73 66 76 66 70 71
66 67 67 66 66 67 66 67 67 68 68 68 69 69 69 69 70 70 70 71 72 74 74 74 74 73 73 73 72 72 71 72 70 71 71 71 71 72 73 73 64 72 76 73 70 63 54 60 73 73 73 73 74 75 73 72 74 57 53 54 55 57 59
66 66 66 66 66 66 67 67 67 66 66 66 65 65 66 68 68 69 68 70 71 71 72 72 73 73 72 74 74 73 73 72 71 74 74 73 72 72 70 70 74 62 59 61 63 60 56 53 52 52 56 68 72 72 64 61 58 55 53 52 52 49 52
66 66 66 67 68 68 68 67 67 67 67 68 68 67 68 65 66 66 65 67 68 69 71 70 70 69 68 69 71 72 72 72 72 72 72 72 73 72 72 70 72 75 64 56 59 58 56 54 52 52 50 51 57 62 70 65 57 49 47 47 47 47 46

ECMWFFLT1_sfc_dewp_030.txt.gz
Dewpoint
39 53 55 55 56 56 58 61 64 64 65 67 68 67 67 68 70 72 72 73 73 73 74 74 74 74 74 74 74 75 75 75 75 75 75 74 73 72 73 74 74 75 73 74 74 74 75 75 74 74 75 76 75 76 77 77 78 77 77 78 77 77 75
41 51 54 54 57 58 61 64 66 65 65 67 68 69 67 69 70 71 72 74 74 74 74 74 75 74 74 74 74 75 75 75 75 75 75 75 74 74 73 74 75 76 76 75 75 76 76 75 74 74 74 75 75 76 76 77 77 77 76 77 77 77 76
39 42 56 56 57 59 62 61 65 67 66 66 68 67 68 70 71 71 72 73 74 75 74 74 75 74 75 75 75 75 74 74 75 75 74 73 73 70 73 74 75 75 75 75 76 75 75 75 75 75 74 74 74 76 76 76 77 76 77 77 76 76 76
45 41 43 54 57 60 60 61 63 65 65 65 67 67 68 71 71 72 72 72 73 74 75 74 74 73 74 75 75 75 75 74 74 73 72 72 72 72 72 73 74 74 75 75 74 74 73 74 74 74 76 75 75 75 76 75 75 76 77 77 76 76 76
46 42 42 54 57 59 58 59 62 65 60 64 68 70 69 70 69 70 71 71 72 73 74 74 72 73 74 75 74 74 74 74 74 74 73 73 73 73 72 71 73 73 73 75 75 74 75 75 74 74 75 76 75 76 76 76 75 77 77 76 76 75 76
48 44 43 52 52 53 54 57 57 61 64 65 66 68 67 67 67 68 70 73 73 73 74 74 74 74 74 74 74 75 75 75 75 74 74 74 74 73 72 72 72 72 71 74 74 74 73 75 74 74 73 74 74 74 75 76 75 76 76 76 75 74 74
44 42 44 51 52 52 51 52 56 61 65 65 63 67 67 66 67 67 68 71 73 74 74 74 73 73 74 75 75 75 75 74 75 74 74 73 74 74 73 73 73 73 73 74 74 74 73 73 74 75 75 73 73 73 75 76 75 75 76 76 76 75 75
46 46 48 48 48 47 51 59 59 57 60 66 63 66 66 66 66 66 68 70 72 72 73 73 73 74 75 75 74 73 74 73 73 74 73 72 73 73 73 73 73 73 74 73 74 75 73 73 72 75 75 74 74 74 75 76 76 75 75 76 76 75 75
49 49 45 41 44 45 47 53 53 57 61 61 62 64 67 67 66 67 68 69 71 71 72 73 73 73 75 75 74 74 74 74 74 74 73 71 71 71 70 72 74 74 74 73 73 75 74 74 72 74 76 75 75 76 75 76 75 75 75 75 76 75 74
45 47 47 42 50 47 56 57 60 62 62 63 63 67 67 67 67 67 67 68 69 70 71 72 72 72 73 74 73 72 73 74 74 73 71 71 72 71 70 71 72 73 73 73 72 73 74 75 74 74 75 75 76 76 75 75 75 75 74 75 75 75 75
50 52 52 47 53 58 59 60 61 63 63 66 69 66 68 68 68 66 67 68 69 69 71 72 72 72 72 72 72 71 73 72 72 73 73 72 71 71 70 70 70 72 72 71 72 73 74 74 75 76 75 75 76 76 76 75 75 75 74 74 75 75 75
56 52 52 52 53 58 57 60 62 64 65 69 69 66 70 70 67 67 67 67 67 68 70 70 70 71 72 72 71 72 72 72 71 71 72 71 70 70 70 70 70 72 73 72 72 73 73 74 74 75 76 75 75 76 76 76 75 75 75 73 74 75 75
58 60 56 54 58 61 63 65 65 64 67 69 66 66 67 68 67 67 69 69 67 67 68 70 70 71 70 72 72 72 71 72 71 71 71 71 70 71 70 70 70 70 71 72 72 72 71 73 74 75 76 76 75 75 76 76 75 76 76 75 75 75 75
58 49 54 58 60 60 63 64 70 71 69 68 66 66 66 66 67 68 70 68 68 66 66 67 70 70 71 73 73 73 71 71 73 72 73 72 73 72 71 70 71 70 72 74 73 72 71 72 74 74 75 76 76 76 76 76 76 76 76 76 75 75 75
43 45 51 53 65 67 63 61 67 72 71 70 66 66 66 65 67 69 70 69 69 66 66 68 69 70 70 72 73 74 73 73 74 73 73 73 73 73 72 72 72 72 73 74 74 72 72 71 73 74 74 75 76 76 75 75 75 75 75 76 76 75 74
35 36 40 49 58 60 71 70 75 73 73 72 68 69 64 66 69 68 68 67 67 69 67 69 70 71 69 70 73 74 74 74 74 74 74 73 74 74 73 72 73 73 73 73 74 74 74 73 72 73 74 74 75 76 76 75 75 71 67 69 75 75 74
32 37 43 52 65 59 68 69 71 74 74 74 72 70 68 68 68 67 65 65 65 69 68 67 71 70 69 70 73 74 75 75 75 75 74 74 74 75 74 74 73 74 73 73 74 74 75 74 72 70 72 73 74 75 75 75 74 67 65 66 68 73 74
37 49 46 50 59 63 66 66 70 70 71 69 68 71 69 71 68 65 64 65 65 65 66 66 69 70 72 71 74 75 75 75 75 75 75 75 75 75 75 74 74 74 74 73 72 74 74 74 74 73 72 74 74 74 75 75 69 65 64 65 65 68 74
36 35 38 53 56 65 59 61 67 69 66 66 66 65 65 69 65 67 67 67 67 67 64 64 64 71 73 72 74 75 76 76 76 76 76 76 75 75 75 75 74 74 73 72 73 73 75 75 74 74 73 73 74 74 74 75 68 64 63 64 64 65 70
34 34 37 39 41 42 60 67 65 67 64 68 68 62 63 66 65 68 66 65 69 67 68 68 67 69 73 73 74 76 76 76 76 76 76 76 76 75 75 75 75 74 73 73 73 74 74 74 74 74 74 73 74 75 74 74 68 63 62 62 63 64 67
42 44 43 50 56 51 67 69 69 69 65 53 52 61 65 64 62 66 65 66 66 69 72 72 70 71 75 73 74 76 76 77 76 76 76 77 77 76 75 75 76 75 74 72 72 73 74 74 74 74 74 73 73 74 74 73 66 62 61 61 61 63 65
31 33 38 44 67 70 70 64 65 57 69 69 60 56 52 53 60 61 61 61 64 67 71 73 72 71 75 74 74 75 76 76 77 77 77 77 77 76 76 76 76 76 75 73 71 72 73 74 73 74 74 74 74 73 73 73 64 61 60 60 60 62 69
61 60 61 62 61 64 70 70 69 70 72 68 66 61 55 52 48 53 59 61 61 69 69 71 73 71 73 75 74 74 75 76 76 77 77 77 77 77 76 76 77 77 76 74 73 73 72 73 72 73 73 74 75 74 73 72 67 60 59 59 59 62 71
61 60 59 59 65 67 71 70 68 66 65 64 62 61 63 62 63 69 77 66 66 67 67 69 71 72 73 74 74 74 75 76 77 77 77 77 77 77 77 76 76 76 76 74 72 71 71 72 72 72 72 73 74 74 73 73 69 58 57 58 58 63 72
61 61 60 61 67 66 65 68 68 69 71 71 70 72 70 69 71 72 72 75 69 67 68 68 69 71 72 73 75 75 76 76 77 77 77 78 78 78 77 76 76 76 77 74 73 72 73 73 73 73 73 72 73 70 73 73 69 59 57 56 57 62 73
61 62 61 60 65 65 68 71 70 71 67 69 72 72 73 72 73 72 74 74 66 63 67 69 70 72 72 73 75 76 76 75 77 78 78 78 78 78 77 77 76 76 75 75 73 72 71 72 73 73 73 73 73 73 73 73 74 70 56 56 56 58 72
60 61 61 60 63 71 68 67 70 70 69 72 74 71 71 72 70 73 75 75 73 70 66 70 72 74 74 74 73 75 76 76 77 78 78 78 78 77 76 76 76 75 76 74 74 74 74 72 72 72 73 73 73 73 73 73 73 72 55 54 55 56 62
61 62 63 64 67 68 67 66 69 69 68 70 70 71 73 75 73 75 76 74 72 73 70 77 74 75 75 76 73 73 76 76 77 78 78 78 79 78 77 77 77 76 76 74 75 76 75 75 74 73 73 73 73 74 74 72 67 73 58 54 53 54 56
64 64 64 64 65 66 65 67 68 69 70 70 70 70 72 74 76 74 74 74 73 74 77 77 78 76 76 77 74 75 76 78 78 78 78 78 78 78 77 78 77 77 77 77 77 77 76 76 76 75 74 75 75 75 76 76 74 64 67 54 53 53 54
64 64 63 63 63 65 65 67 70 69 70 70 71 72 73 75 76 72 71 72 77 75 76 77 77 78 77 76 77 76 75 77 77 78 78 78 78 78 78 78 77 78 78 78 77 77 77 77 77 76 75 73 74 74 74 77 77 69 62 61 52 53 53
63 64 64 64 64 67 67 67 68 68 68 69 70 72 73 74 75 76 76 76 78 78 78 77 74 79 77 76 76 77 76 77 78 78 78 78 78 78 78 78 77 77 78 78 78 77 77 77 76 77 75 75 74 74 75 76 78 77 68 58 54 53 53
64 65 65 65 67 67 67 67 68 68 68 69 70 71 72 73 73 75 75 75 76 77 77 78 77 78 78 78 78 78 78 77 77 78 77 78 78 78 79 78 77 77 78 78 77 77 77 77 75 75 75 75 74 74 75 77 78 78 77 62 57 54 53
65 66 66 66 67 68 68 68 67 68 68 70 70 71 70 72 73 73 73 74 74 75 76 76 76 77 78 79 80 79 79 78 79 78 78 79 79 79 78 78 78 77 77 77 76 76 75 75 75 74 73 74 74 75 75 75 75 75 76 74 68 64 62
66 66 67 68 68 68 68 68 68 68 69 69 70 71 71 72 73 73 74 73 73 74 74 74 74 76 75 75 77 78 77 76 75 77 76 77 75 75 75 75 75 75 76 75 75 74 74 74 73 73 73 72 73 74 75 74 75 76 70 68 70 71 69
66 67 67 67 68 67 67 67 68 68 68 68 69 70 70 71 71 71 72 73 73 74 75 75 74 76 74 73 73 71 76 74 76 74 74 75 76 76 77 75 74 75 74 73 75 74 71 72 74 74 75 75 76 78 76 75 75 63 52 57 51 59 68
66 67 67 67 66 66 66 66 67 67 68 68 70 69 69 70 70 70 71 72 74 74 75 75 75 75 75 75 74 74 75 74 72 73 73 73 74 75 77 73 69 75 78 72 61 58 59 64 73 73 73 73 75 74 72 70 62 47 44 44 45 46 46
66 67 67 66 65 66 66 66 66 66 66 68 69 69 70 69 69 71 68 72 73 73 76 76 75 75 74 75 74 74 76 75 78 77 77 79 78 79 77 74 70 49 55 61 63 54 48 48 48 50 56 68 70 65 51 50 46 44 44 44 43 44 44
65 66 66 67 68 67 66 66 66 66 66 67 68 67 69 64 65 69 64 71 71 71 72 73 75 75 73 72 72 75 75 75 76 76 75 75 76 76 75 76 76 73 55 53 56 53 49 47 45 46 48 52 57 62 65 55 47 44 45 44 44 43 43

ECMWFFLT1_sfc_dewp_033.txt.gz
Dewpoint
56 57 59 60 60 61 62 62 62 62 63 65 66 66 66 67 67 68 68 69 69 70 70 70 70 71 71 70 71 71 72 72 72 72 71 71 71 72 71 71 71 72 72 72 72 73 73 73 72 73 73 74 74 75 75 75 76 75 75 76 74 74 73
54 56 57 59 60 62 62 62 63 63 63 66 66 66 67 67 67 68 69 69 69 70 70 70 71 71 71 71 71 72 72 72 72 73 72 72 72 72 72 72 71 71 72 73 72 73 74 74 73 72 74 74 74 75 75 75 75 75 75 76 74 73 73
53 54 56 57 58 61 62 62 62 62 63 65 67 67 67 67 67 68 69 69 69 70 70 71 71 71 71 71 71 71 72 72 72 72 72 71 72 71 72 73 72 71 71 73 73 73 74 74 73 72 73 74 74 74 75 75 75 76 75 76 75 74 73
52 53 55 57 58 60 62 63 63 62 63 64 66 66 67 68 68 68 69 69 70 70 70 71 71 71 71 71 71 71 72 72 72 72 72 72 72 71 71 72 73 73 72 72 74 73 73 74 73 72 74 73 74 74 74 74 74 75 75 75 75 74 74
52 53 55 56 57 58 61 63 63 63 63 64 65 67 67 68 68 69 69 70 70 70 70 71 71 71 71 71 72 72 72 72 72 72 72 72 72 71 70 70 72 73 73 73 73 74 73 73 73 73 72 73 73 73 74 74 74 74 74 75 74 74 74
51 53 54 55 56 57 59 61 63 63 62 63 64 66 67 67 68 68 69 70 70 70 71 71 71 72 71 71 72 72 72 72 72 72 72 72 72 71 70 70 70 72 73 73 73 74 74 73 73 73 72 72 73 73 73 73 74 74 74 75 74 74 74
51 53 53 55 56 57 58 59 61 62 63 63 64 65 66 67 68 68 69 70 71 71 70 71 71 71 72 72 72 72 72 72 72 72 72 72 72 71 71 70 70 70 71 74 73 73 73 73 73 72 72 73 73 73 73 74 73 74 74 74 74 74 74
49 52 52 54 56 57 58 58 60 62 63 63 65 66 66 67 67 68 68 69 71 71 71 71 71 71 72 72 72 71 72 72 72 72 72 72 71 71 71 70 70 70 71 71 73 73 72 72 73 73 72 72 73 73 73 74 74 74 74 74 74 74 74
44 51 52 53 55 56 57 58 59 61 62 63 63 65 67 67 67 67 68 69 70 71 71 71 71 71 72 72 72 72 72 72 72 72 72 71 71 71 71 70 70 70 70 70 72 73 73 72 72 74 73 72 72 73 73 74 74 74 74 74 74 73 73
43 48 52 53 53 55 57 58 59 61 62 63 63 63 66 67 67 67 68 68 69 70 71 71 71 71 71 72 72 72 72 72 72 71 71 71 71 70 70 70 70 70 70 70 71 72 73 72 71 72 74 72 72 72 73 74 74 74 74 74 74 74 73
44 49 53 52 54 55 56 57 59 61 62 63 63 64 66 67 67 67 67 68 69 70 71 71 72 72 71 71 71 72 72 72 72 71 71 71 70 70 70 70 70 70 70 70 70 71 73 73 72 71 73 74 72 72 72 73 74 74 73 74 74 74 73
44 46 53 53 54 54 54 56 59 62 63 65 64 64 66 67 67 67 66 67 69 71 71 72 72 72 71 71 71 72 72 72 72 71 71 71 70 70 70 70 70 70 70 70 71 71 72 73 73 71 71 73 73 73 72 72 73 74 73 73 74 74 74
44 46 52 52 53 53 55 57 58 61 63 64 64 62 64 66 67 66 67 67 68 70 72 72 72 72 72 71 71 71 72 71 71 71 71 71 70 69 69 69 69 70 70 71 70 71 71 72 72 72 71 71 73 74 73 73 73 74 74 73 73 74 74
55 46 49 50 51 54 56 58 59 61 62 63 63 62 62 65 66 67 67 67 67 69 71 72 73 72 72 72 71 71 71 71 71 71 71 71 70 70 69 69 69 69 70 71 70 70 71 72 72 72 72 71 72 73 74 74 73 73 74 73 73 73 73
45 47 52 49 52 54 56 57 59 61 61 62 61 61 62 64 67 67 67 67 68 68 70 71 72 72 72 72 72 71 71 71 71 71 71 71 71 70 70 70 70 70 70 71 71 71 70 71 72 72 72 72 72 72 73 74 74 74 73 73 73 73 73
50 53 52 53 55 56 58 59 61 62 62 62 62 62 64 66 67 67 67 67 67 68 68 70 71 72 72 72 72 72 71 71 71 71 71 71 71 71 70 70 70 70 70 71 71 71 71 71 72 72 72 72 73 72 72 73 74 71 66 68 73 72 73
50 52 54 55 57 57 59 61 62 62 63 63 64 65 66 67 68 67 67 67 67 67 68 69 71 71 71 72 72 72 72 71 71 71 71 71 72 71 71 70 70 70 70 71 72 72 72 71 71 71 72 72 72 73 73 73 72 67 65 65 66 71 72
49 52 55 58 62 63 63 64 67 65 63 64 66 66 66 67 68 67 67 67 67 67 67 67 69 70 71 71 72 73 72 72 72 71 71 71 71 71 71 70 70 70 70 70 71 72 72 72 71 71 71 72 72 72 73 73 68 65 64 64 64 66 73
52 59 62 65 66 67 67 69 70 70 68 66 67 67 66 67 67 68 68 68 68 68 68 67 67 69 70 71 72 73 73 72 72 72 72 71 71 71 71 71 70 70 70 70 71 72 72 72 71 71 71 72 71 71 72 73 67 64 63 63 63 64 68
43 48 59 62 63 63 64 67 68 69 68 68 68 68 68 68 67 68 67 67 68 67 68 67 67 68 70 70 71 72 73 73 72 72 72 72 71 71 71 71 70 70 70 70 70 71 72 72 72 71 71 71 72 72 72 72 67 63 62 62 62 63 65
62 62 61 64 63 63 65 66 67 67 66 67 66 67 66 66 67 68 67 67 68 67 68 68 68 68 70 70 70 72 73 73 72 72 72 72 72 71 71 71 71 70 70 70 70 70 71 72 72 71 71 70 71 72 72 72 66 63 61 60 61 62 63
61 66 68 69 70 70 70 69 69 70 70 69 66 62 63 65 65 65 65 65 66 68 68 68 68 68 71 70 70 71 73 73 73 72 72 73 72 72 71 71 71 71 71 70 70 70 70 71 71 71 71 71 71 70 71 72 64 62 61 60 60 61 67
62 66 66 66 66 67 68 67 67 69 68 66 64 62 62 62 61 64 64 64 64 67 69 69 69 68 70 72 71 71 73 73 73 73 73 73 73 72 72 72 72 72 72 71 70 70 70 70 70 71 71 71 71 71 70 71 66 61 60 59 59 61 69
60 63 65 64 64 65 67 68 68 70 71 70 71 71 71 70 68 68 73 72 64 64 66 68 69 69 70 72 71 71 72 73 73 73 73 73 73 73 73 72 72 72 73 71 70 69 69 70 70 70 71 71 72 71 71 70 67 59 58 58 58 62 70
60 60 62 63 64 66 67 70 72 71 71 70 70 71 71 72 72 73 72 73 73 66 64 66 67 70 70 72 73 72 73 74 74 73 73 73 73 73 73 73 73 73 73 73 72 71 70 70 70 70 70 71 71 69 71 71 68 59 57 56 57 62 70
62 62 61 61 66 67 69 71 70 70 69 69 70 73 73 74 73 72 74 75 73 71 66 65 66 69 70 72 73 73 73 74 74 74 74 74 74 74 74 74 74 74 74 73 73 72 71 71 71 70 70 71 71 71 72 72 72 69 55 55 55 58 70
63 63 63 63 68 70 67 68 70 69 67 70 72 71 71 73 75 74 73 74 73 72 72 68 68 70 71 72 73 73 73 74 74 74 74 74 75 75 75 75 74 74 74 74 73 73 72 71 71 71 71 71 71 71 71 72 72 71 56 54 54 55 60
63 63 63 66 71 68 66 68 69 68 70 71 71 71 71 72 74 76 75 73 72 73 72 74 70 70 71 72 73 73 73 74 75 75 75 76 76 76 76 76 75 75 74 74 74 73 73 72 71 71 71 72 72 72 72 71 68 72 59 54 53 54 55
63 64 64 64 65 67 66 68 69 69 70 70 70 70 71 73 74 74 75 73 75 77 77 76 74 72 72 72 73 74 74 74 75 75 77 76 76 76 76 76 76 75 75 75 74 74 73 73 72 72 71 71 73 73 73 73 72 65 69 55 53 53 54
64 64 64 64 66 67 68 67 71 70 69 70 72 72 72 73 73 77 75 74 76 77 77 76 76 74 73 72 73 74 74 74 75 76 77 77 77 76 76 76 76 76 75 75 74 74 74 74 73 73 72 71 72 74 74 75 74 67 63 62 54 54 53
63 64 65 65 67 68 68 67 70 68 69 70 71 71 73 74 73 74 74 74 75 76 76 76 76 75 74 73 73 75 75 75 76 76 77 77 77 76 76 76 76 76 76 75 75 75 74 74 74 74 73 72 72 72 74 75 76 76 67 59 55 54 54
65 66 66 67 67 68 68 68 68 69 69 70 70 70 72 73 73 72 72 75 75 75 75 76 76 76 75 75 74 75 76 76 76 77 77 77 77 77 77 76 76 76 76 76 75 75 75 75 75 75 74 74 74 73 73 74 74 75 72 64 59 55 53
64 65 66 67 69 69 69 69 68 69 70 70 69 70 71 71 73 73 74 74 74 75 75 75 77 76 76 76 76 76 76 76 76 77 77 77 77 77 78 77 77 76 76 76 76 76 75 75 75 75 74 74 74 74 74 74 74 71 68 68 66 63 61
64 65 66 67 69 69 68 68 68 69 69 68 69 70 71 72 71 72 73 73 73 74 74 76 75 75 75 76 77 76 76 77 80 78 76 77 77 77 77 77 77 76 76 76 76 76 75 75 74 74 74 73 74 74 74 74 63 62 64 64 65 67 66
65 65 66 67 68 68 67 67 68 68 68 68 69 70 70 70 70 72 75 74 73 74 74 75 78 76 74 75 74 75 75 76 77 76 76 76 76 76 76 76 76 76 74 69 71 75 74 75 74 74 75 75 74 74 72 66 63 60 49 56 51 61 64
65 65 66 67 68 68 66 67 67 67 66 67 68 69 68 70 71 72 71 72 73 73 75 73 73 75 74 75 75 74 74 74 74 75 75 75 75 74 69 63 52 64 70 67 59 56 56 61 69 71 69 62 59 63 69 64 60 50 45 46 45 44 46
65 64 65 66 67 67 66 66 67 67 67 68 68 69 69 71 70 69 70 71 71 71 72 72 75 74 73 73 73 73 74 75 75 75 75 76 75 72 69 68 61 47 47 55 56 51 47 48 50 54 59 61 57 54 52 51 46 43 44 43 44 45 45
65 65 66 66 68 68 68 67 67 67 68 68 68 67 67 66 67 69 68 70 70 70 71 71 74 72 71 72 72 72 72 74 74 73 73 73 74 72 69 66 64 62 50 44 49 49 47 47 48 48 50 54 57 57 54 46 43 42 42 42 42 44 44

ECMWFFLT1_sfc_dewp_036.txt.gz
Dewpoint
56 57 59 60 61 61 61 61 61 62 62 62 63 64 64 64 65 66 66 67 68 67 68 69 69 69 69 69 69 69 69 69 70 70 70 69 70 69 68 69 69 68 69 70 71 71 72 73 73 73 74 75 75 75 75 75 75 75 75 75 74 74 73
56 57 59 60 60 61 61 61 61 62 63 63 63 64 64 64 65 66 66 67 67 67 67 68 69 69 69 69 69 69 69 69 70 70 70 70 70 70 69 69 69 70 70 70 71 72 72 73 73 73 73 74 75 75 75 75 75 75 74 74 74 74 73
55 57 58 59 60 61 61 61 61 62 63 63 63 64 64 65 65 66 66 67 67 68 68 68 69 69 69 69 69 69 69 69 69 70 70 70 69 70 70 70 69 70 71 71 72 72 73 73 73 72 72 73 74 74 75 75 75 75 74 74 74 73 73
56 57 59 60 60 61 61 61 61 61 62 63 63 64 64 65 65 66 67 66 67 68 68 68 69 69 69 69 69 69 69 70 70 70 70 70 70 70 70 70 70 70 71 72 72 72 73 73 72 72 74 73 73 74 74 75 75 75 75 74 74 74 73
56 58 59 60 60 61 61 61 61 61 62 63 64 64 65 65 66 66 67 67 67 68 68 68 68 69 70 69 69 69 70 70 70 70 70 70 70 70 70 70 70 70 70 71 72 73 73 73 73 72 72 73 73 73 74 74 74 74 75 74 74 74 73
56 58 59 59 60 60 61 61 61 61 62 62 63 64 65 66 66 66 67 68 67 68 68 68 68 69 69 70 69 69 70 70 71 71 71 71 71 70 70 71 71 70 70 70 72 73 73 73 73 72 72 72 73 73 73 73 74 74 74 74 74 74 74
56 57 58 59 60 60 61 61 61 62 62 62 64 65 65 66 66 66 67 67 67 67 68 68 68 69 69 70 70 70 70 70 71 71 71 71 71 71 70 71 71 71 70 71 71 72 73 73 73 73 72 72 73 73 73 73 73 74 74 74 74 74 74
55 56 58 59 59 60 61 61 62 62 62 63 64 65 65 66 66 66 67 67 68 68 68 68 69 69 69 70 70 70 70 70 71 71 71 71 71 71 71 71 71 72 72 71 71 71 72 72 73 73 72 72 72 72 73 73 73 73 73 73 73 73 74
55 56 57 58 59 60 61 61 62 62 62 62 64 65 65 66 66 66 67 67 68 68 68 68 69 69 70 70 70 70 70 70 70 71 71 71 71 71 71 71 70 71 72 72 72 72 72 72 72 72 72 72 72 72 72 73 73 73 73 73 73 73 73
54 55 56 57 58 59 61 62 62 62 62 63 64 65 65 66 66 66 67 67 68 68 68 68 69 69 70 70 70 70 70 71 71 71 71 71 71 71 71 71 70 70 70 71 72 72 72 72 73 72 72 72 72 72 72 72 72 72 73 73 73 73 73
53 54 55 56 57 58 60 61 62 62 62 63 64 64 66 66 66 66 67 67 68 68 68 69 69 69 70 70 70 70 70 70 71 71 71 71 71 71 71 71 70 70 70 70 70 72 73 73 73 73 73 72 72 72 72 72 72 72 72 73 73 73 73
52 53 55 55 56 57 58 61 62 63 63 63 63 64 65 66 66 66 67 67 68 68 69 69 69 69 70 70 70 70 70 70 70 70 71 71 71 71 71 70 70 70 70 70 69 70 72 72 72 72 73 73 72 72 72 72 72 72 72 72 73 73 73
52 53 54 55 56 56 58 60 61 63 63 63 63 63 64 65 65 66 67 67 68 69 69 69 69 70 69 70 70 70 70 70 70 70 70 71 71 71 71 70 70 70 69 70 69 69 69 71 72 72 72 72 73 72 72 72 72 72 73 73 73 73 73
58 52 54 54 55 56 57 58 60 62 63 63 63 64 65 65 65 66 67 67 68 69 69 70 70 70 70 70 70 70 70 70 71 71 71 71 71 71 70 70 70 70 70 70 69 69 69 69 71 72 72 71 72 72 72 72 72 72 73 73 73 73 73
51 51 52 53 54 56 57 58 59 61 62 62 63 63 64 65 66 66 67 67 68 68 69 70 70 70 70 70 70 70 70 71 71 71 71 71 71 71 70 70 70 70 70 70 70 70 69 69 70 71 72 72 71 71 72 72 72 72 72 73 73 73 73
49 50 51 52 53 55 57 58 59 60 61 62 62 63 63 65 66 67 67 67 68 68 69 70 70 71 71 70 70 70 71 71 71 71 71 71 71 71 71 70 70 70 70 70 70 70 70 69 70 70 71 71 71 71 71 72 73 70 65 67 72 73 73
47 49 50 51 53 54 56 57 59 60 61 62 62 62 63 64 66 67 67 67 67 68 69 70 70 71 71 71 71 71 71 71 71 71 71 71 71 71 71 71 70 70 70 70 70 70 70 70 69 70 70 71 71 71 71 71 71 66 64 64 65 71 73
45 49 50 51 52 54 56 57 59 60 61 62 63 63 63 64 65 66 66 67 67 67 69 70 71 71 71 71 71 72 71 71 71 71 71 71 71 71 71 71 70 70 69 69 69 70 70 70 69 70 70 71 71 71 71 71 66 64 63 63 63 65 72
46 49 50 52 53 55 55 56 58 60 61 62 63 63 63 64 65 66 66 67 67 67 68 70 71 71 72 72 72 72 72 72 71 71 71 71 71 71 71 71 70 69 69 69 69 69 70 70 70 69 70 70 71 71 71 71 66 63 62 63 63 63 66
62 62 61 60 58 58 60 62 61 60 61 62 63 63 63 64 64 66 67 67 68 67 68 68 70 71 72 72 72 72 72 72 72 71 71 71 71 71 71 71 70 70 69 69 69 69 69 70 70 70 70 70 70 71 71 71 66 62 61 61 62 62 64
66 66 65 65 65 66 67 67 67 66 65 63 63 64 65 65 65 66 66 67 67 68 68 68 69 70 72 72 72 73 73 72 72 72 71 71 71 71 71 71 70 70 70 69 69 69 69 69 69 70 70 70 70 70 70 70 65 62 60 60 60 61 62
63 63 64 65 65 66 66 66 65 64 64 65 63 64 67 67 67 67 67 67 68 68 68 69 68 69 71 72 72 72 72 72 72 72 72 71 71 71 71 71 71 70 70 69 69 69 69 70 70 70 70 70 70 70 70 70 63 61 60 59 59 60 66
64 65 66 67 68 68 69 71 71 70 71 71 71 71 70 66 64 67 67 67 67 68 69 69 68 68 69 71 71 72 72 72 72 72 72 71 71 71 70 70 70 71 70 70 69 69 69 69 70 70 71 71 71 70 70 70 65 60 59 58 59 60 68
65 66 67 68 69 69 69 69 69 70 70 70 71 72 73 72 72 71 71 68 67 68 68 68 68 69 69 70 70 71 72 72 72 72 72 72 71 71 71 70 70 70 71 70 69 68 68 69 69 70 70 71 71 71 70 70 67 59 57 58 58 61 69
65 65 66 66 67 68 68 69 70 70 71 70 70 70 72 74 74 73 73 74 72 67 67 68 68 68 68 69 70 71 71 72 72 72 72 72 72 71 71 70 70 70 70 70 69 69 69 69 69 69 69 70 71 69 70 71 68 58 57 57 57 62 69
64 65 66 66 67 68 69 69 69 69 69 69 69 70 71 73 74 75 75 74 73 72 67 66 67 69 68 69 70 71 71 72 72 72 72 72 72 72 72 71 71 70 70 70 70 69 69 69 69 69 69 69 70 70 71 71 71 66 56 56 56 58 69
64 65 66 67 67 70 68 68 69 69 69 69 70 70 71 72 73 74 74 74 71 71 72 72 69 68 69 70 70 71 71 71 72 72 72 72 72 72 72 72 71 71 71 70 70 70 70 69 69 69 69 69 69 70 70 71 71 69 55 55 55 56 60
65 65 66 68 70 69 67 68 68 68 69 70 70 71 71 72 72 74 74 72 73 74 76 76 75 71 69 70 71 71 71 71 72 72 73 73 72 72 72 72 72 72 71 71 71 71 71 70 70 69 69 69 70 70 70 71 68 72 57 55 54 55 55
64 65 66 66 66 68 67 68 68 68 69 69 70 70 71 72 72 74 74 72 72 74 75 76 76 73 70 70 71 72 72 72 72 73 73 73 73 72 72 73 73 73 72 72 72 72 71 71 71 71 70 70 71 72 72 72 71 65 65 55 54 54 54
64 65 66 67 67 68 68 67 68 68 69 69 69 69 70 71 72 73 73 71 73 74 75 75 75 73 71 70 71 72 72 73 73 73 74 74 73 73 73 73 73 73 73 73 72 72 72 72 72 72 71 71 71 72 72 73 72 66 62 61 53 54 53
64 64 65 66 67 69 67 67 68 69 68 68 68 69 70 70 71 71 71 71 73 73 74 74 75 74 71 71 71 73 73 73 74 74 74 74 74 74 74 74 74 74 74 74 73 73 73 73 73 72 72 72 71 71 72 73 74 73 66 60 56 54 53
64 64 65 66 67 68 67 67 68 68 68 68 68 69 70 70 70 70 70 72 73 73 73 73 74 75 72 71 72 73 74 74 74 75 75 75 75 75 75 75 75 74 74 74 74 74 73 73 73 73 72 72 72 72 72 73 74 71 66 63 61 58 54
64 64 65 65 66 68 67 66 67 67 68 67 67 68 68 69 69 70 70 71 72 72 73 73 74 75 74 72 73 74 74 74 75 75 76 76 76 76 76 76 75 75 74 74 74 74 74 74 73 73 73 73 73 73 73 72 71 67 67 66 63 62 61
63 64 65 65 66 68 66 65 65 67 66 66 66 67 68 68 68 69 70 72 72 72 73 74 74 74 73 73 74 75 74 75 78 76 76 76 76 76 76 76 76 75 75 75 75 74 74 74 74 73 73 74 74 74 73 70 65 64 65 64 66 64 62
62 63 64 65 66 68 67 65 66 66 65 66 67 67 67 68 68 70 70 71 71 71 72 73 76 75 73 73 74 75 75 76 77 75 76 74 64 58 54 54 66 74 72 65 61 73 75 75 75 74 75 75 74 74 71 67 65 63 57 57 49 61 65
61 61 63 65 66 67 67 67 67 66 66 67 67 67 66 66 67 68 69 70 70 71 71 71 73 72 72 73 72 74 76 76 76 76 76 72 66 63 59 56 48 51 61 59 57 52 52 66 73 74 68 63 59 61 70 69 65 52 46 46 43 43 42
61 61 63 64 65 65 67 67 68 67 67 67 67 66 66 66 67 67 68 69 69 70 71 71 72 71 71 72 72 71 74 74 75 75 75 72 68 65 62 59 56 47 45 50 53 50 47 46 48 53 58 62 58 54 50 50 46 43 44 43 43 43 43
61 62 63 64 64 66 68 68 67 66 66 66 67 66 66 66 66 67 67 68 69 70 71 71 71 71 71 71 71 71 72 73 73 74 72 70 68 66 63 61 60 59 51 46 48 48 46 46 46 47 48 50 54 54 54 48 44 43 43 43 43 43 42

ECMWFFLT1_sfc_dewp_039.txt.gz
Dewpoint
54 56 58 59 59 60 60 60 60 60 61 62 63 63 64 65 66 67 67 68 68 68 69 70 70 70 70 70 70 70 70 70 70 69 69 69 70 69 69 69 68 68 69 70 71 71 72 72 72 73 73 73 74 74 74 75 75 75 75 75 74 74 74
53 55 57 58 59 60 60 60 60 60 61 62 62 63 64 65 66 66 67 67 68 68 69 69 70 70 70 70 70 70 70 70 70 70 70 70 70 70 69 69 69 68 68 70 70 71 72 72 72 72 73 73 74 74 74 75 75 75 75 74 74 74 74
52 55 57 58 59 60 60 61 61 60 61 61 62 63 63 65 65 66 67 67 67 68 68 69 70 70 70 70 70 70 70 70 70 70 69 69 69 69 69 69 69 69 68 69 70 71 72 72 72 72 72 73 73 74 74 74 75 75 74 74 74 74 73
52 54 56 58 59 60 60 61 61 60 61 61 62 62 63 64 65 66 66 67 67 68 68 68 69 69 70 70 69 69 69 70 69 69 69 69 69 69 69 69 69 69 69 68 70 71 72 72 72 72 74 72 73 74 74 74 74 75 74 74 74 74 73
52 54 55 57 58 59 60 61 61 61 60 61 62 63 63 64 65 65 66 66 67 67 67 68 69 69 70 70 70 70 69 69 69 69 69 70 70 70 69 69 69 69 69 69 70 71 71 72 72 72 72 72 72 73 74 74 74 74 74 74 74 74 73
51 53 55 56 58 59 60 60 61 61 61 61 61 62 63 63 64 65 65 66 66 67 67 68 68 69 69 69 69 69 69 69 69 70 69 69 70 69 69 69 69 69 69 69 70 71 71 72 72 72 72 72 72 72 73 73 74 74 74 74 74 74 73
51 53 54 56 57 59 60 60 61 61 61 61 62 62 63 63 64 64 65 65 66 66 67 67 67 68 69 69 69 69 69 69 69 69 69 69 69 70 69 70 70 69 69 70 71 71 71 71 72 72 72 72 72 72 72 73 73 74 74 74 74 74 74
50 52 54 56 57 58 59 60 61 61 61 62 62 62 62 63 63 64 64 65 65 66 66 66 67 68 68 69 68 68 69 69 69 69 69 69 69 69 70 70 70 70 70 69 70 72 71 71 71 72 72 72 72 72 72 72 73 73 74 73 73 73 74
50 52 54 55 57 58 59 60 61 61 61 62 62 62 63 63 63 64 64 65 65 66 66 66 66 67 68 68 68 68 68 69 69 69 69 69 69 69 69 70 70 70 70 70 69 71 72 72 72 72 72 72 72 72 72 72 72 73 73 73 73 73 73
49 51 53 55 56 58 59 60 61 61 61 62 62 63 63 63 63 64 64 65 65 65 66 66 66 67 68 68 68 68 68 68 69 69 69 69 69 69 69 69 70 70 70 70 70 70 71 72 72 72 72 72 72 72 72 72 72 72 72 73 73 73 73
50 52 53 55 57 58 59 60 61 61 61 62 62 63 63 63 64 64 64 65 65 65 66 66 67 67 67 68 68 68 68 68 68 69 69 69 69 69 69 70 70 70 70 70 71 70 70 71 72 72 72 72 72 72 71 72 72 72 72 72 73 73 73
52 53 55 56 57 58 59 60 61 62 62 62 62 63 64 64 64 64 65 65 66 66 66 66 67 67 67 67 68 68 69 69 69 69 69 69 69 69 70 70 70 70 70 70 70 71 71 71 71 71 72 72 72 72 72 72 72 72 72 72 72 72 72
53 54 55 56 58 59 60 61 61 62 62 62 62 63 63 64 64 64 65 65 66 66 66 67 67 67 67 68 68 68 68 69 69 69 69 69 69 70 70 70 70 70 70 70 70 70 71 71 71 71 71 71 72 72 72 72 72 72 72 72 72 72 72
58 54 56 57 58 59 60 61 61 62 62 62 62 63 64 64 64 65 65 66 66 66 67 67 67 67 68 68 68 68 68 69 69 70 70 70 70 70 70 70 70 70 70 70 70 70 70 71 71 72 72 71 71 72 72 71 71 72 72 72 72 72 72
53 54 55 56 58 59 60 60 61 62 62 62 62 63 64 64 64 65 66 66 66 67 67 68 68 68 68 68 68 69 69 69 69 70 70 70 70 70 70 70 70 70 70 70 70 70 69 70 70 71 72 72 72 72 72 72 71 71 71 71 72 72 71
52 53 54 56 57 58 60 61 62 62 62 62 62 63 64 64 65 65 65 66 66 67 67 68 68 68 68 68 69 69 69 70 70 70 70 70 70 70 70 70 71 70 70 70 70 70 70 69 69 69 70 71 71 71 72 72 72 69 65 66 71 72 72
51 53 54 55 57 58 59 60 61 62 62 62 62 63 63 64 65 65 65 66 66 67 68 68 68 68 68 68 69 69 70 70 70 70 70 70 70 70 71 71 71 70 70 70 70 70 70 70 69 69 69 69 70 70 71 71 71 66 64 63 64 70 72
51 52 53 54 56 57 58 59 61 62 62 62 62 63 63 64 64 65 65 66 66 67 68 68 68 68 69 69 69 70 70 70 70 70 70 70 70 70 71 71 70 70 70 70 70 70 70 69 69 69 69 69 69 69 70 70 66 64 63 63 62 64 71
50 52 53 54 56 57 57 58 60 62 62 62 62 62 63 64 64 65 65 66 67 67 68 68 69 69 69 69 69 70 70 70 70 70 70 70 70 71 71 71 70 70 70 70 70 70 70 69 69 69 69 69 68 68 69 69 65 63 62 62 62 62 65
50 51 52 53 55 56 57 58 59 61 62 62 63 63 63 64 64 65 65 66 67 67 68 68 69 69 70 70 70 70 70 70 70 70 70 71 71 71 71 71 70 70 70 70 70 70 70 69 69 69 69 69 69 69 69 69 65 62 61 60 61 61 63
57 55 54 55 56 56 57 58 59 60 61 62 62 63 63 64 65 66 66 67 67 68 68 69 69 70 70 70 70 71 71 71 71 70 71 71 71 71 71 71 71 70 70 70 70 69 69 69 69 69 69 69 69 69 69 69 64 61 60 59 59 60 61
63 63 62 61 61 61 61 60 60 61 61 64 64 63 63 63 64 65 65 66 67 68 68 69 69 69 70 70 71 71 71 71 71 71 71 71 71 71 71 71 71 71 71 70 70 70 69 69 69 69 69 69 69 69 69 69 63 61 60 59 58 59 65
68 68 68 67 66 66 65 64 65 66 68 66 65 64 63 63 64 64 65 66 66 68 68 69 69 70 70 71 71 71 71 71 71 71 71 71 71 71 71 71 71 71 71 70 70 69 69 69 69 69 69 69 69 69 69 69 65 60 59 58 58 59 66
66 68 68 68 69 69 70 70 70 71 71 71 72 73 72 66 65 65 66 66 66 67 68 68 68 70 71 71 71 71 72 72 72 71 71 71 71 71 71 71 71 71 71 70 70 69 69 69 69 69 69 68 69 69 69 69 66 60 58 57 57 61 67
67 67 68 69 69 68 68 69 69 70 70 70 71 72 74 72 67 67 67 68 67 67 68 68 68 68 69 71 71 72 72 72 72 72 72 72 71 71 71 71 71 71 71 71 70 70 70 69 69 69 69 68 68 67 68 69 66 60 58 56 56 61 67
66 67 68 68 69 69 69 70 69 69 70 70 71 72 73 74 74 74 73 72 69 67 67 68 68 68 69 69 71 72 72 72 73 73 72 72 72 72 71 71 71 71 71 71 70 70 70 69 69 69 68 69 69 69 69 69 70 67 57 56 56 57 67
66 67 68 68 68 70 68 69 69 69 69 70 71 72 73 74 74 74 74 73 73 73 72 72 70 70 70 70 69 71 72 72 73 73 73 73 72 72 72 72 71 71 71 70 70 70 70 69 69 69 69 68 69 69 69 70 70 69 57 55 55 55 59
66 66 67 69 70 69 68 68 68 68 68 69 70 71 72 73 73 72 72 72 72 72 75 75 75 74 71 69 70 70 71 72 72 73 73 73 73 72 72 72 72 71 71 70 70 70 70 70 69 69 69 69 69 69 69 70 68 70 59 56 54 54 54
64 65 66 67 67 69 68 67 67 67 67 68 69 70 70 71 72 71 70 70 70 72 73 74 74 74 73 70 69 70 70 71 72 72 73 73 73 72 72 72 72 71 71 71 70 70 70 70 70 69 69 69 69 69 70 70 70 64 67 56 54 54 53
64 65 66 67 67 68 68 67 67 67 67 68 68 69 69 69 70 71 70 68 70 71 72 72 72 73 71 71 70 70 70 71 71 72 72 73 73 72 72 72 72 72 72 71 70 70 70 70 70 70 69 69 69 70 70 71 71 66 62 63 54 54 53
63 64 65 66 67 68 68 67 66 66 66 67 67 68 68 68 68 68 68 68 70 71 71 71 72 72 72 70 70 70 71 71 71 71 72 72 72 72 72 72 72 72 72 72 71 71 70 70 70 70 70 70 69 70 71 72 72 71 66 60 57 54 53
61 63 64 65 67 67 66 66 66 66 66 66 67 67 68 68 68 68 67 69 70 70 70 71 72 72 72 71 70 70 72 72 72 72 72 72 73 72 72 72 72 72 72 72 71 71 71 71 71 70 71 70 71 71 71 72 72 72 68 65 62 58 54
60 62 63 64 66 67 65 65 65 65 66 66 66 67 68 68 68 69 69 70 70 70 71 72 73 73 72 72 70 70 72 72 72 72 73 73 73 73 73 73 72 72 72 72 72 72 72 72 71 71 71 71 72 72 72 72 72 70 66 64 66 66 63
59 60 62 64 65 67 65 64 65 65 65 65 65 66 67 67 67 68 68 69 69 70 70 72 73 72 71 71 71 72 72 72 75 74 73 73 74 73 73 74 73 73 73 73 73 72 72 72 72 72 72 72 72 72 72 72 69 68 68 66 65 63 62
59 60 61 63 64 66 66 64 65 64 65 65 65 66 66 66 67 68 68 69 69 69 70 72 74 72 70 71 72 72 72 73 75 74 70 63 59 54 52 53 57 70 70 63 59 69 73 73 73 73 73 73 73 73 72 69 69 68 57 60 57 63 63
59 60 61 63 64 65 66 66 65 65 65 65 65 65 66 66 66 67 68 69 69 70 70 71 71 70 70 71 70 72 72 74 74 71 68 66 62 59 58 54 47 49 60 60 58 53 50 62 73 74 73 67 58 60 70 72 69 47 45 43 43 43 44
59 59 61 62 63 64 66 66 66 65 65 65 65 65 65 66 66 66 67 68 69 70 69 69 70 69 70 70 70 69 73 74 73 70 67 65 63 62 61 60 56 47 45 49 50 46 44 44 48 57 64 68 62 54 48 49 46 43 42 42 42 42 42
60 60 61 62 63 63 65 65 65 64 64 64 64 64 64 65 66 66 66 67 69 70 69 69 69 69 69 69 70 71 72 73 72 69 67 66 64 63 63 61 60 58 50 45 47 46 44 44 45 46 48 52 55 55 55 47 43 42 42 42 43 43 42

ECMWFFLT1_sfc_dewp_042.txt.gz
Dewpoint
55 56 58 58 58 58 59 60 60 60 61 62 63 64 64 65 66 67 67 68 68 68 69 69 70 70 70 70 70 70 70 70 70 70 70 70 70 70 70 70 69 70 70 71 71 72 73 73 73 73 74 74 74 75 75 75 75 75 76 76 76 75 75
54 55 57 58 58 59 59 60 61 60 61 62 63 64 64 65 66 66 67 68 68 68 69 69 70 70 70 70 70 71 71 70 71 71 70 71 71 71 70 70 70 70 70 71 72 72 73 73 73 73 73 74 74 75 75 75 75 75 75 75 75 75 75
53 54 55 57 58 59 60 60 60 61 61 61 62 63 64 65 66 66 67 67 68 68 68 69 70 70 70 71 71 71 70 70 70 70 70 69 70 70 70 70 70 70 69 70 71 72 72 72 73 73 73 73 73 74 75 75 75 75 75 75 75 75 75
52 53 55 56 58 59 60 60 60 60 60 61 62 62 64 65 66 67 67 67 67 68 68 69 69 69 70 70 70 70 70 71 70 70 70 70 70 70 70 70 71 70 70 69 70 71 72 72 72 73 74 73 73 74 74 75 75 75 75 75 75 75 75
52 53 54 55 57 58 59 60 60 60 60 61 61 63 64 64 65 66 66 67 67 67 68 68 68 69 70 70 70 70 70 70 70 70 70 70 71 71 70 70 70 70 70 69 70 71 72 72 72 72 73 73 73 73 74 74 75 75 75 75 75 75 75
51 52 53 54 56 57 59 59 60 60 60 60 61 62 63 64 64 65 66 67 67 67 68 68 69 70 69 70 70 70 70 71 71 71 70 71 70 70 70 70 70 70 70 70 70 70 71 72 72 72 72 72 72 72 73 74 74 74 75 75 75 75 74
51 52 53 54 55 57 58 59 60 60 60 60 61 62 63 63 64 65 66 66 67 67 67 68 68 69 70 70 70 70 70 70 70 70 70 70 70 70 70 70 71 70 70 71 70 70 70 71 72 72 72 72 72 72 73 73 74 74 75 75 75 75 75
51 51 52 53 54 56 57 59 60 60 61 61 61 61 62 63 63 64 65 66 66 67 67 67 68 69 70 70 70 70 70 70 70 70 70 70 70 70 70 70 70 70 71 70 70 70 70 71 71 72 72 72 72 72 72 73 73 73 74 74 74 74 74
49 52 52 53 54 55 57 58 60 60 61 61 61 62 62 62 63 64 64 65 66 66 67 67 68 68 70 70 70 70 70 70 70 70 70 69 69 69 69 70 70 71 70 70 70 71 71 70 71 71 72 72 72 72 72 73 73 73 74 74 74 74 74
48 51 52 53 54 55 57 58 60 61 61 61 62 62 62 62 63 63 64 65 65 66 66 67 67 68 69 69 69 69 70 70 70 69 69 69 69 69 69 69 70 70 70 70 70 70 71 71 71 71 72 72 72 72 72 72 72 73 73 74 74 74 74
47 50 51 52 54 55 57 58 60 61 62 62 62 61 62 63 63 63 64 64 65 65 66 67 67 67 68 68 69 69 69 69 69 69 69 69 69 69 69 69 69 70 70 70 70 70 71 72 72 72 72 71 71 72 72 72 72 72 73 73 73 74 73
47 49 51 52 54 55 57 59 61 62 62 62 62 61 63 63 63 63 64 64 65 65 66 66 67 67 67 68 68 69 69 69 69 69 69 69 69 69 69 69 69 69 70 70 70 70 70 71 72 72 72 72 72 72 72 72 72 72 72 72 73 73 73
45 48 50 51 54 56 58 60 61 62 62 62 61 62 62 62 63 63 64 64 64 65 65 66 67 67 67 67 68 68 68 68 69 69 69 69 69 69 69 69 69 69 69 70 70 70 70 70 71 72 72 72 72 72 72 72 72 72 73 73 73 73 73
54 47 49 51 54 56 58 60 61 62 62 62 62 62 62 62 63 63 64 64 65 65 65 66 66 67 67 67 68 68 68 68 69 69 69 69 70 70 69 69 69 70 70 70 70 70 70 70 71 71 71 72 72 72 73 72 72 72 73 73 73 73 73
45 47 48 50 54 57 58 59 61 62 62 62 62 62 62 63 63 64 64 65 65 65 65 66 66 67 67 67 68 68 69 69 69 69 70 70 70 70 70 70 70 70 71 71 70 70 70 70 71 71 71 71 71 72 72 72 72 72 72 72 73 73 72
40 47 48 51 54 56 58 59 61 62 62 63 62 63 62 63 64 63 64 64 64 65 65 66 66 67 67 67 67 68 69 69 70 70 70 70 70 70 70 70 70 70 71 71 71 71 71 71 71 71 71 71 71 71 72 72 72 69 65 67 72 73 72
44 48 50 52 55 56 58 59 61 62 62 63 63 63 63 64 64 64 64 64 64 65 66 66 67 67 67 67 67 68 69 69 70 70 70 70 70 70 70 70 70 71 71 71 71 71 71 71 70 70 70 71 71 71 71 71 71 65 63 63 65 71 72
48 51 52 53 55 56 58 60 61 61 62 62 62 63 63 64 64 64 64 64 65 65 66 66 66 66 67 67 68 69 69 69 70 70 70 70 70 70 71 71 71 71 71 71 71 71 71 71 71 71 70 70 70 71 71 72 67 64 63 62 62 65 72
50 52 53 55 56 58 58 59 60 61 61 62 62 62 63 64 64 64 65 65 66 66 66 66 66 67 68 68 68 69 69 70 70 70 70 70 71 71 71 71 71 71 71 70 71 71 71 71 71 71 71 70 70 69 70 70 65 63 62 62 62 62 66
51 53 54 55 56 58 59 60 61 61 62 62 62 62 63 64 64 65 65 66 67 66 67 67 67 68 68 69 69 69 70 70 70 70 70 70 71 71 71 71 71 71 71 71 71 71 71 71 71 71 71 71 70 70 70 70 64 62 61 61 61 61 63
52 54 55 57 58 58 60 61 62 62 62 62 62 63 64 64 65 66 66 66 66 67 68 68 68 69 69 69 69 70 70 70 70 70 70 71 71 71 71 71 71 71 71 70 70 71 71 71 70 71 71 70 70 70 70 69 63 61 59 59 59 60 62
58 54 54 56 58 59 61 61 62 62 62 64 64 63 63 64 65 65 65 66 66 67 68 69 69 69 69 69 69 70 70 70 70 70 71 71 71 71 71 71 71 71 71 71 70 71 71 71 71 70 70 71 70 70 70 69 62 60 59 58 58 59 66
67 61 57 58 58 59 62 62 62 63 65 64 63 63 63 64 65 65 65 66 66 68 68 68 69 69 69 70 69 70 70 70 70 70 71 71 71 71 71 71 71 71 71 71 71 70 70 70 70 71 70 70 71 70 70 70 65 60 58 57 57 59 67
68 68 65 62 61 61 62 62 64 65 63 63 63 63 64 64 65 66 66 66 67 67 68 68 68 69 70 70 70 70 70 71 71 71 71 71 71 71 71 71 71 71 71 71 70 70 70 70 70 71 71 70 70 70 70 70 67 60 57 57 56 61 68
67 68 68 68 64 63 63 64 64 64 65 64 63 64 65 65 66 66 67 67 67 68 68 68 68 69 70 70 70 71 71 71 71 71 71 71 71 71 71 71 71 71 71 71 71 71 71 71 71 70 71 70 70 68 69 70 67 60 58 56 56 61 68
67 68 68 69 69 69 69 70 69 67 66 65 66 65 65 65 66 67 67 67 67 67 67 68 69 69 70 70 71 71 72 71 72 72 71 71 71 71 71 71 71 71 71 71 71 71 71 71 71 70 70 70 70 70 69 69 70 68 58 56 55 56 68
66 67 68 68 69 70 70 70 70 70 70 71 72 68 65 65 65 67 68 68 68 68 67 68 69 70 71 71 71 71 72 72 72 72 72 72 72 71 71 71 71 71 72 71 71 71 71 71 71 70 70 70 70 70 70 69 70 69 58 55 55 55 59
65 66 67 68 69 69 68 69 69 70 71 72 73 71 68 67 68 70 70 69 68 69 72 72 71 70 71 71 71 71 72 72 72 72 72 72 72 72 72 72 72 72 72 71 71 72 72 72 71 71 71 71 70 71 70 70 67 70 60 56 54 54 54
63 65 66 66 66 67 67 67 67 68 69 70 71 72 71 71 71 72 72 71 72 74 75 75 75 73 71 71 71 72 72 73 73 72 73 73 73 72 72 72 72 72 73 72 72 72 72 72 72 71 71 71 71 71 71 71 71 63 68 57 54 53 53
62 64 65 66 66 67 67 66 67 67 67 68 69 70 71 71 71 71 71 70 72 73 74 74 74 75 74 72 71 71 71 72 73 73 73 73 73 73 73 73 73 73 73 73 72 72 72 72 72 71 71 70 70 70 71 72 72 66 61 64 55 54 53
61 62 64 65 66 67 66 66 66 67 67 68 68 69 70 71 71 70 70 70 72 73 73 73 74 74 73 73 72 71 71 71 72 73 73 73 73 73 73 73 73 73 73 73 72 72 71 72 71 71 71 71 70 71 71 71 72 72 66 60 58 54 53
59 61 63 64 66 67 66 66 66 67 67 67 68 69 70 70 70 70 70 71 72 72 72 73 74 74 73 73 72 71 71 71 71 72 73 73 74 74 74 73 73 73 73 72 72 72 72 71 71 71 71 71 71 71 71 72 72 72 72 66 63 59 55
58 60 62 63 65 67 65 66 66 66 66 66 67 68 69 69 70 70 71 71 71 72 73 75 74 75 73 72 72 72 72 71 71 72 72 73 73 74 74 74 73 73 72 72 72 72 72 72 71 71 70 71 71 71 72 72 73 73 72 71 69 68 65
59 59 61 63 65 67 65 65 65 65 66 66 66 67 68 68 68 69 69 70 70 71 74 75 75 73 72 72 72 72 72 72 73 73 72 73 73 73 73 73 73 73 73 72 72 72 72 71 71 71 71 71 71 72 72 73 73 73 72 70 70 70 69
59 59 60 62 64 66 66 65 65 65 65 65 66 66 67 67 68 68 69 70 70 71 74 74 74 72 71 71 72 73 73 72 75 73 69 64 59 56 54 56 61 72 73 65 65 73 72 72 72 72 72 72 72 72 73 73 72 72 66 71 64 68 68
58 58 59 61 63 65 66 67 66 65 65 65 65 66 66 67 67 68 69 70 70 71 72 72 71 71 71 71 71 73 74 73 72 68 66 65 62 59 57 53 46 48 63 64 59 53 51 64 73 74 74 73 61 63 72 73 74 48 49 49 50 51 54
58 58 59 60 62 63 65 66 66 65 65 65 66 66 66 66 67 67 68 69 70 70 70 70 70 70 70 71 71 73 73 72 70 68 67 66 65 65 64 62 57 45 44 49 49 45 43 46 54 61 64 70 63 52 46 47 45 44 44 44 44 44 45
59 59 60 60 62 63 64 65 65 65 65 64 65 65 66 66 66 66 67 68 69 70 70 70 70 69 69 70 72 73 72 71 69 67 66 66 66 66 65 65 63 60 49 43 45 44 43 43 43 48 54 55 56 55 54 46 43 43 43 44 44 44 43

ECMWFFLT1_sfc_dewp_045.txt.gz
Dewpoint
58 59 59 60 61 60 61 62 63 63 64 65 66 65 66 66 68 68 69 70 70 71 72 72 72 72 71 71 72 73 72 73 73 72 72 72 72 72 73 72 72 73 72 72 73 74 75 76 76 76 76 77 76 77 77 77 77 76 77 77 77 76 76
56 57 58 59 60 60 61 62 63 63 64 65 65 66 66 66 68 69 69 71 71 71 71 71 72 72 72 72 72 73 73 73 73 73 72 73 73 74 73 73 73 74 74 73 74 75 76 75 75 76 76 76 76 77 76 77 77 77 76 77 75 75 75
55 56 58 59 59 60 62 62 63 62 63 63 64 65 65 67 69 69 69 70 70 71 71 71 72 72 72 72 72 73 73 72 73 72 72 71 72 70 72 73 73 73 73 74 75 74 74 75 76 76 76 76 75 76 77 77 77 77 77 77 76 74 75
54 55 57 59 60 61 62 62 62 61 62 63 64 65 66 68 68 69 69 69 70 70 71 71 71 71 72 72 72 73 72 73 73 71 71 71 72 72 73 73 73 73 73 73 73 73 73 74 75 76 76 76 76 76 76 76 76 77 77 77 76 75 75
54 55 56 58 59 61 61 61 61 62 61 61 63 65 66 67 67 68 68 68 68 69 69 70 69 70 72 72 71 71 72 72 72 72 72 72 73 73 73 71 72 72 72 72 73 74 75 75 74 75 75 76 75 76 76 76 76 77 77 77 76 75 74
51 55 56 57 58 59 60 60 60 60 61 60 62 64 64 65 65 66 66 68 68 68 70 70 70 71 71 71 71 71 72 73 73 73 73 73 73 72 72 72 72 72 71 72 72 72 74 74 73 74 73 73 74 73 74 75 75 76 77 77 76 75 74
50 54 56 57 57 58 59 60 59 60 61 60 61 63 64 64 64 65 65 66 67 68 68 68 69 69 71 71 71 72 73 72 73 72 72 72 73 73 72 73 73 72 72 73 72 72 72 73 74 74 74 73 74 73 74 75 75 76 76 77 76 76 76
52 54 56 57 56 57 58 60 60 60 61 61 61 62 62 62 63 64 65 65 66 67 67 67 68 70 71 71 71 72 72 72 72 72 72 72 72 72 72 72 73 73 73 72 73 73 71 73 73 74 74 73 74 75 74 75 76 75 75 76 76 76 74
52 55 55 55 56 56 58 60 61 60 61 62 62 62 62 63 63 63 64 65 66 66 67 67 67 69 71 71 72 72 72 71 72 72 72 71 71 71 70 71 72 73 72 71 71 73 72 72 72 74 74 74 74 75 75 75 75 75 75 75 76 75 75
52 56 57 55 56 55 58 59 61 63 63 63 63 64 63 63 64 64 64 65 65 65 66 66 67 68 70 71 71 71 71 72 72 71 71 70 70 70 70 70 71 72 72 71 71 71 73 73 73 74 75 74 74 75 75 75 75 75 75 75 75 75 76
52 58 59 56 57 57 59 60 62 64 64 66 65 62 63 63 63 63 64 65 65 65 66 66 68 68 69 69 69 70 71 71 70 71 71 70 70 70 70 70 70 71 71 71 70 71 72 73 73 74 74 73 73 74 74 74 75 75 74 74 75 75 74
54 58 60 58 58 58 59 62 64 66 67 67 64 62 65 65 64 63 64 65 65 65 66 66 67 68 69 69 68 70 70 71 70 70 70 70 70 70 70 70 70 70 71 71 71 71 71 73 73 73 74 74 73 74 74 75 75 75 74 73 73 74 74
48 55 58 58 59 59 63 65 66 66 67 64 62 62 63 64 64 63 66 66 65 66 66 67 67 69 68 68 68 70 70 70 70 71 70 71 70 70 70 70 70 70 70 71 71 71 71 71 73 73 73 74 74 73 74 74 74 75 75 74 74 74 75
52 49 54 58 60 61 62 65 66 67 67 64 62 63 63 63 63 64 66 66 66 65 66 67 68 69 69 69 69 70 70 70 71 72 72 71 72 72 71 70 70 71 71 71 71 70 71 70 72 73 73 73 73 74 74 74 74 75 75 75 74 74 74
48 37 48 52 59 63 63 62 65 67 65 64 63 63 63 63 64 65 67 66 66 65 66 68 69 69 69 70 70 71 72 72 72 72 73 72 73 73 72 72 72 72 72 73 72 71 71 71 71 72 72 72 73 73 73 73 73 73 74 74 74 74 73
54 46 38 46 54 58 63 63 64 67 67 67 64 64 63 64 65 65 65 65 65 66 67 68 69 70 69 69 70 72 72 73 73 73 73 73 73 74 73 72 73 72 73 73 72 73 72 72 72 71 71 72 72 73 73 73 73 71 66 68 73 74 73
60 52 46 42 55 57 61 62 64 66 67 67 66 65 64 65 65 65 64 64 65 66 66 68 70 69 69 70 71 72 73 74 73 73 73 73 74 74 73 73 73 73 73 73 73 73 73 73 72 71 71 71 71 72 72 72 71 66 64 64 66 72 74
64 62 53 44 42 53 59 61 64 65 65 64 64 65 64 66 64 64 63 64 65 65 66 67 68 68 70 69 71 72 73 72 73 73 73 73 73 73 74 73 73 73 73 73 72 73 73 72 72 72 71 71 71 71 71 71 67 64 63 63 63 66 73
65 65 60 53 46 53 55 57 61 65 63 63 63 63 64 66 64 65 64 65 65 66 66 66 66 68 70 70 71 73 73 73 73 73 73 73 73 73 73 73 73 73 72 71 72 72 73 73 72 72 72 71 72 71 71 71 66 63 62 62 62 62 67
65 66 62 54 47 45 54 60 61 63 64 65 64 63 64 65 64 65 64 65 66 66 67 67 67 69 70 70 71 72 73 73 73 72 73 73 73 73 73 73 73 72 72 71 72 73 73 72 73 73 73 72 72 73 71 71 66 62 61 61 61 62 64
66 66 66 59 53 48 58 63 64 64 65 64 63 65 64 64 64 65 65 66 66 67 69 69 69 70 70 71 72 72 72 72 72 73 73 73 73 73 73 73 73 72 72 71 71 72 73 72 72 73 73 72 72 72 71 70 65 61 60 60 60 61 62
65 66 66 62 56 58 62 59 63 63 64 64 64 63 64 64 64 64 64 65 65 66 69 70 70 70 70 71 71 71 72 72 72 73 73 73 73 73 73 73 73 73 72 72 71 72 72 72 72 72 72 73 72 71 71 71 63 60 60 59 59 60 68
66 66 66 63 58 61 65 64 64 62 66 64 63 64 63 64 63 64 64 64 65 68 67 68 70 69 71 71 70 70 71 71 71 72 72 73 73 73 72 73 73 73 73 72 71 70 71 72 71 72 72 72 73 72 72 71 66 60 58 58 58 60 71
66 67 67 63 63 64 66 65 64 66 63 64 64 63 64 64 64 65 66 65 66 67 67 68 68 69 71 70 70 70 71 72 72 72 72 72 72 72 72 72 73 72 73 72 71 70 70 71 72 72 72 72 72 72 72 71 67 59 57 57 57 62 71
65 66 67 66 63 62 62 66 65 64 65 65 63 64 66 66 66 67 67 67 67 67 67 68 68 69 70 70 70 71 72 72 72 72 72 73 72 72 72 72 72 72 72 71 71 71 72 72 72 72 72 71 71 70 71 71 68 58 58 57 56 62 71
65 66 67 68 67 66 67 69 68 65 64 63 66 66 67 66 67 68 68 68 67 66 68 68 69 70 70 70 71 72 72 72 73 73 72 73 73 72 72 72 72 72 72 72 71 71 71 71 72 72 72 72 71 71 71 71 72 70 57 56 55 56 71
64 66 67 67 69 71 67 67 65 64 62 66 68 65 66 68 66 68 70 70 69 68 67 69 70 71 72 72 71 71 72 72 73 73 73 73 73 72 72 72 72 72 72 71 71 71 72 71 72 71 72 71 72 71 71 71 71 74 56 55 54 55 60
63 65 66 68 70 70 70 67 68 65 64 70 67 67 68 69 69 71 71 69 68 69 68 70 72 72 73 73 72 71 72 72 73 73 73 73 73 74 73 73 73 73 72 71 72 73 73 73 73 72 72 72 72 73 72 71 68 72 59 55 54 53 54
61 64 65 67 68 68 69 70 70 68 67 66 65 66 67 66 70 71 71 70 71 70 71 72 72 73 73 73 72 73 73 73 73 73 73 73 73 74 73 74 73 74 74 74 73 74 73 74 74 73 72 73 73 73 74 74 73 64 70 55 54 53 52
60 62 65 66 67 68 68 70 71 71 71 67 66 67 67 68 71 72 71 72 73 71 72 73 73 74 73 73 73 73 73 73 73 74 74 74 74 74 74 74 74 74 74 74 74 74 74 74 74 73 73 72 72 73 73 75 75 67 62 65 54 53 52
59 60 63 65 66 68 69 69 70 71 71 71 73 72 71 72 72 72 72 76 76 76 74 74 74 74 74 73 73 74 73 74 74 74 74 74 74 74 74 75 75 74 75 75 74 74 74 73 73 73 72 73 73 73 73 74 74 74 68 61 57 54 53
58 60 61 64 66 67 68 69 70 70 71 72 73 73 75 74 73 74 75 76 77 77 76 76 76 75 74 74 75 75 75 75 74 75 75 75 75 75 75 75 75 74 75 74 73 74 74 73 73 72 72 72 73 73 74 75 75 75 75 66 63 59 54
57 59 60 63 66 67 67 68 69 70 70 70 72 73 74 75 76 76 76 76 77 77 78 77 77 76 76 76 76 76 75 75 74 74 75 76 75 75 75 75 75 75 74 74 73 73 73 73 73 72 72 71 72 73 74 74 74 74 74 74 72 70 67
55 58 60 62 65 67 67 68 68 69 69 69 70 72 73 73 74 75 76 76 76 77 78 78 78 77 77 77 76 76 75 74 75 75 74 75 74 74 74 74 74 74 74 74 74 73 73 72 72 72 72 72 73 74 74 73 73 74 74 74 73 72 72
55 58 59 61 64 66 66 67 68 69 68 69 70 71 72 73 74 74 75 76 77 78 77 76 76 78 77 77 76 75 76 74 74 73 73 74 75 66 63 68 76 75 74 74 75 74 73 74 73 73 74 73 74 74 75 74 74 75 68 77 68 73 74
53 55 58 60 63 65 66 67 68 68 69 70 71 71 72 72 73 73 73 74 76 77 77 77 76 76 77 77 77 77 76 75 74 74 74 72 69 65 60 51 44 49 67 74 60 56 54 62 76 77 74 74 75 71 75 75 77 59 61 60 58 59 62
50 52 57 59 62 63 64 66 68 68 69 69 70 70 70 71 71 72 71 74 74 76 76 76 76 76 76 76 77 76 76 76 75 74 73 71 69 68 66 64 59 45 42 48 50 45 44 48 52 56 65 75 73 59 47 47 45 47 49 50 52 52 51
48 49 52 58 61 62 63 65 66 67 68 69 70 70 70 69 69 71 69 72 73 74 75 76 76 75 75 75 75 74 75 75 74 72 71 70 70 70 69 68 66 62 48 43 45 44 42 41 41 48 57 62 65 63 62 48 42 43 43 44 45 45 45

ECMWFFLT1_sfc_dewp_048.txt.gz
Dewpoint
53 55 58 61 62 62 63 65 67 66 67 67 68 68 67 67 69 70 70 72 73 74 74 74 74 74 73 73 73 74 73 73 73 73 72 72 71 72 72 70 70 71 68 68 70 70 73 74 73 74 75 75 75 75 76 77 77 75 75 75 75 74 74
49 52 55 58 60 62 64 66 67 66 66 67 68 69 68 68 69 69 71 72 73 73 74 74 74 73 73 73 73 74 74 74 74 74 73 73 73 72 72 73 72 72 72 70 69 72 73 74 74 74 74 74 75 75 75 76 77 76 74 75 74 74 74
48 50 53 57 59 61 64 64 66 66 67 66 67 67 68 69 70 71 71 71 73 74 74 74 74 73 74 74 74 74 74 74 74 73 73 71 72 70 72 74 73 72 72 72 72 72 74 75 75 74 74 74 72 74 75 75 76 75 75 75 74 73 75
47 49 51 55 60 62 63 63 65 65 65 65 66 67 68 70 70 71 71 71 72 73 73 73 73 73 73 74 74 74 74 74 74 73 72 72 72 72 72 73 74 73 72 72 71 71 71 74 74 75 75 74 73 73 74 74 74 75 75 76 74 73 74
46 48 49 54 57 60 61 62 63 65 64 64 66 68 68 68 68 69 70 70 70 71 71 72 71 72 73 73 72 73 74 74 74 73 73 72 73 73 72 72 72 72 72 73 73 74 74 74 73 74 75 75 73 73 74 74 73 75 75 76 74 73 72
39 46 48 51 55 58 60 61 61 62 63 63 64 66 66 67 67 67 68 70 70 70 71 72 72 72 72 72 72 72 73 74 75 74 73 73 73 72 72 72 72 72 71 73 73 73 74 73 73 74 73 73 72 70 71 73 72 73 74 75 74 72 71
38 44 45 45 50 55 58 61 60 61 62 62 63 65 65 65 66 66 67 68 68 70 69 70 70 70 72 72 72 73 73 72 74 73 73 72 72 73 73 73 73 72 72 73 73 73 73 74 74 74 74 72 72 71 72 74 73 73 74 75 75 74 74
41 42 46 46 44 50 54 60 61 61 62 62 62 63 64 64 65 65 66 66 67 67 68 68 68 70 72 72 72 72 72 72 72 73 73 72 72 73 72 73 73 73 74 72 74 74 73 74 74 74 74 73 73 74 72 74 76 72 72 74 74 74 72
37 42 45 45 46 45 51 59 61 61 63 63 63 63 63 64 64 64 65 66 66 66 67 67 67 69 72 72 72 72 72 72 72 73 73 71 71 70 71 72 73 73 73 72 72 74 73 73 73 74 75 74 74 75 74 75 75 74 73 74 75 75 72
39 45 52 49 46 44 53 59 62 63 63 63 63 64 64 64 64 64 65 65 65 65 65 66 67 68 71 71 71 71 72 72 72 71 71 70 70 70 70 70 71 73 72 72 70 72 74 73 73 74 76 75 75 75 75 75 75 75 74 74 75 75 75
38 50 54 49 49 52 56 58 61 64 64 66 65 62 64 64 64 64 65 64 64 64 64 66 67 67 69 70 70 70 71 71 70 71 71 70 69 69 70 69 69 71 72 71 71 71 73 74 74 75 75 75 75 75 75 75 75 76 74 73 74 75 74
51 50 58 58 56 56 56 60 63 65 66 66 64 62 65 66 64 64 64 64 64 64 65 65 66 67 68 69 69 71 71 71 70 70 71 70 69 69 69 69 69 70 71 71 71 71 71 73 74 74 75 76 75 75 76 76 76 76 75 72 72 73 73
41 50 57 58 60 58 62 64 65 66 67 64 63 63 63 64 64 63 65 66 64 65 65 67 67 68 68 69 69 70 70 70 71 71 70 71 70 69 69 69 68 68 70 71 71 71 70 71 74 74 75 76 75 74 75 76 75 76 76 75 74 73 74
57 42 50 55 57 59 61 64 65 67 67 65 63 63 63 64 64 64 65 65 65 65 65 66 68 68 69 70 70 71 70 70 72 72 72 72 73 72 70 70 69 70 71 72 72 70 70 70 73 74 74 75 75 75 75 75 75 76 76 76 74 73 74
56 49 45 48 58 61 62 61 66 68 67 66 64 63 64 63 64 65 66 66 66 64 65 68 68 69 68 70 71 72 72 72 72 73 73 73 73 73 72 72 72 72 72 73 73 71 70 70 71 73 74 74 74 74 74 73 74 74 75 75 75 74 72
58 57 56 50 52 57 62 63 66 69 69 68 65 65 63 64 65 64 64 65 64 66 65 67 68 69 69 70 71 72 73 73 74 74 74 74 74 75 74 73 73 73 73 73 73 73 73 73 72 71 73 73 73 73 73 73 73 73 68 70 75 74 72
61 62 63 64 66 55 60 63 64 68 69 69 67 65 64 64 65 64 63 64 64 66 66 66 69 69 69 70 71 72 73 74 74 74 75 75 75 75 75 74 74 74 74 74 74 74 75 73 72 71 71 72 72 72 72 72 72 68 65 65 67 74 75
63 64 64 64 66 67 65 57 61 64 67 66 65 65 64 66 65 64 63 64 65 64 64 66 68 68 71 70 72 73 74 73 74 75 75 75 75 76 76 75 75 75 75 74 74 75 74 73 73 73 72 71 72 71 72 72 69 64 64 64 64 68 74
62 63 64 66 66 67 66 62 56 63 64 64 63 63 63 65 64 65 65 66 66 66 65 66 67 69 71 71 72 74 75 75 75 75 75 76 76 76 76 76 75 75 74 73 74 74 75 75 74 74 73 72 73 71 71 71 67 63 62 63 63 64 69
60 61 63 64 65 66 67 66 61 56 63 65 64 61 63 65 64 65 65 65 67 66 67 68 69 71 71 72 73 74 75 75 75 75 76 76 76 76 76 75 75 74 74 73 74 75 75 74 74 74 75 74 73 73 72 72 66 62 61 62 62 63 66
58 60 62 64 66 66 68 68 64 57 58 62 62 63 63 64 64 65 64 66 66 67 69 69 70 72 72 72 73 75 75 75 75 76 76 76 76 76 76 75 75 75 74 72 73 74 75 74 74 74 74 74 73 72 71 70 64 61 60 60 60 62 64
56 57 60 64 66 67 68 67 64 55 54 62 62 61 62 63 64 64 64 64 65 66 68 70 71 71 72 73 73 74 75 75 75 76 76 76 76 76 75 75 76 75 74 73 72 73 74 74 73 73 74 74 73 72 72 71 63 59 59 59 59 61 70
53 56 61 65 65 66 68 68 64 58 57 60 61 60 61 62 63 63 63 63 65 68 67 69 71 71 73 73 73 73 74 74 74 75 75 75 75 75 75 75 75 75 75 73 72 71 72 73 72 74 73 73 74 73 73 72 66 59 58 58 58 61 72
53 57 62 65 67 67 68 65 62 59 57 61 62 61 62 63 64 65 65 64 65 66 67 68 70 71 73 72 72 73 74 74 74 74 74 75 75 75 74 74 74 74 74 73 71 70 70 72 72 73 73 72 73 72 72 72 68 58 57 57 57 64 73
53 57 63 66 65 65 67 67 64 59 61 63 61 61 64 64 64 64 66 66 66 67 68 68 69 70 72 72 72 73 74 73 74 74 74 75 74 74 74 74 74 74 74 72 72 71 72 72 72 72 72 70 71 71 72 72 68 57 57 57 56 64 74
53 57 65 66 65 67 68 70 66 62 61 62 64 63 66 64 65 66 66 67 66 66 68 69 70 71 71 72 72 73 74 73 75 74 74 75 75 74 74 73 73 73 73 72 72 71 70 70 71 71 71 71 71 71 72 72 73 69 56 56 55 58 73
52 58 64 66 66 69 69 68 65 62 61 63 66 63 64 65 65 67 69 68 68 67 67 69 70 71 73 73 71 71 73 73 73 73 74 74 74 73 73 73 72 73 73 71 71 71 71 70 70 70 71 71 72 71 71 71 72 75 56 55 54 56 62
51 58 63 67 69 68 68 66 66 64 61 65 65 66 66 66 67 69 70 68 67 68 67 69 71 71 72 73 72 71 72 73 73 73 73 74 74 74 73 73 73 73 73 71 72 73 73 73 72 71 71 72 72 73 73 73 70 73 58 55 54 54 55
51 55 61 65 68 68 66 69 66 63 62 63 64 63 64 65 69 70 70 69 70 69 69 70 71 72 73 73 71 72 73 73 74 74 74 74 74 74 73 73 73 73 74 74 74 74 73 74 74 73 72 73 73 73 74 75 75 65 69 56 54 53 54
51 54 58 62 67 68 69 69 72 71 64 65 66 66 67 68 70 71 71 71 72 70 70 71 72 74 73 73 73 72 73 73 73 75 74 74 74 74 74 74 74 74 74 75 74 73 74 74 74 74 73 72 72 72 72 75 75 69 64 64 53 54 53
51 55 56 60 65 68 69 68 70 71 69 67 68 68 70 70 72 73 73 73 73 72 72 72 73 74 74 73 72 73 74 74 74 74 74 74 74 74 74 74 74 74 75 76 75 74 74 74 73 73 72 72 72 72 73 74 75 75 69 61 56 54 53
51 54 54 57 62 67 69 69 68 69 71 72 70 69 71 71 72 74 74 74 74 73 73 74 75 75 75 75 74 74 74 74 74 75 74 75 74 75 75 75 74 74 75 74 73 73 73 73 72 72 73 72 72 72 73 74 75 75 75 66 61 57 54
52 52 53 56 61 67 68 71 70 70 71 72 72 72 71 72 73 74 75 76 74 73 75 76 76 75 75 75 75 75 75 75 75 74 75 75 74 75 75 75 75 75 75 74 73 74 73 73 73 72 72 72 72 72 73 74 74 75 75 74 71 68 65
51 50 52 55 61 66 67 69 71 71 71 71 73 74 75 75 76 76 77 76 75 75 76 76 76 75 75 75 75 74 75 75 75 75 74 74 74 74 73 74 74 74 75 74 74 73 73 73 72 71 72 71 72 72 73 73 73 75 75 75 74 73 71
50 51 52 53 59 64 67 68 69 71 71 71 72 73 74 75 76 76 77 76 76 76 76 76 75 75 74 73 73 73 75 73 75 74 73 74 75 76 70 75 75 74 74 75 74 73 72 74 73 73 73 72 72 73 74 74 74 75 68 80 69 76 75
50 49 49 52 57 62 65 67 68 69 70 72 73 73 73 73 74 74 74 75 76 77 76 76 75 75 75 73 72 72 73 73 72 73 72 73 74 71 63 50 45 51 64 74 61 53 49 63 76 78 74 73 74 74 76 74 79 57 62 61 61 62 64
50 49 48 51 55 59 63 66 66 68 69 70 71 71 72 73 73 74 74 76 76 76 76 77 75 74 74 75 73 72 74 73 72 74 75 74 74 73 71 69 64 44 42 48 51 47 41 40 46 53 59 79 75 64 49 49 47 51 55 56 55 57 55
51 49 49 51 55 58 62 64 65 66 68 69 69 69 69 69 71 72 71 73 74 76 77 76 75 73 73 72 75 78 78 76 76 76 76 75 76 75 74 73 71 68 49 42 45 44 42 41 40 42 51 60 69 69 70 51 43 43 43 44 44 45 44

ECMWFFLT1_sfc_dewp_051.txt.gz
Dewpoint
50 49 59 61 61 61 62 65 66 65 66 67 67 66 65 65 67 69 69 72 74 74 74 75 74 74 73 73 73 73 72 71 71 69 68 67 66 67 69 69 69 68 64 65 68 67 69 71 71 72 72 74 74 74 75 76 76 74 75 75 75 74 74
49 47 52 58 60 61 63 65 66 66 66 67 68 68 66 67 68 68 70 72 74 74 74 74 75 74 74 74 73 74 74 73 73 72 71 70 70 69 69 71 69 69 69 66 67 69 70 69 70 71 72 73 73 74 73 75 76 76 73 75 74 75 74
48 48 50 52 58 56 60 64 65 66 67 67 67 67 67 69 69 70 71 71 74 75 75 75 75 75 74 74 74 74 74 73 73 72 71 69 70 67 69 71 70 68 68 68 68 67 69 70 72 72 72 73 73 74 74 75 76 75 75 75 74 73 75
48 47 48 53 60 59 62 64 64 65 65 66 67 67 68 70 69 70 70 71 73 74 75 74 74 74 74 74 74 75 74 74 73 72 70 69 70 70 69 70 71 70 69 69 66 66 66 70 71 72 73 72 72 72 73 73 73 74 74 75 73 73 74
47 47 47 51 53 60 63 61 63 66 65 65 67 69 68 68 68 69 70 71 71 73 73 73 72 73 73 73 72 73 74 74 73 72 71 70 72 72 70 68 70 70 69 69 70 69 71 71 71 72 72 73 72 72 72 73 73 74 74 75 74 73 72
41 45 47 48 51 54 61 60 58 64 64 64 66 67 67 67 67 68 69 70 71 72 73 74 73 73 73 73 72 72 74 74 75 74 73 72 72 71 70 70 70 71 68 69 70 69 70 71 71 72 71 71 70 69 70 72 72 72 74 74 74 72 70
36 41 45 48 50 54 59 59 60 63 64 64 65 67 67 66 67 67 68 69 70 72 71 71 71 72 73 73 72 73 74 72 74 73 72 71 71 71 72 72 72 70 70 71 70 70 70 71 72 72 72 71 71 68 71 73 72 72 73 74 74 74 73
32 35 44 48 49 52 54 60 62 62 60 65 64 65 66 66 66 66 67 68 69 70 70 70 70 72 73 73 72 72 72 73 73 73 72 71 71 72 72 71 71 71 72 69 71 71 69 71 70 71 72 70 71 71 69 72 73 70 71 73 74 74 71
29 37 41 43 48 50 53 55 58 60 63 62 64 65 65 66 66 66 67 67 68 69 70 69 69 70 73 72 72 72 73 72 73 73 71 70 70 69 69 71 72 72 71 69 68 71 71 71 71 72 73 72 71 72 71 73 72 71 71 72 73 74 72
32 35 41 44 48 47 52 55 60 64 62 65 64 66 66 65 66 66 66 66 67 68 68 68 68 69 72 71 71 71 72 72 72 71 70 69 68 69 68 68 70 71 71 70 67 68 71 71 72 73 74 73 73 72 72 72 72 72 72 71 72 73 74
30 41 42 40 46 49 53 53 55 64 64 67 66 64 66 66 66 65 66 66 66 67 68 68 68 68 70 70 69 69 71 70 70 70 70 69 67 67 67 67 67 70 70 70 69 68 70 72 73 74 74 73 73 73 73 72 73 73 72 71 71 72 72
35 37 46 45 47 48 47 53 59 65 68 68 64 63 66 67 66 65 65 66 66 66 67 66 67 67 69 69 69 70 70 70 68 69 69 68 67 66 67 67 67 68 70 70 69 68 67 72 72 73 74 75 74 74 74 74 74 74 73 70 70 71 72
41 38 45 44 49 48 56 62 66 67 69 63 62 62 64 65 65 65 67 67 65 66 66 67 67 68 69 69 68 69 69 69 68 69 69 69 67 67 67 67 66 66 68 69 69 68 66 69 73 73 74 75 75 74 75 75 74 76 75 73 71 71 72
51 42 41 46 49 51 54 63 65 67 67 64 63 63 63 64 64 65 66 66 66 65 65 66 66 68 69 70 69 70 68 69 69 70 70 70 71 70 67 67 67 67 67 70 70 68 67 66 71 72 73 74 75 75 75 75 75 76 76 75 73 71 71
42 41 48 50 57 60 61 58 66 67 65 65 64 63 63 63 64 66 67 67 67 65 65 67 67 68 68 70 70 71 71 72 70 70 71 71 73 72 70 70 70 69 69 71 71 69 68 67 67 71 72 72 74 74 74 74 74 74 75 76 75 73 70
55 56 51 51 55 53 60 60 64 67 68 69 65 65 62 64 66 64 65 66 65 66 65 67 67 68 68 69 70 71 72 74 74 73 73 73 74 74 72 70 71 70 71 70 71 72 71 70 69 68 71 71 73 73 73 73 73 73 69 71 75 74 71
59 61 60 62 64 64 64 60 62 66 69 69 68 66 64 64 66 65 63 65 65 66 65 65 68 68 68 70 71 72 74 75 74 74 75 75 75 75 74 74 71 72 73 72 72 74 75 72 68 67 68 70 71 71 71 71 70 68 66 67 69 74 74
57 60 61 62 63 66 66 64 62 63 66 66 65 65 64 66 65 64 63 64 65 64 64 65 67 68 70 70 72 74 74 74 75 75 75 75 75 75 75 74 73 74 73 71 71 74 73 71 70 71 68 69 70 70 70 71 68 64 65 65 66 70 75
57 57 59 61 62 63 64 63 64 65 62 65 66 64 63 64 63 65 65 66 65 66 64 65 66 69 71 70 72 74 75 75 75 75 75 76 76 76 75 75 74 73 72 71 73 73 74 74 72 72 71 69 71 70 70 70 66 63 63 64 65 65 71
57 57 58 59 61 61 64 67 68 69 69 67 66 64 63 65 64 65 64 64 66 66 67 68 68 70 70 72 74 75 75 75 75 75 76 76 76 76 76 75 74 73 72 72 73 74 74 73 73 73 74 72 72 73 70 70 65 62 62 63 63 64 67
56 56 58 59 61 61 64 67 68 69 69 66 65 65 65 63 63 65 64 64 65 66 71 69 70 71 71 72 74 75 75 75 75 76 76 77 76 77 76 75 75 74 73 72 72 74 75 74 73 73 73 72 71 71 71 68 63 61 61 61 61 63 65
53 55 56 58 60 61 64 64 67 67 68 69 68 61 62 61 62 62 63 62 64 66 67 70 72 70 72 72 73 74 75 75 75 76 77 77 77 76 76 76 76 76 75 73 71 73 74 74 73 73 73 73 72 70 71 70 61 60 60 60 61 62 71
52 54 55 57 57 59 63 66 67 67 69 68 66 63 60 62 61 61 62 63 63 67 66 68 70 70 72 73 73 73 74 75 75 76 77 77 76 76 76 76 76 76 75 74 72 71 72 74 72 74 73 74 74 72 71 71 65 59 59 59 59 63 73
51 53 53 55 57 58 62 65 67 67 67 68 66 63 60 62 62 63 65 64 64 65 66 67 68 70 72 72 72 74 75 75 75 76 76 77 76 76 76 75 76 75 75 73 71 69 71 73 73 72 73 73 73 72 71 70 69 57 58 58 58 65 74
50 51 53 54 55 57 61 65 68 68 67 68 66 62 60 62 63 62 65 66 64 66 67 67 68 70 72 72 73 75 75 75 76 76 76 77 76 75 75 75 76 75 75 73 71 70 71 72 72 72 72 70 72 73 72 70 66 57 57 57 57 66 75
50 51 52 53 55 58 61 65 68 69 67 66 66 62 60 62 64 65 65 65 64 65 66 68 69 71 73 73 73 75 76 75 77 76 76 77 77 76 76 76 75 75 74 73 72 70 68 69 71 71 71 70 70 71 72 71 72 66 55 56 56 60 75
49 50 52 53 54 60 59 63 66 66 66 67 67 61 59 63 63 65 68 67 67 66 66 68 70 72 74 74 73 74 75 76 76 76 76 77 76 75 75 75 74 74 74 72 70 70 70 68 69 69 70 69 70 69 71 71 72 69 54 55 55 57 64
48 50 52 54 56 57 58 59 65 69 66 67 64 62 63 66 67 70 70 67 66 67 67 69 71 72 74 74 73 73 75 75 76 76 76 77 76 76 75 75 74 74 74 72 72 73 72 72 70 68 69 69 69 71 71 72 70 75 56 55 54 56 58
48 49 51 53 54 54 55 59 64 68 70 63 62 63 63 62 69 69 70 68 70 68 69 70 71 73 74 75 73 74 75 75 76 76 76 76 76 75 75 75 74 74 75 75 74 74 72 74 72 71 69 70 70 71 72 74 75 68 65 55 54 54 55
48 48 50 52 52 53 55 60 66 70 70 70 65 64 64 66 71 71 70 71 72 70 70 71 73 74 74 74 74 74 74 75 75 76 76 76 76 75 75 75 75 75 75 75 74 73 73 73 73 73 71 69 69 69 70 74 74 68 63 61 54 54 54
48 48 50 52 52 54 55 59 64 69 70 69 68 66 68 68 70 72 71 72 74 74 72 72 73 74 74 73 73 74 75 75 76 75 75 75 75 75 74 75 75 74 75 76 74 74 73 73 73 73 72 70 70 70 70 72 74 76 68 60 55 54 54
48 49 51 53 53 54 56 58 64 69 69 72 69 67 72 69 69 72 72 72 74 74 74 74 75 75 75 75 74 74 75 75 74 75 75 75 75 76 75 75 74 74 74 74 74 74 74 73 72 72 73 72 71 71 71 73 73 75 75 64 59 57 54
49 50 52 53 54 56 56 59 65 71 71 71 70 67 66 70 71 73 75 75 73 73 75 75 75 75 75 75 74 75 75 75 74 74 75 76 75 75 75 74 74 74 74 74 73 73 72 73 72 72 71 71 72 72 73 73 73 73 75 73 69 66 63
49 52 52 53 56 56 57 59 64 71 72 73 72 74 70 71 72 74 74 74 73 72 74 75 75 75 75 74 74 74 74 74 76 75 73 74 73 73 73 73 73 72 73 73 72 72 72 71 71 71 71 71 71 73 73 72 73 74 74 75 72 71 69
50 52 53 53 56 56 57 59 63 70 71 71 72 75 76 75 74 75 75 75 74 75 75 75 75 75 75 73 73 72 74 73 74 73 73 73 74 75 80 79 73 72 73 73 73 72 72 72 71 72 72 72 73 74 74 74 74 75 68 79 68 73 73
50 51 52 53 57 57 57 59 62 69 72 73 73 74 74 75 76 76 73 74 73 75 76 76 76 76 75 74 73 73 73 73 72 73 72 72 72 71 64 51 44 51 74 73 62 53 50 64 77 78 74 75 74 76 75 75 78 57 64 61 61 61 62
51 50 52 53 56 56 56 58 61 69 71 72 73 73 73 73 74 75 73 74 74 75 76 76 75 74 73 74 73 72 73 72 73 74 74 74 74 72 71 70 66 45 42 50 52 47 43 42 43 49 57 77 76 66 49 53 52 52 54 55 57 57 57
52 50 52 53 55 56 56 57 60 68 70 71 71 72 72 72 73 74 73 74 74 74 75 75 74 73 72 72 72 75 76 73 74 74 74 74 75 75 74 73 72 69 50 43 45 44 42 42 42 42 46 61 70 70 70 54 48 48 49 50 50 51 52

ECMWFFLT1_sfc_dewp_054.txt.gz
Dewpoint
55 59 60 61 62 61 62 63 67 67 69 69 69 66 64 64 67 68 69 71 72 72 72 71 72 72 71 70 70 70 70 69 69 68 68 68 67 68 70 69 69 71 68 69 70 71 73 74 74 73 74 76 75 76 78 78 78 76 79 78 77 77 77
57 57 56 55 57 60 64 66 68 67 67 66 66 67 66 65 67 67 69 72 73 72 72 71 72 72 71 70 69 71 70 69 69 69 68 69 69 70 70 72 71 72 72 70 72 72 74 72 74 74 74 75 74 76 76 78 78 78 77 78 77 79 77
55 57 56 57 60 62 63 65 67 66 66 66 67 65 65 67 67 69 70 71 73 73 72 71 72 72 71 71 70 70 70 70 69 68 66 65 66 63 67 71 72 72 70 70 73 71 71 72 73 75 74 73 72 75 76 77 78 77 78 78 77 76 78
56 56 57 57 59 62 62 64 66 63 62 63 63 64 67 69 68 69 70 70 72 73 73 72 71 71 71 71 70 70 70 70 69 67 64 64 65 64 65 68 72 70 71 68 67 69 67 70 72 74 75 74 75 75 75 75 75 77 77 77 77 76 78
57 55 54 57 59 59 63 65 64 66 67 66 68 69 68 68 67 66 68 69 71 73 73 72 70 71 72 71 68 69 70 69 69 68 66 65 67 66 65 63 68 69 69 69 69 70 74 72 71 72 74 75 75 76 75 75 75 77 77 77 77 76 76
55 51 58 59 59 62 63 63 64 63 63 63 65 67 67 67 66 66 66 68 71 72 73 73 72 73 72 70 70 70 71 70 70 70 68 68 69 66 65 66 66 68 66 69 69 69 70 73 70 71 72 72 72 72 73 74 73 74 76 76 76 75 73
43 50 56 57 58 58 59 60 59 63 66 64 66 67 68 68 68 66 66 67 70 72 72 72 72 71 72 72 72 72 72 71 71 69 70 68 69 69 69 68 69 68 68 70 70 70 68 71 72 73 72 71 72 71 72 74 73 74 75 76 76 76 76
44 46 60 57 57 57 56 56 59 61 63 64 63 65 70 70 71 71 69 68 69 71 71 71 72 72 73 73 71 70 71 70 70 70 70 68 68 69 69 69 70 70 71 69 71 71 68 70 70 72 73 72 72 73 72 74 75 73 74 75 75 75 73
39 50 51 57 56 56 56 58 59 62 64 64 64 68 68 69 68 68 68 70 68 70 71 71 71 72 73 72 72 72 72 71 71 70 69 67 66 65 66 69 69 70 71 69 68 71 70 70 69 72 74 73 73 74 73 74 74 74 74 74 75 75 73
41 48 50 60 58 54 61 62 64 64 64 64 64 67 68 68 67 66 68 70 69 70 71 71 71 71 72 72 71 70 72 72 72 70 69 68 67 66 66 68 68 70 70 69 68 69 71 72 71 73 74 74 74 74 73 74 73 73 73 74 74 74 75
37 46 48 44 47 59 61 61 62 64 64 65 64 65 67 67 66 66 66 68 68 69 71 71 71 71 72 71 70 69 71 70 70 70 69 68 67 67 66 67 68 69 68 69 68 69 70 72 73 74 74 73 74 74 73 73 73 73 71 72 73 74 73
42 48 45 47 51 60 61 61 61 63 65 66 63 61 66 67 65 64 64 65 66 69 70 71 71 71 71 71 70 70 71 70 70 70 70 68 67 67 67 67 68 69 69 69 69 69 69 71 72 73 74 74 74 74 74 73 74 74 72 71 71 73 73
48 56 47 45 51 57 61 63 62 64 67 64 62 61 62 64 65 65 66 66 66 67 69 71 71 71 71 71 70 70 70 70 69 71 70 70 68 67 68 67 68 68 69 69 69 68 68 70 72 73 74 74 74 74 74 73 73 74 74 73 72 72 73
59 30 47 50 52 57 63 63 63 66 65 63 61 62 64 65 66 66 67 66 67 67 68 70 70 71 72 72 71 71 70 70 71 72 72 71 70 70 68 68 68 69 70 71 70 69 68 68 71 73 73 74 74 74 75 74 73 74 75 74 73 73 73
57 58 38 44 63 69 62 63 65 65 65 64 62 62 63 63 64 66 68 67 68 67 68 70 71 70 70 72 72 72 71 72 72 72 72 72 72 71 70 69 70 70 71 72 71 70 69 68 69 71 71 72 74 74 74 73 73 73 74 74 74 73 71
54 55 56 59 62 63 66 68 67 68 66 66 63 64 62 64 67 67 67 67 67 68 68 70 70 71 70 71 71 72 72 73 73 73 73 73 73 72 71 70 71 70 71 72 72 72 72 70 70 70 71 72 74 74 73 73 73 72 68 71 74 73 70
55 55 56 58 60 61 65 67 66 67 71 69 66 65 65 66 67 66 65 65 66 68 68 68 71 70 70 71 71 72 73 74 73 73 73 73 73 73 72 72 71 72 72 73 72 72 74 72 70 69 71 71 72 73 73 72 72 69 66 66 69 73 73
54 56 57 58 60 60 61 63 66 70 69 68 69 70 69 70 66 65 64 65 65 66 66 67 69 68 71 71 72 74 74 73 74 73 73 74 74 74 73 73 72 72 73 72 72 73 72 71 71 71 71 71 72 73 73 73 69 65 65 65 66 70 74
54 55 56 59 59 60 60 62 64 66 67 68 70 70 70 71 67 65 65 66 66 67 65 66 66 69 71 71 73 74 74 74 74 73 73 74 74 74 74 73 73 73 72 71 72 72 73 73 71 71 70 71 72 71 72 72 67 63 63 64 65 66 72
54 54 56 57 58 58 61 62 63 64 65 68 69 65 64 64 64 65 65 65 67 68 68 68 68 69 71 72 74 75 74 74 74 74 74 74 75 75 74 73 73 72 71 70 71 73 73 72 72 72 72 71 72 73 72 72 67 61 62 63 64 65 68
53 54 55 56 57 57 60 61 62 63 64 65 68 70 69 61 58 63 66 65 65 67 71 71 70 71 71 73 74 75 75 75 75 74 75 75 75 75 74 73 73 73 71 68 69 72 73 72 71 72 72 70 71 73 70 69 64 60 61 61 62 64 66
51 52 53 55 56 58 59 59 60 60 62 66 67 67 66 66 61 59 62 63 64 66 69 71 73 73 72 73 74 75 75 75 75 75 75 75 75 75 74 74 74 73 72 70 68 69 73 73 72 72 72 71 70 69 70 69 61 60 60 60 61 63 71
50 51 52 55 55 56 58 59 60 60 63 63 65 67 67 65 63 58 57 62 62 66 66 69 73 72 73 73 73 74 75 74 74 75 75 75 75 75 74 74 74 74 73 71 69 69 70 72 71 73 71 72 72 71 71 70 63 58 59 59 60 63 72
49 50 51 53 55 55 57 58 60 61 62 63 65 66 68 68 62 61 63 63 62 63 66 65 69 72 73 72 73 74 74 75 75 75 76 76 75 75 74 74 74 73 73 72 70 68 69 71 73 73 72 71 72 71 72 71 67 57 58 58 59 65 73
49 49 50 52 53 54 56 58 59 60 62 63 63 66 69 69 69 61 63 65 63 63 63 65 69 71 72 72 72 74 75 75 75 75 76 76 75 74 74 74 74 73 73 71 70 70 72 73 72 72 73 71 71 72 72 70 69 55 58 56 57 65 74
49 49 50 50 52 54 56 59 59 59 59 60 62 64 68 70 69 69 64 64 64 62 62 65 67 70 72 72 72 74 76 75 76 76 76 77 76 76 76 76 74 73 72 72 71 70 70 71 72 72 72 71 71 72 72 71 73 63 56 55 56 60 74
48 49 50 50 51 56 54 56 56 57 59 61 63 64 66 70 70 67 68 66 65 63 63 67 69 71 73 73 72 73 75 75 76 76 77 77 77 75 75 75 75 74 73 72 71 70 70 69 70 71 72 71 72 71 72 71 72 66 54 55 56 57 65
47 49 49 51 53 53 53 53 56 57 58 60 62 64 65 69 71 70 70 68 66 66 65 68 70 72 74 74 73 72 74 75 76 76 76 77 77 76 76 76 76 75 74 72 72 73 72 71 71 71 72 72 72 72 72 72 70 69 55 55 55 56 60
48 48 49 50 51 52 52 53 55 56 58 58 60 62 65 68 70 69 72 69 68 67 68 71 71 73 74 75 73 74 75 76 76 76 76 76 77 76 76 76 76 76 76 75 75 74 73 72 72 71 71 73 73 72 73 74 73 65 62 54 54 55 57
47 48 49 49 50 51 52 53 55 56 57 58 61 64 67 71 72 71 72 72 71 69 70 73 73 75 75 75 74 75 75 76 76 77 76 76 77 77 76 76 76 77 77 76 75 74 73 73 73 72 71 70 70 70 71 74 76 66 60 59 53 55 55
47 48 48 49 49 52 52 53 55 56 57 58 61 64 68 72 74 74 74 74 73 72 73 73 73 74 75 75 74 75 75 76 76 76 76 76 76 76 76 76 76 76 77 77 76 75 74 74 73 72 71 70 70 70 70 73 77 73 63 58 55 55 55
48 48 48 49 51 52 53 53 55 55 57 59 61 63 68 74 74 74 75 75 74 74 75 75 75 75 75 75 75 76 76 76 75 76 76 76 76 77 77 76 76 76 77 76 75 75 74 74 72 72 71 71 70 70 71 74 75 76 69 61 58 56 55
49 49 49 51 52 54 53 54 55 56 57 58 60 63 67 74 76 77 77 76 75 74 77 76 76 75 76 76 76 76 76 76 75 75 76 76 76 77 77 76 75 75 76 75 74 74 73 73 73 72 71 71 71 71 72 73 74 75 72 67 64 62 62
51 51 51 52 53 54 53 53 55 56 57 58 60 63 68 73 77 78 78 76 74 74 77 76 75 75 75 75 75 75 75 75 75 75 75 75 74 74 74 74 75 74 75 74 73 73 73 73 72 72 72 71 71 72 72 72 72 73 76 70 67 66 65
52 52 53 54 54 54 53 54 55 56 57 58 60 64 71 75 77 79 77 77 75 75 77 76 75 75 75 74 73 73 74 74 75 74 74 75 75 73 78 76 73 74 74 73 74 73 72 72 72 73 73 73 73 73 73 72 72 73 68 73 64 68 69
52 52 54 55 55 55 54 54 55 57 58 59 61 68 73 74 74 73 73 74 74 75 77 77 76 75 74 74 73 72 73 73 73 73 73 73 72 70 63 52 43 53 76 73 64 60 60 66 74 74 73 73 73 76 73 74 74 68 62 60 58 59 60
52 52 52 55 55 54 54 55 57 57 58 59 64 69 71 72 73 74 74 74 72 72 74 76 75 74 74 74 73 72 73 73 74 74 75 74 73 71 69 68 65 46 42 51 53 48 45 48 54 61 66 75 77 67 53 58 63 59 56 55 56 57 57
51 51 53 55 55 54 54 54 56 57 58 60 66 69 70 71 71 71 71 72 73 71 69 68 70 74 73 73 73 73 73 74 74 74 75 75 75 73 72 71 70 67 50 43 46 45 43 43 44 45 53 63 69 70 72 59 54 52 52 54 54 55 54

ECMWFFLT1_sfc_dewp_057.txt.gz
Dewpoint
61 61 60 61 61 61 61 61 61 60 62 63 64 64 65 65 66 67 67 67 67 68 68 70 70 68 67 67 68 67 67 68 67 67 68 67 66 65 66 66 68 67 70 70 71 71 72 72 71 73 74 74 73 75 76 75 76 76 76 76 76 77 76
60 60 60 61 61 61 61 61 61 61 61 63 64 64 65 65 66 67 67 68 67 67 67 68 70 69 67 67 68 68 67 67 68 68 67 68 69 66 65 66 66 68 69 70 70 71 72 72 71 71 73 74 73 74 76 75 75 75 75 76 74 74 74
59 59 60 60 61 61 61 61 62 62 61 62 64 64 64 65 65 67 67 68 67 67 67 67 69 69 68 67 67 68 67 66 67 67 65 65 67 67 66 66 65 67 68 69 70 70 72 71 72 71 73 73 73 74 75 76 75 75 75 76 75 75 74
58 59 59 60 60 61 61 61 62 62 62 63 64 64 64 65 65 66 67 68 68 68 67 66 67 68 68 67 67 67 67 67 66 65 65 64 65 66 67 67 66 66 68 69 70 69 69 71 71 72 75 73 73 73 74 75 75 75 75 76 75 75 75
58 58 58 59 60 61 62 62 62 63 63 64 65 65 64 64 65 66 67 68 68 68 68 67 66 67 68 67 67 67 67 66 65 65 64 63 64 64 66 68 68 67 67 68 69 71 69 69 70 72 73 73 72 73 74 74 75 76 75 76 75 74 75
56 57 57 59 60 61 62 63 63 63 64 64 65 65 65 64 65 65 66 68 68 68 69 68 66 67 67 67 66 66 67 66 66 65 64 63 63 62 62 66 69 68 68 68 67 69 69 68 69 70 71 72 72 73 73 74 74 75 75 75 75 74 74
55 56 58 59 60 61 62 63 64 64 64 64 65 65 65 64 64 65 65 67 69 69 69 68 67 67 67 68 67 66 66 66 66 65 64 63 62 62 62 62 65 68 68 69 67 66 66 70 69 69 71 71 72 72 73 73 73 75 75 75 74 74 74
55 56 58 58 59 60 62 63 64 64 64 64 64 65 65 65 65 64 65 66 69 69 69 69 68 67 68 68 67 65 65 65 65 65 64 62 62 62 61 61 62 64 67 67 68 67 65 67 70 69 70 70 71 72 73 73 73 73 75 75 74 74 74
56 57 57 56 57 59 60 62 64 64 64 64 64 64 65 65 65 64 65 66 69 70 70 69 69 68 68 68 68 66 65 65 65 65 65 63 62 62 61 61 61 63 65 66 67 68 66 65 68 70 70 70 71 71 72 73 73 73 73 74 74 74 73
56 57 57 57 58 59 60 62 64 64 64 63 63 64 65 65 65 65 65 66 68 69 70 70 70 69 69 69 68 67 66 65 65 64 64 63 62 62 62 61 61 63 64 65 66 68 68 67 66 70 71 70 70 71 71 72 72 72 72 73 74 74 73
55 57 57 57 57 59 61 62 63 64 64 65 65 66 66 66 65 65 65 65 67 69 70 71 71 70 70 69 69 68 67 66 65 64 64 64 62 62 62 62 62 63 64 66 66 67 68 69 67 69 71 71 70 71 71 72 72 72 72 72 73 73 73
53 56 57 57 57 59 61 62 63 64 64 65 65 66 67 67 66 66 66 66 67 69 70 71 71 71 71 70 70 69 68 67 66 65 64 64 63 62 63 63 64 64 65 66 67 67 68 69 68 68 71 71 71 72 71 71 72 72 72 72 72 73 73
56 56 59 57 57 59 60 61 61 63 65 65 64 66 67 67 66 66 66 66 67 68 70 71 71 71 71 71 70 70 69 68 68 67 65 65 64 64 64 63 64 65 66 66 67 67 67 68 69 69 70 71 71 72 72 71 72 72 72 71 71 72 73
60 57 59 61 63 60 59 60 61 63 64 64 64 66 67 67 66 66 66 66 66 67 68 70 71 71 71 71 71 70 70 69 69 68 67 66 66 65 65 64 64 66 67 67 67 67 67 68 69 69 70 71 71 72 72 72 71 72 71 71 71 71 72
56 57 58 59 61 64 67 62 63 63 64 64 63 65 66 66 66 66 66 66 66 67 67 69 70 71 71 71 71 71 70 70 70 69 69 68 67 67 66 66 65 66 67 68 67 68 68 68 69 69 70 71 71 72 72 72 71 71 71 71 70 70 71
54 56 57 57 59 60 62 66 68 68 67 66 63 64 65 65 66 66 66 66 66 67 67 68 69 71 71 71 71 71 71 70 70 70 70 69 68 68 67 67 66 67 68 69 68 68 69 68 69 69 70 70 71 71 72 73 72 71 67 69 71 71 71
53 54 55 56 57 58 60 61 63 66 68 68 68 69 67 66 65 66 65 65 65 66 66 67 69 70 70 71 72 72 71 71 70 70 70 70 69 69 68 68 67 68 69 70 69 69 69 69 69 69 70 70 70 71 71 72 72 67 65 66 68 71 71
52 53 54 55 56 58 59 60 60 62 65 67 68 70 69 69 71 67 65 65 65 65 66 66 68 69 70 71 72 72 71 71 71 71 70 70 70 69 69 68 68 68 69 70 70 70 70 69 69 70 70 70 70 71 71 71 69 65 64 64 65 69 72
50 51 52 54 55 57 57 59 61 61 62 64 69 69 69 70 71 71 70 70 72 72 72 71 67 68 70 71 71 72 72 71 71 71 70 71 71 70 69 69 69 68 69 69 70 70 70 70 69 69 70 70 70 71 71 72 68 64 63 63 64 65 70
49 49 50 51 53 55 56 57 63 62 61 62 63 64 73 72 71 68 68 71 71 72 72 71 71 70 70 71 71 72 72 71 71 71 71 71 71 71 70 69 69 68 68 69 70 70 70 70 69 70 70 70 70 71 72 72 68 63 62 62 63 64 67
49 49 49 50 52 53 55 56 57 62 63 64 64 64 65 67 67 67 72 71 70 70 71 71 70 69 69 70 71 72 72 71 71 71 71 71 71 71 70 69 69 69 69 68 69 70 70 69 69 69 70 71 71 71 71 72 67 62 61 61 61 63 65
47 48 49 50 51 51 54 54 56 56 59 65 65 66 66 67 66 70 70 70 69 68 68 69 69 68 68 70 71 71 71 71 71 71 71 71 71 71 70 70 69 69 69 69 69 70 70 70 70 69 69 70 71 71 71 71 64 61 60 60 60 62 68
45 47 48 50 50 50 53 53 54 56 58 59 62 60 63 67 69 67 67 66 67 67 67 68 68 68 68 70 71 71 71 71 71 71 71 71 71 71 71 70 69 69 70 69 68 69 70 70 69 70 69 69 70 71 71 71 65 60 59 59 60 62 70
45 46 48 49 50 53 52 52 54 55 56 57 58 60 60 63 66 64 65 68 66 66 66 66 66 67 68 69 70 71 71 71 71 71 71 71 71 71 71 70 70 69 70 69 68 68 69 70 69 69 69 69 69 70 71 71 66 58 58 58 59 63 70
45 45 47 48 50 50 51 52 54 55 55 56 57 58 59 62 65 65 65 67 69 65 64 65 65 66 67 70 70 71 72 71 71 71 71 71 71 71 71 71 70 70 70 69 68 68 69 70 69 69 69 69 69 70 69 69 67 57 58 57 57 63 70
50 45 46 47 49 51 51 53 52 53 53 54 56 58 58 59 61 63 64 66 68 69 66 63 65 66 67 69 70 71 72 72 72 71 71 71 71 71 71 71 71 70 70 69 69 68 68 69 70 69 69 70 70 70 69 68 70 63 56 56 56 58 70
51 46 45 46 48 53 50 51 52 52 53 54 56 57 57 59 59 62 63 65 66 68 69 67 64 65 68 71 70 71 72 72 72 72 72 72 72 71 71 71 71 71 70 69 69 68 68 68 69 69 70 70 70 70 70 70 69 66 54 54 55 56 62
51 50 47 48 50 50 49 51 52 53 53 54 55 56 57 58 59 61 63 65 66 68 69 70 66 64 67 72 71 71 72 72 72 72 72 72 73 72 72 72 72 71 71 70 69 69 69 69 70 70 70 71 71 71 71 71 68 70 56 54 53 55 57
53 52 48 47 47 48 51 51 51 52 52 53 54 55 56 57 59 61 63 64 66 68 71 71 69 65 66 70 71 71 72 73 73 73 73 73 73 73 72 72 72 72 72 71 70 69 69 70 70 70 71 71 71 71 71 71 71 66 64 54 53 53 54
52 50 49 48 48 49 52 51 52 52 52 53 54 55 56 57 59 60 62 63 65 68 71 73 71 67 65 68 71 71 72 73 73 73 73 74 74 73 73 73 73 73 72 71 70 70 69 69 70 71 71 71 71 71 71 72 72 65 61 60 53 53 54
50 52 50 50 49 51 52 51 51 52 52 53 54 55 56 58 59 60 61 63 65 68 72 74 71 67 65 67 70 71 72 73 73 74 74 74 74 74 73 73 74 73 73 72 71 70 70 70 69 70 70 70 71 71 71 72 72 71 64 59 55 54 53
52 52 53 51 50 51 53 52 51 52 52 53 54 55 57 57 58 59 61 63 65 69 73 75 73 68 68 68 69 71 72 73 74 74 74 74 75 74 74 74 74 74 74 73 72 71 71 70 69 69 69 70 70 71 71 71 72 72 69 62 59 56 54
52 53 52 51 51 53 53 53 52 52 53 53 55 56 57 57 58 60 62 64 67 72 74 74 73 69 69 70 71 71 72 73 73 74 74 75 75 75 75 74 74 74 74 74 73 72 71 71 70 69 68 69 70 70 71 71 71 72 71 67 64 62 61
52 52 53 52 52 53 53 53 52 52 53 54 55 56 57 58 58 60 62 66 72 72 72 73 72 70 70 71 71 72 72 73 74 74 74 74 75 75 75 75 75 74 74 74 73 72 72 71 70 69 69 68 69 69 70 70 70 72 71 68 66 65 64
51 52 52 52 52 55 54 53 52 53 54 55 55 56 57 58 60 62 65 71 72 71 71 72 71 70 70 71 71 71 72 73 74 74 74 74 75 75 75 75 74 74 74 75 75 74 73 72 71 70 69 69 68 68 69 69 70 72 66 68 62 65 65
50 51 52 52 53 54 53 53 53 54 54 55 56 57 58 60 63 66 70 71 71 71 70 72 73 71 71 72 72 72 73 73 74 74 74 74 74 74 72 61 54 64 74 74 71 67 65 65 71 71 70 69 69 69 68 69 70 65 60 58 56 56 57
50 51 51 53 54 53 53 53 54 55 55 56 58 59 61 62 64 66 70 71 72 71 70 71 71 73 73 73 72 71 73 73 74 74 74 74 74 74 72 68 61 48 44 49 65 64 59 58 60 62 64 69 70 69 63 63 62 54 56 55 54 53 54
51 51 53 54 54 54 53 53 54 54 55 57 59 59 59 61 64 66 68 71 72 72 71 70 70 70 70 72 71 69 68 70 70 71 71 74 74 74 71 69 68 66 52 43 47 54 59 58 58 58 58 61 65 69 68 62 57 52 53 54 53 53 52

ECMWFFLT1_sfc_dewp_060.txt.gz
Dewpoint
61 61 61 61 61 60 60 61 61 61 61 62 63 63 63 63 63 62 64 66 66 67 68 69 69 68 68 68 67 65 66 66 68 65 64 62 64 66 65 65 68 69 70 70 71 71 71 72 72 73 74 74 74 74 74 74 75 74 73 75 74 73 73
60 61 61 61 61 60 60 61 61 61 62 62 63 64 63 64 64 63 64 66 66 67 68 68 69 68 67 68 67 65 65 66 68 67 65 64 65 66 66 65 67 68 70 70 71 71 71 71 72 72 73 74 73 74 74 74 75 74 73 74 74 74 74
60 60 60 61 61 60 61 60 61 61 61 62 63 63 64 65 64 64 64 65 66 66 68 68 69 68 67 67 67 65 64 66 66 67 65 63 63 64 66 66 66 67 69 70 70 71 72 71 71 72 72 73 73 73 75 74 75 74 74 74 73 73 73
60 60 60 61 61 61 61 60 60 60 61 62 62 63 64 65 65 65 65 65 65 66 67 68 68 68 67 67 67 66 64 65 66 67 66 63 63 64 65 66 66 67 69 70 70 71 71 71 71 71 74 73 73 73 74 75 74 74 74 74 73 73 73
59 60 60 60 61 61 60 60 60 60 61 62 62 64 64 65 66 66 65 65 65 65 66 67 68 68 67 67 66 66 65 64 65 66 66 66 64 64 64 64 65 66 67 69 70 71 71 71 71 71 72 72 72 72 73 74 74 74 74 74 73 74 73
58 59 60 60 61 61 61 60 60 60 60 61 62 63 64 65 65 66 66 66 65 66 66 67 68 69 67 66 66 66 66 65 65 66 66 66 66 64 64 63 64 64 66 67 70 70 70 70 70 71 71 72 72 72 72 73 74 74 74 74 74 73 73
58 59 59 60 60 61 61 61 60 60 60 61 63 63 64 64 65 66 66 66 66 66 66 66 67 68 68 67 66 66 66 65 65 65 65 65 65 65 65 64 64 63 63 66 68 69 69 69 69 70 71 71 72 72 72 72 73 74 74 74 74 74 74
58 58 59 59 60 60 61 61 61 61 60 61 62 63 64 65 65 65 66 66 66 66 66 66 66 67 68 68 66 65 66 66 65 65 65 64 64 65 65 65 64 64 64 64 66 68 68 68 68 69 70 70 71 72 72 72 73 74 74 74 74 74 74
57 58 58 59 59 60 61 61 61 61 61 61 62 63 64 64 64 65 65 66 67 66 66 66 66 66 67 68 67 66 65 65 65 65 64 64 63 63 63 64 65 66 65 64 64 66 67 68 68 68 68 69 71 71 72 72 72 73 74 74 74 74 73
57 57 58 59 59 60 60 61 61 62 62 62 62 63 64 64 64 64 65 66 67 67 66 66 66 65 66 67 67 66 65 65 65 65 64 63 63 62 62 62 63 66 66 66 65 65 66 66 68 68 68 68 69 71 71 72 72 72 74 74 74 74 73
57 57 58 58 59 59 60 61 61 62 62 63 63 63 64 64 64 64 64 65 66 67 67 67 66 66 65 66 66 66 66 65 65 65 64 63 62 62 61 61 60 61 65 66 66 66 66 66 66 68 69 69 68 69 70 71 72 72 72 73 74 74 74
58 60 61 60 59 59 60 61 62 63 63 63 63 63 64 64 64 64 64 65 66 67 67 67 67 66 65 65 65 66 65 65 64 64 64 64 62 61 61 60 60 59 60 63 65 66 67 67 66 66 68 69 69 69 70 70 72 72 72 72 73 74 73
55 57 59 59 61 63 63 64 63 63 64 63 63 63 64 64 64 64 64 64 65 67 67 67 67 67 66 66 65 65 65 65 64 64 64 64 63 62 61 60 59 59 58 60 61 63 65 66 67 67 66 67 69 69 69 70 71 72 72 72 72 73 73
56 54 55 57 58 59 60 64 67 66 65 64 63 63 64 64 64 64 64 64 65 66 67 68 68 68 67 67 66 66 66 65 65 64 64 64 64 64 62 61 60 59 59 60 60 60 62 63 66 67 67 66 68 69 70 70 70 71 71 72 71 72 72
49 50 52 54 55 57 59 59 60 64 67 67 66 64 64 64 64 65 64 64 64 66 67 68 68 68 68 68 67 67 67 67 66 65 65 65 64 64 63 62 61 61 60 60 60 61 61 63 64 66 67 67 67 69 70 70 70 70 71 71 71 71 72
48 49 50 51 53 54 56 57 59 60 61 62 63 65 66 66 66 65 65 64 64 66 67 69 69 69 69 69 68 68 68 69 68 67 66 65 65 64 64 63 62 62 61 61 61 61 62 63 64 65 66 67 67 68 69 70 70 70 67 68 71 71 71
48 48 49 50 51 52 53 55 57 58 59 60 61 62 64 66 67 67 66 65 65 66 68 69 70 70 70 70 70 70 70 70 69 69 68 67 66 65 64 64 63 62 62 62 63 63 63 64 64 65 66 66 67 68 69 70 70 67 64 65 67 70 71
50 48 48 49 50 51 52 53 54 55 57 58 61 62 62 64 67 68 66 66 66 66 67 69 70 70 71 71 71 71 71 71 71 70 69 69 68 67 66 65 64 63 63 63 63 65 65 65 65 66 66 67 67 67 68 69 68 64 64 64 64 67 71
49 49 47 50 52 54 52 52 53 54 55 57 60 61 62 63 65 68 70 69 67 67 67 67 68 69 70 71 71 72 72 72 71 71 70 70 69 69 68 66 65 64 64 63 64 65 66 66 66 66 67 67 68 68 68 69 66 64 63 63 63 64 68
48 50 49 47 49 53 55 53 53 54 55 56 58 59 63 64 66 65 69 70 71 70 68 68 68 69 70 70 71 72 72 72 71 71 71 70 70 70 69 68 67 66 65 65 65 65 66 66 66 67 67 67 68 69 69 69 66 63 62 62 62 63 65
50 50 46 47 47 49 52 55 55 56 57 59 59 60 61 61 61 61 64 66 69 70 70 69 69 69 69 69 70 71 72 72 72 71 71 71 70 70 69 69 68 67 66 66 65 66 66 67 67 67 68 68 68 69 69 69 65 61 61 60 60 62 64
53 50 48 46 46 48 50 49 53 54 57 60 60 59 59 60 60 62 62 64 64 68 69 69 68 68 68 69 69 70 71 72 72 72 71 71 71 70 70 69 69 68 67 67 66 66 67 68 68 68 68 68 68 69 69 69 63 61 60 60 60 61 66
53 54 51 49 47 47 49 50 50 51 53 54 56 57 60 60 60 59 60 61 63 65 67 68 69 69 68 69 68 69 70 71 72 72 72 71 71 70 70 70 70 69 68 67 67 67 67 68 68 69 68 68 69 69 69 69 65 60 59 59 59 61 67
53 54 54 53 49 47 48 49 50 52 52 52 53 54 57 58 58 59 60 60 61 63 65 67 67 68 69 69 68 68 69 71 72 72 72 71 71 71 70 70 70 69 69 68 67 67 67 68 69 69 69 69 69 69 69 69 66 59 59 58 58 62 68
53 53 54 53 50 48 48 49 51 52 52 52 52 53 54 56 58 58 59 60 61 62 63 65 67 67 68 69 69 69 69 70 71 72 72 71 71 71 70 70 70 70 69 69 68 68 68 69 69 69 69 69 69 69 69 69 67 59 58 58 58 62 69
50 52 54 54 53 51 50 52 51 51 51 51 52 53 54 55 56 58 59 59 60 60 62 64 66 68 68 67 68 69 69 69 71 72 72 71 71 71 71 71 70 70 69 69 68 68 68 68 69 69 69 69 69 69 70 70 70 66 57 58 57 58 69
48 51 52 51 54 55 51 49 51 51 51 51 52 53 54 55 55 57 58 59 59 60 61 63 65 67 69 70 69 67 68 69 70 71 72 71 71 71 71 71 70 70 70 69 68 68 68 68 68 69 69 69 69 69 69 70 70 69 57 56 56 56 61
47 48 52 55 54 54 52 51 51 51 52 52 52 53 54 54 55 57 57 58 58 60 61 62 63 65 67 69 70 70 68 68 70 71 72 72 71 71 71 71 71 70 70 69 69 68 68 68 68 68 69 69 69 69 69 69 67 70 59 56 56 56 56
47 48 50 53 53 54 53 51 51 52 52 52 52 53 54 54 55 57 58 58 59 60 61 62 63 64 66 68 71 72 71 69 69 71 72 72 71 71 71 71 71 70 70 70 69 69 68 68 68 68 68 69 69 69 69 69 69 65 66 56 55 55 55
47 48 50 51 53 53 53 53 53 52 52 52 52 53 54 55 56 57 58 58 59 60 61 62 63 65 66 69 71 73 72 71 70 70 71 71 71 71 71 71 71 71 71 70 70 69 69 68 68 68 68 68 68 69 69 70 70 65 62 62 54 55 54
46 48 50 51 52 53 53 52 53 52 52 52 52 53 55 56 56 57 57 58 60 61 61 62 63 65 67 70 72 74 73 71 71 71 71 71 71 71 71 71 71 70 71 71 70 69 69 68 68 68 68 68 68 69 69 70 70 70 65 60 56 54 54
47 48 50 51 51 51 53 53 53 53 52 51 52 54 56 56 56 57 58 59 61 62 62 63 64 66 69 72 73 73 73 72 71 71 72 72 72 71 71 71 71 71 71 71 70 70 69 68 68 68 68 68 68 69 69 70 70 71 70 64 60 56 54
47 48 49 49 50 53 52 53 53 53 52 52 52 53 55 56 57 58 59 60 62 64 65 65 67 70 71 70 71 71 72 71 70 71 72 72 72 72 72 71 71 71 71 70 70 70 69 69 68 68 68 68 68 69 70 70 71 71 71 70 67 64 61
47 47 47 48 50 52 53 53 53 52 52 51 52 54 55 57 57 57 59 60 62 64 66 69 70 70 70 70 70 71 71 71 70 71 72 72 72 72 72 72 72 71 71 70 70 70 70 69 69 68 68 68 68 69 69 70 70 71 71 71 69 67 66
45 46 47 48 49 52 52 53 54 53 52 51 52 54 56 57 56 56 57 59 62 63 64 66 69 70 70 70 70 71 71 70 70 70 71 72 72 72 72 72 72 72 71 71 72 71 70 70 69 69 69 68 68 69 69 69 70 71 65 70 64 67 68
45 46 47 48 49 51 53 55 54 53 52 52 52 54 56 56 55 55 57 59 60 61 63 65 67 70 70 70 70 71 71 70 69 70 71 72 72 72 73 63 53 63 72 72 69 66 64 63 70 70 70 69 69 69 69 69 70 64 59 58 57 57 59
45 45 46 48 49 50 52 54 54 53 52 51 53 55 57 56 55 55 57 58 60 61 62 63 66 69 70 70 70 70 71 70 70 71 72 72 72 73 72 69 64 50 47 53 61 63 59 58 59 61 63 69 70 68 62 61 62 62 59 56 54 54 54
45 46 47 48 50 52 53 54 53 52 52 51 54 56 57 55 55 55 56 58 60 61 62 63 65 68 70 70 70 69 69 72 72 72 72 73 74 73 72 71 70 67 55 48 55 57 56 54 55 56 57 59 63 68 70 62 57 56 54 54 54 53 53

ECMWFFLT1_sfc_dewp_063.txt.gz
Dewpoint
59 60 60 60 60 60 61 61 61 61 62 62 61 60 59 60 62 64 65 66 66 67 67 68 68 68 67 67 67 67 67 67 67 65 65 64 66 67 68 69 70 70 71 71 71 72 72 73 72 73 74 74 74 74 74 74 74 74 73 74 73 73 73
60 60 60 60 60 60 60 61 61 61 62 62 62 61 59 60 62 63 65 66 66 66 67 68 68 68 68 67 67 67 67 66 67 67 66 65 66 66 66 68 69 70 70 71 71 72 72 72 73 72 73 74 74 74 74 74 74 74 73 73 73 72 73
60 60 60 60 60 60 61 61 61 61 61 62 62 62 60 60 61 62 64 65 66 66 67 68 68 68 68 68 67 67 66 66 66 67 66 64 64 65 65 66 68 69 70 70 71 71 72 71 72 72 73 73 73 73 74 74 74 74 73 73 73 73 72
60 60 60 61 61 61 61 61 61 61 61 62 62 62 61 61 61 62 64 65 65 66 66 67 68 68 68 68 67 67 66 66 66 66 66 65 63 64 66 65 66 68 69 70 70 71 71 71 71 72 74 73 73 73 73 74 74 74 73 73 72 72 73
60 61 61 61 61 61 61 61 61 61 61 61 62 63 62 61 61 61 63 64 65 65 66 67 68 68 68 68 67 67 66 66 65 66 66 65 64 63 64 65 65 66 67 69 70 71 71 71 71 71 72 72 72 73 73 74 74 74 74 73 73 72 72
59 60 61 61 61 61 61 61 60 60 60 61 62 63 63 62 61 61 61 64 65 65 66 67 67 68 68 67 67 67 67 66 66 66 66 66 64 63 63 65 65 65 66 67 70 70 70 71 71 71 71 72 72 72 72 73 73 74 73 73 73 73 73
57 60 60 61 61 61 61 60 60 61 61 61 62 63 63 63 62 61 61 62 64 65 65 66 67 67 68 67 67 67 67 66 65 65 66 66 65 63 62 63 65 65 65 67 68 69 70 70 71 71 70 71 72 72 72 72 72 73 74 73 73 73 72
57 59 60 61 61 61 61 61 60 60 61 61 61 62 63 63 63 62 62 62 63 64 65 65 66 67 67 67 67 66 66 66 65 65 65 65 66 64 63 63 64 65 65 66 67 69 69 70 70 71 70 70 71 71 72 72 72 73 73 73 73 73 73
56 59 60 60 60 61 61 61 61 60 60 61 61 62 63 63 63 63 63 63 63 63 64 65 66 66 67 67 67 66 66 66 65 64 64 64 65 65 64 63 63 64 64 64 66 68 69 69 69 70 70 70 70 71 71 71 72 72 73 73 73 73 73
53 55 58 60 61 62 63 61 61 61 61 61 61 62 62 63 63 64 64 64 63 63 64 64 65 66 67 67 67 66 66 66 66 64 64 63 64 64 65 64 63 64 63 63 64 66 68 69 69 69 69 69 70 70 71 71 71 72 72 73 73 73 73
50 52 54 55 58 60 62 62 63 61 61 61 61 61 62 63 63 64 64 64 64 64 64 64 65 65 66 67 67 66 66 65 65 65 64 63 63 63 64 64 64 64 63 63 62 63 65 68 68 68 68 68 68 69 70 71 71 71 72 72 73 73 73
50 50 51 52 53 55 57 59 60 62 64 62 61 61 62 63 63 64 64 65 65 65 65 65 65 65 66 67 67 66 66 65 65 65 64 64 63 63 63 63 64 64 64 64 63 62 62 64 66 67 67 67 67 68 69 70 71 71 71 71 72 73 73
49 49 50 51 52 53 54 55 57 58 60 62 63 61 62 63 63 63 64 65 65 65 65 65 65 65 65 66 66 67 66 66 65 65 65 65 64 63 63 62 62 62 63 64 64 63 63 63 64 66 66 67 67 67 67 69 70 71 71 71 72 72 73
51 48 49 50 51 51 52 53 55 56 57 60 61 63 64 63 63 63 65 64 65 66 66 66 66 65 65 66 66 66 66 66 66 65 65 65 65 64 63 63 62 62 62 63 63 64 64 64 64 64 65 65 66 67 68 68 69 70 71 71 71 72 72
47 47 48 49 50 51 52 52 53 54 55 57 58 60 61 63 65 65 64 64 65 65 66 67 66 66 65 65 66 66 67 67 66 66 66 66 65 65 64 63 63 62 62 62 61 63 63 64 65 65 65 65 65 66 68 68 68 69 70 71 71 71 71
47 47 47 48 50 50 51 52 53 54 55 56 56 57 59 61 63 66 66 64 64 65 66 67 67 66 66 66 65 66 66 67 67 67 66 66 65 65 64 64 63 62 62 61 61 60 61 61 63 64 65 66 66 65 66 67 68 69 66 67 70 71 71
47 47 47 48 49 50 50 51 52 53 54 55 56 56 58 60 62 63 66 66 64 65 66 67 67 67 67 66 66 66 66 66 67 67 66 66 65 65 65 64 64 63 63 62 61 61 61 61 60 60 61 63 65 65 66 66 66 65 63 64 66 70 71
48 47 47 47 49 50 50 51 52 52 53 54 55 56 57 58 59 61 61 63 67 64 65 67 67 67 67 67 67 67 67 67 67 67 66 66 66 65 65 65 64 64 63 62 61 61 61 60 60 60 60 60 62 63 64 65 65 62 62 63 63 66 71
48 48 48 48 48 50 50 51 51 52 53 54 55 56 56 57 58 59 61 63 65 68 66 67 67 67 67 67 68 68 68 67 67 67 67 66 66 66 65 65 64 64 63 63 62 62 61 61 60 60 60 60 61 61 63 64 63 62 61 62 62 63 67
50 49 49 49 49 49 51 52 53 53 54 55 55 56 56 58 57 58 59 61 63 65 70 69 68 68 68 68 68 69 69 68 68 68 68 68 67 67 66 65 64 64 63 63 63 63 62 61 61 61 61 61 61 62 63 64 63 61 60 61 61 62 64
53 52 51 50 49 48 49 51 54 54 56 57 57 56 56 56 56 56 58 60 60 62 65 69 70 70 70 69 69 70 70 69 69 69 69 69 68 68 67 66 66 65 64 63 63 63 62 62 62 62 63 62 62 62 63 63 62 60 59 59 60 61 63
53 54 53 51 52 49 49 48 50 53 55 59 57 57 58 57 57 56 57 59 60 61 63 65 69 69 69 70 70 70 70 70 70 70 70 70 69 69 68 68 67 66 65 65 64 63 63 63 63 63 63 63 63 63 63 64 60 59 59 59 59 60 65
51 54 54 53 53 53 51 50 49 51 54 55 55 55 57 58 59 57 56 58 59 61 61 62 65 68 69 70 70 71 71 71 71 71 71 71 70 70 69 69 68 68 67 66 65 64 64 63 63 64 64 64 65 65 64 65 62 59 58 58 58 60 66
48 50 53 54 55 53 52 51 51 50 52 53 53 55 56 56 58 58 57 58 59 59 60 61 62 64 67 69 69 69 70 71 72 72 72 71 71 71 70 70 70 69 69 68 67 66 65 64 64 64 64 64 65 65 65 65 64 59 57 57 57 61 67
45 47 49 53 55 55 52 52 53 52 51 51 52 54 56 56 57 57 57 58 58 59 59 60 61 62 63 65 66 69 70 69 70 71 72 72 72 71 71 71 70 70 70 69 68 67 67 67 65 65 65 65 65 67 66 66 64 59 57 57 56 61 67
44 46 46 48 52 55 55 55 53 51 51 50 51 54 56 56 56 55 56 57 58 58 59 60 61 61 62 63 64 66 68 70 70 70 71 72 72 72 71 71 71 70 70 69 69 68 68 67 67 66 66 66 67 67 67 67 67 66 57 56 56 57 67
44 45 45 45 48 54 55 54 53 52 51 51 52 52 54 56 56 55 56 57 57 58 59 59 60 61 62 63 63 64 66 68 70 69 69 70 71 72 72 72 71 71 70 70 69 69 68 68 67 67 67 67 67 67 68 68 68 67 57 55 55 55 61
44 44 44 47 49 51 52 52 53 52 52 52 52 52 52 53 55 56 56 56 57 58 58 60 60 61 62 62 63 64 65 67 69 70 70 70 70 71 72 72 72 71 71 70 70 69 69 68 68 67 67 67 68 68 68 68 66 68 59 56 54 54 56
43 43 43 45 45 48 49 50 51 52 52 52 52 52 51 51 53 55 56 56 57 58 59 60 61 62 62 63 63 65 66 67 69 71 71 70 70 70 71 72 71 71 71 71 70 70 69 69 68 68 67 68 68 68 69 69 69 64 66 56 54 54 54
42 43 43 44 46 47 49 49 51 51 52 53 53 52 52 51 53 54 56 56 57 58 59 60 61 62 63 64 64 65 66 68 70 72 73 71 70 70 71 71 71 71 71 71 70 70 69 69 69 68 68 67 68 68 69 69 69 65 62 63 55 54 53
42 42 43 45 46 48 48 47 48 50 52 53 53 53 52 52 52 54 55 56 58 58 59 60 62 64 65 65 65 66 67 70 72 73 74 73 71 70 71 71 71 71 71 71 70 70 69 69 69 68 68 68 68 68 68 69 69 69 65 60 57 54 54
42 42 43 44 45 45 47 46 47 48 50 52 53 53 53 52 52 53 55 56 57 57 58 60 63 64 65 66 67 68 70 71 71 71 72 73 72 71 71 71 71 71 71 71 70 70 70 69 69 68 68 68 68 68 68 69 69 69 69 64 61 58 55
42 42 43 43 44 46 45 46 47 48 49 50 53 53 53 51 52 53 55 57 57 56 58 60 62 64 64 65 66 69 71 71 70 71 71 72 72 72 72 71 71 71 71 71 70 70 70 69 69 69 68 68 68 68 68 68 69 69 69 69 67 65 62
42 42 42 43 44 46 46 46 47 47 49 50 52 53 53 52 51 53 55 56 56 56 58 60 61 62 63 63 65 67 70 70 71 71 71 71 72 71 71 71 71 71 71 70 70 70 70 69 69 68 68 68 68 68 68 68 68 69 69 69 68 67 66
42 42 42 42 43 46 46 46 49 48 49 51 52 53 52 51 51 53 55 56 56 56 57 59 60 62 62 63 64 66 69 70 70 70 71 71 72 72 71 71 71 71 71 71 71 70 70 70 69 69 69 69 68 68 68 68 68 69 63 68 63 67 67
42 41 42 42 44 45 45 48 48 49 50 51 53 53 52 51 51 54 55 56 56 56 57 58 60 61 61 63 64 66 68 70 70 70 70 70 71 71 72 69 64 67 71 70 67 64 63 63 69 70 70 69 69 69 68 68 68 62 59 58 58 58 59
41 41 41 42 43 44 46 46 49 50 51 53 54 53 52 50 51 53 55 55 55 56 57 58 60 61 62 63 64 65 68 69 70 70 70 70 71 71 71 71 69 58 58 61 65 61 58 56 58 60 63 68 69 67 62 62 60 59 56 56 55 54 55
40 41 42 44 44 46 47 48 50 51 53 53 53 52 51 51 52 54 55 55 55 56 57 59 61 61 62 63 64 66 68 70 70 70 69 70 71 71 72 72 71 70 58 53 58 59 56 54 54 55 56 58 63 67 69 61 55 56 53 53 53 53 52

ECMWFFLT1_sfc_dewp_066.txt.gz
Dewpoint
59 59 59 60 61 61 62 62 62 62 62 62 61 61 61 61 63 64 65 67 68 68 68 68 69 69 69 69 69 69 68 68 67 66 66 66 68 69 70 71 71 71 72 72 72 73 73 74 74 74 75 75 75 75 75 76 76 75 75 76 75 75 75
59 59 59 59 60 61 62 62 63 62 62 62 62 62 61 61 62 63 65 66 67 67 68 68 69 69 69 69 69 69 68 68 68 68 67 67 68 69 70 71 71 71 72 72 73 73 73 73 74 74 74 75 75 75 75 75 75 75 75 75 75 74 74
56 59 59 60 60 60 61 62 62 62 62 62 62 61 61 62 62 63 65 66 67 67 67 68 69 68 69 69 69 69 68 68 68 67 66 65 66 66 69 70 71 71 71 72 73 73 73 73 74 74 74 74 74 75 75 75 75 75 75 75 75 74 74
54 55 59 60 60 61 61 61 62 62 62 62 61 61 61 62 62 63 64 65 66 67 67 67 68 68 68 68 68 68 68 68 68 67 66 66 65 66 68 69 70 71 71 71 72 72 72 73 73 73 75 74 74 74 75 75 75 75 75 75 74 74 74
54 56 58 60 60 60 60 61 61 62 62 62 62 63 61 61 61 62 63 65 65 66 66 67 67 68 68 68 68 68 68 68 67 67 67 67 67 66 66 66 68 69 70 71 72 73 73 72 72 73 73 74 74 74 74 75 75 75 75 75 74 74 74
52 53 55 59 60 60 61 61 61 61 61 61 62 62 62 61 60 61 62 64 65 65 66 67 67 68 68 68 68 67 68 68 68 68 67 68 67 65 65 66 66 67 68 70 71 71 72 72 72 72 72 73 73 73 73 74 74 74 75 75 75 74 74
52 53 53 55 61 61 61 61 61 61 62 62 62 63 62 61 60 60 61 63 64 65 65 66 66 67 68 68 68 68 68 67 67 67 67 67 67 66 65 66 67 66 67 69 70 71 71 71 72 72 72 72 73 73 73 74 74 74 75 75 74 74 74
51 52 52 53 55 60 63 62 62 61 62 62 62 62 63 62 61 60 61 62 63 64 65 65 66 67 68 68 68 67 67 67 67 67 67 66 67 67 65 65 66 66 67 66 68 70 70 71 71 72 72 72 73 73 73 73 74 73 74 74 74 74 73
50 51 52 52 53 55 57 61 65 62 62 62 62 63 63 63 61 60 61 61 63 64 64 65 65 67 68 68 68 68 68 67 67 67 66 66 66 65 65 65 65 66 66 66 66 69 70 70 71 72 72 71 72 72 73 73 73 73 74 74 74 74 74
49 50 51 52 53 54 55 56 58 60 63 65 63 63 63 63 63 62 61 61 62 63 64 64 65 66 67 68 67 67 67 67 67 66 65 65 65 65 65 65 64 66 65 65 66 67 69 70 70 71 71 71 71 71 72 72 73 73 73 73 74 74 74
48 50 50 50 51 53 54 55 56 57 59 61 64 64 64 63 65 64 63 61 61 62 63 64 65 65 66 67 67 67 67 67 67 66 65 65 64 65 65 65 64 64 64 64 65 66 68 70 70 70 71 70 71 71 71 72 72 72 72 73 73 73 73
48 48 49 50 50 51 52 54 55 56 57 58 58 61 64 65 63 65 68 66 64 63 63 64 65 65 66 66 66 67 67 66 66 66 66 65 65 64 64 65 65 64 64 64 64 65 66 68 70 70 70 70 71 71 71 72 72 72 72 72 72 73 73
48 48 48 49 50 50 52 53 54 55 56 56 56 57 60 62 64 64 66 64 63 63 63 64 64 65 65 66 66 67 66 66 66 66 66 66 65 65 65 64 64 64 64 64 64 64 64 65 68 70 69 70 70 70 71 71 72 72 72 72 72 73 73
51 49 49 49 49 49 50 52 53 54 55 55 55 56 57 59 61 63 66 65 64 64 63 63 64 65 66 66 66 67 66 66 67 67 67 66 67 66 65 64 64 65 65 66 65 64 63 63 65 67 69 69 69 69 70 70 71 71 72 72 72 72 72
47 47 48 48 49 49 50 50 51 53 54 55 55 56 56 57 58 59 61 63 65 65 64 65 65 65 65 66 66 67 67 68 67 67 67 67 67 67 66 65 65 65 65 66 66 65 64 64 64 64 66 67 68 68 69 68 68 69 70 71 72 72 72
47 47 48 48 48 48 51 51 51 51 53 54 55 55 55 57 57 57 58 59 61 63 66 66 65 65 65 65 66 67 68 68 68 68 68 68 68 68 67 66 66 65 65 65 65 66 67 66 66 64 64 65 66 66 67 68 68 68 65 67 70 71 71
49 48 48 49 49 48 49 51 52 52 52 53 54 54 55 56 56 57 57 58 59 61 62 64 67 66 65 65 66 67 68 68 68 69 68 68 68 68 68 67 66 66 66 65 65 65 66 66 65 65 65 65 65 65 65 66 66 65 63 63 65 69 71
49 49 48 48 50 49 49 49 50 52 52 52 54 54 54 55 56 56 56 57 58 60 61 64 66 66 67 66 67 67 68 68 69 69 69 68 68 68 68 67 67 67 66 65 64 65 64 64 64 65 64 65 65 65 65 65 64 61 62 62 62 65 70
47 48 49 49 50 50 49 50 50 50 51 53 54 54 53 54 55 56 57 58 59 61 62 63 65 68 68 67 67 68 68 68 68 68 69 69 68 68 68 68 67 66 66 65 65 64 65 64 63 63 63 63 64 64 64 65 63 61 60 61 62 62 66
47 46 48 48 49 50 51 51 51 51 51 52 53 53 53 55 54 54 56 58 59 62 62 63 63 67 69 68 68 68 68 68 68 68 68 69 69 68 68 67 67 66 65 65 66 65 64 63 63 63 64 63 62 63 62 63 62 60 59 59 60 61 63
47 47 47 46 46 48 51 52 52 52 52 53 54 53 54 53 53 54 55 57 58 60 61 61 62 65 69 70 69 69 69 69 68 68 68 68 69 69 68 68 67 67 66 65 65 65 65 64 63 63 63 62 62 62 61 60 59 57 58 58 58 60 62
46 47 46 46 46 47 48 50 52 52 53 55 53 53 53 54 53 54 54 55 58 61 61 61 62 63 65 69 72 69 69 69 68 68 68 68 68 68 68 68 68 67 67 66 65 65 65 65 64 63 63 63 62 61 61 61 57 56 56 57 57 59 65
46 47 47 47 46 47 48 48 51 53 54 53 53 53 54 55 55 54 54 55 56 60 61 61 62 62 63 64 65 68 71 69 69 69 69 69 68 68 68 68 68 67 68 66 66 65 65 64 64 65 64 63 64 63 62 62 60 56 55 55 56 58 66
44 46 47 47 48 47 47 47 50 52 53 52 52 53 54 55 55 54 55 55 56 56 60 60 60 61 62 62 63 64 65 68 72 70 70 69 69 69 68 68 68 67 68 66 65 65 64 64 65 65 65 64 63 63 63 63 61 56 54 54 55 60 66
42 43 45 46 46 45 44 47 50 50 51 51 51 53 54 55 55 54 54 55 55 56 57 58 59 60 60 61 62 63 64 65 68 71 71 70 70 69 69 69 69 69 69 67 67 66 66 66 65 65 65 64 63 64 64 63 62 56 55 54 54 60 66
42 42 43 44 44 45 46 49 48 47 49 49 50 52 53 54 54 55 54 54 55 55 56 57 58 60 59 60 61 63 64 64 66 68 71 73 72 71 70 70 70 70 69 69 68 68 67 67 67 66 65 65 65 64 64 64 65 65 55 54 54 56 67
43 43 43 42 43 48 45 45 45 46 47 49 51 49 52 54 54 54 54 55 54 55 57 58 58 59 61 60 61 62 64 64 65 66 68 70 73 72 72 71 71 71 70 70 69 69 69 68 68 67 67 66 66 66 65 65 65 65 56 54 53 54 60
42 42 42 45 46 46 44 43 45 46 46 47 48 49 50 53 54 55 54 53 53 55 55 57 59 60 59 60 61 63 64 65 66 66 67 69 71 73 73 73 73 72 72 71 71 71 70 70 69 69 68 68 68 67 67 67 64 66 59 55 53 53 55
42 41 41 42 42 43 44 43 43 44 45 45 46 47 49 50 53 54 55 54 54 55 56 57 57 58 59 61 63 65 66 68 68 68 68 69 71 71 71 73 73 73 73 72 72 72 71 71 71 70 69 70 70 69 69 69 69 62 65 56 53 52 53
42 42 41 41 41 42 45 44 44 44 44 44 46 47 49 51 53 54 54 54 55 55 56 57 57 58 57 59 63 65 67 67 68 68 68 69 71 72 72 72 72 73 73 73 72 72 71 71 71 71 70 69 69 69 69 70 70 65 60 63 54 53 52
41 42 41 42 42 44 45 43 43 43 43 44 45 47 49 50 52 54 54 54 55 55 56 57 57 57 57 58 61 63 65 67 68 68 69 70 71 72 73 72 72 72 73 73 72 72 72 71 71 71 70 70 70 70 70 70 70 70 66 59 58 54 53
42 42 42 42 42 43 44 44 43 43 43 44 46 47 50 50 51 52 54 54 55 55 56 57 58 57 57 58 60 62 64 65 67 69 70 71 72 73 74 74 72 71 72 72 72 72 72 72 71 71 71 70 70 70 70 71 70 70 70 64 61 57 54
42 42 42 42 43 45 44 44 43 43 44 44 45 46 48 49 51 53 54 55 54 54 55 56 58 59 58 58 59 61 63 64 65 68 70 71 71 71 72 72 73 72 71 71 71 71 71 71 71 71 70 70 70 70 71 70 70 70 70 71 69 66 63
42 42 43 43 43 45 44 44 43 43 44 44 45 46 48 49 50 52 54 54 54 53 55 56 57 57 57 57 59 60 62 63 65 66 68 70 70 70 71 71 72 72 72 71 71 71 71 71 71 70 70 70 70 70 70 70 70 70 70 70 70 69 68
42 42 43 43 43 45 44 44 45 44 44 44 45 46 47 49 50 52 54 54 54 54 54 55 56 56 57 57 58 59 62 63 64 66 67 69 70 70 71 71 72 72 72 72 72 71 71 71 71 71 71 71 71 71 70 70 70 70 64 70 63 67 69
42 42 43 43 43 43 43 45 45 45 45 45 46 47 48 49 51 53 53 53 52 53 54 55 55 55 56 57 58 60 61 63 64 65 67 68 69 69 70 68 63 67 72 72 67 64 63 63 70 71 71 71 71 72 70 70 71 63 59 57 57 57 59
42 42 42 43 42 42 43 43 46 46 46 47 48 49 50 51 52 53 53 53 53 53 55 55 56 56 56 58 59 60 62 63 64 65 67 68 69 69 69 70 70 57 56 61 66 61 58 56 57 59 62 70 71 70 63 63 61 58 55 54 54 54 55
41 41 42 43 43 43 44 44 45 46 47 48 49 49 50 50 51 52 52 53 53 54 55 55 56 57 57 58 60 61 62 63 64 65 67 68 69 69 69 70 70 71 60 55 57 57 55 53 53 54 55 57 62 68 71 62 56 55 53 53 53 53 53

ECMWFFLT1_sfc_dewp_069.txt.gz
Dewpoint
58 60 61 62 63 62 63 64 64 64 65 65 65 64 64 65 67 68 69 70 71 72 73 73 73 73 73 73 73 74 73 73 73 72 71 71 71 72 72 72 72 74 72 72 74 74 76 77 77 76 77 77 76 77 77 78 78 77 78 78 78 77 77
55 56 56 60 62 63 64 65 65 64 64 65 65 66 64 65 67 67 69 71 71 72 72 72 73 73 73 73 73 74 73 73 73 73 72 72 72 73 72 73 73 75 75 74 74 76 76 76 76 76 76 76 76 77 77 77 78 77 76 77 76 77 77
55 55 56 57 58 61 64 64 65 64 65 64 64 64 64 66 67 68 69 69 70 71 71 72 72 72 73 73 73 73 73 72 72 72 71 70 70 68 71 73 73 72 73 74 75 74 75 75 76 76 76 76 74 77 77 77 78 77 77 77 76 75 77
55 55 56 57 59 61 63 64 64 64 64 63 64 64 64 67 67 68 68 68 69 70 71 71 71 71 72 73 73 73 73 73 72 71 70 70 70 69 71 72 73 72 73 73 73 73 73 75 75 76 76 76 76 76 76 76 76 77 77 77 76 76 76
54 55 55 56 57 60 61 62 63 65 63 63 64 65 65 65 65 65 66 67 67 68 69 69 69 70 71 71 71 71 72 72 72 71 71 70 71 71 70 69 70 71 71 72 74 75 76 75 74 75 75 76 76 76 76 76 76 77 77 77 76 76 75
52 53 54 55 56 58 61 61 62 63 63 63 63 63 63 63 63 63 64 66 66 67 69 69 69 70 70 70 70 70 71 72 72 72 71 71 71 69 69 69 69 70 70 71 72 73 74 74 74 75 74 74 74 74 74 75 75 75 76 77 76 75 73
51 52 53 55 56 57 59 62 61 61 63 63 63 63 63 62 62 62 63 64 65 67 67 67 68 69 70 70 70 71 71 70 71 71 70 70 70 70 69 69 70 69 69 72 72 73 73 74 75 75 75 74 74 73 75 76 75 75 76 77 77 77 76
50 51 52 53 54 56 57 59 60 61 62 63 63 63 63 62 62 61 62 62 65 65 66 66 67 69 70 70 70 70 70 70 70 70 70 69 69 69 69 69 69 70 71 70 72 73 72 73 73 74 74 74 74 75 75 76 77 75 75 76 76 76 74
49 50 50 51 53 54 56 58 59 60 61 63 64 64 63 62 63 66 67 69 66 65 65 65 66 67 70 70 70 70 69 69 70 70 70 69 68 68 67 68 68 69 69 68 68 72 72 72 72 74 75 74 74 76 75 76 75 75 75 76 76 76 74
50 50 50 50 52 53 55 56 58 59 59 60 62 64 64 63 65 66 70 71 70 65 71 69 67 67 69 69 69 69 69 70 69 68 68 67 67 67 67 66 67 68 68 67 66 68 71 72 72 74 75 74 75 75 75 75 75 75 75 75 76 76 76
49 51 51 50 51 52 53 54 56 58 58 60 60 59 62 66 68 69 69 69 67 65 69 65 65 66 67 68 67 68 69 68 68 68 68 67 67 67 66 66 66 67 67 66 66 67 69 72 73 74 74 72 73 74 74 74 75 75 74 74 74 75 74
49 50 50 51 51 52 53 54 54 56 57 58 57 58 59 61 64 66 69 67 66 68 69 67 65 65 66 66 66 68 68 68 68 67 67 67 67 66 66 66 66 66 66 66 66 67 67 69 70 71 73 73 73 73 74 74 75 75 74 72 73 74 74
48 49 50 50 51 52 53 54 54 55 56 55 55 56 57 58 59 61 67 67 65 66 66 67 66 66 65 66 66 67 68 67 68 68 67 68 67 67 67 66 66 66 65 66 66 66 66 67 69 71 71 73 73 72 73 74 73 75 75 74 73 74 74
51 48 49 50 50 51 52 53 53 53 54 54 54 54 56 57 58 59 61 62 64 65 65 65 66 66 66 67 67 68 67 68 68 69 69 69 70 69 67 67 66 67 67 67 67 66 66 66 67 69 70 71 71 72 73 74 73 75 75 74 73 73 73
48 48 48 48 50 51 51 52 55 54 53 54 54 54 54 55 57 58 59 61 62 62 63 65 65 65 66 67 67 69 69 70 69 70 70 70 70 70 69 68 68 68 68 68 67 66 65 66 66 67 69 69 70 71 71 70 71 71 73 73 74 73 72
45 46 47 47 49 50 51 51 52 54 55 55 55 54 54 54 55 55 57 58 59 62 63 65 67 66 66 66 67 69 70 71 71 71 71 71 71 72 70 69 69 68 69 68 68 68 68 68 67 66 67 68 70 70 69 70 70 70 67 68 72 73 71
44 44 45 46 47 48 50 51 52 52 53 54 55 55 55 55 55 55 55 57 58 60 62 63 65 67 66 66 67 69 71 72 72 72 72 72 72 72 72 71 69 69 70 69 69 69 70 68 67 65 65 65 67 68 67 67 67 66 63 64 66 71 73
42 43 44 45 46 47 46 47 50 52 52 52 53 53 54 56 55 54 55 56 57 60 61 63 64 65 69 69 68 70 71 71 72 72 72 72 72 72 72 71 70 70 70 69 68 70 69 68 67 68 66 65 65 65 66 66 65 62 62 62 63 66 71
40 42 42 44 46 47 46 46 47 50 52 53 54 53 53 53 54 56 56 57 57 60 62 64 63 66 69 70 71 70 71 72 72 72 72 72 72 72 72 72 71 70 69 67 68 68 69 69 68 68 67 66 66 65 64 65 63 61 61 61 61 62 66
41 41 41 42 44 45 47 47 47 48 50 53 54 52 53 54 53 54 55 56 58 60 62 63 65 67 67 69 72 72 71 72 71 71 72 73 73 73 72 71 71 70 68 68 69 69 68 67 68 68 69 68 67 68 66 65 63 60 59 59 60 61 63
43 42 42 43 43 43 46 47 48 49 50 52 54 53 52 52 53 53 53 54 56 57 60 61 63 66 66 67 68 70 72 72 72 72 72 73 73 73 72 71 71 70 69 67 67 69 69 67 67 67 68 67 67 67 66 64 61 59 58 57 58 59 61
43 42 42 42 43 44 45 43 46 47 49 52 52 52 52 52 53 53 53 54 54 56 58 61 62 63 64 65 65 66 67 69 71 72 72 72 72 72 72 72 72 72 70 69 67 68 68 68 67 67 67 66 66 65 65 64 59 58 57 57 57 58 65
43 44 43 43 42 42 45 45 44 46 48 48 49 51 52 53 54 53 53 54 54 57 59 59 61 62 62 62 63 64 65 67 68 71 71 72 72 72 71 72 72 72 71 70 68 67 67 67 66 68 66 66 67 66 65 64 61 56 56 56 56 58 67
41 43 43 44 44 43 43 44 44 44 45 45 46 49 50 51 52 53 54 54 53 53 56 57 58 59 60 61 61 62 64 66 67 68 70 72 71 71 71 70 71 70 71 69 68 67 66 67 67 67 67 66 66 65 65 65 63 55 54 54 55 60 68
40 40 42 42 42 41 41 44 45 45 45 44 44 46 48 49 51 52 53 54 54 53 53 55 56 57 58 59 60 61 63 64 66 67 68 70 72 70 70 70 70 70 70 69 69 68 69 68 68 67 68 66 65 66 65 65 63 56 54 53 53 59 68
40 41 41 41 41 41 44 47 46 43 41 41 45 46 46 47 49 52 53 54 53 53 53 54 55 56 57 59 60 61 62 63 65 67 68 68 69 71 72 70 69 70 69 69 68 68 68 67 68 67 67 67 66 65 65 65 66 68 54 53 52 54 67
41 40 40 40 41 46 43 42 42 41 42 43 46 45 45 46 47 49 52 54 54 54 54 54 55 56 58 60 59 59 61 63 64 65 67 68 68 69 70 72 70 69 70 68 68 68 68 68 68 67 67 67 67 66 66 65 66 68 54 52 52 52 56
39 39 40 42 44 45 43 40 42 42 41 44 43 43 44 45 47 50 52 52 53 54 54 55 56 57 58 59 60 60 61 64 66 67 68 69 70 72 72 74 73 72 70 69 69 70 70 70 69 68 68 68 67 68 67 67 65 66 58 53 51 51 51
41 40 39 41 41 40 40 41 41 41 42 42 42 43 44 44 47 49 51 51 54 54 55 55 56 57 57 59 60 61 62 64 66 68 68 69 70 70 71 73 72 73 73 73 72 71 71 72 71 70 69 70 70 69 70 70 70 61 67 55 51 51 50
41 40 40 39 38 40 41 42 44 43 43 42 44 45 45 46 47 49 50 52 53 54 56 56 56 57 57 58 59 60 61 62 64 66 66 67 69 69 69 70 71 73 74 73 73 72 72 72 72 72 71 70 70 70 70 72 71 66 60 64 52 51 50
40 40 40 41 40 43 43 42 43 43 44 43 45 46 47 47 48 49 50 51 53 54 55 56 56 57 56 57 58 60 60 61 63 63 64 64 66 68 69 70 71 72 73 74 73 73 73 73 73 72 72 71 71 71 71 72 72 72 68 59 56 52 51
41 42 42 42 42 42 43 43 43 43 43 45 45 45 48 47 47 48 50 50 52 53 55 56 57 57 57 58 59 60 60 61 61 62 64 65 65 67 70 71 72 72 73 73 72 73 73 73 72 72 72 71 72 72 72 73 73 73 74 65 61 57 53
42 42 43 43 44 45 44 45 44 45 45 45 46 45 45 47 47 49 50 51 51 52 54 56 56 57 57 58 59 60 61 61 61 62 63 64 64 65 67 70 71 72 73 73 72 72 72 72 72 72 71 71 71 72 72 73 73 73 73 73 71 67 64
42 43 44 44 45 45 45 45 45 45 46 46 47 47 47 48 48 48 49 50 51 52 54 56 56 56 56 56 57 58 59 59 61 62 62 62 63 64 65 67 69 69 70 71 72 72 71 71 71 71 71 71 72 72 72 72 73 73 73 72 72 71 69
43 43 44 44 44 45 44 45 45 46 46 45 46 47 47 48 48 48 50 51 52 53 54 55 56 56 56 55 56 57 59 59 60 60 61 62 64 64 65 66 67 68 70 71 72 72 72 72 71 72 73 72 73 73 73 73 73 74 66 74 66 72 73
44 44 42 42 43 43 44 45 46 46 46 46 47 47 48 48 48 49 49 50 51 53 54 55 55 55 56 57 57 56 58 60 60 61 62 62 63 64 65 65 60 65 69 69 67 64 59 58 69 73 73 72 73 74 73 73 74 65 60 59 58 58 60
42 41 41 42 42 43 44 44 46 46 46 47 48 47 47 48 48 49 50 51 52 51 53 54 55 55 54 56 56 57 58 59 60 61 62 63 63 64 64 64 66 56 55 59 63 61 58 57 56 54 56 65 72 71 64 63 61 59 60 55 54 55 54
41 41 42 43 44 44 44 45 46 46 46 46 47 47 48 47 47 49 48 50 51 52 53 54 54 55 55 55 55 56 59 60 60 61 62 63 64 64 65 65 66 67 60 54 55 56 54 54 53 54 55 55 59 66 74 66 57 56 56 52 53 53 52

ECMWFFLT1_sfc_dewp_072.txt.gz
Dewpoint
58 59 61 62 64 65 64 65 66 66 68 66 66 66 65 66 68 69 70 72 74 75 75 76 76 75 76 75 75 76 75 74 74 72 72 72 71 72 71 70 70 71 69 67 71 70 73 73 74 74 75 74 74 74 75 76 77 76 77 79 77 77 77
57 57 58 59 61 63 65 67 66 65 66 66 66 67 66 66 68 68 70 72 73 74 75 75 76 75 75 75 75 76 76 75 74 74 72 72 73 73 72 72 71 71 72 70 70 72 73 72 73 73 74 74 73 74 74 75 76 77 76 77 76 77 76
56 57 58 59 59 60 66 66 66 65 67 66 65 66 66 68 68 70 70 71 73 74 74 75 76 75 75 76 75 76 75 74 74 73 72 70 72 69 71 72 71 70 70 70 71 71 72 72 74 74 73 73 71 73 74 74 75 75 75 77 76 75 76
56 57 58 59 61 62 62 64 67 66 65 67 65 65 67 68 68 69 70 70 72 73 73 73 74 73 74 75 75 75 76 75 74 72 70 69 70 70 70 71 72 71 70 70 69 69 68 70 72 74 75 73 73 73 74 73 73 74 74 75 74 75 76
55 56 57 58 59 61 61 62 63 67 67 65 65 67 67 66 66 67 68 69 68 71 71 71 71 72 73 74 73 73 74 74 74 72 71 69 70 71 70 69 70 70 69 69 71 71 72 72 71 72 74 74 73 73 74 74 73 74 75 75 74 74 73
53 54 56 57 58 59 61 61 61 62 64 64 64 65 65 65 65 65 66 68 68 68 71 72 72 72 72 72 72 71 73 74 75 74 72 71 71 70 70 70 69 70 67 69 69 70 71 71 70 70 71 71 70 70 71 72 71 72 74 75 74 73 71
52 53 54 56 57 58 59 61 61 62 64 64 64 64 65 64 65 65 65 66 67 68 68 68 70 70 72 72 72 73 73 72 73 73 71 70 70 71 71 71 71 68 69 70 70 70 70 71 71 71 71 70 71 69 71 73 72 72 73 74 74 74 74
52 52 53 54 55 56 58 60 61 61 62 64 64 64 64 64 64 65 64 64 64 65 67 66 68 69 71 73 71 71 72 72 72 72 72 70 69 71 70 70 70 71 70 68 70 71 68 70 69 70 70 70 70 71 70 72 74 71 71 73 74 74 70
52 53 53 53 55 55 57 58 60 60 61 61 63 65 69 64 63 64 66 67 65 65 65 66 66 68 70 72 72 72 71 71 71 72 71 69 67 67 66 68 70 71 70 68 67 70 70 68 68 70 71 71 71 73 72 73 72 71 71 72 73 73 71
52 52 53 53 55 55 56 57 58 59 59 59 60 63 63 65 65 68 70 70 67 64 68 67 66 67 69 70 70 69 70 71 71 69 69 68 66 66 66 65 67 69 69 68 66 66 70 69 68 69 72 72 72 73 73 72 71 71 71 72 73 73 74
51 53 53 52 54 54 55 56 57 58 58 58 58 58 61 64 69 68 70 69 66 64 67 66 67 66 67 68 68 68 69 69 69 69 69 68 66 65 65 65 64 67 68 67 66 64 66 70 70 71 72 72 71 72 73 72 72 72 70 70 71 72 71
51 51 52 53 53 53 54 55 56 57 58 57 56 56 58 61 63 67 70 67 66 65 66 66 65 65 65 65 66 68 69 69 68 68 68 68 67 65 64 64 64 64 67 67 66 66 64 67 69 70 72 73 72 71 73 73 73 73 72 69 69 70 70
48 49 51 51 52 53 54 55 55 56 57 55 54 55 55 56 58 62 67 68 67 65 65 67 66 66 65 65 65 68 68 67 68 69 68 68 68 67 66 65 64 64 64 67 66 65 64 64 69 70 70 72 72 69 71 72 72 73 74 71 69 69 70
49 46 48 49 50 51 52 54 55 55 55 55 54 55 55 55 56 58 62 64 66 66 65 65 67 67 67 67 67 68 66 67 68 69 70 69 71 70 67 66 66 66 66 68 68 66 65 64 65 68 69 69 70 70 71 72 72 73 74 73 70 69 70
44 44 45 46 48 49 50 50 53 54 54 55 54 54 54 55 56 57 59 61 63 64 65 67 66 67 66 67 68 69 69 70 69 69 70 71 71 71 70 69 69 69 68 69 68 66 66 66 64 66 68 68 68 69 68 67 69 70 71 72 72 70 67
40 41 43 45 47 46 48 49 50 52 54 55 54 54 53 54 55 55 56 58 59 62 64 66 67 68 66 66 67 68 69 71 72 71 71 72 73 73 72 70 70 69 70 69 69 70 70 69 68 66 66 67 68 68 66 65 64 69 67 69 71 71 66
41 40 41 43 47 45 47 48 48 50 52 54 55 53 53 53 54 54 54 56 57 60 62 63 66 66 66 67 67 68 71 71 72 72 72 73 73 74 74 73 71 71 71 71 70 71 72 70 68 67 66 66 67 67 65 64 63 65 64 64 67 70 71
42 42 41 42 43 45 45 45 47 48 48 50 52 52 53 54 52 53 53 54 55 58 60 62 65 66 69 68 69 70 69 71 72 73 73 73 74 74 75 73 72 72 72 71 70 72 70 69 70 70 67 66 66 65 65 65 64 61 62 63 64 67 70
40 42 41 43 44 45 44 45 45 47 46 48 52 50 51 52 51 54 55 55 56 58 59 63 64 67 69 71 71 71 71 71 71 72 73 73 73 74 75 75 74 72 71 70 71 70 72 72 70 70 69 68 68 66 65 65 63 61 61 62 62 63 67
41 41 41 42 43 45 48 47 47 47 47 48 48 47 50 52 50 51 53 55 57 58 60 62 65 68 68 70 71 71 72 73 72 72 72 72 73 74 74 74 74 72 70 70 71 72 71 70 71 71 71 70 69 69 67 67 64 60 59 60 61 62 64
44 43 43 43 43 43 47 48 49 49 49 49 48 49 48 48 47 49 51 53 54 56 59 61 63 65 65 67 68 69 70 72 72 72 72 73 73 73 73 73 73 72 71 69 69 70 71 70 70 71 71 70 69 69 67 65 62 59 58 58 59 60 62
45 43 42 42 43 45 46 44 46 46 49 50 49 49 47 46 47 47 48 50 53 55 57 58 61 62 63 64 65 66 67 67 70 72 73 73 73 73 73 73 74 73 72 71 68 69 69 70 70 70 70 70 69 68 68 67 61 59 57 57 57 59 67
43 45 42 43 41 41 45 45 44 45 47 46 47 48 49 50 49 47 48 49 51 56 57 57 58 59 61 62 62 63 64 66 67 71 71 72 73 73 72 73 72 73 73 72 70 68 68 69 69 71 69 69 70 70 69 68 64 58 56 56 56 59 68
40 43 43 43 43 42 43 43 43 43 44 44 43 46 48 50 49 48 49 50 50 51 55 54 56 57 58 59 60 63 65 67 67 68 70 71 71 72 74 73 71 72 73 72 70 69 68 68 69 70 70 69 69 68 69 69 67 58 55 55 55 61 69
39 39 41 41 40 40 40 44 46 45 45 44 41 45 47 47 48 47 46 49 50 51 52 53 55 56 57 57 59 62 64 64 67 68 68 70 71 70 72 73 73 73 73 72 72 71 71 70 69 68 70 68 68 70 68 68 66 57 55 55 54 61 70
40 40 40 39 39 40 43 47 47 43 41 39 44 46 46 45 47 49 49 47 46 48 50 53 55 57 57 57 59 60 62 63 66 66 67 68 69 71 72 73 72 72 73 73 72 72 74 72 70 69 69 68 68 67 68 68 69 72 55 54 53 55 69
39 38 39 37 38 45 41 41 40 40 40 42 46 43 44 46 45 48 50 50 47 48 49 52 55 57 58 59 58 58 60 63 64 65 66 67 69 70 72 73 73 72 72 74 72 71 72 73 70 69 69 69 69 68 68 68 68 71 55 53 52 53 58
36 36 36 40 43 42 40 37 40 41 39 43 41 42 43 45 47 50 50 49 49 48 47 51 54 56 58 59 59 59 59 62 65 66 66 68 69 70 72 72 73 73 72 71 72 72 73 73 71 70 70 70 69 70 69 70 68 69 58 53 51 52 52
39 38 38 40 39 37 36 38 39 39 41 40 41 42 43 44 48 49 50 50 52 50 50 50 52 55 58 59 59 61 61 62 64 66 67 68 69 69 69 70 70 70 71 71 72 74 73 72 72 71 69 71 71 70 71 71 73 63 68 54 51 51 51
41 40 38 36 35 37 38 40 42 42 42 41 44 45 46 47 49 50 51 52 53 52 52 52 52 55 57 58 59 59 59 60 61 63 65 66 67 68 69 69 69 70 71 72 72 73 73 72 73 72 71 70 71 70 70 72 72 68 61 66 52 51 50
40 40 39 40 37 41 41 40 42 42 42 42 44 46 48 49 49 51 52 53 54 54 53 52 53 54 56 57 58 59 59 60 62 61 62 64 65 66 66 68 69 69 71 71 72 73 73 73 72 72 71 71 72 72 73 72 72 73 69 60 55 52 51
42 43 42 40 40 41 42 41 42 42 43 45 46 46 49 48 48 50 52 52 53 53 53 54 55 56 57 58 59 59 59 59 59 60 62 64 64 66 67 68 68 69 70 71 71 72 73 73 73 73 73 72 72 73 73 73 75 74 75 66 61 56 52
43 44 44 44 44 45 44 45 44 46 47 48 48 47 46 49 49 51 52 53 53 53 53 53 54 56 57 57 58 60 60 60 59 60 61 62 62 64 64 65 67 68 69 70 70 71 73 72 72 73 72 72 72 73 75 75 75 76 76 75 72 68 64
44 44 44 45 45 46 47 47 47 46 47 48 49 50 50 50 50 51 51 51 52 51 52 53 53 53 55 55 55 56 56 55 57 59 59 59 60 62 62 63 64 65 67 68 68 69 71 72 71 73 72 74 73 73 74 73 73 74 75 76 76 73 71
43 44 43 44 45 46 46 46 46 47 46 46 47 49 50 51 51 51 52 52 52 53 53 53 54 55 55 53 54 53 57 55 55 55 57 59 62 61 63 64 64 65 65 66 68 68 69 70 73 72 73 73 75 73 72 71 73 73 67 73 66 75 76
42 42 43 43 44 45 45 46 47 47 47 47 48 48 49 50 51 52 49 49 49 51 53 54 54 54 54 54 54 54 54 56 54 55 57 58 59 61 62 63 57 62 64 64 65 61 57 57 65 68 68 68 70 72 72 72 74 61 54 57 56 58 60
41 41 42 43 42 43 45 45 46 46 46 46 48 47 48 49 50 51 50 51 51 51 53 54 53 52 51 52 54 55 56 56 56 57 58 60 61 62 62 62 65 53 52 56 59 58 55 54 53 54 55 64 68 67 62 60 58 56 56 54 54 52 53
40 41 41 42 43 44 45 45 46 46 47 47 47 46 47 47 48 50 49 51 51 51 52 53 53 52 51 50 52 55 57 56 57 58 59 60 61 62 62 62 63 65 57 52 54 54 52 51 52 52 53 53 57 62 68 63 57 54 53 53 52 52 50

ECMWFFLT1_sfc_dewp_075.txt.gz
Dewpoint
62 63 63 64 66 65 65 67 67 66 68 68 68 66 66 66 67 70 71 72 75 75 75 74 74 74 73 73 73 73 72 72 72 71 71 71 71 71 70 68 69 70 69 68 70 70 72 73 73 73 74 74 73 73 76 77 77 75 78 78 76 76 74
57 61 63 62 63 65 66 66 68 67 67 69 70 69 67 66 68 70 71 73 74 74 74 75 75 74 74 73 73 74 73 72 72 72 71 72 72 71 70 70 69 70 71 69 69 71 73 70 72 73 73 74 73 74 73 75 76 77 76 77 76 76 76
56 57 63 62 61 63 67 68 69 69 68 68 68 68 67 69 69 71 71 72 73 74 75 75 76 74 75 74 74 74 74 72 71 71 70 68 70 68 70 71 70 69 68 69 71 70 70 72 72 72 72 73 70 72 73 74 74 74 76 78 75 74 77
57 57 58 60 63 66 66 68 69 70 70 69 68 69 70 71 71 71 71 71 73 74 75 75 75 74 74 75 74 74 74 73 72 70 68 67 68 68 69 70 71 69 68 68 67 68 67 70 71 72 73 72 72 71 72 72 72 73 74 76 76 75 77
57 58 59 59 61 63 64 65 68 70 72 67 69 72 68 71 68 69 69 70 70 74 74 73 73 73 75 75 73 73 74 73 72 70 69 67 68 69 68 67 68 68 67 67 69 69 71 71 69 71 72 73 71 72 72 72 72 73 74 74 74 72 74
54 56 57 58 63 61 62 63 64 68 70 72 71 71 71 72 70 70 70 71 73 74 73 73 72 73 73 72 72 71 74 75 74 73 70 69 68 66 67 67 67 68 65 67 67 67 68 69 69 70 70 70 70 69 69 71 70 71 72 73 73 72 70
55 56 57 58 59 59 60 62 64 67 69 71 73 71 69 71 72 71 71 73 73 71 72 73 71 74 75 73 72 72 73 72 74 72 69 68 67 67 67 68 68 66 66 67 67 68 68 69 70 71 70 69 70 67 70 72 71 71 72 74 74 73 73
55 55 56 57 57 58 59 61 62 65 69 69 68 71 73 72 74 72 71 71 70 69 72 71 71 73 73 73 72 72 71 72 72 73 71 67 66 67 66 67 67 68 67 65 67 68 67 69 68 69 69 69 69 70 68 71 73 69 70 71 72 72 69
55 56 55 56 57 57 59 61 61 61 61 62 64 67 73 73 70 70 72 72 69 70 69 68 68 70 71 71 73 73 72 72 72 72 71 67 65 65 63 65 66 67 67 65 64 67 68 67 68 70 70 70 70 71 69 71 71 71 70 70 71 71 70
55 55 56 55 57 57 59 59 60 61 61 61 62 65 65 72 72 73 73 72 73 72 72 69 67 68 70 71 70 71 71 73 73 70 69 67 65 64 63 61 63 66 66 65 62 63 67 68 68 69 71 70 71 70 71 70 70 70 70 70 70 71 72
53 55 55 55 56 57 58 58 59 60 60 61 61 63 65 66 70 71 72 72 70 71 72 68 69 68 67 68 69 69 70 70 73 70 70 70 64 63 62 61 60 63 65 64 62 61 64 68 68 70 70 68 69 70 71 70 71 71 69 69 69 71 69
52 53 53 54 54 55 56 57 58 59 59 59 58 58 60 61 64 64 70 69 71 72 71 70 67 67 68 68 67 69 68 68 68 69 68 68 65 63 62 61 60 60 63 64 62 62 60 64 66 67 69 70 70 70 71 72 72 72 71 68 67 68 69
50 51 52 52 53 54 55 56 57 58 58 56 56 57 58 59 59 62 64 67 71 70 68 69 69 69 68 69 68 68 67 66 68 70 69 69 68 65 64 62 60 59 60 62 63 61 60 60 66 67 67 70 70 69 71 71 71 73 73 71 69 67 68
51 48 49 51 52 52 53 55 56 57 57 55 54 56 56 57 58 59 61 61 63 65 67 67 68 67 67 68 68 69 67 68 69 70 71 71 72 69 66 63 62 62 62 63 62 61 60 59 60 65 67 67 69 70 70 70 70 72 73 72 70 67 67
45 45 46 46 50 52 52 51 53 54 54 54 54 55 55 55 56 58 59 60 62 61 63 66 68 68 68 67 68 69 71 72 71 72 72 71 72 71 70 68 66 65 65 65 63 60 59 59 58 62 65 66 68 69 67 65 67 69 71 71 71 69 66
42 43 44 45 47 47 50 50 51 53 54 54 53 54 53 53 55 55 56 57 58 61 61 63 66 68 68 68 68 69 70 72 74 75 74 71 73 74 72 70 70 67 66 65 64 66 66 66 62 59 61 64 66 66 65 64 63 69 68 70 71 70 66
42 42 43 45 47 46 48 49 49 50 52 52 52 53 54 53 53 53 54 55 57 59 60 62 65 66 67 68 69 68 70 71 72 73 74 75 73 74 74 73 71 70 72 69 67 69 72 68 64 61 59 60 63 64 62 60 60 65 63 64 67 70 70
43 44 43 44 45 46 47 46 48 49 49 48 48 50 51 53 51 51 52 54 56 57 59 63 64 66 69 69 70 72 72 73 72 73 73 74 75 75 75 75 73 73 71 69 68 71 67 67 67 68 63 61 61 60 61 60 62 60 62 63 63 68 71
42 44 43 45 46 47 45 45 46 48 47 48 50 49 48 47 47 52 54 55 56 59 59 62 63 66 68 69 71 72 72 72 73 72 73 75 75 76 75 74 73 73 71 69 70 69 71 72 69 69 68 66 65 61 60 60 61 59 60 62 62 63 68
42 42 43 43 45 47 49 48 48 47 47 49 48 46 46 48 46 48 49 52 57 59 60 62 63 66 65 66 68 69 71 72 72 72 73 74 74 74 74 74 73 74 74 73 71 71 70 69 70 70 72 70 69 69 65 63 62 59 59 60 61 62 65
45 44 44 44 45 44 47 49 49 50 50 49 48 50 48 45 45 45 47 50 52 54 58 59 62 63 63 64 66 67 68 69 70 71 71 72 74 73 73 73 73 73 74 74 74 71 71 71 70 71 71 70 69 69 66 65 62 59 57 58 59 61 63
46 43 43 43 44 46 47 44 47 47 49 51 50 49 48 48 47 44 44 46 48 52 55 57 60 61 62 63 63 64 65 66 68 70 71 72 72 72 73 73 74 73 74 74 75 74 74 75 73 72 70 70 70 69 68 67 61 59 57 57 58 60 68
44 45 43 43 41 42 46 46 45 45 47 46 47 48 50 51 50 47 45 45 44 51 55 55 57 60 64 63 63 64 65 66 68 69 70 70 71 71 72 72 74 74 74 74 73 74 75 73 74 73 72 71 71 70 70 68 65 59 56 56 57 61 69
40 44 43 43 42 41 44 45 44 43 44 44 43 46 48 50 50 48 49 47 44 43 49 50 53 56 59 61 63 60 61 65 67 67 69 69 69 70 72 73 73 74 75 75 74 74 72 73 73 72 72 71 70 69 70 70 68 59 56 55 56 63 71
38 38 41 40 39 39 40 44 45 44 44 43 41 45 46 46 48 48 47 49 47 44 44 46 50 53 55 56 59 60 60 59 62 65 67 69 70 70 71 71 72 73 74 74 74 73 73 73 72 72 71 69 69 72 69 69 68 59 56 55 54 63 72
39 38 38 37 37 40 43 45 44 41 39 38 43 44 45 43 46 49 50 50 47 44 44 47 49 51 52 56 58 60 62 63 62 64 67 68 69 71 73 73 72 72 72 73 73 72 71 71 72 71 70 69 69 69 69 68 70 72 56 54 54 56 72
37 37 37 35 38 45 39 39 38 38 38 41 45 42 42 44 44 47 50 51 50 49 47 47 49 50 53 54 55 57 58 60 61 64 65 67 70 72 72 74 72 72 71 70 70 70 71 71 71 70 71 70 69 69 69 68 67 73 56 54 53 54 60
36 36 36 40 43 41 38 35 39 40 37 41 40 40 41 44 47 50 51 50 50 51 49 51 52 52 52 54 55 55 57 60 62 62 63 65 67 69 71 73 73 72 71 70 70 71 71 72 72 71 70 70 70 70 70 71 70 68 59 54 53 52 53
41 39 40 41 40 38 36 39 38 38 40 38 38 40 42 42 48 50 51 51 53 52 52 52 52 53 53 53 54 56 58 61 62 63 63 63 65 66 67 68 68 71 71 70 71 71 71 71 72 72 72 71 71 70 71 73 74 67 69 55 52 52 52
43 42 40 37 36 38 39 40 42 42 41 40 42 43 44 46 49 50 51 53 54 54 54 55 55 55 54 54 53 53 53 55 57 59 60 60 61 62 65 65 66 69 70 70 71 71 71 71 72 71 71 71 71 70 69 71 73 71 66 66 52 52 51
42 43 42 42 39 43 42 41 42 41 41 41 44 45 48 48 49 50 51 53 54 55 55 55 55 54 54 54 54 54 54 55 57 57 58 59 59 61 62 64 65 66 69 70 70 70 70 70 71 71 71 71 72 70 74 71 76 75 72 63 55 52 51
44 45 45 44 44 45 45 43 43 42 43 44 45 45 48 48 48 51 52 53 54 54 54 55 56 56 56 55 55 56 56 55 53 54 56 57 59 62 63 63 63 64 65 66 67 68 69 70 70 70 71 71 75 73 73 73 73 73 73 74 63 57 52
44 45 46 46 47 47 46 47 45 46 46 47 47 47 47 49 50 52 53 54 53 53 54 54 55 55 56 55 54 55 57 59 58 57 56 57 57 57 58 60 61 64 65 66 66 67 67 67 69 70 71 75 72 71 72 72 73 72 74 76 76 74 69
45 45 46 46 47 47 47 47 48 48 48 48 49 49 49 50 50 52 53 53 53 52 53 54 53 53 54 53 52 51 50 50 54 55 54 53 52 50 52 55 58 60 62 64 64 66 67 68 68 72 73 74 73 72 71 70 70 71 73 75 76 75 75
44 45 45 44 45 47 46 47 47 48 47 47 48 49 50 51 51 51 52 52 53 54 54 53 54 54 53 52 52 51 53 50 51 51 52 52 54 51 55 58 60 60 61 62 62 63 64 65 65 67 71 72 72 72 71 71 71 73 58 67 57 66 71
43 43 43 44 44 45 46 47 47 48 48 48 49 49 50 50 50 50 49 50 50 52 53 54 53 52 52 52 52 52 52 51 49 50 52 52 53 54 54 59 55 60 59 59 62 59 55 54 63 64 63 63 65 68 69 70 72 63 55 54 54 52 55
41 40 41 42 43 44 45 46 46 47 47 47 48 47 48 49 49 49 48 50 51 51 53 54 53 53 52 54 54 54 54 52 52 54 55 56 56 57 54 52 57 50 51 54 58 56 54 53 52 53 54 62 64 64 59 59 57 55 53 52 53 52 51
38 39 40 40 42 44 44 45 45 46 47 47 47 46 47 46 47 49 47 49 50 50 52 52 52 52 51 51 52 53 55 52 53 54 56 57 58 58 58 57 58 59 55 50 51 52 51 50 50 50 51 52 55 59 63 59 55 51 51 51 50 50 49

ECMWFFLT1_sfc_dewp_078.txt.gz
Dewpoint
63 64 64 65 68 68 69 69 68 67 67 65 66 65 64 66 69 72 71 73 73 73 73 74 74 74 74 73 74 74 74 74 74 73 73 75 74 74 73 70 70 74 71 71 72 74 76 76 76 75 76 76 76 77 78 78 77 77 78 78 78 79 77
64 63 65 67 67 68 68 69 69 70 70 71 68 68 66 66 70 69 73 74 74 74 74 74 75 75 74 74 73 75 75 74 74 74 73 75 76 76 73 73 73 74 76 73 74 74 75 73 74 75 75 76 74 77 76 77 78 77 77 78 78 79 78
63 65 65 66 68 67 68 69 69 69 70 69 70 71 71 73 71 71 73 74 75 75 74 74 75 74 74 74 74 74 73 73 73 72 71 70 71 69 71 74 72 71 70 72 75 72 72 73 76 76 75 75 72 76 77 77 78 77 78 79 78 76 78
63 64 66 67 68 69 68 69 69 69 68 69 69 71 72 72 71 72 73 73 73 73 74 73 73 73 73 74 74 74 74 74 73 70 69 69 70 70 71 72 73 71 71 70 68 69 68 73 73 75 75 76 76 74 74 75 74 76 77 79 79 77 79
57 66 64 66 68 68 68 68 69 71 70 71 71 73 71 71 72 71 72 73 71 70 73 72 73 72 73 74 72 71 72 72 72 71 70 70 72 72 70 69 70 69 70 68 72 74 77 74 72 74 74 77 74 76 75 75 75 76 77 77 77 76 76
56 61 64 66 67 67 67 67 67 71 72 71 73 73 73 71 70 70 72 73 72 72 75 75 75 74 73 74 71 70 73 74 74 74 72 71 71 68 68 69 69 69 67 69 69 69 72 73 71 72 71 70 70 70 71 72 72 73 76 76 76 74 72
57 58 61 62 62 65 66 67 68 68 70 72 72 71 71 71 71 70 72 73 73 73 74 73 73 75 75 75 75 76 74 73 72 71 70 68 68 69 69 69 70 68 68 70 69 69 68 71 73 73 72 71 72 70 72 75 74 73 76 76 77 77 77
57 57 58 59 59 59 60 63 68 70 70 70 71 71 70 73 73 72 71 70 70 71 72 72 72 72 74 76 75 75 75 74 74 71 70 68 66 67 68 68 69 70 70 67 70 70 66 70 68 71 72 70 72 72 72 75 76 70 73 75 76 75 71
57 57 57 57 58 59 59 61 62 65 65 66 68 70 71 72 73 72 73 73 73 72 73 73 71 70 74 75 75 74 74 73 74 73 71 67 66 64 64 66 67 69 69 65 65 69 69 69 68 72 74 72 73 75 73 75 73 73 73 74 75 74 72
57 57 58 58 59 59 60 60 61 62 62 63 65 69 71 72 72 72 73 73 73 73 74 74 74 74 73 71 71 72 72 73 73 71 71 67 65 65 63 63 65 67 66 65 64 65 69 70 70 72 74 73 74 75 74 75 73 72 72 74 74 74 74
55 57 58 57 58 59 59 59 60 61 62 63 63 64 67 69 70 71 73 73 73 73 73 73 73 74 74 71 70 74 76 71 75 73 72 71 67 63 63 62 63 65 65 65 64 64 66 70 72 74 74 70 72 74 74 73 74 74 71 71 71 73 72
54 54 56 57 57 57 58 58 58 59 61 63 61 61 64 66 68 70 72 72 72 72 73 73 71 72 73 72 72 72 72 72 71 72 71 72 71 68 63 62 61 62 64 65 65 66 64 68 68 70 74 73 72 72 74 74 74 75 73 70 69 71 71
53 53 54 54 55 56 57 58 57 57 58 58 60 59 60 62 63 65 68 69 72 72 70 73 72 72 72 72 73 73 73 73 73 72 70 71 70 69 66 63 61 60 61 64 65 64 62 64 68 69 71 73 72 71 73 73 73 75 75 73 72 72 71
55 52 52 52 53 54 55 56 56 56 56 56 59 60 58 59 61 63 65 67 66 64 65 65 68 70 72 72 73 72 74 73 74 74 74 72 74 73 69 66 64 63 63 65 65 63 62 60 65 68 68 70 70 72 73 74 73 74 75 74 72 71 71
47 48 50 50 51 52 53 53 54 54 54 55 55 56 61 62 58 61 64 65 66 64 65 66 66 68 69 71 72 73 73 74 74 74 75 75 75 74 73 72 72 72 69 70 65 62 62 62 60 64 66 67 69 70 70 69 70 70 72 73 74 73 70
45 46 46 47 48 48 50 51 52 53 53 55 54 53 53 54 58 57 59 59 60 62 65 66 67 68 70 71 73 73 72 73 72 72 74 73 72 73 73 74 74 72 72 71 67 69 69 68 66 62 64 66 68 69 67 67 67 71 69 70 72 72 70
44 45 45 46 48 47 48 49 49 50 51 52 51 50 52 53 54 54 56 57 58 60 61 63 70 70 68 71 71 73 72 71 71 72 73 74 74 74 75 75 74 75 74 73 73 72 74 70 66 62 60 62 64 66 65 66 66 67 64 65 68 72 73
44 45 45 45 46 46 46 46 48 49 48 47 46 46 48 54 51 50 53 56 57 58 61 63 64 66 66 66 68 71 71 72 72 73 73 72 71 72 74 74 74 74 73 71 71 72 71 70 70 70 67 62 61 62 64 65 66 62 62 63 64 69 72
43 44 44 46 47 47 45 45 46 49 47 47 51 47 46 47 47 55 55 57 57 58 60 62 64 64 64 66 67 68 71 72 71 71 71 71 71 72 73 73 73 72 73 73 73 72 74 73 71 71 71 68 69 65 61 63 63 60 60 62 63 63 69
42 43 43 44 46 48 49 47 47 48 48 48 48 45 46 50 45 47 49 54 60 61 62 63 64 63 62 64 65 66 67 68 71 72 72 72 72 73 73 73 72 73 74 74 74 74 74 73 74 73 73 72 72 72 69 67 64 59 58 60 61 62 65
44 43 44 45 45 45 47 49 50 51 51 48 48 48 47 46 44 45 47 49 48 52 61 61 64 63 60 61 62 64 65 67 69 71 71 72 72 72 71 72 72 72 73 73 75 75 74 74 74 74 74 72 70 70 69 66 63 59 56 57 59 61 63
45 42 42 42 44 46 47 43 46 47 50 52 53 50 47 47 46 45 45 43 45 49 53 58 62 61 61 60 58 62 64 65 66 68 69 71 71 71 72 71 71 72 73 75 75 75 75 75 74 73 72 72 71 70 71 69 63 61 56 56 57 60 67
44 44 41 41 40 43 46 45 43 45 46 46 48 50 50 52 50 47 47 46 44 57 57 53 57 57 61 62 61 61 62 65 67 67 69 70 70 70 71 72 73 73 74 74 74 73 74 74 73 73 73 71 71 70 71 71 67 61 57 55 56 59 67
41 43 41 40 41 41 43 43 42 42 41 41 43 46 48 50 53 48 51 49 46 44 51 49 49 50 55 59 63 64 63 64 65 65 66 67 68 70 71 72 73 73 74 73 73 73 72 73 73 73 73 71 71 70 70 70 69 63 59 55 55 61 67
37 37 38 38 39 38 38 42 43 41 41 40 42 43 44 44 49 49 49 51 49 47 46 47 50 50 51 51 53 58 61 62 62 61 61 65 67 67 70 71 71 72 72 73 72 72 73 73 72 72 72 71 71 72 71 70 69 63 59 54 54 60 69
39 37 36 36 39 37 40 44 41 39 37 38 42 41 42 43 46 50 50 50 48 48 48 50 52 52 52 52 53 55 58 59 65 65 64 63 64 65 67 68 68 70 70 71 71 70 70 70 70 71 71 71 70 70 70 69 70 72 62 55 53 55 69
38 37 37 36 39 44 39 39 39 38 37 42 45 39 41 44 44 48 51 51 50 51 50 52 53 54 56 56 52 51 54 56 59 63 64 65 68 67 67 69 70 71 72 69 67 68 70 70 70 69 70 70 71 71 71 70 70 71 62 55 52 52 59
38 37 37 41 42 42 40 38 40 40 39 41 39 41 41 44 49 51 52 50 50 51 51 53 55 55 56 56 54 53 53 55 59 59 61 64 66 67 71 71 70 71 70 67 68 69 69 70 70 68 69 71 70 71 73 73 70 72 65 60 54 51 50
41 39 40 40 40 40 40 41 41 41 41 39 40 42 43 44 48 50 51 51 53 52 53 54 55 56 56 56 55 56 58 60 60 60 60 63 65 64 64 66 66 68 71 71 71 70 69 70 70 69 68 69 71 71 74 72 73 67 70 63 55 51 51
44 43 41 41 40 42 43 44 45 43 43 42 45 45 46 48 49 51 51 53 54 53 54 54 54 56 55 56 56 55 55 55 53 54 53 55 57 61 63 64 65 67 69 70 70 70 71 71 71 71 70 68 68 69 75 73 73 71 67 68 56 51 51
43 44 44 44 42 46 45 44 44 44 45 45 48 48 50 50 50 51 52 53 55 55 54 54 54 55 55 56 56 56 55 55 56 55 55 54 54 57 59 60 62 64 67 68 67 68 70 70 70 69 69 69 69 70 76 75 73 73 71 66 63 58 53
45 46 45 44 46 46 45 44 45 45 46 47 48 48 51 50 50 52 52 52 54 54 55 55 55 55 55 55 56 56 56 55 53 53 56 57 58 60 61 61 62 64 65 65 66 67 68 69 69 69 69 69 71 74 75 75 75 73 73 72 72 68 59
45 45 46 46 46 46 46 46 45 46 46 47 48 48 48 49 50 52 53 54 52 52 55 55 55 56 56 57 56 57 57 57 54 54 55 58 57 56 57 58 60 61 63 63 63 64 66 66 67 68 68 72 72 73 74 74 74 73 73 74 75 75 69
45 45 46 46 46 46 46 46 46 46 47 48 48 49 49 50 50 52 52 52 51 51 52 54 54 53 54 53 52 53 52 52 55 54 51 49 49 50 50 51 50 48 55 58 59 63 64 63 65 67 69 69 71 71 72 72 72 72 72 73 73 75 76
44 44 45 44 45 46 46 46 46 47 46 46 47 48 49 50 50 50 51 51 51 53 52 52 53 54 52 52 52 52 54 51 52 51 51 52 54 52 57 56 52 53 56 56 62 62 58 60 61 63 61 60 64 67 66 66 66 72 59 64 56 63 66
44 43 43 43 44 44 45 46 46 46 46 47 48 48 49 49 49 49 47 48 48 50 51 52 51 51 51 51 51 52 52 53 52 53 54 52 50 52 53 58 53 55 58 54 58 55 52 52 60 59 58 57 60 63 63 62 64 60 54 51 51 51 52
42 41 42 42 42 43 44 45 45 45 46 47 47 46 47 48 47 48 46 49 49 48 51 52 51 50 49 51 51 52 53 53 53 55 57 55 55 54 53 53 54 48 48 49 51 49 48 50 50 50 52 61 61 62 58 58 56 54 52 51 51 51 51
40 40 40 40 43 44 43 44 44 44 45 46 46 45 46 45 46 48 46 47 48 48 51 50 50 49 48 48 49 53 53 51 53 55 56 56 57 57 58 57 57 59 54 48 48 49 48 48 48 49 50 51 54 59 64 59 54 51 51 50 50 50 50

ECMWFFLT1_sfc_dewp_081.txt.gz
Dewpoint
64 66 67 68 68 70 70 70 69 66 69 69 65 64 70 71 71 70 69 69 71 70 71 73 72 72 72 72 73 73 72 72 74 73 74 73 73 72 73 73 73 72 73 74 73 73 74 73 73 74 75 75 74 76 76 77 76 78 78 77 76 77 76
65 65 66 67 68 68 70 70 71 69 67 67 69 69 69 71 70 71 72 69 71 70 71 73 72 72 73 72 73 73 73 72 73 74 74 74 75 73 73 72 72 73 72 72 73 74 74 74 75 74 74 75 75 76 76 76 76 77 77 77 75 76 77
63 65 65 66 68 68 69 68 72 71 68 68 68 69 70 70 70 71 73 72 71 71 72 72 73 72 73 73 72 73 73 72 73 73 72 73 73 74 72 72 72 72 73 72 72 73 74 74 74 74 75 74 75 76 76 76 77 76 76 77 76 77 77
65 65 67 68 69 69 69 70 70 71 70 70 69 70 70 70 70 72 73 73 73 73 72 73 73 73 73 73 72 73 73 73 73 72 71 71 72 72 72 72 72 72 71 71 73 71 73 73 72 75 77 73 74 75 75 76 76 76 77 77 76 76 77
64 64 65 68 68 68 69 70 72 70 71 72 72 71 71 72 71 72 72 73 73 73 72 73 74 74 73 73 72 72 73 72 73 72 71 70 71 71 71 70 72 71 70 70 71 72 72 72 72 75 75 74 74 74 75 75 75 76 76 77 76 76 75
64 65 66 67 67 68 69 70 70 70 70 70 71 71 70 71 71 72 72 72 72 73 73 73 73 74 74 74 72 72 73 72 72 73 71 71 71 70 70 70 70 70 70 69 70 70 74 71 72 73 73 73 73 73 73 74 74 74 75 77 76 75 75
62 63 63 65 66 68 69 69 69 70 71 71 71 72 71 71 71 71 72 72 71 70 71 72 72 74 73 74 74 74 74 72 72 72 72 71 71 70 70 70 71 69 69 70 69 69 72 71 71 72 72 72 73 71 72 73 73 74 74 75 75 75 75
61 63 66 61 60 62 67 69 70 70 70 72 72 72 71 72 73 73 73 72 71 69 71 72 73 74 74 74 73 72 74 74 74 72 72 71 70 70 69 69 70 70 70 69 69 69 69 71 71 71 71 70 71 71 71 72 72 72 74 74 74 74 74
58 59 62 59 59 60 61 64 67 67 69 70 71 71 71 72 73 73 73 73 72 71 73 73 73 72 73 74 74 74 75 74 73 72 71 71 70 68 68 68 68 70 69 69 69 69 69 69 69 72 71 71 71 71 71 73 73 72 73 73 73 73 72
57 58 58 58 58 59 60 61 64 67 68 69 70 71 73 73 73 73 73 74 74 74 74 73 73 73 72 73 74 74 74 73 72 71 71 70 71 70 67 66 67 69 69 68 67 68 69 69 68 69 72 71 71 71 71 73 72 72 72 73 73 73 73
57 58 58 57 57 57 58 61 62 64 66 67 69 70 72 71 72 73 73 73 74 74 74 73 73 74 74 73 73 73 74 73 73 72 73 72 73 71 70 68 64 67 67 67 66 66 68 71 69 69 71 71 71 73 72 73 72 71 70 72 73 73 72
56 56 56 56 56 56 57 58 59 61 64 66 66 67 67 67 68 68 70 72 73 73 73 73 74 73 73 73 72 71 71 72 71 72 72 72 72 72 72 71 70 68 66 66 66 66 66 67 70 70 70 70 70 71 73 73 73 72 71 70 71 73 72
55 55 55 55 56 56 57 57 58 59 60 60 60 63 64 64 65 66 66 65 66 67 69 74 74 74 72 72 73 72 72 72 72 71 73 73 73 73 73 72 72 71 69 65 65 65 66 66 67 71 71 71 70 70 72 72 72 73 73 71 70 70 71
55 53 54 54 54 53 54 55 56 58 60 60 60 61 59 61 62 64 65 65 65 65 66 67 69 71 73 72 73 73 72 73 74 73 73 73 73 73 73 73 71 72 72 72 65 65 64 66 66 68 71 71 70 70 71 72 71 72 73 72 71 71 71
52 51 52 52 53 55 52 53 55 55 60 62 62 62 61 59 59 60 61 63 64 64 66 69 70 70 71 72 71 72 72 72 73 73 73 73 73 72 72 73 72 73 74 73 71 66 64 64 66 66 67 70 71 70 70 71 71 71 72 73 72 71 71
50 50 50 50 50 51 52 51 53 54 54 58 59 59 62 61 59 58 58 59 61 63 65 69 70 70 70 71 72 72 71 71 73 74 74 73 72 72 72 72 74 74 74 74 73 72 71 70 67 66 66 67 69 70 70 70 70 72 70 71 72 71 70
46 47 47 48 48 47 48 49 50 51 51 52 55 52 56 56 57 58 57 57 60 64 66 67 68 67 68 70 71 72 72 72 73 73 72 73 74 74 74 75 75 74 74 72 72 72 72 71 70 68 65 66 66 68 68 68 69 69 65 66 69 72 71
45 45 44 45 46 47 47 47 48 47 46 45 47 50 51 52 57 61 58 57 59 62 63 62 63 64 65 66 67 70 71 71 71 71 71 71 71 71 72 74 73 73 72 72 72 72 72 71 72 72 71 69 67 66 67 67 68 64 63 64 65 69 72
45 46 45 46 46 46 46 46 46 47 45 48 49 48 48 51 54 57 58 60 60 62 62 61 60 61 63 64 66 67 69 71 71 71 71 71 71 72 73 73 73 73 73 74 74 74 73 72 72 71 72 71 71 71 70 67 65 62 61 62 63 64 69
44 45 45 46 47 49 49 49 50 50 48 46 46 46 47 54 50 50 53 59 62 63 63 61 60 59 59 60 62 65 66 69 70 71 71 71 72 71 71 72 72 73 74 74 74 73 73 73 73 73 72 72 72 71 71 70 69 62 60 60 61 62 65
44 45 45 45 45 47 51 55 56 55 52 51 51 49 48 46 45 47 49 51 52 59 63 61 60 59 58 58 59 62 63 65 68 69 71 71 71 71 71 71 71 71 72 74 74 74 73 73 73 73 73 72 71 71 70 69 66 64 60 57 57 59 62
43 43 44 45 46 46 46 46 50 51 54 57 54 54 52 50 47 47 47 47 51 55 60 61 61 61 60 59 58 61 62 61 64 67 68 70 70 70 70 71 72 72 73 74 74 74 74 74 74 73 73 72 72 71 71 70 65 63 62 57 55 58 63
46 43 44 44 43 44 48 48 47 50 52 50 51 53 56 55 53 51 50 48 51 54 54 53 56 62 64 63 62 63 64 66 66 67 68 69 69 69 70 70 72 73 74 73 73 73 73 73 73 73 73 73 73 72 71 70 68 63 59 59 57 58 62
44 44 42 42 42 42 46 48 46 45 42 42 43 44 54 56 55 53 52 51 49 51 52 51 52 54 56 54 57 66 66 67 66 65 65 65 67 68 68 69 69 70 71 72 72 72 72 72 73 73 73 73 73 72 71 71 69 58 61 60 57 60 63
38 39 39 39 38 39 42 48 48 43 44 42 42 43 47 49 52 52 52 52 51 50 51 52 54 53 53 52 54 54 59 61 65 64 63 63 64 67 66 67 68 68 70 71 71 71 71 72 71 71 71 71 71 74 73 71 68 60 61 61 57 61 66
38 38 38 39 39 43 47 46 42 40 39 42 46 43 46 49 52 56 55 54 52 50 51 53 55 57 56 57 54 53 57 56 62 66 66 65 65 66 65 67 68 68 69 69 68 68 70 71 70 70 69 70 71 71 71 72 72 70 60 60 57 57 69
38 38 37 38 46 50 41 41 42 40 40 45 46 44 49 52 52 54 55 54 53 53 53 55 57 57 59 59 56 55 54 56 57 59 60 63 64 67 68 66 66 66 67 68 69 66 65 65 65 65 66 67 69 69 73 72 71 71 63 59 55 54 61
39 38 39 49 51 48 43 43 43 42 41 43 45 46 45 50 54 55 55 54 53 52 54 55 55 58 59 58 58 57 57 57 59 61 60 61 63 63 65 67 68 68 67 67 68 68 68 68 69 68 69 69 69 69 71 73 72 72 67 60 56 52 55
42 42 43 43 44 47 46 45 45 45 44 45 47 47 47 49 54 54 55 54 54 54 54 54 56 56 56 58 58 59 59 59 59 58 58 57 58 57 59 61 63 66 69 69 69 69 68 68 68 69 69 70 70 70 71 73 73 69 70 64 57 52 51
45 44 43 43 45 46 49 47 49 48 48 49 50 50 51 52 54 55 55 53 54 56 56 56 55 56 56 58 57 58 58 58 57 55 54 55 57 57 57 58 60 62 65 66 67 67 67 69 69 70 70 70 69 69 72 73 73 71 68 68 61 53 51
46 45 45 46 46 50 47 47 47 48 48 48 50 51 53 51 52 55 54 53 56 55 55 56 57 57 56 56 55 56 56 57 57 57 56 55 55 56 58 57 57 57 58 61 61 65 67 67 68 68 69 69 69 69 72 74 73 73 71 67 63 58 53
47 47 46 46 46 48 47 46 48 48 48 49 48 50 53 52 52 53 53 55 56 54 55 56 56 57 57 57 57 57 57 56 55 55 56 56 56 57 59 59 60 60 60 61 63 64 64 64 65 65 66 68 70 72 72 73 73 73 73 72 71 67 61
47 48 47 47 48 51 49 49 48 49 48 50 50 49 50 52 53 53 54 54 53 53 55 55 57 57 56 55 55 55 56 56 56 56 57 56 55 55 56 58 58 58 60 60 59 59 61 64 67 67 64 66 67 69 70 70 72 72 72 72 73 72 71
47 48 48 47 49 49 48 49 47 48 48 49 49 50 51 51 52 52 53 53 54 53 54 55 55 54 52 51 52 53 54 54 56 55 54 54 53 53 52 52 54 53 54 55 56 56 56 54 55 56 60 60 58 58 59 61 64 66 67 70 71 70 70
47 47 47 48 48 49 49 49 49 48 48 49 49 50 50 51 51 52 51 51 52 53 52 54 55 54 51 51 51 51 55 55 52 51 52 53 53 53 54 54 54 52 52 51 52 55 55 53 51 53 51 52 53 54 54 55 57 60 64 66 61 63 64
46 46 46 46 48 48 48 49 47 47 48 49 50 49 50 49 50 50 49 49 49 50 51 53 52 51 51 51 51 51 52 53 51 51 53 53 54 54 55 58 52 51 52 52 57 54 50 48 51 52 51 50 51 55 55 55 57 57 55 51 49 50 51
45 46 46 46 47 46 45 46 49 49 49 49 50 49 49 48 47 48 48 48 50 49 50 50 52 52 51 52 51 52 53 53 53 53 53 53 53 54 54 55 55 50 49 50 53 50 47 46 46 47 48 54 52 54 54 54 52 50 50 50 50 50 49
44 44 45 45 44 45 47 49 49 48 49 48 49 48 48 47 47 47 47 47 48 50 50 51 51 50 50 49 50 52 52 51 52 53 53 52 52 53 54 53 53 53 50 48 48 48 47 46 45 45 45 46 50 52 54 53 51 50 50 50 50 49 48

ECMWFFLT1_sfc_dewp_084.txt.gz
Dewpoint
67 67 67 68 68 67 65 60 58 59 59 60 61 61 64 63 67 67 66 68 68 69 71 70 69 71 71 71 71 71 70 71 73 72 71 70 70 72 71 72 72 72 72 73 73 73 74 74 74 75 75 75 75 74 74 75 75 76 76 75 75 75 75
66 66 67 68 69 70 70 70 68 62 61 64 64 64 66 66 67 67 67 68 68 68 71 70 69 71 71 71 71 72 71 71 73 74 72 72 73 72 72 72 73 72 73 73 73 74 74 74 74 74 74 76 74 75 74 75 75 75 76 75 74 74 75
64 65 66 67 68 68 68 67 68 68 69 68 65 64 66 67 68 68 68 68 68 68 70 71 70 70 71 71 72 72 72 71 72 73 73 72 73 72 72 72 72 72 72 73 73 74 74 74 74 74 74 75 74 75 74 75 75 75 76 75 74 74 75
65 67 68 69 68 68 69 69 69 70 70 69 69 65 65 67 68 69 69 69 69 69 70 71 71 70 71 71 72 72 72 71 72 72 73 72 73 73 72 72 72 72 73 72 72 73 74 74 74 74 76 74 75 75 75 75 75 76 76 75 74 75 75
65 66 66 67 68 69 69 69 68 68 68 70 70 70 68 68 69 70 70 70 70 70 70 71 71 71 71 71 71 72 72 72 72 72 72 72 73 73 72 71 71 71 72 72 72 73 74 73 73 74 75 73 74 75 75 75 75 76 75 76 75 74 75
64 64 65 66 68 68 69 70 69 69 69 70 70 70 70 70 69 70 71 71 71 71 71 72 72 72 72 72 71 71 72 73 72 72 72 72 72 72 72 71 71 71 71 70 72 72 72 73 72 73 74 73 73 74 75 75 75 75 75 76 75 75 75
63 64 65 66 68 68 69 70 70 69 70 70 71 72 71 71 71 72 73 72 72 71 71 72 72 73 72 73 73 73 72 72 72 72 72 71 71 71 71 71 72 71 71 71 70 70 72 72 72 73 73 73 73 74 74 74 74 74 74 75 75 75 75
58 59 62 67 68 68 68 69 70 71 71 71 72 72 71 72 72 72 72 73 73 72 73 72 73 73 72 71 69 69 70 70 71 71 72 71 70 71 71 71 71 71 71 70 70 69 71 71 71 72 73 73 72 73 73 73 74 74 74 74 75 75 75
57 57 58 59 63 66 68 69 69 69 71 71 71 71 72 72 71 71 72 72 72 71 72 72 71 71 71 72 71 71 71 70 70 70 70 70 69 69 70 70 70 71 70 70 69 70 69 71 71 72 72 72 72 72 72 73 73 73 73 74 74 74 74
56 56 57 57 59 61 64 68 68 69 69 70 70 70 71 72 72 72 72 71 71 71 71 72 72 72 71 71 72 72 72 71 72 72 71 71 71 70 69 68 68 71 70 69 69 69 69 70 71 71 72 71 71 71 71 72 72 72 72 73 73 73 73
56 56 56 56 57 58 60 63 65 67 68 68 69 71 70 70 71 71 72 72 71 71 72 72 71 72 71 71 71 72 72 72 72 71 71 71 72 71 70 69 69 69 69 69 68 68 69 70 70 71 71 71 71 71 71 71 72 72 71 72 73 73 72
55 55 55 55 55 57 58 59 59 60 62 65 67 67 67 67 68 68 70 71 71 72 72 71 72 72 71 71 71 71 71 71 72 72 71 72 72 72 72 70 69 68 69 69 69 68 68 69 69 69 71 71 71 71 71 71 72 72 71 71 72 72 72
55 54 54 53 54 55 57 58 59 60 60 60 62 66 67 67 67 68 68 69 70 71 71 71 71 72 72 70 71 70 70 71 72 72 73 73 73 73 73 72 71 69 68 69 71 69 67 68 69 69 68 70 71 71 71 71 72 72 71 71 71 72 72
55 52 52 52 52 53 55 56 57 59 60 61 61 61 61 62 65 66 67 68 69 70 70 72 72 72 72 72 71 70 70 71 72 72 72 73 73 72 73 73 72 71 70 71 72 71 68 66 68 69 69 68 69 70 71 72 72 72 72 71 70 71 72
51 51 51 50 51 52 53 54 56 57 58 59 60 60 60 60 60 62 65 66 69 70 71 72 71 70 71 72 72 72 72 72 72 73 73 73 72 71 72 72 72 72 73 73 72 73 72 67 66 67 69 69 69 69 69 69 70 71 72 72 71 70 70
50 49 49 48 48 50 52 53 54 56 57 59 59 59 60 60 61 62 64 67 69 69 70 71 70 70 70 71 71 71 71 71 73 73 72 72 71 71 71 72 73 74 74 74 74 73 72 72 67 66 67 69 70 69 69 69 69 71 69 71 72 71 70
48 47 47 47 48 48 49 50 51 53 55 57 58 60 61 62 62 64 65 66 66 66 67 68 69 69 70 70 71 71 72 72 71 71 71 72 72 72 73 73 74 74 74 73 72 72 72 72 71 70 67 66 69 70 69 68 69 68 65 65 68 71 71
48 47 47 46 47 47 46 46 47 48 50 52 54 57 59 59 60 61 62 62 62 63 64 66 65 66 66 67 69 70 71 71 71 70 71 71 70 71 71 72 73 72 72 72 72 72 73 72 72 71 71 70 68 67 69 69 69 65 64 64 64 68 71
45 46 46 47 48 48 47 46 46 47 46 50 54 55 57 57 57 59 62 62 60 61 61 61 61 63 63 65 67 68 69 70 71 70 70 71 70 70 71 71 72 72 73 73 74 74 72 72 72 72 72 71 70 71 72 71 67 64 62 63 63 63 68
45 45 46 47 48 49 49 48 48 48 48 48 48 51 56 56 53 55 61 63 61 59 60 59 58 59 60 62 65 65 66 68 70 70 69 70 71 71 71 71 70 71 72 73 73 73 73 73 72 72 71 71 71 71 71 71 70 65 62 60 60 61 63
44 44 45 45 46 48 51 52 51 51 50 50 52 50 51 53 54 56 58 60 61 60 60 59 58 58 58 59 61 63 64 65 66 68 69 70 70 70 70 70 71 71 72 73 73 73 73 73 72 72 72 72 72 71 71 70 67 64 63 60 58 58 61
45 45 44 44 45 47 48 49 50 50 53 57 54 53 52 51 49 49 55 60 62 61 61 62 61 61 61 61 61 62 63 64 65 66 67 69 70 69 69 70 70 70 71 71 72 72 73 73 73 72 72 72 72 72 71 71 65 64 63 62 59 59 63
45 44 43 43 42 43 46 49 49 50 47 46 50 54 54 54 53 51 50 51 53 55 55 55 57 58 60 59 60 64 65 66 65 65 65 66 66 67 67 68 68 68 70 70 69 68 70 71 72 72 73 73 73 72 72 72 67 62 60 60 59 60 64
44 44 44 44 43 43 43 43 43 45 44 46 48 51 54 53 53 52 52 52 52 52 54 53 53 53 55 54 55 56 56 61 63 64 64 63 64 65 67 67 67 67 68 70 69 68 68 69 71 71 72 72 72 72 72 72 70 61 57 57 57 62 64
39 40 41 41 42 42 44 46 45 45 46 46 48 51 52 53 54 53 53 53 52 53 53 54 56 56 56 54 54 55 56 55 58 60 62 62 63 65 66 66 65 67 68 70 69 69 69 69 70 70 70 70 70 73 72 72 70 63 59 59 55 60 65
38 40 42 43 43 44 45 46 44 44 44 45 47 51 52 52 54 57 55 53 52 52 53 54 56 57 56 56 55 55 56 56 59 59 59 58 58 60 63 67 66 65 66 67 68 68 69 70 67 67 68 67 66 66 67 71 72 70 61 59 58 57 68
40 42 43 45 48 51 44 44 44 44 46 47 48 48 52 54 54 54 56 54 53 53 53 54 55 56 56 56 56 56 57 57 58 59 57 56 57 59 60 61 64 65 66 66 66 67 67 67 67 67 67 66 67 67 68 70 71 71 64 60 58 56 60
45 47 49 52 52 49 45 46 46 47 48 49 50 51 52 54 55 55 53 52 53 54 54 55 55 55 55 56 57 58 58 58 58 59 57 57 58 56 56 58 59 62 65 66 66 66 67 67 68 68 68 68 68 69 70 71 72 72 67 61 58 56 54
43 44 44 45 47 50 47 47 47 48 48 49 50 50 51 54 55 54 52 51 53 54 54 56 55 55 55 56 56 57 57 57 58 58 57 58 58 56 56 56 56 57 60 62 64 66 66 67 67 67 68 68 69 70 70 71 72 69 71 66 60 57 53
45 45 45 45 47 48 52 48 48 48 48 49 51 51 51 52 55 55 53 51 53 54 54 54 55 55 56 57 56 56 57 57 58 57 56 57 58 58 56 56 57 58 58 59 60 61 61 63 65 66 68 68 69 69 71 71 72 71 70 69 63 57 53
45 45 45 46 47 49 48 47 47 48 48 47 49 51 52 51 53 53 51 50 55 55 53 55 56 56 56 56 55 56 55 56 56 56 56 56 56 56 57 57 57 57 58 59 59 59 60 61 63 63 64 66 67 69 71 72 73 72 71 68 65 60 55
45 46 46 46 46 47 47 47 48 48 49 48 49 49 52 52 52 51 50 52 54 53 53 54 56 55 55 53 53 53 54 54 54 55 56 55 56 57 57 57 58 58 58 58 58 58 58 60 60 61 58 56 61 63 64 66 65 63 67 71 72 68 62
44 44 45 46 49 49 47 48 48 48 50 49 49 49 51 50 52 52 53 54 53 53 53 54 56 55 53 51 52 52 52 53 55 53 52 52 52 53 55 55 55 54 56 55 53 52 53 54 56 56 54 57 57 57 57 56 58 60 61 62 66 69 69
44 44 45 47 49 48 47 47 47 48 50 49 47 49 51 51 50 51 50 51 52 51 52 54 55 53 51 50 50 51 52 53 55 53 51 51 52 52 52 53 54 54 54 54 53 53 54 54 55 54 54 54 54 53 53 53 52 54 57 58 62 66 66
44 44 45 46 48 48 46 47 48 48 50 49 48 49 49 48 49 49 48 49 50 50 51 52 53 54 51 50 50 50 54 54 52 51 52 51 52 52 53 53 54 53 53 54 56 57 55 53 53 55 53 52 52 52 52 53 53 55 55 61 57 60 62
44 44 45 46 48 47 48 49 48 49 49 47 48 48 48 48 48 48 48 48 48 49 50 53 53 52 51 51 51 51 52 53 51 51 53 51 51 51 51 55 52 51 53 52 56 54 50 48 51 52 51 51 51 53 52 52 53 52 49 47 46 46 47
43 45 45 46 45 45 47 48 51 50 49 47 49 49 48 47 47 47 48 48 49 50 50 50 52 52 50 52 50 52 52 52 51 51 52 51 51 51 52 51 51 47 48 49 52 49 46 45 45 46 48 55 52 52 51 51 49 47 46 45 44 45 45
43 42 44 45 44 46 46 47 47 47 48 47 47 47 47 47 47 47 48 49 49 50 49 50 51 50 50 50 51 52 53 52 53 53 53 52 52 51 52 51 51 51 48 47 47 47 46 45 44 45 45 46 49 50 51 50 47 45 44 44 44 44 44

ECMWFFLT1_sfc_dewp_087.txt.gz
Dewpoint
65 66 65 66 66 61 57 58 59 59 59 59 60 60 62 64 65 66 66 68 68 67 68 70 69 70 70 70 70 70 71 71 70 71 70 69 69 71 71 71 71 71 71 71 72 73 74 74 75 75 75 75 75 75 74 74 74 75 75 75 74 74 73
64 65 66 67 66 66 66 60 59 59 60 60 60 60 62 64 65 66 66 67 68 67 68 69 69 70 70 70 70 70 70 71 72 73 71 71 72 71 71 72 72 71 72 72 72 72 74 74 74 74 75 75 75 74 74 74 74 74 75 74 73 73 74
66 66 67 67 67 67 68 67 65 61 60 60 61 61 61 63 65 66 66 67 67 68 68 69 69 70 70 70 70 71 70 70 72 73 71 70 71 71 71 72 72 72 72 73 73 73 74 74 74 74 74 74 74 74 74 74 74 74 75 74 73 73 73
66 67 67 68 67 68 69 68 67 67 64 62 61 61 61 63 66 66 66 67 67 68 68 68 69 69 70 70 70 70 71 70 71 72 73 71 72 71 72 72 72 72 72 72 73 73 73 74 74 74 76 74 74 74 74 74 74 74 74 75 74 73 73
66 67 67 67 68 68 69 68 68 68 67 67 66 64 63 64 66 67 66 67 67 67 69 69 69 69 70 70 70 70 71 71 71 72 73 72 73 72 72 71 72 72 72 72 73 73 74 74 73 73 74 74 74 74 74 74 74 74 74 75 74 73 73
65 65 66 67 67 68 69 70 70 69 68 68 68 68 68 68 67 67 67 68 68 68 69 70 70 71 70 71 71 71 72 71 71 72 72 72 72 73 72 71 71 71 72 72 73 72 73 73 73 73 73 74 74 74 74 74 74 75 75 75 74 74 74
65 65 66 66 67 68 69 70 70 70 71 70 70 71 70 70 71 72 72 71 71 70 71 72 72 72 72 72 72 72 72 72 72 71 72 72 72 72 72 72 72 71 71 72 71 72 72 73 73 73 73 74 73 73 74 74 74 74 74 74 74 74 74
64 64 66 67 68 69 70 70 70 71 71 71 71 71 70 72 72 71 71 71 71 71 71 72 72 71 72 71 71 72 71 71 71 71 71 72 71 71 71 72 72 72 72 71 71 71 71 72 72 73 73 73 73 73 73 74 74 74 74 74 74 74 74
61 62 64 67 68 68 69 69 70 70 71 70 71 71 71 70 70 71 71 71 71 71 71 72 72 72 72 71 71 71 71 71 71 71 71 70 70 70 71 71 71 72 71 71 70 71 70 71 71 72 72 73 73 73 73 73 74 74 74 74 74 74 74
58 58 59 61 63 66 68 67 68 68 68 69 70 70 71 70 70 70 70 71 71 71 71 72 72 72 72 72 71 71 71 71 71 71 71 71 70 69 69 69 68 71 71 70 70 70 70 70 71 71 72 72 72 72 72 73 73 73 73 73 73 73 73
57 57 58 59 60 62 65 66 66 67 67 68 69 70 70 69 69 69 70 70 71 71 71 71 72 71 72 72 72 71 71 71 71 71 71 71 71 71 71 69 68 69 69 69 69 69 69 70 71 71 71 72 72 72 72 72 72 72 72 73 73 73 73
55 56 57 58 59 59 61 62 62 63 64 66 67 68 69 70 70 70 69 70 71 70 71 71 72 72 71 72 72 71 71 71 71 71 70 71 71 71 71 71 70 69 69 69 68 69 69 69 69 71 71 71 71 71 72 72 72 72 72 72 72 73 73
54 55 56 57 58 58 59 59 60 62 63 63 65 67 68 68 70 70 70 70 70 70 71 71 72 71 71 71 71 71 71 71 71 71 71 71 72 72 72 71 71 70 68 69 69 68 68 68 69 70 70 71 71 71 71 71 71 71 72 71 71 71 72
54 53 54 55 56 56 56 57 58 59 61 62 63 64 65 67 69 69 69 70 70 70 71 71 71 71 70 71 70 70 71 71 71 72 72 72 72 72 72 73 72 71 70 70 69 71 70 68 68 68 69 70 71 71 71 71 71 71 71 71 71 71 71
50 51 52 53 54 55 56 56 57 58 60 61 63 63 63 65 66 68 69 70 70 71 71 71 71 70 70 70 70 70 70 70 72 72 72 72 72 72 72 72 71 71 71 71 71 71 72 72 69 67 68 69 69 70 71 71 71 71 71 71 71 71 70
49 49 50 52 53 54 54 55 56 58 59 60 62 63 64 65 66 68 69 70 70 70 71 71 71 71 71 71 71 71 71 71 72 72 72 71 71 71 70 71 71 71 71 72 72 72 72 71 71 68 67 68 68 68 69 70 70 72 70 71 71 71 70
47 47 48 49 50 51 52 53 54 56 58 59 61 63 63 64 65 66 67 68 69 69 70 71 70 70 71 71 71 71 71 71 71 71 71 72 72 71 72 72 71 71 72 72 72 71 71 72 71 70 67 67 68 68 68 68 68 68 66 66 68 72 71
47 46 46 47 47 48 49 50 52 54 55 56 58 60 62 63 64 64 63 63 65 67 70 69 69 69 69 70 70 70 71 71 70 70 71 70 70 71 72 72 72 71 71 71 71 71 72 72 71 71 71 69 67 68 68 68 69 65 64 64 64 68 72
47 47 46 47 48 48 46 47 50 52 53 54 56 56 59 62 63 62 61 61 60 62 64 65 66 67 67 68 68 69 70 70 69 69 69 70 70 70 71 71 71 71 71 72 73 73 71 71 71 71 71 71 70 67 68 69 68 65 64 63 63 63 68
47 47 47 47 47 47 48 49 49 49 51 52 53 55 58 61 62 61 60 59 59 59 60 61 62 62 63 64 65 66 67 68 69 69 69 69 70 70 70 70 70 71 72 72 73 73 72 72 71 71 71 71 70 70 71 70 70 65 63 62 61 62 64
47 47 47 47 47 48 49 49 50 51 51 52 54 55 55 55 58 60 60 59 58 59 60 60 60 60 60 61 62 63 64 65 66 66 68 69 69 69 69 69 69 69 69 71 71 71 71 72 72 72 72 72 72 71 71 71 67 65 62 60 59 60 62
47 46 45 47 49 49 49 48 49 50 54 57 55 54 52 52 55 58 58 59 61 60 58 57 56 55 55 55 56 58 59 61 63 64 65 66 67 67 67 67 68 68 69 71 69 69 69 69 71 71 71 72 72 72 71 72 67 63 62 61 60 59 64
44 43 43 45 46 47 47 46 48 51 53 53 54 53 54 54 53 52 52 52 53 55 54 54 55 55 55 55 56 57 58 60 61 62 63 62 62 62 65 67 67 68 69 69 69 69 68 68 69 70 70 70 71 71 71 72 69 65 62 60 60 62 65
43 44 43 43 44 44 46 47 49 51 50 51 52 53 54 54 54 53 53 53 53 54 55 55 55 56 56 55 56 57 57 59 59 59 58 58 58 60 61 62 65 67 68 68 68 68 69 69 69 69 69 68 69 70 70 70 69 62 61 59 59 62 66
41 42 43 44 45 46 47 48 49 49 49 50 51 53 54 54 53 53 53 54 53 53 53 54 55 55 55 55 56 57 57 58 59 58 57 56 57 59 60 61 63 65 67 67 67 68 67 69 69 68 69 68 68 69 70 70 69 63 61 59 58 63 66
41 42 43 44 45 46 48 50 48 48 49 50 52 54 54 55 55 56 54 53 52 52 53 54 55 55 55 56 56 57 58 57 59 59 57 56 56 57 59 61 60 60 62 64 66 67 67 68 68 67 68 68 69 69 70 70 70 69 63 60 59 58 65
42 43 44 46 49 53 48 48 48 49 50 52 53 54 54 53 53 53 55 53 52 53 53 54 54 54 55 56 56 56 56 56 57 58 57 57 57 59 59 58 58 58 59 60 62 65 66 67 67 68 68 68 69 70 70 70 71 70 63 61 58 56 58
46 48 49 52 52 50 48 48 48 49 49 51 53 54 53 52 53 53 52 51 51 52 53 54 54 54 55 56 56 56 56 56 58 58 57 59 59 57 56 57 57 58 58 59 60 61 62 63 66 66 67 67 69 69 69 70 71 72 66 62 58 55 53
45 46 47 48 49 51 48 47 48 48 49 49 51 52 53 52 53 52 51 50 52 53 53 55 55 55 56 56 55 56 56 56 56 57 57 57 58 56 56 56 56 57 59 58 58 59 59 60 61 63 64 65 66 68 69 70 72 69 69 64 60 59 55
45 46 47 47 48 49 51 48 48 48 49 50 51 51 52 53 53 53 52 48 52 54 54 54 55 55 54 54 53 53 54 56 57 56 54 55 56 56 55 55 56 57 57 57 57 56 56 57 59 59 57 56 57 58 61 62 64 64 62 64 61 58 56
45 46 46 47 48 51 48 46 46 47 47 48 49 51 51 52 52 52 50 50 54 54 52 54 56 54 51 51 51 52 53 54 54 54 52 53 54 54 55 54 55 55 55 55 54 54 54 55 57 56 55 55 55 55 57 59 61 60 61 61 61 59 58
47 47 47 47 48 48 48 47 47 46 47 47 49 50 52 51 50 50 50 52 53 52 53 55 54 54 52 51 51 51 52 52 53 52 52 53 53 54 55 54 55 55 54 54 54 54 55 55 56 55 54 54 55 56 56 56 57 56 56 61 62 61 60
45 45 45 46 48 48 46 47 47 48 49 48 48 50 50 48 49 50 50 51 50 51 53 53 54 54 51 50 51 51 52 52 52 51 51 51 51 51 53 53 53 53 54 53 52 53 55 54 55 54 54 55 54 54 55 54 55 54 55 57 59 60 60
45 45 46 48 48 47 46 46 47 48 48 48 47 48 48 47 48 48 48 49 50 50 52 54 54 51 49 50 50 51 53 52 54 52 50 51 51 51 50 51 53 52 52 52 52 53 53 53 54 53 54 53 53 52 53 53 53 54 54 55 57 56 56
44 45 47 47 47 46 44 46 48 49 49 48 47 46 47 47 48 48 47 48 49 50 52 53 53 52 49 50 49 49 54 54 52 51 52 51 51 51 51 52 52 52 52 52 54 55 54 52 51 55 52 52 52 52 52 53 53 54 53 56 50 52 51
44 45 46 46 47 45 47 48 48 49 48 46 46 47 47 46 46 47 48 49 49 50 52 52 52 49 49 50 49 51 53 53 52 51 53 51 51 51 51 53 51 50 52 51 55 53 49 48 50 51 51 50 51 52 52 52 53 52 47 45 44 44 44
44 44 45 46 45 46 47 48 50 48 48 47 49 48 48 46 46 46 48 48 49 50 50 50 50 50 49 51 50 52 53 53 52 52 51 51 50 50 51 50 50 47 47 49 51 48 44 43 44 45 46 54 51 52 52 51 48 45 44 44 44 43 43
44 44 46 46 46 48 48 47 47 46 47 46 48 47 46 47 46 47 48 49 49 49 48 49 50 48 48 49 49 52 52 51 50 51 51 50 49 50 51 50 49 50 47 46 47 46 45 44 43 43 43 44 48 49 50 49 47 45 43 43 43 43 42

ECMWFFLT1_sfc_dewp_090.txt.gz
Dewpoint
66 66 67 67 60 57 58 58 59 60 60 62 63 63 64 65 67 67 68 69 69 69 69 70 70 70 70 70 71 71 71 70 70 70 70 70 70 70 70 71 71 71 72 72 72 73 73 75 75 76 76 76 76 76 76 76 76 76 76 77 76 76 75
66 66 66 67 66 60 58 59 59 60 60 61 62 63 64 65 66 67 68 68 69 68 69 70 70 69 69 70 71 71 71 71 71 72 71 71 72 71 71 71 71 71 72 72 72 73 74 75 75 76 76 76 76 76 75 75 76 76 76 76 75 75 76
66 66 66 67 67 66 61 60 60 60 60 61 62 62 63 65 66 67 67 68 68 68 69 69 70 69 70 70 70 70 71 71 71 72 71 70 71 70 72 72 72 71 71 72 73 73 74 74 75 75 76 75 75 76 75 75 76 75 76 76 75 75 75
65 66 66 67 68 67 66 63 61 61 61 61 61 62 63 65 66 67 67 68 68 68 68 69 69 69 69 70 70 70 70 71 72 71 71 71 71 71 72 73 73 73 72 72 73 73 73 74 75 75 76 76 76 75 75 75 75 75 75 76 76 75 75
64 66 66 67 68 68 68 66 64 61 61 62 63 63 63 64 66 67 67 69 69 68 68 68 69 69 70 70 69 70 70 70 71 72 73 72 72 72 72 72 72 73 73 73 74 74 74 75 74 74 75 76 75 75 75 75 75 75 75 76 76 75 75
64 65 65 66 67 67 69 69 68 66 65 63 64 65 64 65 66 66 68 69 70 71 71 69 69 70 70 70 70 70 71 71 71 72 73 73 73 72 72 72 72 73 72 73 74 74 74 74 74 74 74 74 74 74 75 75 74 75 75 75 75 75 75
65 65 65 67 67 68 69 70 70 70 69 68 69 69 68 67 68 69 70 69 70 70 70 70 70 71 70 71 71 71 70 70 71 71 72 72 73 73 73 72 73 72 73 73 73 73 73 74 74 74 74 74 75 74 75 75 75 75 75 75 75 75 76
65 65 66 67 69 69 70 70 70 70 70 70 69 69 70 71 70 70 69 69 68 68 71 71 71 71 71 72 71 71 71 71 71 71 71 71 72 73 73 73 73 73 73 72 73 73 73 73 73 74 74 74 74 75 74 75 75 74 75 75 75 75 75
64 65 66 67 69 70 70 70 70 70 70 70 70 69 70 71 70 70 70 70 69 69 70 72 72 72 72 72 72 72 72 72 72 72 72 71 71 71 72 72 73 73 72 72 72 73 73 73 73 74 74 74 74 75 74 75 75 75 75 75 75 75 75
62 64 66 68 68 68 68 69 69 69 69 69 69 69 70 71 71 71 70 70 70 70 71 72 72 72 72 72 72 73 73 72 72 72 72 72 71 71 71 71 72 73 72 72 72 71 72 72 72 73 74 73 74 74 74 74 74 75 75 75 75 75 75
61 62 64 66 66 66 66 67 67 68 69 69 69 70 70 70 70 70 70 70 70 70 71 72 72 71 72 73 73 73 72 72 72 72 72 72 73 72 71 70 70 71 71 71 71 71 71 72 72 73 73 72 73 74 74 74 74 74 74 74 75 75 74
60 61 62 62 62 62 62 63 65 66 67 69 70 70 69 69 70 70 70 70 71 71 71 72 72 71 71 72 73 72 72 72 72 72 72 72 72 72 71 70 69 69 70 70 71 71 71 71 71 72 72 73 73 73 74 74 74 74 74 73 74 74 74
59 59 60 60 60 60 61 62 64 65 67 67 69 69 69 69 69 70 70 70 71 71 71 71 71 71 71 71 72 72 72 72 72 71 71 72 73 73 73 72 71 70 69 70 70 69 69 70 71 72 72 72 73 72 73 73 73 74 74 74 74 74 74
58 57 58 58 59 59 60 61 62 63 63 65 66 68 69 70 69 70 70 70 70 71 72 72 72 71 71 71 71 71 71 71 71 71 70 71 71 72 73 73 72 72 71 71 70 70 70 69 69 70 71 71 72 73 73 73 73 73 74 73 73 73 73
56 56 56 57 58 59 60 60 60 61 62 63 65 66 68 69 69 70 70 70 70 71 71 72 71 71 70 70 70 70 70 70 70 70 70 70 70 71 71 72 73 72 72 72 71 70 71 71 70 70 70 70 71 72 72 71 72 72 72 73 73 73 72
55 54 54 55 56 58 59 59 60 61 62 63 64 65 66 67 68 69 69 69 70 71 71 71 70 70 69 69 70 71 71 71 71 71 71 71 70 71 71 71 72 72 72 72 72 72 73 72 73 71 70 70 70 70 70 71 71 72 70 70 72 73 72
51 52 52 53 54 55 56 57 59 61 62 62 63 64 65 66 67 69 69 69 69 70 70 70 70 70 70 70 70 71 71 71 71 71 71 71 71 71 71 72 72 72 72 73 73 73 73 73 73 72 71 69 69 69 68 69 69 69 66 66 67 72 73
49 50 50 51 52 53 55 56 58 59 59 60 61 63 64 64 65 67 67 68 69 69 70 69 69 69 69 70 70 70 70 70 70 70 71 71 70 71 71 72 72 72 72 73 73 73 73 73 72 72 72 72 70 68 68 69 69 65 64 65 65 68 73
48 48 48 49 51 52 53 54 54 54 54 56 58 60 62 63 62 63 63 64 65 66 66 66 67 67 67 68 69 69 69 69 69 70 70 70 70 71 71 71 71 71 72 73 73 73 73 73 73 73 73 72 72 72 71 70 68 65 64 63 63 63 69
47 47 47 47 49 50 52 52 52 53 55 57 59 60 61 64 62 63 62 62 62 62 62 61 62 63 63 64 65 67 68 69 69 69 69 69 70 70 69 69 68 68 70 69 70 70 71 72 72 72 73 73 73 73 73 72 68 64 62 62 62 62 64
47 47 47 47 48 49 51 53 54 56 56 56 56 56 58 59 60 61 58 57 56 57 58 57 58 59 57 59 60 63 65 65 66 66 67 68 68 67 67 67 67 68 69 68 68 68 68 69 70 70 70 71 71 71 71 69 65 64 63 61 59 60 62
47 46 47 48 49 50 51 51 54 55 55 58 56 55 54 54 53 53 55 56 56 55 55 57 58 57 59 57 58 60 61 61 61 61 61 62 63 64 65 66 67 67 69 69 69 69 70 68 68 68 67 69 69 69 69 69 64 62 62 61 60 61 67
48 49 48 48 47 48 51 53 53 54 55 54 54 54 55 55 55 55 53 54 54 56 56 55 56 57 57 58 58 60 60 60 59 60 60 60 60 60 62 63 65 68 69 69 69 69 69 67 68 68 67 67 68 69 70 70 67 61 60 59 60 65 69
46 46 46 47 49 50 51 52 52 54 53 53 54 54 55 55 54 53 54 53 52 53 54 54 55 56 57 57 58 59 59 60 59 58 59 59 59 60 61 61 63 64 67 68 68 68 68 68 69 70 69 67 67 68 70 70 69 61 59 59 59 64 68
43 45 47 48 49 49 49 51 52 53 54 54 54 54 54 53 53 53 53 53 53 53 53 54 55 55 56 56 57 57 58 58 59 58 58 59 59 60 61 61 61 61 64 66 67 68 69 69 69 70 70 68 66 66 70 71 69 64 61 60 59 64 68
44 46 47 48 49 50 53 55 53 52 53 53 54 54 54 54 54 55 53 52 52 53 54 54 55 56 56 56 56 57 58 58 59 59 59 59 59 59 60 61 60 61 61 62 63 65 67 69 69 69 70 70 70 70 70 71 71 70 63 60 59 58 66
45 46 47 48 51 54 51 51 52 52 53 54 54 53 53 52 53 53 53 52 52 53 54 55 56 56 56 56 55 56 57 57 57 58 58 59 58 59 59 60 60 60 60 59 59 60 61 63 66 67 67 69 69 69 67 69 69 68 59 57 56 56 60
46 48 50 53 53 51 50 50 51 51 51 53 53 53 52 52 53 53 52 52 52 53 54 55 55 55 54 55 55 56 56 56 57 57 57 58 57 57 57 58 59 59 57 57 58 58 59 60 59 58 58 60 62 62 62 63 62 61 58 56 54 54 57
48 49 49 49 49 51 49 49 49 49 50 51 52 52 52 51 52 52 52 52 53 54 55 55 53 53 54 54 55 56 56 56 55 55 56 57 57 55 56 56 57 57 58 58 57 58 57 58 57 56 56 57 56 56 59 62 62 63 62 59 53 53 54
48 48 48 48 49 49 51 49 49 50 50 50 52 52 52 53 53 53 52 52 54 55 56 54 53 52 53 54 54 54 56 55 54 54 54 55 55 56 55 55 56 57 56 56 57 57 57 58 58 57 56 55 55 55 58 60 62 62 61 61 55 53 52
47 48 48 48 49 51 49 48 48 48 49 50 51 51 51 52 52 52 51 52 55 55 55 54 54 53 52 52 53 54 54 55 53 53 53 53 54 54 54 55 55 55 56 56 56 56 56 57 56 56 56 55 54 55 57 59 60 58 60 60 58 54 52
49 50 50 49 49 48 48 47 47 48 49 49 49 49 51 49 49 50 51 52 54 54 54 54 54 53 53 53 54 53 54 54 52 52 53 53 54 55 55 54 54 55 55 54 54 56 56 55 55 55 55 54 55 56 57 58 58 58 57 58 58 57 55
48 49 48 48 49 49 47 47 47 48 49 48 48 47 48 48 50 51 52 53 52 54 55 54 53 53 52 52 53 54 54 55 54 52 53 53 52 52 53 54 53 53 54 54 53 54 54 53 54 54 53 54 54 55 56 56 57 57 58 58 57 56 56
47 48 49 49 49 48 48 48 48 49 48 48 47 48 48 48 48 49 50 51 52 53 54 54 52 51 50 50 51 54 54 53 54 53 52 52 52 51 51 52 51 52 52 52 53 53 52 52 52 53 53 53 53 54 54 54 55 56 56 56 55 54 54
49 49 49 47 48 48 47 48 49 49 48 47 47 47 48 48 49 49 50 51 52 53 54 53 52 52 50 50 50 52 53 53 53 53 52 52 52 52 53 53 51 52 52 52 55 54 51 51 51 53 52 51 52 53 53 54 54 55 53 56 49 51 51
47 48 48 48 48 47 49 51 49 49 48 47 47 47 47 47 48 49 49 50 51 53 54 53 52 50 50 52 51 54 53 52 51 52 52 51 50 51 51 52 50 51 52 51 54 52 48 47 51 51 50 50 51 53 52 52 53 51 46 43 42 42 43
47 47 46 47 46 47 48 49 50 49 48 47 48 48 49 47 47 48 49 51 51 52 52 53 52 51 50 52 52 54 52 52 51 52 52 51 51 51 51 51 52 47 46 48 51 48 44 43 43 44 46 54 51 53 51 50 48 45 44 43 42 41 41
46 46 46 47 46 47 49 49 48 47 48 47 48 48 49 48 48 49 49 50 51 51 51 52 52 50 50 50 52 53 51 52 51 51 51 51 51 51 51 51 51 52 48 46 46 46 44 43 42 42 43 44 48 50 53 50 46 44 43 42 42 42 41

ECMWFFLT1_sfc_dewp_093.txt.gz
Dewpoint
62 63 64 63 61 61 61 62 64 64 65 65 66 65 67 67 69 71 70 72 72 73 73 74 74 74 74 74 74 74 74 74 74 73 73 73 73 74 73 72 72 75 73 72 73 74 75 76 76 76 77 77 77 77 78 78 78 76 77 77 76 76 76
62 62 63 63 61 61 62 63 64 64 65 65 66 67 67 68 70 70 71 72 72 73 73 73 74 74 74 74 74 75 75 74 74 75 73 75 75 75 73 74 74 75 76 74 74 76 76 75 76 76 76 77 76 78 77 78 77 77 76 77 76 76 76
63 64 65 65 62 61 63 63 63 64 64 64 65 66 67 69 70 71 71 71 72 73 73 73 74 73 73 74 74 74 74 73 73 73 72 70 72 70 72 74 74 73 73 74 76 74 75 75 77 77 76 76 75 77 78 77 78 77 77 77 76 74 76
66 66 66 67 65 63 63 63 64 64 64 65 65 65 67 70 70 71 71 71 72 72 73 72 72 72 72 73 73 74 74 74 73 71 71 71 71 71 73 74 74 74 74 73 72 73 72 75 75 77 77 77 77 76 76 76 76 77 77 78 76 76 76
66 67 67 67 66 64 63 63 63 64 65 66 67 67 68 69 70 70 71 71 72 72 71 71 70 71 72 72 71 71 72 72 73 72 72 72 73 73 72 71 72 72 73 72 75 76 76 76 75 76 76 78 76 77 77 77 76 78 77 78 76 76 74
66 66 67 69 69 67 65 63 64 64 65 66 67 67 67 68 67 67 69 70 71 72 72 71 71 72 72 71 71 71 72 73 74 75 73 74 74 72 71 72 71 72 71 72 73 74 75 75 75 75 74 74 74 74 75 75 75 75 77 77 76 75 73
66 66 66 66 68 69 69 69 67 65 66 66 66 67 67 67 67 68 68 69 71 71 70 70 70 72 72 71 72 73 72 71 72 72 72 72 73 72 72 73 73 72 72 74 74 74 74 75 76 76 75 74 75 73 75 77 76 76 77 77 77 77 76
66 65 66 67 68 68 68 69 70 70 66 65 65 67 67 66 68 69 68 68 69 68 70 71 71 73 73 73 73 72 72 72 72 71 72 71 72 72 72 72 73 74 75 73 74 74 73 74 73 75 75 74 75 76 75 77 78 76 76 76 76 75 73
65 66 67 69 69 70 71 72 72 70 68 67 66 68 68 68 68 69 70 70 70 70 72 72 73 73 74 74 74 74 73 73 73 72 71 70 70 69 69 70 72 74 73 71 71 74 74 73 73 76 76 75 75 77 76 77 76 76 76 76 76 75 73
65 66 68 69 69 71 71 71 72 71 70 70 70 69 68 69 70 71 72 72 72 71 73 74 74 74 74 74 73 74 74 74 74 73 71 70 69 69 68 68 69 72 71 71 70 71 74 74 74 75 77 75 76 76 76 76 76 75 76 76 76 76 76
65 66 66 67 68 69 70 70 70 70 70 70 70 69 70 71 72 72 72 72 71 72 73 73 75 75 74 74 73 74 73 74 75 74 75 74 74 71 69 69 69 70 70 70 69 71 72 75 75 76 76 73 74 75 76 75 75 76 75 75 75 76 74
65 66 66 67 67 67 68 68 68 69 70 70 71 70 72 72 72 71 72 72 73 72 73 73 74 74 74 74 73 73 73 73 73 74 74 75 75 74 72 70 70 70 70 70 71 72 71 72 73 73 75 75 74 75 75 76 76 76 76 74 74 75 75
63 64 64 64 65 65 66 67 68 69 69 70 70 71 71 72 72 72 72 73 73 73 74 74 74 73 72 72 73 73 74 74 74 74 75 75 76 76 74 72 71 70 70 71 71 71 70 70 72 73 73 74 74 73 74 75 74 76 76 75 75 75 75
62 62 62 63 64 65 66 67 67 68 68 69 70 71 70 70 71 71 72 73 73 73 73 72 72 72 73 73 73 72 74 74 74 73 73 74 74 75 75 74 72 72 72 72 71 70 70 69 70 71 72 72 73 73 74 75 74 76 76 75 75 74 74
61 61 62 63 64 65 65 66 64 65 66 67 69 70 70 70 70 71 71 72 72 72 72 72 72 72 72 73 72 72 72 72 72 72 71 71 72 73 73 74 74 74 73 73 72 70 70 70 70 70 71 71 72 73 72 71 71 72 74 74 75 74 73
60 60 61 61 62 62 63 63 63 64 65 66 67 67 68 69 70 70 70 70 71 72 72 73 72 72 72 71 71 71 71 71 71 71 71 71 71 71 72 72 72 73 73 73 73 73 74 74 73 71 70 70 71 71 69 70 70 74 73 73 73 74 72
59 59 59 60 61 60 62 63 63 64 65 66 66 67 68 68 69 69 70 70 70 71 71 71 70 70 70 70 70 71 71 71 71 71 70 71 72 71 72 72 72 72 72 73 73 74 75 74 73 72 71 70 70 70 68 68 68 70 68 67 68 72 73
57 58 58 58 59 61 62 62 63 63 64 64 64 65 66 67 67 68 68 69 70 70 71 71 70 70 70 70 71 71 70 71 70 70 70 71 71 71 72 73 73 73 72 72 72 74 72 72 73 74 72 71 71 70 69 69 67 64 65 66 65 69 72
58 58 57 58 59 59 60 60 61 61 62 62 63 63 64 64 65 65 66 67 68 69 70 70 70 70 70 71 71 71 70 70 70 70 71 71 72 72 73 73 73 72 73 73 73 73 73 74 73 73 73 73 73 72 72 71 66 63 63 64 64 65 70
56 57 57 57 57 57 58 60 61 61 60 60 61 61 62 63 63 62 62 61 62 64 64 65 66 66 67 68 68 69 70 71 71 70 70 71 72 72 72 72 71 72 72 73 73 73 73 73 73 73 73 73 73 74 73 70 65 62 62 62 62 64 67
54 55 56 56 56 55 59 60 60 60 60 59 59 57 57 57 57 57 57 58 59 60 62 62 62 63 62 63 63 64 64 63 64 65 67 68 69 70 69 70 69 70 71 70 71 71 71 71 71 71 72 72 72 73 70 66 63 61 61 61 62 63 67
53 53 55 55 55 57 58 57 59 59 59 58 57 56 55 55 55 55 55 56 57 58 59 60 61 61 61 60 60 61 60 61 62 63 63 64 65 67 68 68 68 69 70 70 71 72 72 71 69 69 69 70 71 71 71 68 61 61 61 61 62 66 73
51 52 52 53 53 55 57 57 57 56 57 56 56 56 56 57 55 54 54 56 55 58 58 57 58 59 60 60 61 61 59 60 61 62 62 63 62 63 64 65 66 68 69 69 70 69 70 70 68 69 67 67 69 70 70 70 65 60 59 59 60 69 73
49 51 51 52 54 55 56 56 56 55 54 54 55 56 56 57 57 57 57 56 57 56 57 56 56 57 58 59 61 61 61 62 61 61 61 62 62 62 63 63 65 66 68 69 68 68 68 69 69 69 68 67 67 68 69 69 64 58 57 57 57 67 73
47 49 51 52 53 53 55 56 55 54 54 54 54 56 56 55 56 56 55 56 57 57 57 58 57 56 56 57 59 60 59 60 61 60 61 61 62 62 63 63 63 65 67 68 67 67 68 68 68 68 69 68 68 69 68 67 63 57 57 57 57 67 72
49 50 50 51 53 55 57 58 56 54 53 53 54 53 54 54 54 55 55 54 52 53 54 56 59 58 56 56 56 58 58 59 60 60 60 61 61 61 62 63 62 63 63 64 65 66 68 67 67 67 68 67 64 64 63 63 63 61 55 55 55 59 71
52 50 50 51 54 57 55 55 53 53 52 54 54 53 54 54 54 54 56 55 54 54 54 56 57 58 59 57 54 54 55 59 59 58 58 59 60 60 61 62 61 62 61 59 59 61 63 66 65 62 60 60 61 62 62 63 63 62 54 52 52 54 62
49 51 52 55 56 55 53 53 54 53 52 54 53 53 53 54 55 55 55 53 53 53 54 56 56 57 56 56 56 56 55 56 57 58 57 59 59 60 59 60 61 60 58 57 60 61 61 61 59 57 57 58 58 60 62 62 62 64 56 52 51 51 54
52 51 52 53 53 53 52 52 51 51 51 50 51 51 51 53 55 55 54 54 54 54 55 55 55 55 55 56 55 56 56 57 57 57 58 58 58 57 57 57 58 59 61 61 61 61 59 60 59 58 57 57 57 58 60 62 62 62 63 54 51 50 50
52 52 51 50 50 51 51 52 52 51 52 52 54 54 54 55 55 55 54 55 56 54 54 54 55 55 55 55 54 53 53 54 53 54 54 55 56 56 57 57 58 58 59 60 60 59 59 59 60 59 56 54 54 56 59 61 62 61 59 59 52 50 49
51 51 50 51 50 52 51 51 51 50 50 51 53 54 56 55 54 54 54 56 57 56 54 53 53 53 53 53 53 53 52 53 53 53 53 53 53 55 54 56 57 57 58 58 58 58 58 58 57 57 56 55 55 56 59 60 61 59 60 59 57 53 51
52 53 52 51 51 52 51 50 49 49 49 50 51 52 54 53 53 54 55 56 56 55 56 55 54 54 54 54 55 54 52 51 50 52 52 53 53 55 54 54 54 55 55 55 55 56 56 55 54 54 55 55 56 57 58 60 60 59 57 58 57 57 55
52 52 51 51 53 52 51 50 49 49 49 49 49 48 49 52 53 55 56 55 53 54 55 54 54 54 54 54 53 54 55 54 52 51 52 52 51 50 51 51 51 52 53 53 52 52 52 52 53 52 53 55 56 56 57 58 57 56 56 56 55 55 56
52 52 53 53 53 54 54 53 52 51 50 51 51 51 50 51 51 53 53 52 51 51 53 53 51 50 51 50 51 50 50 50 52 50 49 49 48 48 48 48 48 48 50 50 50 50 49 50 52 54 54 53 53 55 55 54 54 54 54 54 53 54 55
53 53 53 52 52 53 53 53 51 51 49 49 50 51 51 52 52 52 53 53 53 53 52 51 51 51 48 48 48 49 51 48 48 47 48 48 49 49 51 51 50 50 50 51 52 51 49 51 51 53 53 52 53 54 55 55 54 54 50 56 47 52 53
53 53 53 53 54 53 54 54 53 52 51 51 52 51 51 51 51 51 48 49 50 51 52 51 50 49 49 49 49 48 48 48 46 48 48 46 46 49 50 52 51 51 52 50 53 52 47 47 52 51 52 52 53 55 53 52 53 50 44 43 42 42 43
52 52 52 52 51 52 54 53 53 53 52 51 52 50 51 52 51 51 49 51 50 50 51 51 49 48 48 50 50 50 49 48 48 50 51 50 49 49 50 49 52 47 47 49 52 48 44 42 43 44 46 53 53 55 52 51 48 44 42 42 41 41 41
52 51 51 51 52 53 53 52 52 51 51 51 51 49 50 47 50 52 49 52 51 50 51 50 49 48 47 48 50 51 51 49 50 51 50 50 50 51 51 50 50 53 48 47 46 46 44 43 43 42 42 44 48 51 54 51 47 43 42 42 42 42 41

ECMWFFLT1_sfc_dewp_096.txt.gz
Dewpoint
63 63 64 63 63 62 62 62 64 63 63 64 66 65 66 65 67 68 69 71 72 72 73 74 74 74 74 73 73 73 73 72 73 72 72 72 72 73 72 71 72 73 71 70 72 72 74 74 74 74 75 76 76 78 78 78 76 75 76 77 76 76 75
63 62 63 63 63 63 63 64 64 63 65 65 66 67 66 66 68 70 71 73 73 73 73 72 74 73 73 73 73 74 74 73 73 73 72 73 74 73 72 72 72 73 74 72 72 73 74 73 74 74 74 75 75 77 77 77 77 76 75 77 75 76 76
64 63 64 64 64 63 64 64 64 64 64 64 65 65 67 69 71 72 73 73 73 73 73 72 74 72 73 73 73 73 73 72 72 71 71 69 71 69 71 72 72 71 71 72 74 71 72 73 74 75 75 74 73 77 77 77 77 76 76 76 75 74 76
67 65 64 66 66 65 65 65 65 64 65 66 65 65 68 71 72 73 73 73 73 73 74 71 71 70 71 73 73 73 73 73 72 70 69 68 68 69 70 71 71 71 70 71 70 70 68 72 73 74 74 75 75 75 76 76 76 76 76 76 75 75 75
65 65 64 65 66 65 64 64 65 66 66 67 67 68 69 70 71 73 73 72 73 72 72 70 67 67 70 71 70 70 71 71 72 71 70 69 71 70 70 69 69 69 70 69 72 73 73 74 72 74 74 76 75 75 75 76 75 76 77 77 76 75 73
64 64 65 66 66 65 65 64 65 66 66 68 69 68 68 71 70 69 71 72 73 73 73 71 67 68 68 68 69 68 70 72 73 73 71 70 71 69 69 69 69 70 68 69 70 71 72 72 71 72 72 72 72 72 73 74 74 74 76 77 76 74 72
67 69 68 66 66 66 65 64 64 66 67 68 68 68 69 70 70 70 70 71 73 73 71 70 68 69 70 68 68 69 70 69 71 70 70 69 70 70 69 69 70 69 69 71 70 71 71 71 72 73 72 71 73 72 74 76 75 75 76 76 77 76 75
65 68 70 70 69 66 64 65 64 65 67 66 67 69 70 70 70 70 68 68 71 69 72 71 71 72 73 71 70 69 69 70 69 70 69 68 67 68 68 68 69 70 71 69 71 70 70 72 70 72 73 72 72 74 74 75 76 74 74 75 76 76 72
65 66 69 70 69 67 67 69 68 65 65 65 66 68 68 68 68 69 70 70 71 71 72 72 73 74 75 74 73 72 70 70 69 68 68 66 65 64 64 66 67 69 69 67 66 70 70 70 70 73 74 73 74 75 75 76 75 74 74 75 75 75 73
64 66 67 69 69 68 67 67 68 69 67 65 66 68 68 67 68 68 70 71 72 72 72 73 74 74 75 75 74 74 73 72 71 69 66 64 63 63 63 62 63 66 67 65 63 64 71 71 72 73 75 74 75 75 75 75 74 74 74 75 75 75 75
62 65 67 68 69 70 71 70 70 69 70 71 70 67 66 66 68 69 70 71 71 72 72 73 74 75 75 75 75 74 74 73 73 71 72 71 69 65 63 62 61 63 64 64 62 63 68 72 73 74 75 73 74 74 75 74 75 75 73 73 74 74 73
63 64 66 67 69 69 69 70 70 71 71 70 69 69 69 71 71 71 72 71 72 72 72 74 74 74 74 74 74 75 74 71 70 71 72 73 73 72 68 65 63 63 63 64 64 65 65 69 71 71 74 74 74 74 75 75 75 75 75 73 72 72 73
64 65 65 65 67 68 70 69 70 70 71 71 71 70 70 71 71 72 71 70 72 72 73 73 74 74 74 74 72 72 71 69 71 71 73 74 74 74 72 69 65 64 64 65 65 64 64 65 68 70 71 72 72 71 73 74 73 75 75 75 74 73 73
66 65 66 66 67 68 69 69 70 69 70 70 71 71 71 72 73 71 70 69 70 72 72 73 73 73 74 74 73 73 73 73 73 73 74 76 76 76 75 73 70 69 69 69 68 66 65 64 65 67 69 69 69 70 72 74 74 75 75 75 73 73 72
64 64 65 65 66 67 67 67 68 69 70 70 70 70 71 71 71 72 72 71 70 70 71 71 72 72 72 73 73 73 74 75 75 75 75 76 76 76 76 75 74 72 72 72 71 67 67 65 65 66 68 68 69 69 70 69 70 70 72 73 73 73 71
63 64 64 65 65 65 66 67 67 68 68 69 69 70 70 70 70 71 71 71 71 71 72 72 72 72 73 73 73 74 74 75 75 75 74 75 74 74 75 74 74 73 73 72 72 71 71 70 69 68 68 69 70 69 67 68 68 73 74 75 73 73 71
63 64 64 64 65 64 65 65 65 66 67 68 68 68 68 70 70 70 71 72 71 71 71 72 72 73 72 72 73 73 74 74 74 74 73 72 72 74 74 73 74 74 74 73 73 73 74 73 71 69 68 67 68 68 65 65 69 70 69 70 72 72 71
63 64 64 64 63 64 64 64 65 66 66 66 66 67 68 69 69 70 70 70 71 73 73 73 73 72 72 73 73 73 72 73 73 73 73 73 72 72 73 73 74 74 73 73 72 73 73 73 73 74 72 70 69 68 67 68 65 64 66 67 68 72 72
62 64 63 62 63 63 63 63 64 64 64 64 65 65 67 68 68 68 69 70 70 71 72 72 72 72 72 72 71 72 72 72 72 72 72 73 73 73 73 73 73 73 73 72 72 72 73 74 73 74 73 73 73 71 70 71 64 64 65 64 65 66 71
61 61 61 61 62 62 63 63 63 63 63 64 64 63 63 65 65 65 66 67 68 68 68 68 68 69 70 70 71 72 72 73 71 71 72 72 72 73 73 73 73 74 74 73 74 73 73 74 74 74 75 74 74 74 72 71 65 63 64 63 64 65 67
61 61 60 60 61 62 63 63 63 62 62 61 61 60 60 59 60 62 63 63 63 63 64 64 64 65 64 65 66 67 69 70 70 70 70 71 71 72 72 73 73 72 73 74 74 73 74 74 74 74 74 73 73 73 70 67 62 62 63 62 63 64 67
59 58 59 59 62 63 63 62 62 61 60 60 60 59 59 59 59 59 60 60 60 59 60 61 62 62 62 62 62 63 64 66 67 67 68 70 71 71 71 71 71 72 73 73 74 73 73 73 73 73 72 72 72 73 70 67 59 61 61 61 60 65 72
59 59 58 60 60 60 61 61 61 60 59 59 59 58 59 60 59 61 60 60 58 59 59 58 59 60 61 62 62 64 64 64 64 65 65 66 66 67 68 69 70 71 72 73 73 73 72 72 71 71 70 71 72 72 71 67 60 57 57 58 60 67 74
56 57 57 58 60 60 60 58 58 58 57 56 56 57 58 59 59 59 58 58 59 59 59 59 56 58 60 61 62 62 62 64 64 65 64 64 64 65 66 68 68 70 71 71 71 72 70 71 70 70 70 69 70 70 68 63 58 55 54 55 57 66 74
52 54 56 57 57 57 57 57 57 55 56 55 55 55 56 55 57 56 56 55 55 56 57 59 57 56 58 59 60 61 61 62 62 62 63 64 64 65 66 66 67 68 70 71 71 71 71 72 70 69 70 70 69 68 66 63 60 54 53 53 55 66 73
50 52 54 55 56 56 58 58 56 54 54 53 55 54 55 54 54 55 55 56 55 54 54 58 58 58 58 59 60 62 62 60 61 62 62 63 62 64 65 65 66 68 69 70 71 73 72 72 69 67 67 67 67 67 64 62 61 59 52 52 53 56 71
52 52 53 55 55 57 54 53 52 51 52 54 54 52 53 54 54 55 56 55 54 52 52 56 57 60 60 58 55 54 57 60 59 59 60 61 62 61 64 64 63 64 67 68 65 69 70 69 65 64 64 64 65 65 65 64 61 59 52 50 51 52 60
54 55 57 57 58 55 53 52 53 52 52 54 53 53 54 56 57 56 55 53 53 55 54 54 55 57 58 58 57 56 56 57 59 59 60 61 61 61 61 62 63 62 61 63 63 65 65 64 62 60 60 62 62 64 63 63 63 61 54 51 50 50 53
54 54 56 58 57 55 53 52 51 50 51 50 50 50 51 53 56 55 55 55 55 54 56 56 55 54 56 58 57 58 58 58 58 59 59 60 60 59 60 59 60 62 63 64 64 63 63 63 60 60 59 60 61 62 63 62 61 61 60 53 50 49 50
53 53 53 54 55 55 54 56 53 52 52 52 53 53 53 54 54 55 54 55 55 54 55 56 56 57 56 56 56 56 56 55 56 58 57 56 57 58 59 58 59 60 61 62 62 62 62 61 61 60 59 57 57 59 62 63 61 59 59 58 52 50 50
52 52 51 52 51 54 54 53 53 52 52 52 54 55 56 55 56 56 55 55 55 55 54 54 55 55 54 54 53 54 53 54 55 54 54 54 55 56 56 57 58 58 59 60 60 60 60 60 60 59 58 57 57 58 61 62 62 61 60 58 57 53 52
53 54 53 53 54 54 53 52 51 51 51 52 53 54 55 54 54 56 56 55 55 56 55 55 55 55 55 54 55 54 52 51 50 51 52 53 53 55 56 54 55 56 57 56 55 57 59 58 57 56 58 56 58 59 60 61 61 61 59 58 56 57 55
56 55 55 54 55 54 51 51 50 51 50 50 50 51 52 55 55 56 56 55 54 55 56 56 56 55 55 55 55 55 55 54 52 50 51 52 50 49 50 50 51 52 54 54 52 53 52 53 55 54 55 57 57 59 59 60 59 57 56 56 55 55 58
56 55 56 56 55 54 53 52 52 51 51 52 52 52 52 54 54 55 55 54 54 53 55 55 55 54 54 53 52 52 52 49 48 50 47 47 47 47 46 47 48 48 50 52 51 51 50 51 53 54 55 55 55 56 56 56 56 55 54 55 54 55 54
57 57 58 56 56 56 55 54 53 54 52 52 52 53 53 54 53 54 54 54 54 55 53 52 52 52 48 48 48 47 51 47 48 46 46 47 51 49 51 51 51 52 52 52 52 51 51 54 52 53 53 52 55 55 57 56 57 55 48 54 47 53 55
56 57 56 56 55 56 55 55 54 53 53 54 54 53 53 53 53 52 49 51 51 53 54 53 52 52 51 51 49 47 47 48 46 48 48 45 46 51 53 51 51 52 53 52 53 51 46 47 54 53 54 55 56 56 54 54 53 46 43 42 42 43 43
55 54 54 54 55 56 55 55 53 53 54 54 54 52 52 52 51 51 49 52 52 52 53 53 52 50 50 52 51 48 50 48 49 51 52 50 49 50 49 51 52 45 47 51 53 48 43 42 43 45 48 54 55 55 51 49 45 42 41 42 42 41 41
53 52 52 53 55 55 55 54 53 53 53 53 52 51 51 49 50 52 48 52 52 52 53 52 51 49 48 49 52 53 52 50 51 52 51 51 51 53 52 50 52 55 46 46 47 47 44 43 42 42 43 45 49 55 56 52 45 42 42 41 41 41 41

ECMWFFLT1_sfc_dewp_099.txt.gz
Dewpoint
62 59 60 61 62 61 60 61 61 62 63 63 63 62 62 62 65 66 67 69 70 71 72 73 73 73 73 73 73 73 73 74 73 73 72 72 71 71 71 70 71 71 68 68 70 72 71 74 73 73 76 74 76 77 77 76 75 74 75 77 74 74 74
62 61 60 60 61 61 61 63 63 63 63 63 64 64 64 64 65 66 67 69 69 70 71 72 73 72 73 74 73 74 73 73 73 73 72 73 73 73 72 72 71 72 74 71 71 72 74 72 73 74 74 75 74 77 76 75 76 76 75 75 74 77 76
63 64 62 61 62 60 63 63 63 63 64 64 64 64 65 66 67 68 68 68 68 70 71 70 72 71 73 74 74 74 72 72 72 71 71 70 71 70 71 72 71 71 70 71 72 70 72 73 73 75 74 73 71 75 77 77 76 74 76 76 74 73 74
66 66 67 66 63 63 63 64 64 64 64 65 64 65 65 67 68 68 68 69 68 68 69 67 69 69 70 72 73 74 73 72 72 70 68 69 70 69 71 71 72 71 70 70 69 69 67 71 72 74 74 74 75 74 74 75 74 74 75 76 74 75 74
65 67 67 68 64 63 63 63 63 66 65 66 66 68 66 67 68 69 68 68 68 67 66 65 64 65 68 69 70 70 71 71 71 71 70 69 70 70 69 68 68 69 69 69 71 71 73 73 71 73 73 75 75 75 76 75 74 76 76 75 74 74 75
66 66 67 69 65 64 61 62 63 64 65 66 67 66 67 68 66 65 68 69 69 68 68 66 63 64 65 66 68 68 70 71 72 72 70 71 70 68 68 68 68 68 67 68 68 70 71 70 70 71 71 71 71 72 72 73 72 73 75 75 74 72 70
66 67 68 70 67 65 63 63 62 64 65 66 66 66 67 68 68 68 69 69 71 70 66 65 64 65 66 66 68 69 69 69 70 69 69 68 68 69 69 69 69 68 67 68 69 70 70 70 71 72 71 70 71 70 72 74 73 73 75 76 76 74 74
64 65 66 67 67 66 68 67 63 65 65 65 65 65 66 68 70 68 69 68 69 67 69 67 67 68 68 68 67 68 68 70 69 69 68 67 66 67 67 67 68 69 69 67 69 69 69 71 70 71 71 70 71 72 72 75 76 73 73 74 76 75 72
63 64 66 67 68 67 66 69 70 70 68 66 66 66 67 68 69 72 70 71 71 71 71 70 69 69 69 68 68 67 66 67 68 67 66 65 64 64 63 64 66 67 68 66 67 69 68 69 69 70 72 71 71 73 72 76 75 73 74 74 75 75 72
64 67 68 69 69 69 69 69 70 70 69 69 68 69 70 71 72 72 71 72 73 72 73 73 72 71 70 69 68 67 67 67 66 65 64 64 63 62 62 61 62 65 65 65 64 64 68 68 69 70 74 72 73 75 73 74 73 73 74 74 75 74 73
63 67 67 67 67 68 68 69 68 70 71 69 68 69 69 68 68 69 70 72 72 72 73 73 74 75 75 74 71 69 68 67 67 65 67 67 64 61 60 60 60 62 63 63 63 62 64 69 70 72 74 71 72 73 73 73 73 73 73 73 73 73 71
63 64 66 65 67 67 66 67 66 69 69 69 71 70 69 69 69 70 71 72 73 73 73 74 74 77 77 76 74 74 71 69 67 67 67 68 68 66 62 59 59 60 62 62 64 63 61 66 69 70 74 73 73 73 73 73 74 74 73 72 72 72 72
62 64 64 64 67 66 69 70 69 69 68 68 69 70 71 71 72 72 72 73 72 72 73 75 75 76 75 75 74 74 73 71 69 68 68 70 71 71 69 64 60 59 60 62 62 63 61 60 68 70 71 73 72 72 73 75 73 75 74 73 73 72 72
64 63 64 65 66 67 68 69 70 71 71 70 71 70 70 68 71 73 73 72 72 72 73 73 73 74 74 74 73 73 73 72 71 71 72 72 72 72 71 68 63 62 62 62 63 62 61 60 62 67 69 70 71 71 72 74 74 74 75 75 73 72 72
62 62 63 63 66 68 69 69 70 70 71 71 71 71 72 73 73 73 73 71 70 70 70 73 73 73 72 74 74 73 74 73 72 73 75 75 75 76 75 73 69 66 65 65 63 62 63 61 60 63 66 67 68 69 68 67 69 70 72 72 72 72 70
63 63 63 65 67 67 68 68 70 70 70 71 70 70 71 71 71 71 73 73 72 72 72 72 73 73 72 72 74 74 74 75 75 75 75 76 76 77 77 76 75 73 71 69 67 69 69 67 64 62 63 65 67 66 64 64 64 73 75 74 72 72 70
64 65 66 66 66 65 66 67 67 68 69 69 70 71 71 71 71 72 73 73 73 72 72 72 72 73 72 73 74 74 74 74 73 73 74 75 75 75 75 75 75 74 74 73 73 72 72 69 67 64 62 63 65 66 64 62 68 71 68 69 71 72 72
64 64 64 64 65 65 65 65 66 67 67 67 68 68 69 70 71 71 71 71 72 73 75 75 74 74 73 72 73 73 73 74 73 73 73 73 73 74 74 74 74 73 74 74 72 74 72 69 69 69 66 64 65 65 64 63 66 65 66 68 69 74 73
63 64 63 64 64 65 65 65 65 66 65 66 68 68 69 70 69 70 71 71 72 74 74 74 74 73 73 72 72 73 72 72 72 72 72 73 73 73 73 73 73 73 73 72 73 72 73 72 70 70 69 67 68 67 68 70 64 64 65 65 66 67 73
63 63 63 64 64 64 64 64 64 64 65 66 65 65 66 67 67 67 68 69 71 72 71 71 71 71 70 71 72 72 72 73 72 72 73 73 73 73 73 72 72 73 72 72 73 73 73 73 72 71 73 71 71 74 72 70 64 62 63 64 64 65 69
63 64 64 63 63 63 64 64 64 65 64 62 62 63 64 64 64 64 63 64 66 67 68 68 67 67 67 68 68 70 71 71 71 72 72 72 73 72 73 74 73 73 73 74 75 75 74 74 72 74 72 72 72 72 67 65 61 61 62 61 62 63 68
64 65 62 62 63 64 63 62 63 63 63 63 63 62 61 60 60 60 60 62 63 65 65 65 65 65 66 67 68 68 68 69 69 69 70 70 71 71 72 73 73 74 75 75 74 73 74 75 74 73 71 71 71 72 71 63 56 58 59 59 61 63 71
65 62 62 63 62 62 62 62 61 61 61 62 62 61 61 61 60 61 62 62 61 62 61 62 62 63 64 65 67 67 68 68 68 68 68 68 69 69 69 70 71 72 73 73 74 73 73 72 73 73 72 70 71 70 69 63 58 55 56 57 58 66 72
61 61 60 60 61 61 62 61 61 60 59 60 60 60 61 61 61 60 60 60 61 60 61 60 60 62 63 64 63 66 66 67 67 66 66 66 66 67 67 69 70 71 72 72 72 72 72 72 73 72 71 71 69 70 65 61 57 54 54 54 56 63 71
63 64 62 60 59 58 59 60 59 58 59 58 57 58 58 58 58 57 57 57 58 59 59 59 60 60 60 61 63 62 62 64 63 64 64 64 64 65 66 67 69 70 72 72 71 71 72 73 73 72 70 70 69 67 65 63 61 54 53 53 54 64 71
60 63 64 62 62 60 59 60 59 58 56 56 56 55 55 54 55 57 57 57 56 56 57 60 61 62 60 61 63 63 62 59 62 62 62 63 63 64 64 65 68 69 70 71 72 72 71 71 73 69 69 67 65 64 62 62 61 59 52 51 52 54 68
58 58 59 59 58 60 56 54 53 51 51 54 54 51 54 54 54 55 55 52 53 53 55 56 55 57 61 64 61 59 58 58 58 60 61 61 62 63 64 64 64 67 68 70 70 69 69 69 70 70 68 68 66 64 63 62 60 60 51 50 51 52 59
57 56 57 60 57 58 58 54 55 53 51 53 52 53 54 54 55 56 55 53 49 48 52 57 58 57 56 58 60 57 56 56 57 59 61 61 62 62 63 63 64 63 63 64 68 65 64 66 67 65 67 67 66 65 63 62 62 60 55 51 50 50 52
55 55 55 56 56 54 52 53 53 54 53 52 50 51 52 53 55 55 55 55 56 55 56 53 51 56 58 59 58 57 56 59 60 60 58 59 60 59 59 60 61 62 62 64 64 62 62 65 64 63 62 64 64 63 62 62 60 62 60 54 50 50 51
56 56 56 54 53 52 52 53 53 51 51 50 52 52 53 54 55 56 55 56 56 55 56 56 56 55 53 53 54 57 57 56 52 56 60 58 59 58 59 60 61 62 63 63 64 62 63 63 63 63 60 59 58 58 62 61 59 59 59 59 53 52 51
54 54 54 54 51 54 53 53 54 53 53 54 55 55 55 54 55 55 55 55 56 56 55 55 55 55 55 54 54 54 52 55 56 55 53 50 56 60 60 58 59 60 61 61 62 61 61 64 60 60 59 58 58 58 61 63 62 60 61 58 59 54 53
54 54 53 53 54 54 53 51 52 52 52 53 53 54 57 55 55 56 56 55 56 56 56 55 55 55 55 54 54 54 52 51 48 49 52 54 52 52 57 57 59 60 59 58 58 59 60 60 58 58 59 58 59 61 60 62 63 62 61 62 60 59 55
54 53 54 54 55 54 51 50 48 50 50 52 53 52 52 55 55 56 57 57 55 56 57 57 56 55 55 54 54 53 54 54 52 49 50 51 51 53 52 51 53 57 63 59 59 56 54 56 58 57 56 58 59 60 61 61 60 58 57 57 55 55 59
56 56 56 56 55 54 53 52 51 51 52 54 54 55 54 55 55 56 56 55 54 52 56 57 57 55 55 53 52 52 51 45 41 50 45 44 48 47 46 48 48 49 51 54 55 55 58 52 54 57 58 57 57 59 58 57 56 55 55 53 53 54 55
57 57 57 56 55 55 55 53 52 53 52 52 53 54 55 55 55 56 55 55 55 55 54 51 51 53 49 48 46 41 49 46 47 45 46 48 51 48 51 50 52 54 54 53 54 53 51 55 55 55 54 53 56 57 59 58 55 52 48 54 47 52 52
57 57 57 56 56 56 55 55 55 55 54 54 55 54 54 53 53 53 50 51 52 54 55 54 53 53 51 51 48 47 46 49 47 47 49 46 48 54 52 51 49 50 54 51 53 50 47 48 53 52 53 56 55 56 54 53 51 46 43 42 42 43 43
56 57 57 57 56 56 56 56 56 55 56 55 55 53 53 54 53 54 51 54 54 53 54 56 53 52 50 51 48 44 51 49 51 52 53 51 48 52 52 51 52 44 48 52 51 47 42 41 43 46 49 54 55 52 49 47 43 41 41 42 42 41 41
56 57 55 55 57 57 56 55 55 55 55 55 55 52 53 50 51 53 50 52 54 53 54 54 51 50 50 51 52 52 53 52 51 52 53 54 51 55 51 52 55 53 46 46 47 46 43 43 42 40 42 44 50 56 54 49 43 42 41 41 41 41 40

ECMWFFLT1_sfc_dewp_102.txt.gz
Dewpoint
60 60 60 60 59 58 57 58 60 60 61 61 61 60 62 62 68 69 70 72 73 73 74 74 74 74 74 73 74 75 75 75 74 74 74 76 74 74 73 72 72 75 73 73 75 77 76 76 75 74 77 76 76 77 78 79 78 73 77 79 77 81 77
61 60 60 59 60 60 59 60 61 60 62 62 62 64 64 63 67 68 70 72 72 72 72 73 74 74 73 74 73 75 76 76 75 76 74 76 77 77 74 73 74 76 76 78 78 76 76 74 75 75 76 76 76 78 76 77 78 78 78 78 77 80 79
62 61 61 61 62 61 62 62 61 62 62 61 61 60 63 67 69 71 71 71 72 73 72 71 73 72 73 74 74 74 73 74 74 73 72 71 72 72 71 74 73 72 73 75 77 73 75 72 76 76 76 75 73 77 78 77 77 76 78 79 77 75 78
63 63 63 64 64 64 63 63 63 63 63 64 62 61 65 70 69 71 71 71 70 71 72 70 70 70 71 73 73 73 73 73 73 71 70 70 71 71 73 73 74 73 72 73 72 70 70 74 72 77 76 76 77 75 75 76 74 76 76 78 77 77 79
63 62 63 67 70 67 64 64 64 65 65 65 66 66 66 69 68 69 69 68 69 70 69 68 68 69 71 71 69 70 71 70 71 70 70 71 72 72 71 70 69 70 72 69 73 75 76 75 73 75 75 76 75 77 77 76 75 78 78 77 78 76 77
64 66 68 69 66 66 64 63 63 65 65 66 67 67 66 68 64 64 66 67 69 70 71 69 67 69 68 69 69 68 71 73 74 75 71 72 72 69 69 70 68 68 69 70 71 69 73 73 73 73 72 70 71 72 72 75 73 75 76 77 77 75 72
65 67 66 68 72 67 68 62 61 65 67 70 67 67 67 67 66 66 67 67 69 70 66 65 65 68 69 69 71 72 70 69 70 69 69 67 69 69 70 70 71 68 66 70 70 70 70 72 72 73 72 71 73 71 75 76 76 75 78 78 77 78 78
65 66 68 69 68 69 68 69 62 64 66 65 66 67 68 67 68 68 67 65 66 63 66 66 68 70 71 71 70 70 70 70 69 69 69 68 67 68 67 67 68 70 70 66 69 70 68 72 68 70 72 69 72 73 73 76 78 74 75 76 77 75 70
68 68 68 69 70 71 72 69 71 69 69 71 66 69 68 68 71 70 72 76 72 70 71 70 71 73 73 73 72 71 71 70 70 69 67 66 65 65 65 66 66 69 68 66 66 69 70 70 69 74 74 73 74 75 73 76 74 75 75 75 76 76 72
66 67 68 69 69 70 70 69 70 70 70 71 71 71 71 71 72 74 74 76 74 74 73 73 74 74 74 72 71 70 71 70 71 68 67 65 64 63 63 63 64 67 66 65 65 65 70 71 70 74 76 73 75 75 75 76 75 75 73 75 76 76 77
65 67 67 68 69 69 70 72 71 70 70 71 71 71 71 70 68 71 73 73 73 73 72 74 74 74 74 72 71 70 70 69 69 67 71 72 69 64 63 62 61 63 64 64 64 64 66 72 72 74 76 70 72 74 76 74 74 75 72 74 73 75 73
64 66 67 68 68 68 68 68 70 70 71 71 71 71 72 72 71 72 74 73 73 73 73 74 75 75 74 73 71 71 68 65 65 67 68 70 70 70 63 61 61 60 61 62 64 66 63 67 67 69 74 75 74 73 74 75 75 76 75 71 72 73 73
65 65 67 66 66 67 67 68 68 70 70 69 70 71 72 73 73 73 73 74 74 74 73 74 76 77 76 75 73 72 70 67 66 66 67 72 73 72 69 63 60 59 59 61 63 63 62 61 68 71 71 75 73 71 73 74 73 76 76 73 73 73 74
65 66 67 67 66 65 66 66 68 68 70 71 72 72 70 72 72 73 73 73 74 74 72 73 73 76 77 76 75 76 74 72 71 73 74 75 75 75 74 70 67 66 66 67 64 61 61 61 61 66 68 70 72 73 74 75 74 76 76 75 73 71 73
64 64 66 65 66 66 66 67 68 68 68 70 71 70 71 72 73 74 73 73 73 71 72 73 73 74 73 75 75 75 76 76 76 76 76 76 76 75 75 74 71 70 70 70 66 59 61 61 61 63 65 68 72 73 71 69 71 73 73 73 75 73 71
63 62 63 64 66 67 67 67 68 69 69 70 70 70 70 72 72 72 73 72 71 71 73 75 75 75 75 75 75 76 76 76 76 75 75 76 76 76 76 74 74 72 74 74 74 72 72 73 71 64 62 65 67 69 68 67 66 70 75 74 74 74 71
62 63 63 65 66 64 66 67 68 69 69 69 69 71 70 71 71 71 71 72 72 72 74 74 74 74 74 74 75 76 76 76 75 75 75 76 76 76 77 76 76 76 76 75 75 76 77 75 71 68 64 61 61 65 65 67 67 66 67 70 73 72 74
64 65 65 66 65 65 65 67 67 68 68 69 69 69 70 70 71 70 71 71 71 72 73 73 72 72 73 73 74 75 74 75 74 74 74 74 75 75 75 75 75 75 75 74 73 75 73 72 72 73 70 65 66 67 69 68 64 63 65 66 67 73 76
63 64 65 66 65 66 65 66 67 67 67 68 68 68 69 68 67 67 69 70 71 72 72 72 73 73 73 72 72 72 73 73 73 73 73 73 73 74 74 74 74 74 74 72 72 73 75 74 73 73 71 69 70 71 70 68 63 63 64 64 65 67 73
63 64 65 64 64 65 65 65 65 65 65 65 66 66 65 65 64 64 66 67 69 69 70 70 71 71 71 71 72 73 73 73 73 72 72 72 73 74 74 74 73 74 73 72 73 73 74 73 74 75 73 72 72 74 71 67 62 61 62 63 64 66 70
64 65 63 63 63 63 64 64 63 63 63 63 63 63 62 62 62 63 63 65 65 66 67 67 67 68 68 69 70 71 71 72 72 71 72 72 73 72 73 73 73 73 74 74 74 74 74 75 75 74 72 72 74 74 71 63 58 59 60 61 62 65 72
65 63 62 63 63 63 63 63 63 63 63 63 63 62 61 61 61 61 62 63 64 64 64 64 65 66 68 68 68 69 69 69 69 69 70 71 71 71 72 72 72 72 73 73 74 74 75 75 74 73 72 72 73 72 72 65 56 57 58 59 61 64 73
65 64 64 62 62 61 62 62 62 62 62 62 62 62 62 63 62 62 62 62 62 63 63 63 64 64 65 66 67 68 69 69 69 69 69 69 68 68 69 70 70 71 72 71 72 73 73 74 72 73 72 72 72 72 68 63 57 55 55 56 59 68 73
61 62 63 63 63 62 62 61 61 61 61 62 60 61 61 61 61 59 59 58 59 60 62 62 62 63 64 64 65 67 68 69 69 68 69 68 68 68 69 70 71 71 71 70 70 71 72 73 72 73 72 71 71 70 66 63 58 53 53 54 56 65 72
61 62 63 64 64 63 64 63 62 60 59 59 60 58 58 58 58 57 56 58 58 58 59 60 61 62 63 63 64 65 67 68 67 68 68 67 67 68 68 69 70 71 72 71 71 71 72 73 71 72 71 71 70 68 66 64 61 54 53 52 53 63 71
61 62 62 61 61 61 62 64 62 58 55 55 55 53 54 56 57 58 58 57 56 57 58 59 60 61 62 63 63 65 65 63 65 65 65 65 66 68 68 69 70 71 71 70 71 70 70 71 71 71 71 71 69 67 64 62 60 57 52 51 52 55 69
59 58 59 59 60 62 61 59 58 54 51 53 54 54 54 54 53 53 55 55 54 52 53 57 59 61 62 61 60 59 59 60 62 62 63 64 65 65 67 69 69 69 68 67 66 67 68 68 71 70 69 68 68 67 66 63 59 58 51 50 51 52 61
58 56 56 59 60 57 53 51 52 50 51 53 52 51 53 55 56 56 53 51 54 56 56 57 57 56 56 57 56 56 60 60 63 62 62 64 64 66 66 65 65 66 63 62 63 64 66 68 70 70 68 68 67 65 63 63 61 58 54 51 50 51 54
56 56 56 56 55 54 53 52 51 50 51 50 51 52 53 55 57 57 57 56 55 52 53 54 57 59 59 58 56 59 61 62 61 62 63 65 64 63 63 64 62 64 66 66 63 63 65 67 69 70 69 65 63 61 61 61 60 60 59 54 51 51 52
56 56 55 53 52 52 53 52 52 50 50 50 52 53 55 56 56 57 56 57 59 57 56 55 54 57 54 57 59 58 56 53 53 58 60 58 62 63 62 62 63 64 65 66 65 66 65 66 68 69 67 64 62 60 60 60 60 61 61 59 54 53 52
55 55 53 52 51 54 53 52 52 51 52 52 53 54 56 56 55 56 56 57 58 59 59 58 58 58 55 54 52 52 53 56 57 55 59 56 56 59 59 56 58 60 60 61 64 64 63 65 65 66 64 63 62 61 62 61 62 61 62 60 58 55 54
56 56 54 53 53 53 52 51 52 53 52 53 53 54 56 55 55 55 56 55 57 57 57 57 58 58 59 58 57 57 53 52 47 50 54 54 55 57 60 56 58 59 61 60 59 60 62 64 63 62 61 62 62 64 65 66 64 64 62 62 60 60 58
56 58 56 54 54 54 51 51 50 50 50 51 53 54 54 55 55 57 57 57 55 57 58 57 57 57 58 57 57 57 57 55 54 54 54 56 53 53 54 54 57 55 60 60 62 61 62 61 62 64 65 63 62 62 64 59 58 59 55 55 54 54 57
57 56 57 57 57 58 54 53 52 53 53 55 54 54 53 54 54 56 56 55 54 54 57 58 57 56 55 53 54 54 50 45 47 54 47 44 49 48 48 50 51 52 55 54 53 54 58 60 64 63 62 62 63 64 60 56 55 53 53 51 52 53 54
56 57 57 54 54 56 55 53 53 54 53 54 55 56 56 57 57 58 57 55 55 55 53 53 53 54 49 48 43 38 55 47 47 46 49 55 54 52 51 49 49 54 53 51 52 51 51 55 57 57 56 57 58 58 58 55 52 51 47 53 47 52 51
57 57 56 54 55 55 55 55 55 54 54 55 56 56 56 56 54 53 50 51 52 54 54 54 54 53 52 51 47 47 49 51 49 49 51 49 51 53 51 53 49 52 55 53 54 51 48 49 51 52 55 60 56 55 58 57 52 47 43 42 42 42 43
56 57 57 55 55 56 55 55 56 56 56 56 55 54 53 54 53 54 51 53 54 53 56 56 56 53 48 51 47 48 54 52 52 56 56 56 54 55 54 52 53 44 47 53 52 46 41 42 43 46 49 58 52 50 48 47 44 42 42 42 42 41 41
57 56 56 56 57 58 57 56 56 56 57 56 55 53 54 52 53 55 51 53 54 54 55 55 55 58 53 51 51 54 54 55 54 55 57 57 55 59 56 55 57 54 46 44 47 45 42 40 39 39 42 44 51 56 50 47 42 41 41 41 41 41 40

ECMWFFLT1_sfc_dewp_105.txt.gz
Dewpoint
62 60 59 58 58 57 58 58 59 59 59 61 61 60 63 66 68 70 70 71 71 72 72 72 72 72 73 74 75 75 75 75 75 74 75 75 75 74 75 74 75 74 75 73 74 73 75 78 75 76 76 77 77 77 77 77 77 78 77 78 77 79 77
62 61 60 59 59 58 58 58 60 60 60 62 61 61 63 66 68 69 70 71 71 72 72 72 72 72 73 73 75 74 74 74 75 75 74 75 76 75 74 73 74 74 75 76 75 74 75 74 76 75 76 77 76 77 77 78 77 76 76 77 75 77 77
62 62 60 60 60 58 58 59 60 61 60 62 61 61 66 68 69 70 70 71 71 72 72 72 73 72 72 72 74 74 74 74 75 75 74 73 74 74 73 73 73 74 74 75 74 75 76 75 75 74 76 76 76 76 77 76 76 76 78 76 77 77 76
62 62 62 61 60 60 59 60 60 62 62 61 62 62 66 68 69 70 71 71 71 72 72 72 72 72 72 73 73 74 74 75 74 74 73 73 73 72 72 73 73 74 73 72 74 73 73 74 75 75 78 76 76 76 76 76 75 76 77 77 77 77 77
62 63 63 63 63 61 60 61 61 63 62 61 63 63 67 67 69 71 70 71 71 71 71 72 71 72 72 73 72 73 73 74 73 73 72 71 73 72 72 72 71 71 73 72 72 74 75 74 74 75 76 75 76 76 76 76 75 75 77 77 75 75 77
62 63 64 63 68 69 65 62 62 62 62 62 63 64 67 67 70 70 70 71 71 71 72 71 70 71 71 72 71 71 72 73 73 72 72 72 72 71 71 72 71 70 72 71 72 73 73 72 73 73 74 74 74 75 75 76 75 76 76 77 74 74 76
63 64 66 66 67 68 68 66 69 68 66 65 66 68 67 68 69 69 70 71 71 71 70 70 69 70 71 71 71 72 71 71 72 71 71 71 71 70 70 71 72 69 70 72 72 70 71 72 72 72 73 72 73 73 74 75 74 75 76 75 75 75 76
63 66 67 67 68 67 68 70 70 69 68 68 68 69 70 67 68 68 69 70 70 70 70 69 69 71 71 71 71 71 71 70 71 70 71 70 70 70 70 70 70 70 70 70 71 70 71 73 70 71 73 71 73 72 73 74 75 75 76 75 75 76 75
66 66 67 67 68 67 68 68 68 70 69 69 69 69 69 70 72 72 69 69 69 70 69 69 69 70 70 71 70 71 70 70 71 70 69 69 69 69 69 69 69 69 69 69 69 70 70 71 70 70 71 70 72 73 72 74 74 75 75 75 75 75 74
66 66 67 68 68 68 69 69 69 69 69 69 69 68 70 71 71 72 72 70 71 70 69 68 70 69 69 71 70 70 71 70 71 69 69 68 67 67 66 66 67 69 68 67 66 68 70 69 69 71 72 71 73 73 72 73 73 75 74 74 75 75 75
66 66 67 67 67 68 69 68 68 68 68 67 69 69 69 69 70 71 73 73 71 72 73 74 72 69 70 71 69 69 70 70 70 69 69 69 68 65 65 64 65 67 66 66 66 65 68 70 70 72 74 71 73 73 74 74 74 75 74 74 75 75 75
66 66 67 67 68 68 68 68 68 69 69 69 69 68 68 68 69 71 73 73 72 71 72 73 74 72 70 70 69 69 70 69 69 69 69 69 70 70 66 63 63 64 66 65 65 66 66 68 67 68 74 72 72 73 74 75 75 75 74 73 73 74 74
65 67 67 68 68 68 68 68 68 69 69 70 71 71 70 69 69 71 73 73 73 73 72 73 76 76 71 70 69 69 68 68 67 68 69 70 70 70 68 67 67 66 64 65 64 64 64 68 68 68 72 72 73 73 74 74 73 74 75 74 73 73 73
65 66 66 67 67 68 67 68 69 69 69 68 69 70 71 71 71 72 73 73 74 74 72 74 74 74 75 71 70 70 69 68 67 68 68 70 71 71 70 71 71 71 71 71 69 63 63 63 67 68 70 73 73 73 73 74 74 74 75 75 73 73 74
65 65 65 65 66 67 67 67 68 68 68 67 68 70 72 72 73 73 73 74 74 73 73 73 72 73 73 74 72 72 73 72 72 72 72 74 72 72 72 71 72 72 73 75 74 73 72 70 65 66 68 72 72 73 72 72 72 72 73 73 74 73 72
64 65 65 66 66 67 67 67 67 67 69 70 70 71 71 72 72 72 72 71 71 71 72 75 73 73 73 72 71 70 71 71 70 71 72 74 74 73 73 73 74 75 76 75 75 75 75 74 72 68 67 67 70 72 70 68 70 73 71 71 74 73 72
65 64 65 65 66 67 67 68 68 68 68 69 69 69 70 71 70 70 70 71 71 72 73 73 71 72 72 71 70 71 72 70 71 70 69 70 70 74 76 76 75 75 74 74 75 75 74 73 73 70 68 68 68 68 69 68 67 66 66 67 71 75 73
65 65 66 66 66 67 67 67 67 67 67 68 68 69 69 68 69 69 70 71 71 71 72 72 72 71 71 71 70 71 70 70 71 71 70 72 71 72 73 75 75 74 74 74 74 74 73 73 73 70 69 69 68 68 68 66 64 63 64 66 67 72 76
64 64 65 65 66 66 67 66 67 67 67 67 66 65 66 66 66 67 69 70 70 70 70 71 71 71 70 71 72 71 70 71 71 71 71 72 73 72 73 74 74 74 73 73 72 75 74 73 73 70 70 71 70 69 67 65 62 63 63 64 65 68 75
65 65 66 66 66 66 66 67 67 67 66 65 65 65 65 65 65 66 66 67 67 68 68 68 68 69 70 70 71 71 71 72 71 71 71 72 72 73 73 72 72 73 73 73 73 72 73 74 74 73 72 72 72 70 67 64 61 61 62 62 63 65 71
64 65 65 64 64 64 63 63 63 63 62 62 62 62 62 62 63 64 65 65 65 65 66 66 67 68 68 68 69 69 70 70 71 70 70 71 71 72 72 72 72 71 72 72 72 72 72 73 74 73 73 73 72 68 63 60 59 59 60 61 62 63 72
64 65 64 65 64 64 63 62 62 62 62 63 63 62 62 62 62 62 63 64 64 64 64 65 65 66 67 67 68 68 68 69 69 68 69 69 70 70 70 70 70 70 71 71 72 71 72 74 73 72 71 72 72 68 63 61 56 57 58 59 60 64 74
65 64 64 64 64 64 64 63 62 62 62 62 62 62 62 62 62 62 62 62 63 63 63 63 63 63 64 65 66 68 68 69 69 68 68 68 68 68 69 69 69 70 70 69 70 71 72 72 72 72 71 72 71 66 63 61 57 55 55 56 58 67 74
65 64 64 63 63 62 62 61 62 62 62 62 61 61 61 60 60 60 60 60 60 60 61 61 62 63 63 63 64 65 66 68 68 68 68 67 68 68 69 69 69 70 69 69 69 69 70 71 72 72 71 71 68 63 61 60 58 54 53 54 56 65 71
64 65 64 62 61 61 61 61 61 60 60 60 61 61 61 60 60 59 59 59 59 59 59 60 61 61 61 61 62 62 64 66 67 68 67 67 67 68 68 68 69 70 70 70 70 69 69 71 71 71 70 70 67 66 61 61 59 54 53 53 55 65 70
62 63 62 61 60 60 61 62 60 59 58 58 59 58 57 58 58 59 58 59 58 57 59 60 61 60 59 60 60 61 62 62 63 64 65 66 67 68 68 69 69 70 69 68 67 67 68 69 68 69 70 68 65 62 61 60 59 58 52 53 55 61 69
62 60 59 60 61 60 54 53 54 54 55 56 56 57 59 58 58 58 56 55 55 57 58 60 60 59 58 58 58 59 59 61 63 63 63 64 65 67 66 68 68 68 66 65 65 67 68 67 66 65 65 66 65 63 61 60 59 59 52 52 52 55 59
58 58 59 61 62 56 53 53 54 53 52 53 53 53 52 54 56 57 56 54 54 55 57 59 59 58 57 56 57 59 61 62 62 63 64 65 64 65 65 64 65 66 63 64 65 66 67 67 67 65 65 65 65 64 63 62 60 61 56 52 51 52 55
56 57 56 55 53 53 52 51 52 52 51 52 54 55 56 56 56 57 56 54 55 55 58 58 58 57 57 59 60 61 61 60 59 60 60 64 65 64 63 64 64 63 66 64 63 64 66 67 66 65 64 64 64 64 63 63 63 61 62 56 52 52 53
56 55 54 52 52 53 54 53 52 51 52 54 56 57 57 57 57 58 58 57 56 55 56 54 55 58 60 60 61 60 58 56 57 60 58 58 61 62 60 61 61 61 60 62 64 65 65 65 67 66 65 63 62 60 62 62 60 61 62 60 55 54 53
55 55 53 52 52 55 53 52 51 52 53 54 56 56 57 57 57 58 57 57 60 60 60 60 61 59 57 55 57 60 60 57 58 59 55 53 56 55 57 54 56 56 59 61 59 60 61 63 65 65 64 62 59 58 60 61 64 61 60 60 60 56 54
56 55 54 54 54 54 53 53 53 52 52 53 55 57 58 57 57 56 56 58 60 58 59 59 60 59 58 58 58 59 59 59 57 59 59 61 60 60 58 58 59 58 59 59 60 61 63 63 62 61 62 63 62 63 62 60 59 57 56 57 57 56 56
58 54 54 53 53 54 53 51 51 53 54 54 54 55 57 57 58 58 59 58 59 60 59 59 59 57 56 56 58 56 56 54 59 55 57 57 57 58 58 58 57 57 57 55 54 57 61 61 61 62 62 62 62 60 60 56 55 55 55 52 52 52 53
57 57 55 55 56 56 54 53 54 56 56 56 56 55 56 57 56 58 58 57 56 56 59 58 56 56 56 56 56 58 56 55 56 55 51 51 48 48 50 53 52 49 51 50 50 52 56 57 58 59 59 60 61 59 57 56 54 51 49 49 49 49 49
58 56 57 56 55 55 54 55 56 56 56 55 56 57 57 57 59 57 56 57 58 58 57 55 54 56 56 55 51 49 53 53 52 53 52 47 47 49 51 53 55 49 51 53 55 53 52 53 55 57 57 56 58 59 57 56 54 51 48 54 48 49 47
56 57 56 56 56 55 56 57 56 57 57 57 58 58 58 58 57 57 54 56 57 57 56 57 59 56 50 49 49 54 55 55 54 55 56 51 47 49 50 52 48 51 52 51 53 50 48 50 52 56 56 53 53 56 57 56 54 47 43 42 42 42 43
58 58 57 57 56 56 56 56 57 57 57 56 57 57 57 56 55 56 55 57 56 57 57 57 59 58 51 52 52 55 57 56 55 55 55 55 56 55 52 49 49 44 48 53 52 46 41 41 43 48 53 56 51 51 49 49 45 43 43 42 42 41 40
58 58 57 58 57 57 57 57 57 56 57 56 56 55 55 54 56 57 54 57 57 58 56 57 56 60 53 53 53 53 56 53 52 58 57 54 57 57 57 56 52 50 45 44 46 43 41 39 39 41 46 49 51 53 50 47 42 41 41 41 41 40 40

ECMWFFLT1_sfc_dewp_108.txt.gz
Dewpoint
60 61 60 56 55 55 54 56 60 60 61 62 62 63 67 67 68 69 69 70 71 71 72 73 73 74 74 73 75 74 73 74 74 73 74 74 75 75 74 74 74 74 74 72 72 72 73 77 75 75 76 76 76 77 77 76 76 77 77 76 77 78 76
60 60 61 58 57 56 54 55 59 59 60 61 62 64 68 68 68 69 69 70 71 71 72 72 73 73 74 74 75 74 74 75 75 75 75 75 76 75 74 73 74 74 75 73 72 73 74 75 75 75 75 76 76 76 76 76 75 75 75 76 74 74 76
60 60 61 60 57 57 56 56 58 59 59 61 62 65 67 68 69 69 70 69 71 71 71 72 72 72 73 74 74 74 74 74 74 74 74 74 75 74 74 73 74 74 74 74 74 74 75 73 75 75 75 76 75 76 76 76 76 75 76 75 75 75 74
60 61 61 61 59 58 58 58 58 59 60 61 61 66 67 69 69 70 70 69 71 72 71 71 72 71 73 74 74 74 73 74 74 73 73 73 74 75 74 73 74 74 74 74 74 74 74 73 74 74 78 75 75 76 76 76 75 75 76 75 75 75 75
60 61 61 61 60 59 59 59 59 59 60 62 62 67 67 69 69 70 70 70 71 72 71 71 71 71 72 74 73 73 73 73 73 73 73 73 73 73 73 73 73 73 73 72 74 74 74 74 74 74 75 75 75 75 76 76 75 75 75 75 75 75 75
61 61 62 63 64 64 61 59 60 60 61 62 63 66 68 69 70 70 70 70 70 72 72 71 71 72 72 73 73 73 73 74 73 74 74 73 73 72 72 72 72 73 72 71 73 73 73 73 74 74 74 75 75 75 75 75 75 74 75 75 75 74 76
61 62 64 65 66 66 65 65 64 62 62 62 64 67 68 69 69 70 71 71 71 72 72 71 71 72 71 72 72 73 73 74 73 73 73 72 72 72 72 72 72 72 72 72 71 72 73 72 73 73 73 74 74 74 74 75 74 75 75 75 74 74 75
62 65 64 64 65 67 67 67 66 66 66 65 66 67 68 69 69 70 71 71 71 71 72 71 71 72 71 72 72 72 72 73 73 72 72 72 71 71 71 71 72 71 72 71 71 71 71 71 72 72 73 73 73 73 74 74 74 75 75 74 74 74 75
66 66 65 64 65 67 68 67 66 66 66 66 66 67 68 69 69 70 71 71 71 71 71 71 71 72 72 72 72 71 72 72 73 72 71 71 70 70 70 70 70 71 70 71 70 71 70 71 70 72 72 72 72 72 73 74 74 74 75 74 74 74 74
65 65 66 67 65 67 67 67 68 68 68 67 67 67 68 69 70 70 71 71 71 71 71 71 71 71 72 72 71 71 71 71 72 71 71 70 70 70 69 69 69 70 69 69 70 70 71 71 71 71 71 71 72 72 72 73 73 74 74 74 74 74 74
65 66 66 66 66 67 67 67 67 67 67 67 67 68 68 69 70 70 70 71 71 71 71 71 71 71 71 71 71 71 71 71 71 71 70 70 69 69 69 68 68 68 68 68 68 69 70 71 71 71 71 71 71 72 72 72 73 73 74 74 74 74 74
66 66 66 66 66 66 66 67 67 67 67 67 68 68 69 69 70 70 70 70 70 70 71 71 70 70 70 71 70 70 70 70 70 70 70 70 69 68 68 67 67 67 68 68 67 68 68 69 70 70 71 71 71 71 72 72 72 73 74 73 73 73 74
66 66 66 66 66 67 67 66 67 67 68 68 68 68 69 69 70 70 70 70 70 70 71 71 70 70 70 70 70 70 70 70 70 70 69 70 70 70 69 67 65 64 65 66 66 66 66 68 69 70 70 71 71 72 72 72 72 73 74 74 73 73 74
66 66 66 67 67 66 66 66 67 68 68 68 69 69 69 70 71 71 71 71 71 71 71 70 70 69 70 70 69 69 69 69 69 70 70 70 70 70 70 69 69 70 71 73 72 68 65 66 68 68 69 71 71 71 72 73 73 74 74 74 73 73 73
65 66 66 67 66 66 66 67 67 67 68 68 69 68 68 68 68 68 69 70 70 71 70 71 71 71 70 70 70 70 70 70 71 71 72 72 70 70 70 70 71 72 74 74 73 73 73 71 66 67 68 70 71 71 72 73 74 74 73 73 73 73 73
64 65 66 66 66 66 67 67 67 67 68 68 68 67 68 68 69 69 69 70 70 70 70 71 71 71 70 69 69 70 70 70 70 70 70 71 71 72 72 69 73 74 74 74 74 74 74 72 71 67 67 69 72 71 70 70 72 73 72 73 73 72 73
64 64 65 66 66 66 67 67 68 68 67 67 67 67 67 68 68 69 69 70 70 70 71 71 70 69 69 69 70 70 70 70 70 70 70 70 70 70 72 73 74 74 73 74 74 73 73 72 69 68 68 68 70 69 69 69 68 69 66 68 71 74 73
64 64 65 66 66 67 67 67 67 67 67 67 68 68 68 68 68 69 69 70 70 70 70 69 69 69 69 69 70 70 69 69 70 69 69 70 70 70 71 72 73 73 73 73 73 72 72 72 70 69 69 68 69 68 68 67 66 63 65 66 67 72 74
65 65 65 66 66 66 66 66 66 66 67 67 67 67 68 68 68 68 69 69 70 70 70 70 70 69 69 70 70 70 69 68 70 69 69 70 71 70 70 71 72 72 72 71 72 74 71 71 70 69 70 69 68 68 67 65 63 62 64 65 65 67 76
65 65 66 66 66 66 66 66 66 66 66 65 66 67 67 67 67 67 68 69 69 69 69 69 69 70 70 70 71 71 70 69 69 69 69 70 71 72 71 72 72 72 72 72 72 71 72 72 71 70 70 71 69 68 66 64 62 61 61 62 64 66 71
64 64 64 64 64 63 63 63 63 63 64 64 65 65 65 65 66 66 67 67 67 68 68 68 68 68 68 69 69 69 69 70 70 70 70 70 70 70 70 70 70 71 71 71 71 70 71 72 72 71 72 71 69 66 63 61 59 59 60 60 61 64 73
63 63 63 64 63 63 63 64 63 63 63 64 63 64 64 64 65 65 65 66 66 66 66 67 66 66 67 67 68 68 68 69 68 68 68 69 69 69 69 69 69 69 71 70 70 70 70 71 71 71 70 71 68 66 64 64 57 57 58 58 59 62 73
63 63 63 64 64 64 64 64 63 63 62 61 61 61 61 62 63 63 63 63 63 63 63 63 63 64 65 65 66 67 68 68 68 68 68 68 68 68 68 68 68 69 70 68 68 68 69 70 72 72 71 71 69 65 63 63 58 55 55 56 57 63 74
63 63 63 63 63 64 63 63 62 61 60 59 59 60 60 60 60 60 60 60 61 61 61 61 61 62 63 63 64 66 67 67 67 67 68 67 67 68 68 69 69 69 69 67 68 68 68 69 71 71 70 70 67 64 62 61 58 54 54 55 56 62 70
63 62 62 63 62 62 62 62 60 60 59 58 58 59 60 60 60 59 59 59 59 59 59 59 59 60 61 61 62 63 64 65 66 66 67 67 67 67 67 68 69 70 69 69 69 68 68 70 70 70 69 70 67 66 62 61 61 55 54 54 56 65 69
62 62 62 62 62 62 62 62 60 58 57 57 57 59 60 59 59 59 58 58 59 58 58 58 59 59 59 60 61 62 63 63 65 65 65 65 66 67 67 68 68 67 67 66 67 67 67 68 69 69 68 65 63 62 61 60 60 58 54 54 55 59 68
61 61 59 58 58 59 57 57 57 57 57 58 58 57 56 57 58 59 59 58 57 58 58 58 58 58 58 59 60 60 61 62 63 63 64 64 65 66 67 68 66 66 66 66 67 67 66 65 65 64 63 63 62 62 61 61 60 59 53 53 53 55 61
60 59 57 57 58 57 54 53 54 54 54 54 54 55 55 55 55 55 55 55 56 58 59 59 58 57 57 58 59 60 60 60 61 61 63 65 64 64 64 65 66 65 64 65 67 66 65 64 65 63 63 63 63 62 63 64 62 61 55 53 52 52 54
58 58 55 53 53 55 53 52 52 52 53 53 52 53 54 56 57 58 57 56 57 58 57 57 56 57 59 61 61 61 59 58 58 59 61 63 63 62 61 62 62 62 64 65 65 66 64 63 63 61 60 61 61 62 63 63 64 61 60 55 52 52 53
59 58 54 51 52 54 55 53 54 55 56 57 57 57 58 57 56 55 53 53 55 57 60 59 58 58 59 59 59 58 58 56 58 56 55 56 58 59 57 59 60 61 62 62 63 65 63 62 62 62 61 60 61 61 61 62 63 61 59 59 54 53 52
55 54 51 52 53 54 53 53 54 55 56 56 57 57 57 57 58 58 57 58 60 59 58 58 60 59 58 58 59 60 60 58 57 55 54 55 57 56 56 57 59 59 60 63 62 62 63 64 62 59 59 59 57 58 60 59 60 59 60 58 58 54 53
54 54 53 53 52 53 53 53 54 54 55 55 56 57 58 56 56 56 55 58 59 57 58 58 59 58 57 58 58 57 59 58 57 58 58 60 59 59 58 59 60 58 57 59 61 62 62 64 63 61 59 59 60 60 57 58 58 56 55 56 55 54 55
54 53 52 52 54 54 52 52 53 54 55 55 55 56 56 56 56 56 57 57 58 58 58 59 58 59 57 54 57 56 56 57 57 56 55 52 53 54 56 55 53 53 55 56 57 59 61 62 62 63 63 61 59 58 58 55 54 55 56 52 53 52 52
53 53 53 54 54 53 53 53 53 54 55 55 54 56 56 56 56 57 56 56 56 56 58 56 54 56 55 55 55 58 56 58 61 54 49 51 52 52 51 50 49 48 52 52 53 55 56 58 60 60 60 59 58 58 57 56 54 52 51 50 51 49 49
53 54 55 53 53 54 54 55 56 56 55 54 54 54 55 56 56 56 55 56 56 57 58 58 59 59 52 51 54 56 57 55 52 48 46 47 49 50 51 53 54 50 51 54 54 55 55 56 58 58 57 59 59 57 56 56 55 54 49 53 47 48 47
55 54 54 54 55 55 56 56 55 55 55 54 55 56 56 56 55 55 56 56 56 56 58 59 55 50 50 52 54 56 56 57 54 50 49 47 48 48 50 52 48 50 49 49 52 49 45 48 55 57 55 54 54 55 57 56 55 51 44 42 41 41 42
54 54 54 55 55 55 55 55 56 56 56 55 56 56 56 54 54 54 55 55 56 57 55 57 58 53 52 54 54 55 57 55 54 53 52 50 49 48 50 47 49 44 44 49 52 44 40 40 42 48 53 56 51 52 49 48 44 42 41 40 40 40 40
55 54 54 55 54 55 56 56 56 55 56 54 55 55 54 54 54 54 55 56 56 56 54 55 56 56 51 53 54 57 57 53 57 57 54 54 53 51 51 49 48 48 46 43 44 44 40 39 39 39 42 46 50 54 51 48 43 41 41 40 40 40 39

ECMWFFLT1_sfc_dewp_111.txt.gz
Dewpoint
61 57 52 54 57 59 60 61 61 62 62 63 63 64 65 67 68 68 69 70 70 71 72 73 73 73 73 73 73 73 72 73 73 72 73 72 73 72 72 73 72 73 73 73 73 73 73 75 74 74 74 75 75 74 75 76 76 77 76 76 76 76 75
61 60 54 54 56 58 60 61 61 62 62 63 63 64 65 66 68 68 69 70 70 70 72 73 73 73 73 73 73 73 72 73 74 74 73 73 75 74 73 73 73 73 73 73 73 73 73 74 75 74 74 75 75 75 76 75 75 74 75 75 74 73 75
60 61 58 55 55 57 59 61 62 62 62 63 63 64 65 66 67 68 69 70 70 70 72 72 73 73 73 73 73 73 72 73 74 74 73 73 74 74 74 74 74 73 74 73 72 72 74 73 75 74 74 75 75 75 75 75 75 75 74 74 74 73 73
60 60 61 57 55 56 57 60 62 62 63 63 63 64 65 66 67 68 69 70 70 70 71 72 72 73 73 73 73 73 73 73 74 73 73 73 74 74 74 73 74 74 74 74 73 73 73 73 73 74 77 74 75 75 75 75 75 74 74 74 73 74 73
60 60 61 60 57 56 56 58 61 62 63 63 63 64 65 67 68 68 69 69 70 70 71 71 72 72 73 73 73 74 73 73 74 73 73 73 74 74 74 73 73 74 74 74 74 74 74 74 73 74 74 75 74 74 75 75 75 75 74 74 73 74 74
60 60 60 61 59 57 56 56 59 61 62 63 63 64 66 67 68 68 69 69 70 70 71 71 72 72 73 73 73 73 73 73 74 74 73 73 73 73 73 73 73 73 73 73 74 74 73 74 73 73 73 74 75 75 75 75 75 75 74 74 74 74 74
61 60 61 62 61 59 57 56 58 60 61 62 63 65 67 68 68 68 69 69 70 70 70 71 71 72 72 73 73 73 73 73 73 73 73 73 73 73 73 73 74 73 73 73 72 73 73 73 73 73 73 73 74 74 74 75 75 75 74 73 74 74 73
62 62 63 63 63 60 59 57 57 59 61 62 62 65 67 68 68 68 69 69 70 70 71 70 71 71 72 73 73 73 73 73 73 73 73 73 72 72 72 72 72 72 73 72 72 72 72 72 72 73 73 73 73 74 74 74 74 74 74 74 74 74 74
64 63 64 65 65 66 66 67 67 63 61 61 62 65 66 68 68 69 69 69 70 71 71 71 71 71 71 72 73 73 73 73 73 73 73 72 72 72 71 71 72 72 71 72 71 72 71 71 72 72 73 73 73 73 73 73 74 74 74 74 73 73 73
65 65 65 65 66 66 66 67 68 67 67 66 64 65 66 68 68 69 69 70 70 70 71 71 71 72 71 72 72 72 73 72 73 73 72 72 72 71 71 71 71 72 71 71 71 71 71 71 71 71 72 72 73 72 72 73 73 74 74 74 74 73 73
65 66 65 65 66 66 66 66 66 67 67 67 67 67 67 68 69 69 70 70 70 71 71 71 71 72 71 71 71 71 72 72 72 72 72 72 71 71 71 70 70 70 70 70 70 70 70 71 71 71 71 71 71 72 72 72 72 73 73 74 74 74 73
65 65 65 65 65 65 65 65 66 66 67 67 68 68 68 68 68 69 70 70 70 71 71 72 72 72 71 71 71 71 71 71 71 72 72 72 71 71 70 70 69 69 69 69 69 69 70 70 70 71 70 70 70 71 71 72 72 72 73 73 73 73 73
65 65 65 65 65 65 65 65 65 66 67 67 67 68 68 68 68 68 69 69 69 70 71 71 71 71 71 71 71 71 71 71 71 71 71 72 71 71 70 70 69 68 68 69 68 68 68 69 70 71 70 70 70 70 71 71 72 72 72 72 73 73 73
66 65 65 65 65 65 65 65 65 66 67 68 68 68 69 69 69 69 70 70 70 71 71 70 70 70 70 70 71 70 71 71 71 71 71 71 71 70 70 69 68 68 67 68 67 67 67 67 68 69 70 70 70 70 71 71 71 72 72 72 72 73 73
64 64 65 65 65 65 65 66 66 66 67 68 68 68 69 69 70 70 70 70 70 71 71 70 70 70 69 69 69 68 69 69 70 70 70 71 70 70 70 69 69 69 71 72 70 70 68 66 66 68 69 69 70 70 71 71 71 72 72 72 73 73 73
65 65 65 65 65 65 65 66 66 67 67 67 67 68 68 69 69 69 69 69 70 70 71 71 70 69 68 68 68 68 69 69 70 69 70 70 70 70 70 69 70 71 73 72 73 73 73 71 70 67 67 68 69 70 71 71 72 74 75 75 73 73 73
65 65 66 66 66 66 66 66 67 67 67 67 67 67 68 68 69 69 69 69 69 70 70 70 70 69 69 68 69 70 70 70 69 70 69 69 69 69 71 71 70 72 72 72 73 72 72 69 68 68 67 66 67 70 71 71 72 73 70 71 74 74 72
64 65 66 66 66 67 67 67 67 67 67 66 67 67 67 68 68 69 69 69 69 70 70 70 70 69 69 69 70 69 69 69 69 69 69 70 70 69 69 71 71 71 71 72 72 71 72 70 68 69 69 69 69 70 70 70 66 64 65 66 67 71 73
65 65 66 66 67 67 67 66 66 66 66 67 67 67 68 68 68 68 68 68 69 70 69 69 69 69 68 68 69 69 69 69 69 69 69 69 70 70 70 70 71 70 70 71 72 71 70 70 69 69 70 69 68 68 68 66 64 62 63 64 64 66 71
65 64 64 64 65 65 65 65 65 65 66 66 67 68 68 69 68 69 69 69 69 68 68 68 68 69 69 69 70 69 69 69 69 69 69 69 69 70 70 70 71 71 71 71 70 70 71 71 70 70 69 69 68 67 66 65 63 61 61 62 63 65 68
63 63 63 63 62 63 63 63 63 64 64 65 66 66 67 67 68 68 68 68 68 68 68 68 68 68 69 68 68 68 69 70 69 69 69 69 69 69 69 69 69 70 70 70 70 70 70 71 70 70 71 69 67 66 64 63 59 59 60 59 61 63 70
63 63 62 62 62 63 63 63 63 63 63 64 64 65 66 66 66 66 66 66 67 67 67 67 67 67 67 67 68 68 68 68 68 68 68 68 68 68 68 67 68 69 69 69 69 70 70 71 71 71 70 69 67 66 64 64 58 58 58 58 59 63 69
63 63 63 63 63 62 62 62 62 62 62 62 63 63 64 64 64 64 64 63 64 64 64 64 64 64 65 66 67 67 67 68 68 68 67 67 67 67 67 67 67 68 69 67 67 68 68 69 70 70 70 70 68 65 64 63 59 56 56 56 57 62 68
63 62 62 62 62 62 61 61 62 62 61 61 61 61 62 63 63 63 62 62 62 62 61 62 62 63 64 64 65 65 66 66 67 67 67 67 67 67 68 68 68 68 69 67 67 67 68 70 70 71 70 71 68 66 63 62 61 55 54 55 56 61 65
62 62 62 62 61 61 61 61 61 61 61 60 60 60 61 61 61 61 60 60 60 60 60 61 61 62 62 62 63 64 64 65 65 65 66 66 66 67 67 68 68 68 68 68 68 68 68 69 69 69 69 69 67 67 62 61 61 55 54 54 55 61 64
61 61 61 61 61 61 60 61 60 59 59 59 59 59 59 59 60 60 59 59 59 59 59 59 59 60 61 61 62 63 64 64 65 65 65 65 66 68 67 67 66 66 67 67 67 67 67 68 68 64 62 63 62 61 61 61 60 58 53 53 54 56 63
62 61 60 60 59 60 58 58 59 58 58 58 58 58 59 59 59 59 59 58 57 57 57 58 58 59 59 60 59 59 60 61 63 64 64 65 66 66 66 66 66 65 66 66 66 66 65 64 63 63 62 62 63 63 63 61 60 58 53 52 52 53 60
60 60 60 60 59 57 56 56 55 55 55 56 56 57 56 56 56 56 55 56 56 56 57 57 58 58 59 58 58 56 57 59 61 63 63 64 63 62 62 63 64 65 66 66 65 64 63 63 63 62 62 63 63 64 64 63 61 59 55 52 51 52 54
56 57 58 56 55 56 53 52 52 53 53 54 55 56 56 56 56 56 55 55 56 57 57 56 57 59 60 59 56 57 56 57 56 58 60 61 62 61 61 62 62 64 66 65 63 62 61 61 60 60 60 61 62 62 62 62 61 58 57 55 51 51 52
55 53 52 53 53 55 57 56 56 56 56 57 57 56 56 56 57 57 56 55 56 59 59 57 58 60 60 60 58 56 57 56 56 54 55 57 57 59 59 61 62 63 64 64 63 61 60 60 61 60 60 59 60 60 60 59 59 60 57 57 53 51 51
53 52 52 53 54 56 56 55 55 56 56 56 57 57 57 57 56 57 56 57 60 59 59 60 61 59 57 57 58 59 57 56 57 57 58 57 58 59 60 59 59 59 60 63 63 61 60 60 59 59 59 59 58 58 56 58 58 56 58 57 56 54 52
53 53 53 53 54 55 55 55 55 55 55 56 56 57 57 56 56 56 55 58 60 57 58 59 59 59 58 58 57 55 57 57 55 54 54 57 57 58 58 58 59 58 58 60 61 61 62 61 60 59 59 59 59 58 57 57 56 55 55 55 55 53 54
53 53 52 53 55 55 54 55 55 55 55 55 55 55 56 56 56 57 58 58 58 58 59 60 60 60 55 54 56 56 56 55 54 52 53 52 52 51 53 53 53 55 58 58 58 60 62 64 61 60 60 59 57 57 57 55 54 54 53 51 51 51 50
53 52 53 54 54 54 54 54 54 55 55 54 54 56 56 56 56 56 55 56 56 57 59 60 57 55 53 53 56 58 58 60 60 55 51 52 52 51 49 49 51 52 53 53 54 57 59 62 62 61 60 58 57 56 56 56 55 53 50 51 49 48 47
53 53 53 53 53 54 53 54 54 54 55 54 53 54 55 55 55 55 55 56 56 57 59 60 60 58 52 54 55 56 57 53 54 52 51 50 51 51 51 52 53 52 52 53 52 53 54 57 58 59 58 57 57 56 55 57 54 53 49 52 46 48 47
53 53 53 53 54 54 55 55 54 54 54 52 53 54 55 54 54 55 56 56 56 57 59 58 55 53 53 53 54 55 55 52 49 50 52 50 49 49 50 51 47 48 51 50 52 48 44 46 54 55 55 53 53 54 55 55 53 47 43 42 41 41 42
53 53 53 55 55 54 54 54 55 54 53 53 55 55 55 53 53 53 54 54 55 56 56 56 55 53 53 56 54 55 55 54 51 50 49 48 48 48 51 47 49 43 43 48 49 44 40 41 42 45 49 56 51 52 48 47 44 42 42 41 40 40 40
53 53 55 55 54 55 55 54 54 54 54 53 54 54 54 54 53 52 54 54 54 55 55 55 55 51 51 53 54 58 57 52 55 55 52 50 49 49 50 48 47 48 46 41 43 43 39 39 39 39 41 43 47 54 51 49 45 42 41 40 40 40 39

ECMWFFLT1_sfc_dewp_114.txt.gz
Dewpoint
56 52 54 58 59 60 60 61 62 62 62 63 64 65 66 67 68 69 69 70 70 71 72 72 72 72 72 72 72 72 72 72 72 72 73 72 72 72 72 72 72 73 73 73 73 74 75 76 76 75 76 76 76 75 75 77 77 78 77 78 77 77 76
59 53 53 56 59 60 60 61 62 62 63 63 64 65 66 67 68 68 69 70 70 70 72 72 72 72 72 72 73 73 72 72 74 74 73 73 74 73 73 73 73 73 73 74 74 74 75 74 76 75 75 76 76 76 76 77 77 77 77 77 76 75 77
60 56 53 55 58 60 60 61 62 62 63 63 64 65 65 67 68 68 69 69 70 70 72 72 72 72 72 72 73 73 72 72 74 74 73 72 73 73 74 73 73 73 73 74 74 74 75 74 75 75 75 75 75 76 76 77 77 76 76 76 76 76 75
61 58 54 54 57 60 60 61 62 62 63 63 64 64 65 67 68 68 69 69 69 70 71 72 72 72 72 72 72 73 73 73 73 73 73 73 73 74 74 74 74 74 74 74 74 74 73 74 74 75 77 75 75 75 76 76 76 76 76 76 76 75 75
60 60 56 55 56 59 60 61 62 62 63 63 64 65 65 66 68 68 69 69 69 69 70 71 72 72 73 73 72 73 73 72 73 74 74 74 74 75 75 74 74 74 74 74 75 75 75 74 74 74 75 76 75 75 76 76 76 76 76 76 75 75 75
60 61 59 56 55 57 59 60 61 62 63 63 64 64 65 66 67 68 69 69 69 70 70 71 72 73 73 73 73 73 73 73 73 74 74 74 74 74 74 74 74 74 74 74 75 75 74 74 74 74 74 74 75 75 75 75 75 76 76 76 76 75 75
60 60 60 58 56 56 58 60 61 62 63 63 64 65 65 66 66 67 68 69 70 70 70 70 71 72 73 73 73 73 73 73 73 73 74 73 73 74 74 74 75 73 74 75 74 74 74 74 74 74 74 74 75 75 75 76 76 76 76 76 75 75 75
60 60 61 59 56 56 57 59 61 62 63 63 64 64 65 66 67 67 68 68 69 69 70 70 71 72 73 73 73 73 73 73 73 73 74 73 73 73 73 73 74 74 74 73 74 74 73 74 73 74 74 73 74 75 75 76 76 75 75 75 75 75 74
60 60 61 61 58 57 57 58 60 61 63 63 64 64 65 66 67 67 68 69 69 70 70 71 71 72 73 73 73 73 73 73 73 73 73 73 73 72 72 72 73 74 73 73 73 73 73 73 73 74 74 74 74 74 74 75 75 75 75 75 75 75 74
63 62 62 63 61 60 59 59 60 62 63 63 64 64 65 67 68 68 69 69 70 70 70 71 71 72 72 73 73 73 73 73 73 73 73 73 73 72 72 72 72 73 72 72 72 72 73 73 72 73 74 74 74 74 74 74 74 74 75 75 75 75 75
64 64 64 64 63 63 63 62 62 63 63 63 64 64 66 67 68 68 69 70 69 70 71 71 72 72 72 72 73 73 73 73 73 73 73 73 73 72 72 72 72 72 72 72 71 72 72 73 73 73 73 72 73 74 74 74 74 74 74 74 75 75 74
65 64 64 64 64 64 63 63 63 64 64 65 65 66 67 68 68 69 69 70 70 70 71 72 72 72 72 72 72 73 73 73 72 73 73 73 73 73 72 72 71 71 71 72 71 72 71 72 72 72 72 72 73 73 73 74 74 74 74 73 74 74 74
65 65 65 65 65 64 64 64 63 64 65 65 66 67 67 68 69 69 70 70 71 71 72 72 72 72 72 72 72 72 72 72 72 72 73 73 73 73 73 72 71 70 70 71 71 71 70 70 72 73 72 72 72 71 72 73 72 73 74 74 74 74 74
66 65 65 65 65 65 64 64 65 66 66 66 67 67 68 68 69 69 69 70 70 71 72 72 72 72 72 72 71 71 72 72 72 73 73 73 73 73 73 72 71 71 71 71 70 70 69 69 69 70 72 72 72 72 72 72 72 73 73 73 73 73 74
64 65 65 65 65 65 65 65 65 66 67 67 67 67 68 68 69 70 70 70 71 71 71 72 72 72 72 72 71 71 72 72 72 72 72 73 73 72 72 72 71 71 71 71 70 69 69 69 69 69 70 71 71 72 72 71 72 72 73 73 73 73 73
64 65 65 65 65 65 65 66 66 67 67 67 67 68 68 68 69 69 70 70 71 71 72 72 72 71 71 71 72 72 72 71 72 72 72 72 72 72 72 71 71 71 70 70 70 70 70 70 69 68 68 69 70 71 71 71 72 73 74 74 73 73 73
64 65 65 65 65 65 66 66 67 67 67 67 67 68 68 68 69 69 70 70 71 71 71 72 71 71 71 71 71 71 71 71 71 71 71 71 71 72 72 72 71 71 71 72 72 73 73 72 70 69 68 68 68 69 69 70 70 71 69 70 73 74 74
65 65 66 66 66 66 66 66 66 67 67 67 68 68 68 68 69 69 69 70 70 71 71 71 70 70 70 70 70 70 70 71 70 70 70 71 71 71 72 72 72 71 71 72 72 73 73 71 70 71 70 69 68 68 69 70 66 65 65 67 67 71 74
65 66 66 66 66 66 66 66 67 67 67 67 67 68 68 69 69 68 69 69 70 70 69 70 70 69 68 69 70 70 70 70 70 70 70 71 71 71 72 73 73 72 72 72 73 73 72 71 70 71 71 71 71 70 70 67 63 62 63 64 64 65 71
64 64 65 65 66 65 65 66 66 67 67 67 68 68 68 69 69 69 69 69 69 69 68 68 68 68 68 69 69 69 69 69 70 70 70 70 71 71 71 72 72 72 71 70 68 69 69 70 70 71 71 70 70 69 68 66 61 60 61 61 62 64 67
63 62 62 62 63 63 64 64 65 65 66 67 68 68 68 68 68 68 68 68 68 68 68 68 68 68 68 69 69 69 69 69 70 70 70 70 70 71 70 70 70 69 69 69 69 69 69 69 70 71 71 70 69 69 65 62 59 59 59 59 60 62 68
62 62 61 62 62 63 63 63 64 64 64 67 68 68 68 68 68 68 68 68 67 67 67 67 67 67 67 67 68 68 68 69 69 69 69 69 69 69 68 67 68 68 69 69 69 70 70 70 70 70 70 70 69 69 67 63 58 58 58 59 59 64 67
62 62 62 62 62 62 63 63 63 63 64 64 64 65 65 66 67 66 66 66 66 66 65 65 65 65 66 66 67 67 67 67 67 68 68 68 68 68 68 68 68 68 69 68 68 69 69 70 70 70 70 70 70 69 67 63 58 56 56 57 59 65 66
62 62 62 62 62 62 63 63 64 64 63 63 63 64 64 65 64 64 64 64 64 64 64 64 64 64 65 65 65 66 67 67 67 67 67 67 67 67 67 68 68 68 69 67 67 68 69 69 70 71 70 71 69 68 65 63 59 54 54 55 57 64 67
61 61 61 61 60 60 61 62 62 62 62 62 61 62 64 64 63 63 62 63 63 63 63 63 63 63 64 64 64 65 65 66 66 67 67 67 67 68 68 68 68 68 68 68 68 67 68 70 70 68 66 67 67 67 63 62 60 54 53 54 55 62 66
60 60 60 61 61 61 61 61 60 60 60 60 60 61 61 62 62 62 61 61 62 61 61 61 62 63 63 63 63 64 65 66 66 66 67 67 67 67 67 67 67 67 67 67 67 67 66 65 64 63 63 63 63 62 61 60 59 57 52 52 54 57 65
60 60 59 59 59 60 59 59 58 57 58 58 59 59 61 61 60 60 60 60 59 59 60 60 61 60 60 60 61 62 63 64 64 65 65 66 65 65 66 66 67 66 66 66 66 65 64 63 63 62 63 64 63 63 62 60 58 58 52 51 51 54 60
59 59 59 60 58 56 55 55 55 55 55 56 56 56 56 57 58 58 58 57 57 58 60 60 60 58 57 57 56 57 58 60 62 63 63 64 63 63 64 65 66 66 66 65 64 63 63 63 63 63 63 63 63 62 62 61 58 59 55 51 50 50 53
56 57 57 57 56 57 55 55 55 56 56 56 56 56 55 54 55 56 56 56 58 59 60 60 59 58 57 56 56 57 56 57 58 59 61 62 63 63 63 64 65 65 65 63 62 61 61 61 61 61 61 60 60 60 60 60 61 59 59 55 50 50 51
54 54 54 54 55 56 57 57 56 56 56 56 57 57 57 57 57 58 58 57 58 59 60 60 58 57 56 57 56 56 58 58 58 59 59 60 61 62 61 63 64 65 65 63 62 60 60 60 61 61 60 59 59 58 59 59 59 58 57 58 54 51 50
53 54 55 56 56 57 56 55 55 55 56 56 56 57 57 57 57 57 57 58 60 60 59 59 58 56 56 57 57 57 57 57 57 58 58 58 59 60 61 61 62 62 62 63 61 61 60 60 60 60 60 60 57 56 57 57 59 58 57 55 55 53 51
54 55 55 56 56 57 56 55 55 55 55 55 55 56 58 56 56 57 58 59 60 59 60 58 57 56 55 56 56 56 55 53 53 53 53 54 54 56 57 58 61 61 61 62 62 62 61 61 60 59 60 59 59 58 58 58 57 56 55 55 54 53 52
53 54 55 55 57 57 55 55 55 55 55 55 55 56 57 57 57 57 58 58 58 59 60 58 57 58 56 57 57 56 55 54 53 53 54 52 51 51 53 55 55 57 58 58 59 62 64 62 61 61 62 60 59 59 59 57 56 55 54 53 52 51 51
53 54 54 55 56 56 55 55 54 55 55 55 55 56 56 56 55 56 56 57 58 59 61 61 59 55 55 57 59 60 60 60 60 55 52 52 50 49 49 51 52 52 54 53 53 57 60 61 63 62 61 60 59 59 59 59 57 54 51 51 50 49 48
53 53 53 54 55 55 54 55 55 55 55 55 55 55 55 55 55 55 56 57 58 58 59 60 60 58 54 55 55 57 58 54 54 53 52 51 51 51 51 51 52 53 53 53 52 53 54 58 59 59 58 59 58 58 58 58 56 55 50 52 46 49 48
53 53 54 55 55 55 56 56 55 55 55 54 55 55 55 55 55 55 55 56 56 56 57 58 58 55 56 55 54 53 53 54 52 53 53 51 50 50 51 51 46 49 51 51 51 46 43 47 55 55 55 54 54 56 58 57 56 48 43 41 41 41 42
53 53 54 55 54 54 55 56 56 55 55 56 57 56 55 55 54 54 55 55 56 55 55 56 56 55 55 58 58 58 57 54 51 52 51 50 51 52 52 49 50 42 43 50 49 43 39 39 40 44 48 56 53 52 49 48 44 41 40 40 40 40 40
54 54 55 55 55 55 55 55 55 55 55 56 56 55 54 54 54 54 55 55 55 55 56 56 55 54 55 55 57 62 60 55 57 56 53 52 53 54 54 51 52 51 46 41 44 43 40 39 38 39 41 42 47 54 51 49 43 39 38 38 39 39 38

ECMWFFLT1_sfc_dewp_117.txt.gz
Dewpoint
55 54 56 59 60 61 62 63 64 64 65 65 65 65 66 67 69 70 70 71 72 72 74 75 75 75 74 74 74 75 74 74 74 73 73 73 73 73 73 71 72 74 72 71 72 73 74 76 76 76 76 77 76 76 77 77 77 75 77 78 77 77 76
55 53 55 58 60 61 62 63 64 64 65 65 65 67 67 67 69 70 70 72 72 72 73 74 75 74 74 74 74 75 75 74 75 75 74 75 76 75 74 74 73 74 75 74 74 75 76 75 76 76 76 76 76 77 76 76 76 76 75 77 76 76 76
56 55 56 58 60 61 63 64 64 64 65 65 65 66 67 69 70 71 71 71 72 72 73 73 74 74 74 75 74 74 74 73 74 73 73 71 72 70 73 74 74 73 72 74 76 74 75 75 77 77 76 75 74 76 77 76 77 76 76 77 76 75 76
60 57 58 60 62 63 63 64 64 65 65 66 65 65 67 70 70 71 71 71 71 72 73 72 73 72 73 74 74 74 74 74 73 71 71 71 71 71 73 74 75 74 74 74 73 74 72 75 75 77 77 76 76 75 75 75 75 76 76 77 76 75 76
61 58 57 59 61 63 63 64 64 65 65 66 67 67 68 69 70 70 70 70 71 71 71 71 71 71 73 73 72 72 73 73 73 73 72 72 73 73 73 71 72 73 73 73 75 76 76 76 74 75 75 77 75 76 76 76 75 77 77 77 76 75 74
61 61 59 59 61 63 63 62 64 65 66 66 67 67 68 69 68 68 69 70 71 71 72 72 71 72 72 72 72 71 73 74 75 75 74 74 74 72 72 73 72 73 71 73 73 73 75 74 73 73 73 72 72 72 73 74 74 74 76 76 76 74 73
62 63 60 60 61 62 63 63 62 64 66 66 67 67 67 68 68 68 68 69 71 71 70 70 71 73 73 72 73 73 73 72 74 73 73 73 73 73 73 73 74 72 72 74 73 74 73 74 75 75 74 73 74 72 74 76 75 75 76 77 77 76 76
60 63 63 60 59 60 62 64 64 64 66 65 65 67 68 68 68 69 69 68 69 68 70 70 72 74 74 74 74 73 73 73 73 73 74 72 72 73 72 73 74 74 74 73 74 75 73 75 73 74 74 74 74 75 74 76 77 74 75 75 75 75 73
62 63 64 62 60 60 62 64 65 65 66 65 66 66 67 67 68 69 70 71 71 70 71 71 72 75 75 75 75 74 74 74 74 73 73 72 71 71 70 71 72 74 73 72 72 74 74 73 73 75 76 75 75 76 75 76 75 75 75 75 75 75 74
63 64 65 64 62 62 64 64 66 67 66 67 67 68 67 68 69 70 71 72 72 72 73 73 74 75 75 75 74 74 75 74 74 72 72 71 71 71 70 70 71 73 72 72 71 71 74 74 73 75 77 75 76 76 76 75 75 74 74 75 75 75 75
64 65 65 65 64 62 63 64 66 67 68 68 68 68 68 69 70 70 71 72 71 72 73 73 74 74 75 75 74 75 74 74 74 73 74 74 73 71 70 70 70 72 72 71 71 71 72 74 75 75 76 73 74 75 76 75 75 75 73 74 74 75 74
66 66 65 66 66 64 63 64 66 67 68 68 69 69 69 69 69 70 71 71 72 72 74 74 74 74 74 75 74 74 74 73 73 73 74 75 74 74 71 70 71 71 71 71 71 72 71 72 73 73 75 75 74 74 75 75 75 76 75 73 73 74 74
67 66 66 67 67 66 66 65 64 66 68 68 69 69 69 70 70 71 72 72 72 72 73 74 74 74 74 74 74 74 74 73 73 73 73 75 75 75 74 72 71 70 70 71 71 71 70 70 72 74 74 75 74 73 74 75 74 76 76 74 74 74 74
66 67 67 67 67 66 65 65 66 66 67 68 69 70 69 70 70 71 72 71 72 73 73 72 73 74 74 74 74 74 74 74 74 75 75 76 76 76 75 73 71 71 71 72 71 70 70 70 70 71 72 72 73 73 74 74 74 75 75 75 74 73 73
65 65 66 66 67 67 67 66 67 67 67 68 69 69 70 70 71 72 72 73 73 73 73 74 74 74 73 74 74 75 75 76 76 76 76 77 76 76 76 76 74 73 73 73 72 69 70 70 69 70 71 71 72 73 72 71 72 72 73 74 74 74 72
65 65 66 66 66 66 67 67 67 68 69 69 69 69 70 71 71 72 72 72 73 73 74 75 75 75 74 75 75 75 76 76 76 76 76 76 76 76 76 75 75 73 74 73 73 73 74 73 72 71 70 69 71 71 70 69 70 74 76 75 73 73 72
64 65 65 66 66 67 68 68 68 69 69 69 69 70 70 71 72 72 72 73 74 74 75 74 74 74 75 75 75 76 76 76 76 76 76 76 76 76 76 76 75 75 75 75 74 74 75 74 72 71 69 68 68 68 68 68 69 67 67 68 71 73 73
64 65 66 66 66 67 68 68 68 69 69 70 70 70 71 71 71 72 72 73 73 74 75 74 74 74 74 75 74 74 74 74 74 75 75 76 76 76 76 75 75 75 75 74 74 75 73 72 72 72 70 69 69 68 68 68 64 63 64 65 66 69 73
66 66 67 67 67 67 67 68 68 69 69 69 70 70 71 71 71 71 72 72 74 74 74 74 74 73 73 72 71 71 71 72 73 74 74 75 75 75 75 75 75 74 74 72 73 73 73 73 73 72 72 71 72 71 70 67 62 62 63 63 64 65 70
65 65 66 67 67 67 67 68 69 69 69 69 69 70 70 71 71 72 73 72 73 73 73 73 72 72 71 71 70 70 70 71 71 70 71 72 71 71 73 73 73 73 73 73 73 73 71 71 74 74 74 73 73 73 69 66 61 60 61 61 62 64 68
63 64 64 64 65 65 66 67 67 68 68 69 70 70 70 70 71 71 71 71 71 72 72 72 71 71 71 71 69 69 70 69 70 69 70 70 70 71 70 70 71 71 71 72 73 74 74 75 74 75 74 73 72 71 66 62 58 59 60 60 61 64 70
62 62 62 63 63 63 64 64 64 65 66 67 68 69 69 69 70 70 70 71 70 70 70 70 70 70 70 69 69 69 70 70 69 70 70 69 69 69 68 69 70 69 70 71 72 72 72 72 73 73 74 73 73 72 69 63 56 57 57 58 60 64 70
62 62 62 62 63 63 64 64 64 64 65 65 65 66 67 68 69 69 69 69 69 70 70 69 68 68 69 68 69 69 69 69 69 69 69 69 68 68 68 69 69 70 70 70 70 71 72 72 72 73 72 72 72 71 70 66 58 55 55 56 58 66 70
61 61 61 61 62 62 63 64 64 64 64 64 64 64 65 66 66 66 66 66 67 67 66 66 67 68 67 67 68 68 69 69 69 69 69 68 68 69 69 69 69 70 70 71 70 70 70 71 72 71 71 71 70 70 67 64 58 54 54 55 56 63 69
60 61 61 61 61 62 62 62 63 63 63 62 62 63 65 65 65 65 63 64 64 64 63 63 64 64 65 66 67 68 69 68 68 68 68 68 69 69 68 68 69 69 70 70 69 68 69 70 69 67 68 67 67 66 65 64 60 54 53 53 54 62 68
60 60 60 60 60 61 61 62 62 62 62 62 62 63 63 63 63 62 62 62 62 62 61 61 62 63 64 65 66 66 67 68 68 68 67 68 68 68 68 69 69 69 69 68 68 67 67 67 66 65 65 64 64 64 63 62 60 57 52 51 52 55 65
59 59 58 58 58 60 59 60 60 60 61 61 62 62 62 62 62 61 61 60 60 59 60 60 61 60 60 61 62 64 64 65 66 66 66 67 68 68 68 68 68 68 68 67 67 66 65 65 65 64 63 64 64 63 60 58 58 59 51 50 50 52 58
56 56 57 59 59 59 59 59 59 59 60 59 58 59 60 60 60 60 60 59 59 59 60 59 59 60 60 60 61 62 63 64 64 65 66 66 67 67 67 67 67 67 67 67 66 65 64 64 64 63 63 63 63 62 62 62 61 62 55 51 50 50 52
54 55 57 58 57 58 57 58 58 58 59 60 60 59 59 59 60 59 59 58 59 60 60 60 60 59 59 59 60 61 61 62 63 64 65 66 66 66 66 66 66 65 66 65 64 63 63 63 63 62 62 62 61 61 60 61 60 58 59 55 51 50 51
55 55 55 54 55 55 56 56 57 57 58 59 60 61 61 59 59 60 59 59 59 59 59 59 60 60 60 61 61 62 63 62 62 63 63 64 65 65 65 65 65 65 64 64 63 63 62 62 62 62 61 59 59 60 61 61 61 59 56 57 54 51 50
55 55 54 54 54 56 55 54 55 55 56 56 57 58 59 58 58 58 58 60 60 59 59 60 60 60 59 58 59 58 58 58 58 58 58 60 63 65 65 64 64 63 64 64 63 63 62 62 62 62 60 60 58 58 60 60 61 59 58 56 55 53 50
56 56 55 55 55 55 54 54 55 55 55 56 56 57 59 58 58 59 60 61 60 59 59 59 60 60 59 59 58 57 55 54 53 54 56 58 59 61 62 64 65 64 63 62 62 62 62 61 61 60 61 62 61 61 60 61 61 59 57 56 55 55 53
57 58 58 57 57 57 56 55 54 54 54 55 56 55 56 58 58 61 62 61 59 59 61 61 61 61 60 60 60 60 60 58 54 53 53 53 52 53 56 58 60 62 63 62 61 61 62 62 62 62 62 62 62 62 62 62 60 58 57 55 52 50 53
58 58 58 59 59 59 57 56 55 55 56 57 57 57 57 58 58 60 61 61 59 59 60 60 60 59 59 58 58 58 57 55 56 53 49 50 50 48 47 49 51 52 55 56 57 60 61 62 63 63 63 63 63 62 62 60 58 57 52 51 50 51 51
59 59 58 58 58 59 58 57 56 56 56 56 57 57 58 59 59 59 59 59 60 61 60 59 59 57 53 53 54 55 57 53 54 52 51 51 51 51 53 52 50 53 54 55 55 56 57 60 61 61 60 60 60 59 57 56 54 54 49 54 46 49 50
57 57 58 58 58 58 58 59 58 58 58 58 58 58 58 58 58 57 55 56 56 58 59 59 56 55 54 53 51 51 52 52 50 52 52 48 50 52 51 50 45 50 53 53 52 47 43 44 56 55 55 54 55 58 56 52 55 46 42 40 40 41 42
55 55 56 57 57 58 58 59 59 58 58 58 58 56 56 57 57 57 55 59 59 57 59 58 57 55 54 57 55 54 55 54 54 55 56 55 54 54 54 51 52 41 44 51 50 44 39 38 40 44 47 58 51 52 49 49 45 39 38 38 39 39 38
55 55 55 56 58 58 58 58 59 59 59 59 57 56 56 54 56 57 53 58 59 59 59 58 57 56 54 53 55 59 59 56 58 58 57 57 57 58 57 56 57 55 42 41 45 42 40 40 39 39 41 42 47 57 56 51 45 40 38 39 40 40 40